<?xml version="1.0" encoding="utf-8"?>
<gpx xmlns:xsi="http://www.w3.org/2001/XMLSchema-instance" xmlns:xsd="http://www.w3.org/2001/XMLSchema" version="1.1" creator="Shapelink.com" xmlns="http://www.topografix.com/GPX/1/1" xmlns:gpxtpx="http://www.garmin.com/xmlschemas/TrackPointExtension/v1">
  <metadata>
    <name>Löpning 10.68 km, 2018-01-14</name>
    <desc></desc>
    <author><name>Bengt-Åke Forslund</name></author> 
    <time>2018-01-14T12:14:20Z</time>
  </metadata>
  <trk>
    <name>Löpning 10.68 km, 2018-01-14</name>
    <trkseg>
      <trkpt lat="62.641666885301" lon="17.899184178454">
        <ele>47.4</ele>
        <time>2018-01-14T12:14:20Z</time>
      </trkpt>
      <trkpt lat="62.641714159217" lon="17.898859882743">
        <ele>46.6</ele>
        <time>2018-01-14T12:14:33Z</time>
      </trkpt>
      <trkpt lat="62.641720948556" lon="17.898807998782">
        <ele>46.6</ele>
        <time>2018-01-14T12:14:34Z</time>
      </trkpt>
      <trkpt lat="62.641726396791" lon="17.898750163672">
        <ele>46.6</ele>
        <time>2018-01-14T12:14:35Z</time>
      </trkpt>
      <trkpt lat="62.641730503922" lon="17.898687886155">
        <ele>46.2</ele>
        <time>2018-01-14T12:14:36Z</time>
      </trkpt>
      <trkpt lat="62.641733856682" lon="17.898633571443">
        <ele>46.2</ele>
        <time>2018-01-14T12:14:37Z</time>
      </trkpt>
      <trkpt lat="62.64173821527" lon="17.898568108804">
        <ele>45.8</ele>
        <time>2018-01-14T12:14:38Z</time>
      </trkpt>
      <trkpt lat="62.641742322401" lon="17.898510525151">
        <ele>45.8</ele>
        <time>2018-01-14T12:14:39Z</time>
      </trkpt>
      <trkpt lat="62.641748944102" lon="17.898429723635">
        <ele>45.8</ele>
        <time>2018-01-14T12:14:40Z</time>
      </trkpt>
      <trkpt lat="62.641755649622" lon="17.898359902408">
        <ele>45.6</ele>
        <time>2018-01-14T12:14:41Z</time>
      </trkpt>
      <trkpt lat="62.641762606599" lon="17.898288991534">
        <ele>45.6</ele>
        <time>2018-01-14T12:14:42Z</time>
      </trkpt>
      <trkpt lat="62.641769982671" lon="17.898218835031">
        <ele>45.4</ele>
        <time>2018-01-14T12:14:43Z</time>
      </trkpt>
      <trkpt lat="62.641778532209" lon="17.898133674927">
        <ele>45.6</ele>
        <time>2018-01-14T12:14:44Z</time>
      </trkpt>
      <trkpt lat="62.641782555521" lon="17.898048933918">
        <ele>45.2</ele>
        <time>2018-01-14T12:14:45Z</time>
      </trkpt>
      <trkpt lat="62.641785489186" lon="17.89795907995">
        <ele>45.2</ele>
        <time>2018-01-14T12:14:46Z</time>
      </trkpt>
      <trkpt lat="62.641787500842" lon="17.897871656733">
        <ele>45</ele>
        <time>2018-01-14T12:14:47Z</time>
      </trkpt>
      <trkpt lat="62.64178683029" lon="17.897790268484">
        <ele>45</ele>
        <time>2018-01-14T12:14:48Z</time>
      </trkpt>
      <trkpt lat="62.64177928658" lon="17.89770510838">
        <ele>44.8</ele>
        <time>2018-01-14T12:14:49Z</time>
      </trkpt>
      <trkpt lat="62.641761600771" lon="17.897644423424">
        <ele>44.8</ele>
        <time>2018-01-14T12:14:50Z</time>
      </trkpt>
      <trkpt lat="62.641741484211" lon="17.897610644367">
        <ele>44.4</ele>
        <time>2018-01-14T12:14:51Z</time>
      </trkpt>
      <trkpt lat="62.641722122022" lon="17.897609722358">
        <ele>44.4</ele>
        <time>2018-01-14T12:14:52Z</time>
      </trkpt>
      <trkpt lat="62.641703346566" lon="17.897623552493">
        <ele>44.2</ele>
        <time>2018-01-14T12:14:53Z</time>
      </trkpt>
      <trkpt lat="62.641680212522" lon="17.89764224413">
        <ele>44.2</ele>
        <time>2018-01-14T12:14:54Z</time>
      </trkpt>
      <trkpt lat="62.641651797881" lon="17.897667222192">
        <ele>44.2</ele>
        <time>2018-01-14T12:14:55Z</time>
      </trkpt>
      <trkpt lat="62.641628831475" lon="17.897698235222">
        <ele>44.2</ele>
        <time>2018-01-14T12:14:56Z</time>
      </trkpt>
      <trkpt lat="62.641604859241" lon="17.89773025408">
        <ele>44</ele>
        <time>2018-01-14T12:14:57Z</time>
      </trkpt>
      <trkpt lat="62.641579378265" lon="17.897765541879">
        <ele>44</ele>
        <time>2018-01-14T12:14:58Z</time>
      </trkpt>
      <trkpt lat="62.64155800442" lon="17.897799572393">
        <ele>44</ele>
        <time>2018-01-14T12:14:59Z</time>
      </trkpt>
      <trkpt lat="62.641533529272" lon="17.897830920699">
        <ele>43.8</ele>
        <time>2018-01-14T12:15:00Z</time>
      </trkpt>
      <trkpt lat="62.641510898142" lon="17.897859083883">
        <ele>44</ele>
        <time>2018-01-14T12:15:01Z</time>
      </trkpt>
      <trkpt lat="62.64149514017" lon="17.897884145764">
        <ele>44.4</ele>
        <time>2018-01-14T12:15:02Z</time>
      </trkpt>
      <trkpt lat="62.641477370542" lon="17.897906022523">
        <ele>44.4</ele>
        <time>2018-01-14T12:15:03Z</time>
      </trkpt>
      <trkpt lat="62.641457756896" lon="17.897930749128">
        <ele>44.6</ele>
        <time>2018-01-14T12:15:04Z</time>
      </trkpt>
      <trkpt lat="62.641443675304" lon="17.89795405081">
        <ele>44.8</ele>
        <time>2018-01-14T12:15:05Z</time>
      </trkpt>
      <trkpt lat="62.641426157133" lon="17.897973748275">
        <ele>45</ele>
        <time>2018-01-14T12:15:06Z</time>
      </trkpt>
      <trkpt lat="62.641407297858" lon="17.897989170971">
        <ele>45</ele>
        <time>2018-01-14T12:15:07Z</time>
      </trkpt>
      <trkpt lat="62.641389276773" lon="17.898004006934">
        <ele>45</ele>
        <time>2018-01-14T12:15:08Z</time>
      </trkpt>
      <trkpt lat="62.641373937896" lon="17.898014484309">
        <ele>45.2</ele>
        <time>2018-01-14T12:15:09Z</time>
      </trkpt>
      <trkpt lat="62.641355078621" lon="17.898018675259">
        <ele>45.4</ele>
        <time>2018-01-14T12:15:10Z</time>
      </trkpt>
      <trkpt lat="62.641338733916" lon="17.898023033847">
        <ele>45.6</ele>
        <time>2018-01-14T12:15:11Z</time>
      </trkpt>
      <trkpt lat="62.641322892125" lon="17.898039462371">
        <ele>45.6</ele>
        <time>2018-01-14T12:15:12Z</time>
      </trkpt>
      <trkpt lat="62.641302440289" lon="17.898053460144">
        <ele>45.6</ele>
        <time>2018-01-14T12:15:13Z</time>
      </trkpt>
      <trkpt lat="62.641276540218" lon="17.898064775709">
        <ele>46</ele>
        <time>2018-01-14T12:15:14Z</time>
      </trkpt>
      <trkpt lat="62.64125038869" lon="17.898080449862">
        <ele>46.6</ele>
        <time>2018-01-14T12:15:15Z</time>
      </trkpt>
      <trkpt lat="62.641226584094" lon="17.89809319035">
        <ele>46.6</ele>
        <time>2018-01-14T12:15:16Z</time>
      </trkpt>
      <trkpt lat="62.641208143914" lon="17.898100147327">
        <ele>46.8</ele>
        <time>2018-01-14T12:15:17Z</time>
      </trkpt>
      <trkpt lat="62.641184758413" lon="17.898106266114">
        <ele>47.2</ele>
        <time>2018-01-14T12:15:18Z</time>
      </trkpt>
      <trkpt lat="62.641157852514" lon="17.898107271942">
        <ele>47</ele>
        <time>2018-01-14T12:15:19Z</time>
      </trkpt>
      <trkpt lat="62.641137735954" lon="17.898104422096">
        <ele>47</ele>
        <time>2018-01-14T12:15:20Z</time>
      </trkpt>
      <trkpt lat="62.641116445928" lon="17.898095453463">
        <ele>47.2</ele>
        <time>2018-01-14T12:15:21Z</time>
      </trkpt>
      <trkpt lat="62.641094066255" lon="17.898077683835">
        <ele>47.4</ele>
        <time>2018-01-14T12:15:22Z</time>
      </trkpt>
      <trkpt lat="62.641074201152" lon="17.898055052705">
        <ele>47.4</ele>
        <time>2018-01-14T12:15:23Z</time>
      </trkpt>
      <trkpt lat="62.641059700465" lon="17.89802529696">
        <ele>47.4</ele>
        <time>2018-01-14T12:15:24Z</time>
      </trkpt>
      <trkpt lat="62.641045115959" lon="17.897993697197">
        <ele>47.6</ele>
        <time>2018-01-14T12:15:25Z</time>
      </trkpt>
      <trkpt lat="62.641032878385" lon="17.897960588692">
        <ele>47.6</ele>
        <time>2018-01-14T12:15:26Z</time>
      </trkpt>
      <trkpt lat="62.641022484829" lon="17.897931084404">
        <ele>47.6</ele>
        <time>2018-01-14T12:15:27Z</time>
      </trkpt>
      <trkpt lat="62.641013851472" lon="17.897900658107">
        <ele>47.8</ele>
        <time>2018-01-14T12:15:28Z</time>
      </trkpt>
      <trkpt lat="62.641006726857" lon="17.897862939557">
        <ele>47.8</ele>
        <time>2018-01-14T12:15:29Z</time>
      </trkpt>
      <trkpt lat="62.640998261138" lon="17.897828825224">
        <ele>47.8</ele>
        <time>2018-01-14T12:15:30Z</time>
      </trkpt>
      <trkpt lat="62.640990968885" lon="17.897795381443">
        <ele>48</ele>
        <time>2018-01-14T12:15:31Z</time>
      </trkpt>
      <trkpt lat="62.640985604469" lon="17.897762859671">
        <ele>48</ele>
        <time>2018-01-14T12:15:32Z</time>
      </trkpt>
      <trkpt lat="62.640980659148" lon="17.897731427546">
        <ele>48</ele>
        <time>2018-01-14T12:15:33Z</time>
      </trkpt>
      <trkpt lat="62.640972277248" lon="17.897691278245">
        <ele>48.2</ele>
        <time>2018-01-14T12:15:34Z</time>
      </trkpt>
      <trkpt lat="62.64096121314" lon="17.897635706248">
        <ele>48.4</ele>
        <time>2018-01-14T12:15:35Z</time>
      </trkpt>
      <trkpt lat="62.640956603095" lon="17.897621457018">
        <ele>48.8</ele>
        <time>2018-01-14T12:15:36Z</time>
      </trkpt>
      <trkpt lat="62.640947718281" lon="17.8975777035">
        <ele>49.2</ele>
        <time>2018-01-14T12:15:37Z</time>
      </trkpt>
      <trkpt lat="62.640944784616" lon="17.897535710181">
        <ele>49.4</ele>
        <time>2018-01-14T12:15:38Z</time>
      </trkpt>
      <trkpt lat="62.640938330553" lon="17.897493633043">
        <ele>49.8</ele>
        <time>2018-01-14T12:15:39Z</time>
      </trkpt>
      <trkpt lat="62.640930451567" lon="17.89745113681">
        <ele>50.2</ele>
        <time>2018-01-14T12:15:40Z</time>
      </trkpt>
      <trkpt lat="62.640923746047" lon="17.897404533446">
        <ele>50.4</ele>
        <time>2018-01-14T12:15:41Z</time>
      </trkpt>
      <trkpt lat="62.64091678907" lon="17.897366982534">
        <ele>50.6</ele>
        <time>2018-01-14T12:15:42Z</time>
      </trkpt>
      <trkpt lat="62.640910418826" lon="17.897330353631">
        <ele>50.8</ele>
        <time>2018-01-14T12:15:43Z</time>
      </trkpt>
      <trkpt lat="62.64090170165" lon="17.897293054176">
        <ele>51</ele>
        <time>2018-01-14T12:15:44Z</time>
      </trkpt>
      <trkpt lat="62.640896588691" lon="17.897263298431">
        <ele>51.2</ele>
        <time>2018-01-14T12:15:45Z</time>
      </trkpt>
      <trkpt lat="62.640885440764" lon="17.897220383103">
        <ele>51.2</ele>
        <time>2018-01-14T12:15:46Z</time>
      </trkpt>
      <trkpt lat="62.640879657253" lon="17.897177970689">
        <ele>51.4</ele>
        <time>2018-01-14T12:15:47Z</time>
      </trkpt>
      <trkpt lat="62.640873454647" lon="17.89713849194">
        <ele>51.4</ele>
        <time>2018-01-14T12:15:48Z</time>
      </trkpt>
      <trkpt lat="62.640868509326" lon="17.897094570784">
        <ele>51.6</ele>
        <time>2018-01-14T12:15:49Z</time>
      </trkpt>
      <trkpt lat="62.640860965616" lon="17.897062887202">
        <ele>52</ele>
        <time>2018-01-14T12:15:50Z</time>
      </trkpt>
      <trkpt lat="62.640853421906" lon="17.897029275783">
        <ele>52</ele>
        <time>2018-01-14T12:15:51Z</time>
      </trkpt>
      <trkpt lat="62.640846213472" lon="17.896994490898">
        <ele>52</ele>
        <time>2018-01-14T12:15:52Z</time>
      </trkpt>
      <trkpt lat="62.640838083029" lon="17.896957359081">
        <ele>52.2</ele>
        <time>2018-01-14T12:15:53Z</time>
      </trkpt>
      <trkpt lat="62.640827438016" lon="17.896921065454">
        <ele>52.4</ele>
        <time>2018-01-14T12:15:54Z</time>
      </trkpt>
      <trkpt lat="62.64081536808" lon="17.896881251429">
        <ele>52.6</ele>
        <time>2018-01-14T12:15:55Z</time>
      </trkpt>
      <trkpt lat="62.640805477438" lon="17.896844790164">
        <ele>52.6</ele>
        <time>2018-01-14T12:15:56Z</time>
      </trkpt>
      <trkpt lat="62.640798939556" lon="17.89681662698">
        <ele>52.8</ele>
        <time>2018-01-14T12:15:57Z</time>
      </trkpt>
      <trkpt lat="62.640788378362" lon="17.896785278674">
        <ele>53</ele>
        <time>2018-01-14T12:15:58Z</time>
      </trkpt>
      <trkpt lat="62.640781253747" lon="17.89675208635">
        <ele>53.2</ele>
        <time>2018-01-14T12:15:59Z</time>
      </trkpt>
      <trkpt lat="62.640777733349" lon="17.89671269142">
        <ele>53.4</ele>
        <time>2018-01-14T12:16:00Z</time>
      </trkpt>
      <trkpt lat="62.640768010345" lon="17.89668419296">
        <ele>53.6</ele>
        <time>2018-01-14T12:16:01Z</time>
      </trkpt>
      <trkpt lat="62.64075753297" lon="17.896662819115">
        <ele>53.8</ele>
        <time>2018-01-14T12:16:02Z</time>
      </trkpt>
      <trkpt lat="62.640753425839" lon="17.896640104166">
        <ele>54.2</ele>
        <time>2018-01-14T12:16:03Z</time>
      </trkpt>
      <trkpt lat="62.640739260428" lon="17.896615293742">
        <ele>54.4</ele>
        <time>2018-01-14T12:16:04Z</time>
      </trkpt>
      <trkpt lat="62.640727274311" lon="17.896587549653">
        <ele>54.6</ele>
        <time>2018-01-14T12:16:05Z</time>
      </trkpt>
      <trkpt lat="62.640717216031" lon="17.896569025654">
        <ele>55.2</ele>
        <time>2018-01-14T12:16:06Z</time>
      </trkpt>
      <trkpt lat="62.640699614041" lon="17.896522841385">
        <ele>55.4</ele>
        <time>2018-01-14T12:16:07Z</time>
      </trkpt>
      <trkpt lat="62.640677821101" lon="17.896496019305">
        <ele>55.6</ele>
        <time>2018-01-14T12:16:08Z</time>
      </trkpt>
      <trkpt lat="62.640668601011" lon="17.896473388175">
        <ele>55.8</ele>
        <time>2018-01-14T12:16:09Z</time>
      </trkpt>
      <trkpt lat="62.640653513591" lon="17.896419911653">
        <ele>56</ele>
        <time>2018-01-14T12:16:10Z</time>
      </trkpt>
      <trkpt lat="62.640640270189" lon="17.896366770407">
        <ele>56.2</ele>
        <time>2018-01-14T12:16:11Z</time>
      </trkpt>
      <trkpt lat="62.640632475022" lon="17.896316143731">
        <ele>56.4</ele>
        <time>2018-01-14T12:16:12Z</time>
      </trkpt>
      <trkpt lat="62.640620321267" lon="17.896275323878">
        <ele>56.4</ele>
        <time>2018-01-14T12:16:13Z</time>
      </trkpt>
      <trkpt lat="62.640612693738" lon="17.896237605328">
        <ele>56.6</ele>
        <time>2018-01-14T12:16:14Z</time>
      </trkpt>
      <trkpt lat="62.640607077865" lon="17.896189241765">
        <ele>56.8</ele>
        <time>2018-01-14T12:16:15Z</time>
      </trkpt>
      <trkpt lat="62.640598109232" lon="17.896145655885">
        <ele>57</ele>
        <time>2018-01-14T12:16:16Z</time>
      </trkpt>
      <trkpt lat="62.640590397884" lon="17.896096454132">
        <ele>57.2</ele>
        <time>2018-01-14T12:16:17Z</time>
      </trkpt>
      <trkpt lat="62.640587464219" lon="17.896063429446">
        <ele>57.2</ele>
        <time>2018-01-14T12:16:18Z</time>
      </trkpt>
      <trkpt lat="62.640586123115" lon="17.896023783059">
        <ele>57.4</ele>
        <time>2018-01-14T12:16:19Z</time>
      </trkpt>
      <trkpt lat="62.640581764527" lon="17.895975419496">
        <ele>57.6</ele>
        <time>2018-01-14T12:16:20Z</time>
      </trkpt>
      <trkpt lat="62.640579669052" lon="17.895937030394">
        <ele>57.8</ele>
        <time>2018-01-14T12:16:21Z</time>
      </trkpt>
      <trkpt lat="62.640581596889" lon="17.895887158089">
        <ele>57.8</ele>
        <time>2018-01-14T12:16:22Z</time>
      </trkpt>
      <trkpt lat="62.640578579405" lon="17.895845332408">
        <ele>57.8</ele>
        <time>2018-01-14T12:16:23Z</time>
      </trkpt>
      <trkpt lat="62.640573382627" lon="17.89580660803">
        <ele>57.8</ele>
        <time>2018-01-14T12:16:24Z</time>
      </trkpt>
      <trkpt lat="62.640571957704" lon="17.89575128749">
        <ele>57.6</ele>
        <time>2018-01-14T12:16:25Z</time>
      </trkpt>
      <trkpt lat="62.640570197505" lon="17.895692278914">
        <ele>57.4</ele>
        <time>2018-01-14T12:16:26Z</time>
      </trkpt>
      <trkpt lat="62.640570281324" lon="17.895657494029">
        <ele>57.8</ele>
        <time>2018-01-14T12:16:27Z</time>
      </trkpt>
      <trkpt lat="62.640567096202" lon="17.895610303932">
        <ele>57.8</ele>
        <time>2018-01-14T12:16:28Z</time>
      </trkpt>
      <trkpt lat="62.640559887768" lon="17.895549786614">
        <ele>58</ele>
        <time>2018-01-14T12:16:29Z</time>
      </trkpt>
      <trkpt lat="62.640555026266" lon="17.895525060009">
        <ele>58</ele>
        <time>2018-01-14T12:16:30Z</time>
      </trkpt>
      <trkpt lat="62.640551589687" lon="17.895456915162">
        <ele>58.2</ele>
        <time>2018-01-14T12:16:31Z</time>
      </trkpt>
      <trkpt lat="62.6405454709" lon="17.895412742549">
        <ele>58.2</ele>
        <time>2018-01-14T12:16:32Z</time>
      </trkpt>
      <trkpt lat="62.640540777036" lon="17.895350548851">
        <ele>58.4</ele>
        <time>2018-01-14T12:16:33Z</time>
      </trkpt>
      <trkpt lat="62.640534742068" lon="17.895279805615">
        <ele>58.4</ele>
        <time>2018-01-14T12:16:34Z</time>
      </trkpt>
      <trkpt lat="62.640530467299" lon="17.895220545582">
        <ele>58.6</ele>
        <time>2018-01-14T12:16:35Z</time>
      </trkpt>
      <trkpt lat="62.640523342684" lon="17.89515365802">
        <ele>58.8</ele>
        <time>2018-01-14T12:16:36Z</time>
      </trkpt>
      <trkpt lat="62.640521750123" lon="17.8950966611">
        <ele>58.8</ele>
        <time>2018-01-14T12:16:37Z</time>
      </trkpt>
      <trkpt lat="62.640510099282" lon="17.895028516253">
        <ele>59</ele>
        <time>2018-01-14T12:16:38Z</time>
      </trkpt>
      <trkpt lat="62.640504483409" lon="17.894972441342">
        <ele>59.2</ele>
        <time>2018-01-14T12:16:39Z</time>
      </trkpt>
      <trkpt lat="62.640500711554" lon="17.894921060295">
        <ele>59</ele>
        <time>2018-01-14T12:16:40Z</time>
      </trkpt>
      <trkpt lat="62.640495933871" lon="17.89485274781">
        <ele>58.8</ele>
        <time>2018-01-14T12:16:41Z</time>
      </trkpt>
      <trkpt lat="62.640491072369" lon="17.894808491378">
        <ele>58.8</ele>
        <time>2018-01-14T12:16:42Z</time>
      </trkpt>
      <trkpt lat="62.640488306342" lon="17.89475803234">
        <ele>58.8</ele>
        <time>2018-01-14T12:16:43Z</time>
      </trkpt>
      <trkpt lat="62.640486378505" lon="17.89471696103">
        <ele>58.8</ele>
        <time>2018-01-14T12:16:44Z</time>
      </trkpt>
      <trkpt lat="62.640482271374" lon="17.894635740419">
        <ele>58.8</ele>
        <time>2018-01-14T12:16:45Z</time>
      </trkpt>
      <trkpt lat="62.6404784157" lon="17.894585868114">
        <ele>58.8</ele>
        <time>2018-01-14T12:16:46Z</time>
      </trkpt>
      <trkpt lat="62.640480175899" lon="17.894508670815">
        <ele>58.6</ele>
        <time>2018-01-14T12:16:47Z</time>
      </trkpt>
      <trkpt lat="62.640479086252" lon="17.894459217605">
        <ele>58.8</ele>
        <time>2018-01-14T12:16:48Z</time>
      </trkpt>
      <trkpt lat="62.640475314397" lon="17.894417475743">
        <ele>58.8</ele>
        <time>2018-01-14T12:16:49Z</time>
      </trkpt>
      <trkpt lat="62.640470704352" lon="17.89436659761">
        <ele>59</ele>
        <time>2018-01-14T12:16:50Z</time>
      </trkpt>
      <trkpt lat="62.640464250289" lon="17.894317395857">
        <ele>59</ele>
        <time>2018-01-14T12:16:51Z</time>
      </trkpt>
      <trkpt lat="62.6404616519" lon="17.894278420022">
        <ele>59.2</ele>
        <time>2018-01-14T12:16:52Z</time>
      </trkpt>
      <trkpt lat="62.640455114018" lon="17.894232990124">
        <ele>59.2</ele>
        <time>2018-01-14T12:16:53Z</time>
      </trkpt>
      <trkpt lat="62.64044237353" lon="17.894176579937">
        <ele>59.4</ele>
        <time>2018-01-14T12:16:54Z</time>
      </trkpt>
      <trkpt lat="62.640432901983" lon="17.89414280088">
        <ele>59.6</ele>
        <time>2018-01-14T12:16:55Z</time>
      </trkpt>
      <trkpt lat="62.640420999685" lon="17.894087983254">
        <ele>59.6</ele>
        <time>2018-01-14T12:16:56Z</time>
      </trkpt>
      <trkpt lat="62.640408091559" lon="17.894036183112">
        <ele>59.6</ele>
        <time>2018-01-14T12:16:57Z</time>
      </trkpt>
      <trkpt lat="62.640398871469" lon="17.893996536725">
        <ele>59.8</ele>
        <time>2018-01-14T12:16:58Z</time>
      </trkpt>
      <trkpt lat="62.640377916719" lon="17.893937192873">
        <ele>59.8</ele>
        <time>2018-01-14T12:16:59Z</time>
      </trkpt>
      <trkpt lat="62.640363499851" lon="17.893893439355">
        <ele>60</ele>
        <time>2018-01-14T12:17:00Z</time>
      </trkpt>
      <trkpt lat="62.640351597553" lon="17.893855972262">
        <ele>60</ele>
        <time>2018-01-14T12:17:01Z</time>
      </trkpt>
      <trkpt lat="62.640340701083" lon="17.893813056934">
        <ele>60</ele>
        <time>2018-01-14T12:17:02Z</time>
      </trkpt>
      <trkpt lat="62.640329636975" lon="17.893771315072">
        <ele>60.2</ele>
        <time>2018-01-14T12:17:03Z</time>
      </trkpt>
      <trkpt lat="62.640317734677" lon="17.893720856034">
        <ele>60.4</ele>
        <time>2018-01-14T12:17:04Z</time>
      </trkpt>
      <trkpt lat="62.640310190967" lon="17.893675426136">
        <ele>60.6</ele>
        <time>2018-01-14T12:17:05Z</time>
      </trkpt>
      <trkpt lat="62.640302647257" lon="17.8936382105">
        <ele>60.8</ele>
        <time>2018-01-14T12:17:06Z</time>
      </trkpt>
      <trkpt lat="62.640293762443" lon="17.893601413959">
        <ele>61.2</ele>
        <time>2018-01-14T12:17:07Z</time>
      </trkpt>
      <trkpt lat="62.640287140742" lon="17.893570065653">
        <ele>61.6</ele>
        <time>2018-01-14T12:17:08Z</time>
      </trkpt>
      <trkpt lat="62.64028395562" lon="17.893541315736">
        <ele>61.8</ele>
        <time>2018-01-14T12:17:09Z</time>
      </trkpt>
      <trkpt lat="62.640275992815" lon="17.893505860299">
        <ele>62</ele>
        <time>2018-01-14T12:17:10Z</time>
      </trkpt>
      <trkpt lat="62.640275908996" lon="17.893465375722">
        <ele>62.2</ele>
        <time>2018-01-14T12:17:11Z</time>
      </trkpt>
      <trkpt lat="62.640275154625" lon="17.893424136774">
        <ele>62.4</ele>
        <time>2018-01-14T12:17:12Z</time>
      </trkpt>
      <trkpt lat="62.64027473553" lon="17.893385747672">
        <ele>62.6</ele>
        <time>2018-01-14T12:17:13Z</time>
      </trkpt>
      <trkpt lat="62.640276495729" lon="17.893345095457">
        <ele>62.6</ele>
        <time>2018-01-14T12:17:14Z</time>
      </trkpt>
      <trkpt lat="62.640278842661" lon="17.893311484038">
        <ele>62.8</ele>
        <time>2018-01-14T12:17:15Z</time>
      </trkpt>
      <trkpt lat="62.640284626172" lon="17.893253313652">
        <ele>63</ele>
        <time>2018-01-14T12:17:16Z</time>
      </trkpt>
      <trkpt lat="62.64028730838" lon="17.893214002541">
        <ele>63</ele>
        <time>2018-01-14T12:17:17Z</time>
      </trkpt>
      <trkpt lat="62.640290242045" lon="17.893179133837">
        <ele>63.2</ele>
        <time>2018-01-14T12:17:18Z</time>
      </trkpt>
      <trkpt lat="62.64028898476" lon="17.893143175486">
        <ele>63.2</ele>
        <time>2018-01-14T12:17:19Z</time>
      </trkpt>
      <trkpt lat="62.640291666968" lon="17.893107384773">
        <ele>63.4</ele>
        <time>2018-01-14T12:17:20Z</time>
      </trkpt>
      <trkpt lat="62.640292169882" lon="17.893079808322">
        <ele>63.6</ele>
        <time>2018-01-14T12:17:21Z</time>
      </trkpt>
      <trkpt lat="62.640294935909" lon="17.893045861627">
        <ele>63.8</ele>
        <time>2018-01-14T12:17:22Z</time>
      </trkpt>
      <trkpt lat="62.640297785755" lon="17.893009316543">
        <ele>64</ele>
        <time>2018-01-14T12:17:23Z</time>
      </trkpt>
      <trkpt lat="62.640298037212" lon="17.892975453667">
        <ele>64.4</ele>
        <time>2018-01-14T12:17:24Z</time>
      </trkpt>
      <trkpt lat="62.640299210678" lon="17.892943770085">
        <ele>64.8</ele>
        <time>2018-01-14T12:17:25Z</time>
      </trkpt>
      <trkpt lat="62.640299713592" lon="17.892909488114">
        <ele>65</ele>
        <time>2018-01-14T12:17:26Z</time>
      </trkpt>
      <trkpt lat="62.640297534298" lon="17.89287629579">
        <ele>65.4</ele>
        <time>2018-01-14T12:17:27Z</time>
      </trkpt>
      <trkpt lat="62.640293594805" lon="17.892840337439">
        <ele>65.6</ele>
        <time>2018-01-14T12:17:28Z</time>
      </trkpt>
      <trkpt lat="62.640288649484" lon="17.892806390744">
        <ele>65.8</ele>
        <time>2018-01-14T12:17:29Z</time>
      </trkpt>
      <trkpt lat="62.640280351403" lon="17.89274302358">
        <ele>66</ele>
        <time>2018-01-14T12:17:30Z</time>
      </trkpt>
      <trkpt lat="62.640278255928" lon="17.892691307257">
        <ele>66.2</ele>
        <time>2018-01-14T12:17:31Z</time>
      </trkpt>
      <trkpt lat="62.640269454933" lon="17.892656606191">
        <ele>66.2</ele>
        <time>2018-01-14T12:17:32Z</time>
      </trkpt>
      <trkpt lat="62.640261156852" lon="17.892602794393">
        <ele>66.2</ele>
        <time>2018-01-14T12:17:33Z</time>
      </trkpt>
      <trkpt lat="62.640253277866" lon="17.89256113635">
        <ele>66.4</ele>
        <time>2018-01-14T12:17:34Z</time>
      </trkpt>
      <trkpt lat="62.640247494355" lon="17.892522495791">
        <ele>66.4</ele>
        <time>2018-01-14T12:17:35Z</time>
      </trkpt>
      <trkpt lat="62.640243051948" lon="17.892476311522">
        <ele>66.4</ele>
        <time>2018-01-14T12:17:36Z</time>
      </trkpt>
      <trkpt lat="62.64023785517" lon="17.892421577715">
        <ele>66.6</ele>
        <time>2018-01-14T12:17:37Z</time>
      </trkpt>
      <trkpt lat="62.640233999496" lon="17.892383523889">
        <ele>66.6</ele>
        <time>2018-01-14T12:17:38Z</time>
      </trkpt>
      <trkpt lat="62.640229724727" lon="17.892341362932">
        <ele>66.6</ele>
        <time>2018-01-14T12:17:39Z</time>
      </trkpt>
      <trkpt lat="62.640224863225" lon="17.892274140094">
        <ele>66.8</ele>
        <time>2018-01-14T12:17:40Z</time>
      </trkpt>
      <trkpt lat="62.640222935388" lon="17.892222088495">
        <ele>66.8</ele>
        <time>2018-01-14T12:17:41Z</time>
      </trkpt>
      <trkpt lat="62.64022444413" lon="17.892157883141">
        <ele>67</ele>
        <time>2018-01-14T12:17:42Z</time>
      </trkpt>
      <trkpt lat="62.640225533777" lon="17.892111698872">
        <ele>67.2</ele>
        <time>2018-01-14T12:17:43Z</time>
      </trkpt>
      <trkpt lat="62.640228802718" lon="17.892042799654">
        <ele>67.4</ele>
        <time>2018-01-14T12:17:44Z</time>
      </trkpt>
      <trkpt lat="62.640231904021" lon="17.891996447747">
        <ele>67.6</ele>
        <time>2018-01-14T12:17:45Z</time>
      </trkpt>
      <trkpt lat="62.640250344201" lon="17.891934840782">
        <ele>67.6</ele>
        <time>2018-01-14T12:17:46Z</time>
      </trkpt>
      <trkpt lat="62.640272975331" lon="17.891878598233">
        <ele>67.6</ele>
        <time>2018-01-14T12:17:47Z</time>
      </trkpt>
      <trkpt lat="62.640290409683" lon="17.891839119484">
        <ele>68</ele>
        <time>2018-01-14T12:17:48Z</time>
      </trkpt>
      <trkpt lat="62.640329972251" lon="17.891789079541">
        <ele>68</ele>
        <time>2018-01-14T12:17:49Z</time>
      </trkpt>
      <trkpt lat="62.640360817643" lon="17.891748427326">
        <ele>68</ele>
        <time>2018-01-14T12:17:50Z</time>
      </trkpt>
      <trkpt lat="62.640389986655" lon="17.89172881368">
        <ele>68.2</ele>
        <time>2018-01-14T12:17:51Z</time>
      </trkpt>
      <trkpt lat="62.640422927522" lon="17.891714899726">
        <ele>68</ele>
        <time>2018-01-14T12:17:52Z</time>
      </trkpt>
      <trkpt lat="62.640459053511" lon="17.891711966061">
        <ele>67.8</ele>
        <time>2018-01-14T12:17:53Z</time>
      </trkpt>
      <trkpt lat="62.640502639391" lon="17.891714732088">
        <ele>67.6</ele>
        <time>2018-01-14T12:17:54Z</time>
      </trkpt>
      <trkpt lat="62.640568604944" lon="17.891718336305">
        <ele>67.2</ele>
        <time>2018-01-14T12:17:55Z</time>
      </trkpt>
      <trkpt lat="62.640642784759" lon="17.891720012685">
        <ele>66.6</ele>
        <time>2018-01-14T12:17:56Z</time>
      </trkpt>
      <trkpt lat="62.64070388881" lon="17.89173803377">
        <ele>66.2</ele>
        <time>2018-01-14T12:17:57Z</time>
      </trkpt>
      <trkpt lat="62.640766920698" lon="17.891776339053">
        <ele>65.8</ele>
        <time>2018-01-14T12:17:58Z</time>
      </trkpt>
      <trkpt lat="62.640828946758" lon="17.891848004298">
        <ele>65.2</ele>
        <time>2018-01-14T12:17:59Z</time>
      </trkpt>
      <trkpt lat="62.640875885398" lon="17.891934924601">
        <ele>64.6</ele>
        <time>2018-01-14T12:18:00Z</time>
      </trkpt>
      <trkpt lat="62.64092181821" lon="17.892022850732">
        <ele>64</ele>
        <time>2018-01-14T12:18:01Z</time>
      </trkpt>
      <trkpt lat="62.640961967511" lon="17.892100215669">
        <ele>63.4</ele>
        <time>2018-01-14T12:18:02Z</time>
      </trkpt>
      <trkpt lat="62.64100312264" lon="17.892165007756">
        <ele>62.8</ele>
        <time>2018-01-14T12:18:03Z</time>
      </trkpt>
      <trkpt lat="62.641030531453" lon="17.892191578379">
        <ele>62.4</ele>
        <time>2018-01-14T12:18:04Z</time>
      </trkpt>
      <trkpt lat="62.641096832282" lon="17.892229129291">
        <ele>62.2</ele>
        <time>2018-01-14T12:18:05Z</time>
      </trkpt>
      <trkpt lat="62.641133712642" lon="17.892237092096">
        <ele>61.8</ele>
        <time>2018-01-14T12:18:06Z</time>
      </trkpt>
      <trkpt lat="62.64117495159" lon="17.892231811499">
        <ele>61.8</ele>
        <time>2018-01-14T12:18:07Z</time>
      </trkpt>
      <trkpt lat="62.641194732874" lon="17.892199289727">
        <ele>61.8</ele>
        <time>2018-01-14T12:18:08Z</time>
      </trkpt>
      <trkpt lat="62.641222979877" lon="17.892187890343">
        <ele>62</ele>
        <time>2018-01-14T12:18:09Z</time>
      </trkpt>
      <trkpt lat="62.641254328183" lon="17.892172802923">
        <ele>62</ele>
        <time>2018-01-14T12:18:10Z</time>
      </trkpt>
      <trkpt lat="62.641280060616" lon="17.892136760753">
        <ele>62</ele>
        <time>2018-01-14T12:18:11Z</time>
      </trkpt>
      <trkpt lat="62.641297997882" lon="17.892125864283">
        <ele>62</ele>
        <time>2018-01-14T12:18:12Z</time>
      </trkpt>
      <trkpt lat="62.641351390585" lon="17.892083535688">
        <ele>62</ele>
        <time>2018-01-14T12:18:13Z</time>
      </trkpt>
      <trkpt lat="62.641391539886" lon="17.892059228178">
        <ele>61.8</ele>
        <time>2018-01-14T12:18:14Z</time>
      </trkpt>
      <trkpt lat="62.641422972011" lon="17.89204481131">
        <ele>61.4</ele>
        <time>2018-01-14T12:18:15Z</time>
      </trkpt>
      <trkpt lat="62.6414507161" lon="17.892031232632">
        <ele>61.2</ele>
        <time>2018-01-14T12:18:16Z</time>
      </trkpt>
      <trkpt lat="62.641478795465" lon="17.892014217375">
        <ele>61</ele>
        <time>2018-01-14T12:18:17Z</time>
      </trkpt>
      <trkpt lat="62.641506539554" lon="17.892000051964">
        <ele>60.8</ele>
        <time>2018-01-14T12:18:18Z</time>
      </trkpt>
      <trkpt lat="62.641543419914" lon="17.891977420834">
        <ele>60.6</ele>
        <time>2018-01-14T12:18:19Z</time>
      </trkpt>
      <trkpt lat="62.641579545903" lon="17.891963590699">
        <ele>60.6</ele>
        <time>2018-01-14T12:18:20Z</time>
      </trkpt>
      <trkpt lat="62.641619108471" lon="17.891953280962">
        <ele>60.4</ele>
        <time>2018-01-14T12:18:21Z</time>
      </trkpt>
      <trkpt lat="62.641663197265" lon="17.891941881578">
        <ele>60</ele>
        <time>2018-01-14T12:18:22Z</time>
      </trkpt>
      <trkpt lat="62.641705861136" lon="17.891933415859">
        <ele>59.8</ele>
        <time>2018-01-14T12:18:23Z</time>
      </trkpt>
      <trkpt lat="62.641749698473" lon="17.891921010647">
        <ele>59.2</ele>
        <time>2018-01-14T12:18:24Z</time>
      </trkpt>
      <trkpt lat="62.641795044552" lon="17.891900810268">
        <ele>58.6</ele>
        <time>2018-01-14T12:18:25Z</time>
      </trkpt>
      <trkpt lat="62.641845671228" lon="17.891877089491">
        <ele>57.8</ele>
        <time>2018-01-14T12:18:26Z</time>
      </trkpt>
      <trkpt lat="62.641900656492" lon="17.891854206904">
        <ele>57</ele>
        <time>2018-01-14T12:18:27Z</time>
      </trkpt>
      <trkpt lat="62.641959078335" lon="17.891824870254">
        <ele>56.4</ele>
        <time>2018-01-14T12:18:28Z</time>
      </trkpt>
      <trkpt lat="62.642025965897" lon="17.891788828084">
        <ele>56</ele>
        <time>2018-01-14T12:18:29Z</time>
      </trkpt>
      <trkpt lat="62.642090506527" lon="17.891754629932">
        <ele>55.2</ele>
        <time>2018-01-14T12:18:30Z</time>
      </trkpt>
      <trkpt lat="62.642154376605" lon="17.891713390984">
        <ele>54.6</ele>
        <time>2018-01-14T12:18:31Z</time>
      </trkpt>
      <trkpt lat="62.642232244456" lon="17.891654633865">
        <ele>54</ele>
        <time>2018-01-14T12:18:32Z</time>
      </trkpt>
      <trkpt lat="62.642301059855" lon="17.891591434339">
        <ele>53.2</ele>
        <time>2018-01-14T12:18:33Z</time>
      </trkpt>
      <trkpt lat="62.642378089516" lon="17.891505352226">
        <ele>52.2</ele>
        <time>2018-01-14T12:18:34Z</time>
      </trkpt>
      <trkpt lat="62.642437014273" lon="17.891421868502">
        <ele>51.2</ele>
        <time>2018-01-14T12:18:35Z</time>
      </trkpt>
      <trkpt lat="62.642455873548" lon="17.891379120812">
        <ele>50.6</ele>
        <time>2018-01-14T12:18:36Z</time>
      </trkpt>
      <trkpt lat="62.642493256822" lon="17.891250374828">
        <ele>49.6</ele>
        <time>2018-01-14T12:18:37Z</time>
      </trkpt>
      <trkpt lat="62.642510104441" lon="17.891170160045">
        <ele>48.6</ele>
        <time>2018-01-14T12:18:38Z</time>
      </trkpt>
      <trkpt lat="62.64251186464" lon="17.891118527541">
        <ele>48.2</ele>
        <time>2018-01-14T12:18:39Z</time>
      </trkpt>
      <trkpt lat="62.642512032278" lon="17.891052478169">
        <ele>48</ele>
        <time>2018-01-14T12:18:40Z</time>
      </trkpt>
      <trkpt lat="62.642505410577" lon="17.890990033014">
        <ele>48.2</ele>
        <time>2018-01-14T12:18:41Z</time>
      </trkpt>
      <trkpt lat="62.642500381437" lon="17.890931611171">
        <ele>48.4</ele>
        <time>2018-01-14T12:18:42Z</time>
      </trkpt>
      <trkpt lat="62.642486635121" lon="17.890889953128">
        <ele>48.6</ele>
        <time>2018-01-14T12:18:43Z</time>
      </trkpt>
      <trkpt lat="62.642458807213" lon="17.890828010887">
        <ele>49</ele>
        <time>2018-01-14T12:18:44Z</time>
      </trkpt>
      <trkpt lat="62.642427123631" lon="17.89078920269">
        <ele>49</ele>
        <time>2018-01-14T12:18:45Z</time>
      </trkpt>
      <trkpt lat="62.642388231615" lon="17.890759698402">
        <ele>49.4</ele>
        <time>2018-01-14T12:18:46Z</time>
      </trkpt>
      <trkpt lat="62.642338191672" lon="17.890725164974">
        <ele>49.2</ele>
        <time>2018-01-14T12:18:47Z</time>
      </trkpt>
      <trkpt lat="62.642291001575" lon="17.890698007618">
        <ele>49.4</ele>
        <time>2018-01-14T12:18:48Z</time>
      </trkpt>
      <trkpt lat="62.642251439007" lon="17.890685099492">
        <ele>49.4</ele>
        <time>2018-01-14T12:18:49Z</time>
      </trkpt>
      <trkpt lat="62.642218665778" lon="17.890647716218">
        <ele>49.2</ele>
        <time>2018-01-14T12:18:50Z</time>
      </trkpt>
      <trkpt lat="62.64218916149" lon="17.890639669594">
        <ele>48.8</ele>
        <time>2018-01-14T12:18:51Z</time>
      </trkpt>
      <trkpt lat="62.642170637491" lon="17.890631203875">
        <ele>48.2</ele>
        <time>2018-01-14T12:18:52Z</time>
      </trkpt>
      <trkpt lat="62.642146162343" lon="17.890618631025">
        <ele>48</ele>
        <time>2018-01-14T12:18:53Z</time>
      </trkpt>
      <trkpt lat="62.642121854833" lon="17.890604214157">
        <ele>47.8</ele>
        <time>2018-01-14T12:18:54Z</time>
      </trkpt>
      <trkpt lat="62.642100983902" lon="17.89059390442">
        <ele>47.8</ele>
        <time>2018-01-14T12:18:55Z</time>
      </trkpt>
      <trkpt lat="62.64208103498" lon="17.890581666846">
        <ele>47.8</ele>
        <time>2018-01-14T12:18:56Z</time>
      </trkpt>
      <trkpt lat="62.642064187361" lon="17.89058049338">
        <ele>48</ele>
        <time>2018-01-14T12:18:57Z</time>
      </trkpt>
      <trkpt lat="62.642051195416" lon="17.890576972982">
        <ele>48</ele>
        <time>2018-01-14T12:18:58Z</time>
      </trkpt>
      <trkpt lat="62.642029653933" lon="17.890568004349">
        <ele>48.4</ele>
        <time>2018-01-14T12:18:59Z</time>
      </trkpt>
      <trkpt lat="62.642015237065" lon="17.890560628277">
        <ele>48.6</ele>
        <time>2018-01-14T12:19:00Z</time>
      </trkpt>
      <trkpt lat="62.64199637779" lon="17.890554174214">
        <ele>48.8</ele>
        <time>2018-01-14T12:19:01Z</time>
      </trkpt>
      <trkpt lat="62.641980535999" lon="17.89054612759">
        <ele>49</ele>
        <time>2018-01-14T12:19:02Z</time>
      </trkpt>
      <trkpt lat="62.641963856018" lon="17.890536739862">
        <ele>49.4</ele>
        <time>2018-01-14T12:19:03Z</time>
      </trkpt>
      <trkpt lat="62.641948098046" lon="17.890524586107">
        <ele>49.6</ele>
        <time>2018-01-14T12:19:04Z</time>
      </trkpt>
      <trkpt lat="62.641925383097" lon="17.890519640786">
        <ele>49.6</ele>
        <time>2018-01-14T12:19:05Z</time>
      </trkpt>
      <trkpt lat="62.641910211858" lon="17.890501200606">
        <ele>49.8</ele>
        <time>2018-01-14T12:19:06Z</time>
      </trkpt>
      <trkpt lat="62.641893950972" lon="17.890497261113">
        <ele>50</ele>
        <time>2018-01-14T12:19:07Z</time>
      </trkpt>
      <trkpt lat="62.641877941543" lon="17.890485442634">
        <ele>50.2</ele>
        <time>2018-01-14T12:19:08Z</time>
      </trkpt>
      <trkpt lat="62.641864027589" lon="17.890468008282">
        <ele>50.4</ele>
        <time>2018-01-14T12:19:09Z</time>
      </trkpt>
      <trkpt lat="62.641847934341" lon="17.890452585586">
        <ele>50.6</ele>
        <time>2018-01-14T12:19:10Z</time>
      </trkpt>
      <trkpt lat="62.641836954052" lon="17.890437749623">
        <ele>51</ele>
        <time>2018-01-14T12:19:11Z</time>
      </trkpt>
      <trkpt lat="62.641819603519" lon="17.89042291366">
        <ele>51.4</ele>
        <time>2018-01-14T12:19:12Z</time>
      </trkpt>
      <trkpt lat="62.641807114488" lon="17.890411095181">
        <ele>52</ele>
        <time>2018-01-14T12:19:13Z</time>
      </trkpt>
      <trkpt lat="62.641792194706" lon="17.890395840123">
        <ele>52.4</ele>
        <time>2018-01-14T12:19:14Z</time>
      </trkpt>
      <trkpt lat="62.64177928658" lon="17.890383854006">
        <ele>52.6</ele>
        <time>2018-01-14T12:19:15Z</time>
      </trkpt>
      <trkpt lat="62.641764785893" lon="17.890364156541">
        <ele>53.2</ele>
        <time>2018-01-14T12:19:16Z</time>
      </trkpt>
      <trkpt lat="62.641749195559" lon="17.890343704705">
        <ele>53.4</ele>
        <time>2018-01-14T12:19:17Z</time>
      </trkpt>
      <trkpt lat="62.64173402432" lon="17.890317217901">
        <ele>53.8</ele>
        <time>2018-01-14T12:19:18Z</time>
      </trkpt>
      <trkpt lat="62.641719942728" lon="17.890277655333">
        <ele>54</ele>
        <time>2018-01-14T12:19:19Z</time>
      </trkpt>
      <trkpt lat="62.641708375706" lon="17.890246642303">
        <ele>54.2</ele>
        <time>2018-01-14T12:19:20Z</time>
      </trkpt>
      <trkpt lat="62.641697227779" lon="17.890225436096">
        <ele>54.6</ele>
        <time>2018-01-14T12:19:21Z</time>
      </trkpt>
      <trkpt lat="62.641683649101" lon="17.890197608188">
        <ele>54.8</ele>
        <time>2018-01-14T12:19:22Z</time>
      </trkpt>
      <trkpt lat="62.641670992432" lon="17.890162571846">
        <ele>55</ele>
        <time>2018-01-14T12:19:23Z</time>
      </trkpt>
      <trkpt lat="62.641656994659" lon="17.890118734509">
        <ele>55</ele>
        <time>2018-01-14T12:19:24Z</time>
      </trkpt>
      <trkpt lat="62.64164517618" lon="17.890081435054">
        <ele>55.2</ele>
        <time>2018-01-14T12:19:25Z</time>
      </trkpt>
      <trkpt lat="62.641630340217" lon="17.890045979617">
        <ele>55.2</ele>
        <time>2018-01-14T12:19:26Z</time>
      </trkpt>
      <trkpt lat="62.641618689376" lon="17.889996861683">
        <ele>55.2</ele>
        <time>2018-01-14T12:19:27Z</time>
      </trkpt>
      <trkpt lat="62.641609553105" lon="17.889948749577">
        <ele>55.2</ele>
        <time>2018-01-14T12:19:28Z</time>
      </trkpt>
      <trkpt lat="62.641602596128" lon="17.889911282484">
        <ele>55.2</ele>
        <time>2018-01-14T12:19:29Z</time>
      </trkpt>
      <trkpt lat="62.641592621667" lon="17.889857554505">
        <ele>55.2</ele>
        <time>2018-01-14T12:19:30Z</time>
      </trkpt>
      <trkpt lat="62.641587760165" lon="17.889820087412">
        <ele>55.4</ele>
        <time>2018-01-14T12:19:31Z</time>
      </trkpt>
      <trkpt lat="62.641580300274" lon="17.889771388573">
        <ele>55.4</ele>
        <time>2018-01-14T12:19:32Z</time>
      </trkpt>
      <trkpt lat="62.6415764446" lon="17.889728473245">
        <ele>55.4</ele>
        <time>2018-01-14T12:19:33Z</time>
      </trkpt>
      <trkpt lat="62.641571918374" lon="17.889671560144">
        <ele>55.4</ele>
        <time>2018-01-14T12:19:34Z</time>
      </trkpt>
      <trkpt lat="62.641568230338" lon="17.889611126645">
        <ele>55</ele>
        <time>2018-01-14T12:19:35Z</time>
      </trkpt>
      <trkpt lat="62.641566553958" lon="17.889545747825">
        <ele>54.8</ele>
        <time>2018-01-14T12:19:36Z</time>
      </trkpt>
      <trkpt lat="62.641565464311" lon="17.889473495847">
        <ele>54</ele>
        <time>2018-01-14T12:19:37Z</time>
      </trkpt>
      <trkpt lat="62.641566134863" lon="17.889392023779">
        <ele>53.4</ele>
        <time>2018-01-14T12:19:38Z</time>
      </trkpt>
      <trkpt lat="62.641569906718" lon="17.88930225363">
        <ele>52.8</ele>
        <time>2018-01-14T12:19:39Z</time>
      </trkpt>
      <trkpt lat="62.641576863695" lon="17.889201587011">
        <ele>52</ele>
        <time>2018-01-14T12:19:40Z</time>
      </trkpt>
      <trkpt lat="62.64159069383" lon="17.88907426595">
        <ele>51.2</ele>
        <time>2018-01-14T12:19:41Z</time>
      </trkpt>
      <trkpt lat="62.641608798734" lon="17.888933533849">
        <ele>50.2</ele>
        <time>2018-01-14T12:19:42Z</time>
      </trkpt>
      <trkpt lat="62.641634531167" lon="17.888767907505">
        <ele>49.6</ele>
        <time>2018-01-14T12:19:43Z</time>
      </trkpt>
      <trkpt lat="62.641670740975" lon="17.888577470737">
        <ele>48.4</ele>
        <time>2018-01-14T12:19:44Z</time>
      </trkpt>
      <trkpt lat="62.641712818113" lon="17.888409246004">
        <ele>47.2</ele>
        <time>2018-01-14T12:19:45Z</time>
      </trkpt>
      <trkpt lat="62.641759589115" lon="17.888272201939">
        <ele>45.8</ele>
        <time>2018-01-14T12:19:46Z</time>
      </trkpt>
      <trkpt lat="62.641809126144" lon="17.888137085711">
        <ele>44.4</ele>
        <time>2018-01-14T12:19:47Z</time>
      </trkpt>
      <trkpt lat="62.641849191626" lon="17.888039604214">
        <ele>43</ele>
        <time>2018-01-14T12:19:48Z</time>
      </trkpt>
      <trkpt lat="62.641889760022" lon="17.88794773859">
        <ele>41.6</ele>
        <time>2018-01-14T12:19:49Z</time>
      </trkpt>
      <trkpt lat="62.641924125812" lon="17.887868278178">
        <ele>40</ele>
        <time>2018-01-14T12:19:50Z</time>
      </trkpt>
      <trkpt lat="62.641942817449" lon="17.887813879647">
        <ele>39.4</ele>
        <time>2018-01-14T12:19:51Z</time>
      </trkpt>
      <trkpt lat="62.641976512687" lon="17.887731317932">
        <ele>39</ele>
        <time>2018-01-14T12:19:52Z</time>
      </trkpt>
      <trkpt lat="62.641998640903" lon="17.88769041426">
        <ele>39.4</ele>
        <time>2018-01-14T12:19:53Z</time>
      </trkpt>
      <trkpt lat="62.642016913445" lon="17.887652611891">
        <ele>40</ele>
        <time>2018-01-14T12:19:54Z</time>
      </trkpt>
      <trkpt lat="62.642049519036" lon="17.887606008527">
        <ele>41.2</ele>
        <time>2018-01-14T12:19:55Z</time>
      </trkpt>
      <trkpt lat="62.642087321405" lon="17.887556974412">
        <ele>41.8</ele>
        <time>2018-01-14T12:19:56Z</time>
      </trkpt>
      <trkpt lat="62.642119507901" lon="17.887514478179">
        <ele>42.6</ele>
        <time>2018-01-14T12:19:57Z</time>
      </trkpt>
      <trkpt lat="62.642170134577" lon="17.887405178203">
        <ele>43</ele>
        <time>2018-01-14T12:19:59Z</time>
      </trkpt>
      <trkpt lat="62.642172900604" lon="17.887376260648">
        <ele>43</ele>
        <time>2018-01-14T12:20:00Z</time>
      </trkpt>
      <trkpt lat="62.64219754339" lon="17.887347259274">
        <ele>43.4</ele>
        <time>2018-01-14T12:20:01Z</time>
      </trkpt>
      <trkpt lat="62.642216570303" lon="17.887318509357">
        <ele>43.2</ele>
        <time>2018-01-14T12:20:02Z</time>
      </trkpt>
      <trkpt lat="62.642222521452" lon="17.887292441648">
        <ele>43.6</ele>
        <time>2018-01-14T12:20:03Z</time>
      </trkpt>
      <trkpt lat="62.642234172293" lon="17.887251789433">
        <ele>43.6</ele>
        <time>2018-01-14T12:20:04Z</time>
      </trkpt>
      <trkpt lat="62.642243224745" lon="17.887218680928">
        <ele>43.8</ele>
        <time>2018-01-14T12:20:05Z</time>
      </trkpt>
      <trkpt lat="62.64224951117" lon="17.887186242975">
        <ele>44</ele>
        <time>2018-01-14T12:20:06Z</time>
      </trkpt>
      <trkpt lat="62.642253953577" lon="17.887156235773">
        <ele>44</ele>
        <time>2018-01-14T12:20:07Z</time>
      </trkpt>
      <trkpt lat="62.642256384328" lon="17.887127904951">
        <ele>44.2</ele>
        <time>2018-01-14T12:20:08Z</time>
      </trkpt>
      <trkpt lat="62.64225454031" lon="17.887091024591">
        <ele>44.2</ele>
        <time>2018-01-14T12:20:09Z</time>
      </trkpt>
      <trkpt lat="62.642253534482" lon="17.887050623833">
        <ele>44.4</ele>
        <time>2018-01-14T12:20:10Z</time>
      </trkpt>
      <trkpt lat="62.642252947749" lon="17.887005864487">
        <ele>44.4</ele>
        <time>2018-01-14T12:20:11Z</time>
      </trkpt>
      <trkpt lat="62.64225034936" lon="17.886957081829">
        <ele>44.4</ele>
        <time>2018-01-14T12:20:12Z</time>
      </trkpt>
      <trkpt lat="62.642247164238" lon="17.886914334139">
        <ele>44.6</ele>
        <time>2018-01-14T12:20:13Z</time>
      </trkpt>
      <trkpt lat="62.64224448203" lon="17.886868904241">
        <ele>44.8</ele>
        <time>2018-01-14T12:20:14Z</time>
      </trkpt>
      <trkpt lat="62.642233669379" lon="17.8867901982">
        <ele>45</ele>
        <time>2018-01-14T12:20:16Z</time>
      </trkpt>
      <trkpt lat="62.642223108185" lon="17.886739487705">
        <ele>45.2</ele>
        <time>2018-01-14T12:20:17Z</time>
      </trkpt>
      <trkpt lat="62.642213804276" lon="17.886695818006">
        <ele>45.6</ele>
        <time>2018-01-14T12:20:18Z</time>
      </trkpt>
      <trkpt lat="62.642206260566" lon="17.886656003981">
        <ele>45.6</ele>
        <time>2018-01-14T12:20:19Z</time>
      </trkpt>
      <trkpt lat="62.642198716856" lon="17.886622057286">
        <ele>45.8</ele>
        <time>2018-01-14T12:20:20Z</time>
      </trkpt>
      <trkpt lat="62.642191340784" lon="17.886596324853">
        <ele>46</ele>
        <time>2018-01-14T12:20:21Z</time>
      </trkpt>
      <trkpt lat="62.642182372151" lon="17.886561875244">
        <ele>46.2</ele>
        <time>2018-01-14T12:20:22Z</time>
      </trkpt>
      <trkpt lat="62.64217239769" lon="17.886533460603">
        <ele>46.2</ele>
        <time>2018-01-14T12:20:23Z</time>
      </trkpt>
      <trkpt lat="62.642159908659" lon="17.886499597727">
        <ele>46.4</ele>
        <time>2018-01-14T12:20:24Z</time>
      </trkpt>
      <trkpt lat="62.642150520931" lon="17.88647000962">
        <ele>46.6</ele>
        <time>2018-01-14T12:20:25Z</time>
      </trkpt>
      <trkpt lat="62.642141971393" lon="17.886446624119">
        <ele>47</ele>
        <time>2018-01-14T12:20:26Z</time>
      </trkpt>
      <trkpt lat="62.642135852606" lon="17.886418460935">
        <ele>47.2</ele>
        <time>2018-01-14T12:20:27Z</time>
      </trkpt>
      <trkpt lat="62.642126464878" lon="17.88639541071">
        <ele>47.4</ele>
        <time>2018-01-14T12:20:28Z</time>
      </trkpt>
      <trkpt lat="62.64211707715" lon="17.886363140395">
        <ele>47.6</ele>
        <time>2018-01-14T12:20:29Z</time>
      </trkpt>
      <trkpt lat="62.642102408825" lon="17.886334055202">
        <ele>48</ele>
        <time>2018-01-14T12:20:30Z</time>
      </trkpt>
      <trkpt lat="62.642091260898" lon="17.886305053828">
        <ele>48.2</ele>
        <time>2018-01-14T12:20:31Z</time>
      </trkpt>
      <trkpt lat="62.642073407451" lon="17.886275968635">
        <ele>48.4</ele>
        <time>2018-01-14T12:20:32Z</time>
      </trkpt>
      <trkpt lat="62.642064438818" lon="17.886245039424">
        <ele>48.4</ele>
        <time>2018-01-14T12:20:33Z</time>
      </trkpt>
      <trkpt lat="62.642052452701" lon="17.886214194032">
        <ele>48.6</ele>
        <time>2018-01-14T12:20:34Z</time>
      </trkpt>
      <trkpt lat="62.64203912548" lon="17.886183264821">
        <ele>49.2</ele>
        <time>2018-01-14T12:20:35Z</time>
      </trkpt>
      <trkpt lat="62.642025882078" lon="17.886157448569">
        <ele>49.6</ele>
        <time>2018-01-14T12:20:36Z</time>
      </trkpt>
      <trkpt lat="62.642012722495" lon="17.886134985077">
        <ele>50</ele>
        <time>2018-01-14T12:20:37Z</time>
      </trkpt>
      <trkpt lat="62.642002831853" lon="17.886114114146">
        <ele>50.6</ele>
        <time>2018-01-14T12:20:38Z</time>
      </trkpt>
      <trkpt lat="62.641983972578" lon="17.886080335089">
        <ele>50.8</ele>
        <time>2018-01-14T12:20:39Z</time>
      </trkpt>
      <trkpt lat="62.641975506859" lon="17.886057117226">
        <ele>51</ele>
        <time>2018-01-14T12:20:40Z</time>
      </trkpt>
      <trkpt lat="62.641960000344" lon="17.886030127508">
        <ele>51.2</ele>
        <time>2018-01-14T12:20:41Z</time>
      </trkpt>
      <trkpt lat="62.641943907096" lon="17.88599894684">
        <ele>51.2</ele>
        <time>2018-01-14T12:20:42Z</time>
      </trkpt>
      <trkpt lat="62.641934267911" lon="17.885979333194">
        <ele>51.2</ele>
        <time>2018-01-14T12:20:43Z</time>
      </trkpt>
      <trkpt lat="62.641913983713" lon="17.885942452834">
        <ele>51.4</ele>
        <time>2018-01-14T12:20:44Z</time>
      </trkpt>
      <trkpt lat="62.64189830956" lon="17.88590926051">
        <ele>51.4</ele>
        <time>2018-01-14T12:20:45Z</time>
      </trkpt>
      <trkpt lat="62.641880539932" lon="17.885877660747">
        <ele>51.4</ele>
        <time>2018-01-14T12:20:46Z</time>
      </trkpt>
      <trkpt lat="62.641862770304" lon="17.885845138975">
        <ele>51.6</ele>
        <time>2018-01-14T12:20:47Z</time>
      </trkpt>
      <trkpt lat="62.641850616549" lon="17.885822759302">
        <ele>51.8</ele>
        <time>2018-01-14T12:20:48Z</time>
      </trkpt>
      <trkpt lat="62.641825135573" lon="17.885775569205">
        <ele>51.8</ele>
        <time>2018-01-14T12:20:49Z</time>
      </trkpt>
      <trkpt lat="62.641809796696" lon="17.885746316374">
        <ele>52</ele>
        <time>2018-01-14T12:20:50Z</time>
      </trkpt>
      <trkpt lat="62.641784567177" lon="17.885698371906">
        <ele>52</ele>
        <time>2018-01-14T12:20:51Z</time>
      </trkpt>
      <trkpt lat="62.641765959359" lon="17.885658222605">
        <ele>52</ele>
        <time>2018-01-14T12:20:52Z</time>
      </trkpt>
      <trkpt lat="62.641750536663" lon="17.885630310878">
        <ele>52</ele>
        <time>2018-01-14T12:20:53Z</time>
      </trkpt>
      <trkpt lat="62.641725558601" lon="17.885582701686">
        <ele>52</ele>
        <time>2018-01-14T12:20:54Z</time>
      </trkpt>
      <trkpt lat="62.641709549172" lon="17.885550263733">
        <ele>51.8</ele>
        <time>2018-01-14T12:20:55Z</time>
      </trkpt>
      <trkpt lat="62.641690019345" lon="17.885519837436">
        <ele>51.8</ele>
        <time>2018-01-14T12:20:56Z</time>
      </trkpt>
      <trkpt lat="62.641674345192" lon="17.885490081691">
        <ele>51.6</ele>
        <time>2018-01-14T12:20:57Z</time>
      </trkpt>
      <trkpt lat="62.641657162297" lon="17.885462253783">
        <ele>52</ele>
        <time>2018-01-14T12:20:58Z</time>
      </trkpt>
      <trkpt lat="62.641637967746" lon="17.885432162762">
        <ele>52.2</ele>
        <time>2018-01-14T12:20:59Z</time>
      </trkpt>
      <trkpt lat="62.641620701032" lon="17.885404837768">
        <ele>52.4</ele>
        <time>2018-01-14T12:21:00Z</time>
      </trkpt>
      <trkpt lat="62.641606200345" lon="17.885372483634">
        <ele>52.4</ele>
        <time>2018-01-14T12:21:01Z</time>
      </trkpt>
      <trkpt lat="62.641590442373" lon="17.885341470604">
        <ele>52.8</ele>
        <time>2018-01-14T12:21:02Z</time>
      </trkpt>
      <trkpt lat="62.641576779876" lon="17.885318085103">
        <ele>52.8</ele>
        <time>2018-01-14T12:21:03Z</time>
      </trkpt>
      <trkpt lat="62.641560435171" lon="17.885291430661">
        <ele>53.2</ele>
        <time>2018-01-14T12:21:04Z</time>
      </trkpt>
      <trkpt lat="62.641547024131" lon="17.885263435115">
        <ele>53.4</ele>
        <time>2018-01-14T12:21:05Z</time>
      </trkpt>
      <trkpt lat="62.641532271987" lon="17.885234936655">
        <ele>53.4</ele>
        <time>2018-01-14T12:21:06Z</time>
      </trkpt>
      <trkpt lat="62.641519615318" lon="17.885214568638">
        <ele>53.4</ele>
        <time>2018-01-14T12:21:07Z</time>
      </trkpt>
      <trkpt lat="62.641507629201" lon="17.885194116802">
        <ele>53.6</ele>
        <time>2018-01-14T12:21:08Z</time>
      </trkpt>
      <trkpt lat="62.641490697763" lon="17.885164444876">
        <ele>53.6</ele>
        <time>2018-01-14T12:21:09Z</time>
      </trkpt>
      <trkpt lat="62.641473263411" lon="17.885135527321">
        <ele>53.4</ele>
        <time>2018-01-14T12:21:10Z</time>
      </trkpt>
      <trkpt lat="62.641461109656" lon="17.885111806544">
        <ele>53.4</ele>
        <time>2018-01-14T12:21:11Z</time>
      </trkpt>
      <trkpt lat="62.641448033892" lon="17.885086660844">
        <ele>53.6</ele>
        <time>2018-01-14T12:21:12Z</time>
      </trkpt>
      <trkpt lat="62.641431270092" lon="17.885064197352">
        <ele>54</ele>
        <time>2018-01-14T12:21:13Z</time>
      </trkpt>
      <trkpt lat="62.641417775233" lon="17.885039889842">
        <ele>54.2</ele>
        <time>2018-01-14T12:21:14Z</time>
      </trkpt>
      <trkpt lat="62.641403861279" lon="17.885016755798">
        <ele>54.4</ele>
        <time>2018-01-14T12:21:15Z</time>
      </trkpt>
      <trkpt lat="62.641386259289" lon="17.884980126895">
        <ele>54.6</ele>
        <time>2018-01-14T12:21:16Z</time>
      </trkpt>
      <trkpt lat="62.641373351163" lon="17.884954729738">
        <ele>55</ele>
        <time>2018-01-14T12:21:17Z</time>
      </trkpt>
      <trkpt lat="62.64136186796" lon="17.884939726137">
        <ele>55.6</ele>
        <time>2018-01-14T12:21:18Z</time>
      </trkpt>
      <trkpt lat="62.641342505771" lon="17.884898151913">
        <ele>55.8</ele>
        <time>2018-01-14T12:21:19Z</time>
      </trkpt>
      <trkpt lat="62.641324652324" lon="17.884865965417">
        <ele>56</ele>
        <time>2018-01-14T12:21:20Z</time>
      </trkpt>
      <trkpt lat="62.641314007311" lon="17.884847441418">
        <ele>56.4</ele>
        <time>2018-01-14T12:21:21Z</time>
      </trkpt>
      <trkpt lat="62.641289364525" lon="17.884806034832">
        <ele>56.6</ele>
        <time>2018-01-14T12:21:22Z</time>
      </trkpt>
      <trkpt lat="62.641268577413" lon="17.884781559684">
        <ele>56.6</ele>
        <time>2018-01-14T12:21:23Z</time>
      </trkpt>
      <trkpt lat="62.64125541783" lon="17.884752642129">
        <ele>56.8</ele>
        <time>2018-01-14T12:21:24Z</time>
      </trkpt>
      <trkpt lat="62.64123865403" lon="17.884732944664">
        <ele>57</ele>
        <time>2018-01-14T12:21:25Z</time>
      </trkpt>
      <trkpt lat="62.641216190538" lon="17.884701177263">
        <ele>57</ele>
        <time>2018-01-14T12:21:26Z</time>
      </trkpt>
      <trkpt lat="62.641196828349" lon="17.884669409862">
        <ele>57.4</ele>
        <time>2018-01-14T12:21:27Z</time>
      </trkpt>
      <trkpt lat="62.641180316006" lon="17.884639151203">
        <ele>57.4</ele>
        <time>2018-01-14T12:21:28Z</time>
      </trkpt>
      <trkpt lat="62.641163971301" lon="17.884609730734">
        <ele>57.6</ele>
        <time>2018-01-14T12:21:29Z</time>
      </trkpt>
      <trkpt lat="62.641143519465" lon="17.884577879514">
        <ele>57.8</ele>
        <time>2018-01-14T12:21:30Z</time>
      </trkpt>
      <trkpt lat="62.641119882507" lon="17.884537227299">
        <ele>58</ele>
        <time>2018-01-14T12:21:31Z</time>
      </trkpt>
      <trkpt lat="62.641105968553" lon="17.884502274776">
        <ele>58.2</ele>
        <time>2018-01-14T12:21:32Z</time>
      </trkpt>
      <trkpt lat="62.641097921929" lon="17.884481068569">
        <ele>58.2</ele>
        <time>2018-01-14T12:21:33Z</time>
      </trkpt>
      <trkpt lat="62.641083253604" lon="17.884437147413">
        <ele>58.4</ele>
        <time>2018-01-14T12:21:34Z</time>
      </trkpt>
      <trkpt lat="62.641066238347" lon="17.884394818818">
        <ele>58.4</ele>
        <time>2018-01-14T12:21:35Z</time>
      </trkpt>
      <trkpt lat="62.64105928137" lon="17.884375121353">
        <ele>58.4</ele>
        <time>2018-01-14T12:21:36Z</time>
      </trkpt>
      <trkpt lat="62.641042266113" lon="17.884329775274">
        <ele>58.6</ele>
        <time>2018-01-14T12:21:37Z</time>
      </trkpt>
      <trkpt lat="62.641029609444" lon="17.884286943765">
        <ele>58.8</ele>
        <time>2018-01-14T12:21:38Z</time>
      </trkpt>
      <trkpt lat="62.641022484829" lon="17.884262133341">
        <ele>59</ele>
        <time>2018-01-14T12:21:39Z</time>
      </trkpt>
      <trkpt lat="62.641002452088" lon="17.884211422846">
        <ele>59</ele>
        <time>2018-01-14T12:21:40Z</time>
      </trkpt>
      <trkpt lat="62.64099306436" lon="17.88417420721">
        <ele>59.2</ele>
        <time>2018-01-14T12:21:41Z</time>
      </trkpt>
      <trkpt lat="62.640980742967" lon="17.884142020714">
        <ele>59.4</ele>
        <time>2018-01-14T12:21:42Z</time>
      </trkpt>
      <trkpt lat="62.640971355239" lon="17.884089298563">
        <ele>59.6</ele>
        <time>2018-01-14T12:21:43Z</time>
      </trkpt>
      <trkpt lat="62.640963392434" lon="17.884054932773">
        <ele>59.8</ele>
        <time>2018-01-14T12:21:44Z</time>
      </trkpt>
      <trkpt lat="62.640955932543" lon="17.884012185083">
        <ele>60</ele>
        <time>2018-01-14T12:21:45Z</time>
      </trkpt>
      <trkpt lat="62.640942437684" lon="17.883964072977">
        <ele>60</ele>
        <time>2018-01-14T12:21:46Z</time>
      </trkpt>
      <trkpt lat="62.64093439106" lon="17.883932724671">
        <ele>60.2</ele>
        <time>2018-01-14T12:21:47Z</time>
      </trkpt>
      <trkpt lat="62.640921231477" lon="17.883884444927">
        <ele>60.2</ele>
        <time>2018-01-14T12:21:48Z</time>
      </trkpt>
      <trkpt lat="62.640911340835" lon="17.883827280369">
        <ele>60.2</ele>
        <time>2018-01-14T12:21:49Z</time>
      </trkpt>
      <trkpt lat="62.640902791297" lon="17.883788472172">
        <ele>60.4</ele>
        <time>2018-01-14T12:21:50Z</time>
      </trkpt>
      <trkpt lat="62.640895163768" lon="17.883751005079">
        <ele>60.4</ele>
        <time>2018-01-14T12:21:51Z</time>
      </trkpt>
      <trkpt lat="62.640888625886" lon="17.88370901176">
        <ele>60.4</ele>
        <time>2018-01-14T12:21:52Z</time>
      </trkpt>
      <trkpt lat="62.640884686393" lon="17.883672299038">
        <ele>60.4</ele>
        <time>2018-01-14T12:21:53Z</time>
      </trkpt>
      <trkpt lat="62.640881249814" lon="17.883627288235">
        <ele>60.6</ele>
        <time>2018-01-14T12:21:54Z</time>
      </trkpt>
      <trkpt lat="62.640876975045" lon="17.883591246065">
        <ele>60.8</ele>
        <time>2018-01-14T12:21:55Z</time>
      </trkpt>
      <trkpt lat="62.640874376656" lon="17.883554030429">
        <ele>60.8</ele>
        <time>2018-01-14T12:21:56Z</time>
      </trkpt>
      <trkpt lat="62.640871442991" lon="17.883515222232">
        <ele>61</ele>
        <time>2018-01-14T12:21:57Z</time>
      </trkpt>
      <trkpt lat="62.640867922593" lon="17.883451938887">
        <ele>61.4</ele>
        <time>2018-01-14T12:21:59Z</time>
      </trkpt>
      <trkpt lat="62.640865240385" lon="17.883419500934">
        <ele>61.6</ele>
        <time>2018-01-14T12:22:00Z</time>
      </trkpt>
      <trkpt lat="62.640858199589" lon="17.883388990818">
        <ele>61.8</ele>
        <time>2018-01-14T12:22:01Z</time>
      </trkpt>
      <trkpt lat="62.640856942304" lon="17.883349512069">
        <ele>62.2</ele>
        <time>2018-01-14T12:22:02Z</time>
      </trkpt>
      <trkpt lat="62.640853673363" lon="17.883315565374">
        <ele>62.6</ele>
        <time>2018-01-14T12:22:03Z</time>
      </trkpt>
      <trkpt lat="62.640850991155" lon="17.883273236779">
        <ele>62.8</ele>
        <time>2018-01-14T12:22:04Z</time>
      </trkpt>
      <trkpt lat="62.64084805749" lon="17.883235602048">
        <ele>63.2</ele>
        <time>2018-01-14T12:22:05Z</time>
      </trkpt>
      <trkpt lat="62.640845710558" lon="17.883193273453">
        <ele>63.4</ele>
        <time>2018-01-14T12:22:06Z</time>
      </trkpt>
      <trkpt lat="62.640843950359" lon="17.883162092785">
        <ele>63.4</ele>
        <time>2018-01-14T12:22:07Z</time>
      </trkpt>
      <trkpt lat="62.64084973387" lon="17.883123033131">
        <ele>63.4</ele>
        <time>2018-01-14T12:22:08Z</time>
      </trkpt>
      <trkpt lat="62.640851326431" lon="17.883084644029">
        <ele>63.6</ele>
        <time>2018-01-14T12:22:09Z</time>
      </trkpt>
      <trkpt lat="62.640851074974" lon="17.883040890511">
        <ele>63.8</ele>
        <time>2018-01-14T12:22:10Z</time>
      </trkpt>
      <trkpt lat="62.640849147137" lon="17.882995628251">
        <ele>64.2</ele>
        <time>2018-01-14T12:22:11Z</time>
      </trkpt>
      <trkpt lat="62.64085476301" lon="17.882954473122">
        <ele>64.4</ele>
        <time>2018-01-14T12:22:12Z</time>
      </trkpt>
      <trkpt lat="62.640859373055" lon="17.88291189307">
        <ele>64.6</ele>
        <time>2018-01-14T12:22:13Z</time>
      </trkpt>
      <trkpt lat="62.640870940077" lon="17.882855315245">
        <ele>64.8</ele>
        <time>2018-01-14T12:22:14Z</time>
      </trkpt>
      <trkpt lat="62.64087320319" lon="17.882827319699">
        <ele>65</ele>
        <time>2018-01-14T12:22:15Z</time>
      </trkpt>
      <trkpt lat="62.6408807469" lon="17.882768897856">
        <ele>65</ele>
        <time>2018-01-14T12:22:16Z</time>
      </trkpt>
      <trkpt lat="62.64088661423" lon="17.882716427162">
        <ele>65</ele>
        <time>2018-01-14T12:22:17Z</time>
      </trkpt>
      <trkpt lat="62.640901953107" lon="17.882657250948">
        <ele>65.2</ele>
        <time>2018-01-14T12:22:18Z</time>
      </trkpt>
      <trkpt lat="62.640912933396" lon="17.882588100273">
        <ele>65.4</ele>
        <time>2018-01-14T12:22:19Z</time>
      </trkpt>
      <trkpt lat="62.640928272273" lon="17.8825238111">
        <ele>65.4</ele>
        <time>2018-01-14T12:22:20Z</time>
      </trkpt>
      <trkpt lat="62.640932630861" lon="17.882457845547">
        <ele>65.6</ele>
        <time>2018-01-14T12:22:21Z</time>
      </trkpt>
      <trkpt lat="62.640937324725" lon="17.882398166419">
        <ele>65.6</ele>
        <time>2018-01-14T12:22:22Z</time>
      </trkpt>
      <trkpt lat="62.640942102408" lon="17.88234108568">
        <ele>65.6</ele>
        <time>2018-01-14T12:22:23Z</time>
      </trkpt>
      <trkpt lat="62.640939168743" lon="17.882288782624">
        <ele>65.4</ele>
        <time>2018-01-14T12:22:24Z</time>
      </trkpt>
      <trkpt lat="62.640934642517" lon="17.8822472084">
        <ele>65.4</ele>
        <time>2018-01-14T12:22:25Z</time>
      </trkpt>
      <trkpt lat="62.640927936997" lon="17.88220697528">
        <ele>65.4</ele>
        <time>2018-01-14T12:22:26Z</time>
      </trkpt>
      <trkpt lat="62.640916621432" lon="17.882164646685">
        <ele>65.6</ele>
        <time>2018-01-14T12:22:27Z</time>
      </trkpt>
      <trkpt lat="62.640910335007" lon="17.882121647538">
        <ele>65.8</ele>
        <time>2018-01-14T12:22:28Z</time>
      </trkpt>
      <trkpt lat="62.640903713306" lon="17.882074960355">
        <ele>66.4</ele>
        <time>2018-01-14T12:22:29Z</time>
      </trkpt>
      <trkpt lat="62.640896421053" lon="17.882034727235">
        <ele>66.6</ele>
        <time>2018-01-14T12:22:30Z</time>
      </trkpt>
      <trkpt lat="62.640893235931" lon="17.882013185752">
        <ele>67</ele>
        <time>2018-01-14T12:22:31Z</time>
      </trkpt>
      <trkpt lat="62.640882339461" lon="17.881979909609">
        <ele>67.2</ele>
        <time>2018-01-14T12:22:32Z</time>
      </trkpt>
      <trkpt lat="62.640873538466" lon="17.881936659005">
        <ele>67.2</ele>
        <time>2018-01-14T12:22:33Z</time>
      </trkpt>
      <trkpt lat="62.640860127426" lon="17.881897766989">
        <ele>67.4</ele>
        <time>2018-01-14T12:22:34Z</time>
      </trkpt>
      <trkpt lat="62.640844453273" lon="17.881843955191">
        <ele>67.4</ele>
        <time>2018-01-14T12:22:36Z</time>
      </trkpt>
      <trkpt lat="62.64083716102" lon="17.881817468387">
        <ele>67.4</ele>
        <time>2018-01-14T12:22:37Z</time>
      </trkpt>
      <trkpt lat="62.640809752207" lon="17.881754268861">
        <ele>67.6</ele>
        <time>2018-01-14T12:22:39Z</time>
      </trkpt>
      <trkpt lat="62.640805980352" lon="17.881728620247">
        <ele>67.8</ele>
        <time>2018-01-14T12:22:40Z</time>
      </trkpt>
      <trkpt lat="62.640789887104" lon="17.881670785137">
        <ele>68</ele>
        <time>2018-01-14T12:22:41Z</time>
      </trkpt>
      <trkpt lat="62.640770357277" lon="17.881629043275">
        <ele>68.2</ele>
        <time>2018-01-14T12:22:42Z</time>
      </trkpt>
      <trkpt lat="62.64076172392" lon="17.881602388833">
        <ele>68.4</ele>
        <time>2018-01-14T12:22:43Z</time>
      </trkpt>
      <trkpt lat="62.64074831288" lon="17.881537596746">
        <ele>68.4</ele>
        <time>2018-01-14T12:22:44Z</time>
      </trkpt>
      <trkpt lat="62.640715958746" lon="17.881517731643">
        <ele>68.6</ele>
        <time>2018-01-14T12:22:45Z</time>
      </trkpt>
      <trkpt lat="62.640712941262" lon="17.881480599826">
        <ele>69</ele>
        <time>2018-01-14T12:22:46Z</time>
      </trkpt>
      <trkpt lat="62.640697853842" lon="17.881427542399">
        <ele>69</ele>
        <time>2018-01-14T12:22:47Z</time>
      </trkpt>
      <trkpt lat="62.640685197173" lon="17.881377250999">
        <ele>69.2</ele>
        <time>2018-01-14T12:22:48Z</time>
      </trkpt>
      <trkpt lat="62.640678240196" lon="17.881341041191">
        <ele>69.4</ele>
        <time>2018-01-14T12:22:49Z</time>
      </trkpt>
      <trkpt lat="62.640664661518" lon="17.881283206081">
        <ele>69.4</ele>
        <time>2018-01-14T12:22:50Z</time>
      </trkpt>
      <trkpt lat="62.640663404233" lon="17.88125311506">
        <ele>69.6</ele>
        <time>2018-01-14T12:22:51Z</time>
      </trkpt>
      <trkpt lat="62.640654184143" lon="17.881210954103">
        <ele>69.6</ele>
        <time>2018-01-14T12:22:52Z</time>
      </trkpt>
      <trkpt lat="62.640643958225" lon="17.881149682414">
        <ele>69.8</ele>
        <time>2018-01-14T12:22:53Z</time>
      </trkpt>
      <trkpt lat="62.640644461139" lon="17.881107018543">
        <ele>70</ele>
        <time>2018-01-14T12:22:54Z</time>
      </trkpt>
      <trkpt lat="62.640638929085" lon="17.881065109043">
        <ele>70.4</ele>
        <time>2018-01-14T12:22:55Z</time>
      </trkpt>
      <trkpt lat="62.64064018637" lon="17.880996377463">
        <ele>70.6</ele>
        <time>2018-01-14T12:22:56Z</time>
      </trkpt>
      <trkpt lat="62.640641695112" lon="17.880933177937">
        <ele>70.8</ele>
        <time>2018-01-14T12:22:57Z</time>
      </trkpt>
      <trkpt lat="62.640644712596" lon="17.880899315061">
        <ele>71</ele>
        <time>2018-01-14T12:22:58Z</time>
      </trkpt>
      <trkpt lat="62.640653765048" lon="17.880845167987">
        <ele>71.2</ele>
        <time>2018-01-14T12:22:59Z</time>
      </trkpt>
      <trkpt lat="62.640665834984" lon="17.88077953771">
        <ele>71.2</ele>
        <time>2018-01-14T12:23:00Z</time>
      </trkpt>
      <trkpt lat="62.640669690658" lon="17.880740813332">
        <ele>71.4</ele>
        <time>2018-01-14T12:23:01Z</time>
      </trkpt>
      <trkpt lat="62.640686035363" lon="17.880689432285">
        <ele>71.4</ele>
        <time>2018-01-14T12:23:02Z</time>
      </trkpt>
      <trkpt lat="62.640702128611" lon="17.880632183908">
        <ele>71.6</ele>
        <time>2018-01-14T12:23:03Z</time>
      </trkpt>
      <trkpt lat="62.640715288194" lon="17.88059932686">
        <ele>71.8</ele>
        <time>2018-01-14T12:23:04Z</time>
      </trkpt>
      <trkpt lat="62.640724508284" lon="17.880563787604">
        <ele>72</ele>
        <time>2018-01-14T12:23:05Z</time>
      </trkpt>
      <trkpt lat="62.640747223233" lon="17.880497654413">
        <ele>72.2</ele>
        <time>2018-01-14T12:23:06Z</time>
      </trkpt>
      <trkpt lat="62.640761556282" lon="17.880462198976">
        <ele>72.4</ele>
        <time>2018-01-14T12:23:07Z</time>
      </trkpt>
      <trkpt lat="62.640772871847" lon="17.880429425747">
        <ele>72.8</ele>
        <time>2018-01-14T12:23:08Z</time>
      </trkpt>
      <trkpt lat="62.640794580968" lon="17.880370584809">
        <ele>72.8</ele>
        <time>2018-01-14T12:23:09Z</time>
      </trkpt>
      <trkpt lat="62.64080447161" lon="17.880335716105">
        <ele>73</ele>
        <time>2018-01-14T12:23:10Z</time>
      </trkpt>
      <trkpt lat="62.64082458817" lon="17.880285424705">
        <ele>73.2</ele>
        <time>2018-01-14T12:23:11Z</time>
      </trkpt>
      <trkpt lat="62.64084219016" lon="17.880227589595">
        <ele>73.2</ele>
        <time>2018-01-14T12:23:12Z</time>
      </trkpt>
      <trkpt lat="62.640849650051" lon="17.880193475262">
        <ele>73.2</ele>
        <time>2018-01-14T12:23:13Z</time>
      </trkpt>
      <trkpt lat="62.640874628113" lon="17.880125078958">
        <ele>73.4</ele>
        <time>2018-01-14T12:23:14Z</time>
      </trkpt>
      <trkpt lat="62.640883010013" lon="17.88008970734">
        <ele>73.4</ele>
        <time>2018-01-14T12:23:15Z</time>
      </trkpt>
      <trkpt lat="62.640901617831" lon="17.880037991017">
        <ele>73.4</ele>
        <time>2018-01-14T12:23:16Z</time>
      </trkpt>
      <trkpt lat="62.640917711079" lon="17.879992728757">
        <ele>73.6</ele>
        <time>2018-01-14T12:23:17Z</time>
      </trkpt>
      <trkpt lat="62.640926260617" lon="17.879957021863">
        <ele>73.6</ele>
        <time>2018-01-14T12:23:18Z</time>
      </trkpt>
      <trkpt lat="62.64094612572" lon="17.879888877016">
        <ele>73.4</ele>
        <time>2018-01-14T12:23:19Z</time>
      </trkpt>
      <trkpt lat="62.640956603095" lon="17.879849733543">
        <ele>73.6</ele>
        <time>2018-01-14T12:23:20Z</time>
      </trkpt>
      <trkpt lat="62.64097127142" lon="17.879799190686">
        <ele>73.4</ele>
        <time>2018-01-14T12:23:21Z</time>
      </trkpt>
      <trkpt lat="62.640984095727" lon="17.879741104119">
        <ele>73.6</ele>
        <time>2018-01-14T12:23:22Z</time>
      </trkpt>
      <trkpt lat="62.640992812903" lon="17.879714533496">
        <ele>73.6</ele>
        <time>2018-01-14T12:23:23Z</time>
      </trkpt>
      <trkpt lat="62.641013516196" lon="17.879645885735">
        <ele>73.6</ele>
        <time>2018-01-14T12:23:24Z</time>
      </trkpt>
      <trkpt lat="62.641022903924" lon="17.879601210208">
        <ele>73.8</ele>
        <time>2018-01-14T12:23:25Z</time>
      </trkpt>
      <trkpt lat="62.641038661896" lon="17.879549493885">
        <ele>74</ele>
        <time>2018-01-14T12:23:26Z</time>
      </trkpt>
      <trkpt lat="62.641047798167" lon="17.879496185001">
        <ele>74</ele>
        <time>2018-01-14T12:23:27Z</time>
      </trkpt>
      <trkpt lat="62.641049809823" lon="17.87946693217">
        <ele>74.2</ele>
        <time>2018-01-14T12:23:28Z</time>
      </trkpt>
      <trkpt lat="62.6410651487" lon="17.879414210019">
        <ele>74.2</ele>
        <time>2018-01-14T12:23:29Z</time>
      </trkpt>
      <trkpt lat="62.641074536428" lon="17.879351094312">
        <ele>74.2</ele>
        <time>2018-01-14T12:23:30Z</time>
      </trkpt>
      <trkpt lat="62.641083756518" lon="17.879320416558">
        <ele>74.4</ele>
        <time>2018-01-14T12:23:31Z</time>
      </trkpt>
      <trkpt lat="62.641098173386" lon="17.879262497629">
        <ele>74.4</ele>
        <time>2018-01-14T12:23:32Z</time>
      </trkpt>
      <trkpt lat="62.641111165331" lon="17.87920290232">
        <ele>74.4</ele>
        <time>2018-01-14T12:23:33Z</time>
      </trkpt>
      <trkpt lat="62.64112130743" lon="17.879169039444">
        <ele>74.6</ele>
        <time>2018-01-14T12:23:34Z</time>
      </trkpt>
      <trkpt lat="62.641135053746" lon="17.879117909854">
        <ele>74.8</ele>
        <time>2018-01-14T12:23:35Z</time>
      </trkpt>
      <trkpt lat="62.641138238868" lon="17.879085807177">
        <ele>75</ele>
        <time>2018-01-14T12:23:36Z</time>
      </trkpt>
      <trkpt lat="62.641156930505" lon="17.879029816085">
        <ele>75.2</ele>
        <time>2018-01-14T12:23:37Z</time>
      </trkpt>
      <trkpt lat="62.641167491699" lon="17.878986733119">
        <ele>75.4</ele>
        <time>2018-01-14T12:23:38Z</time>
      </trkpt>
      <trkpt lat="62.641173945762" lon="17.878963599075">
        <ele>75.6</ele>
        <time>2018-01-14T12:23:39Z</time>
      </trkpt>
      <trkpt lat="62.641192050666" lon="17.878911379838">
        <ele>75.8</ele>
        <time>2018-01-14T12:23:40Z</time>
      </trkpt>
      <trkpt lat="62.641208898285" lon="17.878859328239">
        <ele>75.8</ele>
        <time>2018-01-14T12:23:41Z</time>
      </trkpt>
      <trkpt lat="62.641218034556" lon="17.878819681852">
        <ele>76</ele>
        <time>2018-01-14T12:23:42Z</time>
      </trkpt>
      <trkpt lat="62.641235552727" lon="17.87876536714">
        <ele>76</ele>
        <time>2018-01-14T12:23:43Z</time>
      </trkpt>
      <trkpt lat="62.641243934627" lon="17.878741227268">
        <ele>76.2</ele>
        <time>2018-01-14T12:23:44Z</time>
      </trkpt>
      <trkpt lat="62.641258100038" lon="17.878695545913">
        <ele>76.4</ele>
        <time>2018-01-14T12:23:45Z</time>
      </trkpt>
      <trkpt lat="62.641270337612" lon="17.878652882042">
        <ele>76.6</ele>
        <time>2018-01-14T12:23:46Z</time>
      </trkpt>
      <trkpt lat="62.641283161919" lon="17.878625976143">
        <ele>76.8</ele>
        <time>2018-01-14T12:23:47Z</time>
      </trkpt>
      <trkpt lat="62.641293387837" lon="17.878593035276">
        <ele>76.8</ele>
        <time>2018-01-14T12:23:48Z</time>
      </trkpt>
      <trkpt lat="62.641309481085" lon="17.878550622862">
        <ele>77</ele>
        <time>2018-01-14T12:23:49Z</time>
      </trkpt>
      <trkpt lat="62.64132414941" lon="17.87851391014">
        <ele>77.2</ele>
        <time>2018-01-14T12:23:50Z</time>
      </trkpt>
      <trkpt lat="62.641331106387" lon="17.878489434992">
        <ele>77.4</ele>
        <time>2018-01-14T12:23:51Z</time>
      </trkpt>
      <trkpt lat="62.641351390585" lon="17.878421541602">
        <ele>77.6</ele>
        <time>2018-01-14T12:23:52Z</time>
      </trkpt>
      <trkpt lat="62.64136438253" lon="17.878383487776">
        <ele>77.8</ele>
        <time>2018-01-14T12:23:53Z</time>
      </trkpt>
      <trkpt lat="62.641380894873" lon="17.878353061479">
        <ele>77.8</ele>
        <time>2018-01-14T12:23:54Z</time>
      </trkpt>
      <trkpt lat="62.641403861279" lon="17.878293130894">
        <ele>78</ele>
        <time>2018-01-14T12:23:55Z</time>
      </trkpt>
      <trkpt lat="62.641410650618" lon="17.878261028217">
        <ele>78</ele>
        <time>2018-01-14T12:23:56Z</time>
      </trkpt>
      <trkpt lat="62.641435041947" lon="17.878202690193">
        <ele>78.2</ele>
        <time>2018-01-14T12:23:57Z</time>
      </trkpt>
      <trkpt lat="62.641447279521" lon="17.878167653851">
        <ele>78.2</ele>
        <time>2018-01-14T12:23:58Z</time>
      </trkpt>
      <trkpt lat="62.641456164335" lon="17.878141083228">
        <ele>78.2</ele>
        <time>2018-01-14T12:23:59Z</time>
      </trkpt>
      <trkpt lat="62.641480639483" lon="17.878076794055">
        <ele>78.2</ele>
        <time>2018-01-14T12:24:00Z</time>
      </trkpt>
      <trkpt lat="62.641482651139" lon="17.878053827649">
        <ele>78.2</ele>
        <time>2018-01-14T12:24:01Z</time>
      </trkpt>
      <trkpt lat="62.641503605889" lon="17.878001273136">
        <ele>78.4</ele>
        <time>2018-01-14T12:24:02Z</time>
      </trkpt>
      <trkpt lat="62.641524393001" lon="17.877952909573">
        <ele>78.2</ele>
        <time>2018-01-14T12:24:03Z</time>
      </trkpt>
      <trkpt lat="62.641536462937" lon="17.877916867403">
        <ele>78.4</ele>
        <time>2018-01-14T12:24:04Z</time>
      </trkpt>
      <trkpt lat="62.641545347751" lon="17.877884513269">
        <ele>78.4</ele>
        <time>2018-01-14T12:24:05Z</time>
      </trkpt>
      <trkpt lat="62.641565296673" lon="17.877833886593">
        <ele>78.4</ele>
        <time>2018-01-14T12:24:06Z</time>
      </trkpt>
      <trkpt lat="62.641580048817" lon="17.877787450867">
        <ele>78.6</ele>
        <time>2018-01-14T12:24:07Z</time>
      </trkpt>
      <trkpt lat="62.641588263079" lon="17.877765238832">
        <ele>78.8</ele>
        <time>2018-01-14T12:24:08Z</time>
      </trkpt>
      <trkpt lat="62.641602763766" lon="17.877722742599">
        <ele>79</ele>
        <time>2018-01-14T12:24:09Z</time>
      </trkpt>
      <trkpt lat="62.641622125955" lon="17.877676725968">
        <ele>79.2</ele>
        <time>2018-01-14T12:24:10Z</time>
      </trkpt>
      <trkpt lat="62.641632687149" lon="17.877641605807">
        <ele>79.6</ele>
        <time>2018-01-14T12:24:11Z</time>
      </trkpt>
      <trkpt lat="62.641643080705" lon="17.877609251673">
        <ele>79.6</ele>
        <time>2018-01-14T12:24:12Z</time>
      </trkpt>
      <trkpt lat="62.641660598876" lon="17.877564073232">
        <ele>79.8</ele>
        <time>2018-01-14T12:24:13Z</time>
      </trkpt>
      <trkpt lat="62.641677949409" lon="17.877526270863">
        <ele>80</ele>
        <time>2018-01-14T12:24:14Z</time>
      </trkpt>
      <trkpt lat="62.641694377933" lon="17.877483439354">
        <ele>80.2</ele>
        <time>2018-01-14T12:24:15Z</time>
      </trkpt>
      <trkpt lat="62.641706112593" lon="17.87745108522">
        <ele>80.4</ele>
        <time>2018-01-14T12:24:16Z</time>
      </trkpt>
      <trkpt lat="62.641714997407" lon="17.877416803249">
        <ele>80.8</ele>
        <time>2018-01-14T12:24:17Z</time>
      </trkpt>
      <trkpt lat="62.64173067156" lon="17.87737397174">
        <ele>81</ele>
        <time>2018-01-14T12:24:18Z</time>
      </trkpt>
      <trkpt lat="62.641745088428" lon="17.877326530186">
        <ele>81.4</ele>
        <time>2018-01-14T12:24:19Z</time>
      </trkpt>
      <trkpt lat="62.641748357369" lon="17.877306581264">
        <ele>81.8</ele>
        <time>2018-01-14T12:24:20Z</time>
      </trkpt>
      <trkpt lat="62.641762690418" lon="17.877257379511">
        <ele>81.8</ele>
        <time>2018-01-14T12:24:21Z</time>
      </trkpt>
      <trkpt lat="62.641778532209" lon="17.87721303926">
        <ele>82</ele>
        <time>2018-01-14T12:24:22Z</time>
      </trkpt>
      <trkpt lat="62.641788674308" lon="17.877185295171">
        <ele>82.2</ele>
        <time>2018-01-14T12:24:23Z</time>
      </trkpt>
      <trkpt lat="62.64180443228" lon="17.877148833906">
        <ele>82.2</ele>
        <time>2018-01-14T12:24:24Z</time>
      </trkpt>
      <trkpt lat="62.641818849148" lon="17.877099967429">
        <ele>82.2</ele>
        <time>2018-01-14T12:24:25Z</time>
      </trkpt>
      <trkpt lat="62.641827231048" lon="17.877073564444">
        <ele>82.2</ele>
        <time>2018-01-14T12:24:26Z</time>
      </trkpt>
      <trkpt lat="62.641850113635" lon="17.877027463994">
        <ele>82.4</ele>
        <time>2018-01-14T12:24:27Z</time>
      </trkpt>
      <trkpt lat="62.641863608494" lon="17.876990835091">
        <ele>82.4</ele>
        <time>2018-01-14T12:24:28Z</time>
      </trkpt>
      <trkpt lat="62.641869224367" lon="17.876967952504">
        <ele>82.6</ele>
        <time>2018-01-14T12:24:29Z</time>
      </trkpt>
      <trkpt lat="62.641889257108" lon="17.876932077972">
        <ele>82.6</ele>
        <time>2018-01-14T12:24:30Z</time>
      </trkpt>
      <trkpt lat="62.641908703116" lon="17.876884552599">
        <ele>82.8</ele>
        <time>2018-01-14T12:24:31Z</time>
      </trkpt>
      <trkpt lat="62.641921527423" lon="17.876847336963">
        <ele>82.8</ele>
        <time>2018-01-14T12:24:32Z</time>
      </trkpt>
      <trkpt lat="62.64193602811" lon="17.876817916494">
        <ele>83</ele>
        <time>2018-01-14T12:24:33Z</time>
      </trkpt>
      <trkpt lat="62.641958072507" lon="17.876760081384">
        <ele>83.2</ele>
        <time>2018-01-14T12:24:34Z</time>
      </trkpt>
      <trkpt lat="62.641971315909" lon="17.87672688906">
        <ele>83.4</ele>
        <time>2018-01-14T12:24:35Z</time>
      </trkpt>
      <trkpt lat="62.641984140216" lon="17.876704593206">
        <ele>83.6</ele>
        <time>2018-01-14T12:24:36Z</time>
      </trkpt>
      <trkpt lat="62.642009285916" lon="17.876657906023">
        <ele>83.6</ele>
        <time>2018-01-14T12:24:37Z</time>
      </trkpt>
      <trkpt lat="62.642014734151" lon="17.876627563545">
        <ele>83.8</ele>
        <time>2018-01-14T12:24:38Z</time>
      </trkpt>
      <trkpt lat="62.642028145191" lon="17.8765894259">
        <ele>83.8</ele>
        <time>2018-01-14T12:24:39Z</time>
      </trkpt>
      <trkpt lat="62.642049519036" lon="17.876528740944">
        <ele>84</ele>
        <time>2018-01-14T12:24:40Z</time>
      </trkpt>
      <trkpt lat="62.642056811289" lon="17.876497895552">
        <ele>84</ele>
        <time>2018-01-14T12:24:41Z</time>
      </trkpt>
      <trkpt lat="62.642066701931" lon="17.876420782072">
        <ele>84.2</ele>
        <time>2018-01-14T12:24:42Z</time>
      </trkpt>
      <trkpt lat="62.642077095487" lon="17.87637820202">
        <ele>84.2</ele>
        <time>2018-01-14T12:24:43Z</time>
      </trkpt>
      <trkpt lat="62.642090841803" lon="17.876339812918">
        <ele>84.4</ele>
        <time>2018-01-14T12:24:44Z</time>
      </trkpt>
      <trkpt lat="62.642114311123" lon="17.876272254804">
        <ele>84.4</ele>
        <time>2018-01-14T12:24:45Z</time>
      </trkpt>
      <trkpt lat="62.642128141258" lon="17.876229590933">
        <ele>84.4</ele>
        <time>2018-01-14T12:24:46Z</time>
      </trkpt>
      <trkpt lat="62.642137528986" lon="17.876206121613">
        <ele>84.4</ele>
        <time>2018-01-14T12:24:47Z</time>
      </trkpt>
      <trkpt lat="62.642157645546" lon="17.876164295932">
        <ele>84.4</ele>
        <time>2018-01-14T12:24:48Z</time>
      </trkpt>
      <trkpt lat="62.642177845925" lon="17.876122218794">
        <ele>84.6</ele>
        <time>2018-01-14T12:24:49Z</time>
      </trkpt>
      <trkpt lat="62.642190167318" lon="17.87609237923">
        <ele>84.8</ele>
        <time>2018-01-14T12:24:50Z</time>
      </trkpt>
      <trkpt lat="62.64220592529" lon="17.876063629313">
        <ele>85</ele>
        <time>2018-01-14T12:24:51Z</time>
      </trkpt>
      <trkpt lat="62.642228221144" lon="17.876032197188">
        <ele>85.4</ele>
        <time>2018-01-14T12:24:52Z</time>
      </trkpt>
      <trkpt lat="62.642236519225" lon="17.876013757008">
        <ele>85.6</ele>
        <time>2018-01-14T12:24:53Z</time>
      </trkpt>
      <trkpt lat="62.642263089848" lon="17.875978804485">
        <ele>85.8</ele>
        <time>2018-01-14T12:24:54Z</time>
      </trkpt>
      <trkpt lat="62.642285218064" lon="17.875940750659">
        <ele>86</ele>
        <time>2018-01-14T12:24:55Z</time>
      </trkpt>
      <trkpt lat="62.64229980257" lon="17.875919544452">
        <ele>86.2</ele>
        <time>2018-01-14T12:24:56Z</time>
      </trkpt>
      <trkpt lat="62.642330145048" lon="17.875872354355">
        <ele>86.2</ele>
        <time>2018-01-14T12:24:57Z</time>
      </trkpt>
      <trkpt lat="62.642356883309" lon="17.875904289394">
        <ele>86.2</ele>
        <time>2018-01-14T12:24:58Z</time>
      </trkpt>
      <trkpt lat="62.64236685777" lon="17.875869923604">
        <ele>86.2</ele>
        <time>2018-01-14T12:24:59Z</time>
      </trkpt>
      <trkpt lat="62.642397703162" lon="17.875820554213">
        <ele>86.4</ele>
        <time>2018-01-14T12:25:00Z</time>
      </trkpt>
      <trkpt lat="62.642411030383" lon="17.875802197852">
        <ele>86.4</ele>
        <time>2018-01-14T12:25:01Z</time>
      </trkpt>
      <trkpt lat="62.64244145668" lon="17.875755343031">
        <ele>86.4</ele>
        <time>2018-01-14T12:25:02Z</time>
      </trkpt>
      <trkpt lat="62.642455957367" lon="17.875731370797">
        <ele>86.4</ele>
        <time>2018-01-14T12:25:03Z</time>
      </trkpt>
      <trkpt lat="62.642479678144" lon="17.875705722183">
        <ele>86.4</ele>
        <time>2018-01-14T12:25:04Z</time>
      </trkpt>
      <trkpt lat="62.642499459428" lon="17.875679403017">
        <ele>86.6</ele>
        <time>2018-01-14T12:25:05Z</time>
      </trkpt>
      <trkpt lat="62.64252695206" lon="17.875645540141">
        <ele>86.8</ele>
        <time>2018-01-14T12:25:06Z</time>
      </trkpt>
      <trkpt lat="62.642552684493" lon="17.875606648125">
        <ele>87</ele>
        <time>2018-01-14T12:25:07Z</time>
      </trkpt>
      <trkpt lat="62.642598617305" lon="17.87554755573">
        <ele>87</ele>
        <time>2018-01-14T12:25:08Z</time>
      </trkpt>
      <trkpt lat="62.642621751349" lon="17.875516877976">
        <ele>87.2</ele>
        <time>2018-01-14T12:25:09Z</time>
      </trkpt>
      <trkpt lat="62.642662906478" lon="17.875471028983">
        <ele>87.2</ele>
        <time>2018-01-14T12:25:10Z</time>
      </trkpt>
      <trkpt lat="62.642694506241" lon="17.875422497782">
        <ele>86.8</ele>
        <time>2018-01-14T12:25:11Z</time>
      </trkpt>
      <trkpt lat="62.642725016357" lon="17.875368685984">
        <ele>86.2</ele>
        <time>2018-01-14T12:25:12Z</time>
      </trkpt>
      <trkpt lat="62.64275074879" lon="17.875324764828">
        <ele>85.6</ele>
        <time>2018-01-14T12:25:13Z</time>
      </trkpt>
      <trkpt lat="62.642786874779" lon="17.875268773736">
        <ele>85.2</ele>
        <time>2018-01-14T12:25:14Z</time>
      </trkpt>
      <trkpt lat="62.642823419863" lon="17.875226948055">
        <ele>85</ele>
        <time>2018-01-14T12:25:15Z</time>
      </trkpt>
      <trkpt lat="62.642856276911" lon="17.875182691623">
        <ele>84.8</ele>
        <time>2018-01-14T12:25:16Z</time>
      </trkpt>
      <trkpt lat="62.642882847534" lon="17.87513600444">
        <ele>85</ele>
        <time>2018-01-14T12:25:17Z</time>
      </trkpt>
      <trkpt lat="62.642915117849" lon="17.87508571304">
        <ele>85.2</ele>
        <time>2018-01-14T12:25:18Z</time>
      </trkpt>
      <trkpt lat="62.642951411476" lon="17.87503542164">
        <ele>85.2</ele>
        <time>2018-01-14T12:25:19Z</time>
      </trkpt>
      <trkpt lat="62.642994494442" lon="17.874973647037">
        <ele>85.2</ele>
        <time>2018-01-14T12:25:20Z</time>
      </trkpt>
      <trkpt lat="62.643037577408" lon="17.874911201882">
        <ele>84.6</ele>
        <time>2018-01-14T12:25:21Z</time>
      </trkpt>
      <trkpt lat="62.64307931927" lon="17.874846409795">
        <ele>84.2</ele>
        <time>2018-01-14T12:25:22Z</time>
      </trkpt>
      <trkpt lat="62.643126341729" lon="17.87477642093">
        <ele>83.4</ele>
        <time>2018-01-14T12:25:23Z</time>
      </trkpt>
      <trkpt lat="62.64317235836" lon="17.874708108445">
        <ele>83</ele>
        <time>2018-01-14T12:25:24Z</time>
      </trkpt>
      <trkpt lat="62.643228181814" lon="17.874623618893">
        <ele>82</ele>
        <time>2018-01-14T12:25:25Z</time>
      </trkpt>
      <trkpt lat="62.643270594228" lon="17.874553043295">
        <ele>81.4</ele>
        <time>2018-01-14T12:25:26Z</time>
      </trkpt>
      <trkpt lat="62.643311749357" lon="17.87448892176">
        <ele>80.8</ele>
        <time>2018-01-14T12:25:27Z</time>
      </trkpt>
      <trkpt lat="62.64334921645" lon="17.874428488261">
        <ele>80.4</ele>
        <time>2018-01-14T12:25:28Z</time>
      </trkpt>
      <trkpt lat="62.643385593896" lon="17.874370988427">
        <ele>80.2</ele>
        <time>2018-01-14T12:25:29Z</time>
      </trkpt>
      <trkpt lat="62.643416439288" lon="17.874314829697">
        <ele>80</ele>
        <time>2018-01-14T12:25:30Z</time>
      </trkpt>
      <trkpt lat="62.643450888897" lon="17.874262442822">
        <ele>79.8</ele>
        <time>2018-01-14T12:25:31Z</time>
      </trkpt>
      <trkpt lat="62.643477627158" lon="17.874213911621">
        <ele>79.8</ele>
        <time>2018-01-14T12:25:32Z</time>
      </trkpt>
      <trkpt lat="62.643500174469" lon="17.874168230266">
        <ele>80</ele>
        <time>2018-01-14T12:25:33Z</time>
      </trkpt>
      <trkpt lat="62.643529343481" lon="17.87412430911">
        <ele>80.4</ele>
        <time>2018-01-14T12:25:34Z</time>
      </trkpt>
      <trkpt lat="62.643560691787" lon="17.874082734886">
        <ele>80.6</ele>
        <time>2018-01-14T12:25:35Z</time>
      </trkpt>
      <trkpt lat="62.643577874682" lon="17.874051973313">
        <ele>81</ele>
        <time>2018-01-14T12:25:36Z</time>
      </trkpt>
      <trkpt lat="62.643608971531" lon="17.874012662202">
        <ele>81.2</ele>
        <time>2018-01-14T12:25:37Z</time>
      </trkpt>
      <trkpt lat="62.643626824978" lon="17.873984415199">
        <ele>81</ele>
        <time>2018-01-14T12:25:38Z</time>
      </trkpt>
      <trkpt lat="62.643645851891" lon="17.873945858459">
        <ele>81</ele>
        <time>2018-01-14T12:25:39Z</time>
      </trkpt>
      <trkpt lat="62.643675859093" lon="17.873905457701">
        <ele>81</ele>
        <time>2018-01-14T12:25:40Z</time>
      </trkpt>
      <trkpt lat="62.643697400576" lon="17.873862374735">
        <ele>80.8</ele>
        <time>2018-01-14T12:25:41Z</time>
      </trkpt>
      <trkpt lat="62.643712571815" lon="17.87383261899">
        <ele>80.8</ele>
        <time>2018-01-14T12:25:42Z</time>
      </trkpt>
      <trkpt lat="62.643744171578" lon="17.873780735029">
        <ele>80.8</ele>
        <time>2018-01-14T12:25:43Z</time>
      </trkpt>
      <trkpt lat="62.643757666437" lon="17.873743267936">
        <ele>80.8</ele>
        <time>2018-01-14T12:25:44Z</time>
      </trkpt>
      <trkpt lat="62.643771999486" lon="17.873707812499">
        <ele>80.8</ele>
        <time>2018-01-14T12:25:45Z</time>
      </trkpt>
      <trkpt lat="62.643801252317" lon="17.873647043724">
        <ele>81</ele>
        <time>2018-01-14T12:25:46Z</time>
      </trkpt>
      <trkpt lat="62.643821871791" lon="17.873598009609">
        <ele>81.2</ele>
        <time>2018-01-14T12:25:47Z</time>
      </trkpt>
      <trkpt lat="62.643832935899" lon="17.873560542516">
        <ele>81.2</ele>
        <time>2018-01-14T12:25:48Z</time>
      </trkpt>
      <trkpt lat="62.643854393563" lon="17.873497426809">
        <ele>81.4</ele>
        <time>2018-01-14T12:25:49Z</time>
      </trkpt>
      <trkpt lat="62.643869480983" lon="17.873460378811">
        <ele>81.6</ele>
        <time>2018-01-14T12:25:50Z</time>
      </trkpt>
      <trkpt lat="62.643881550919" lon="17.873419810415">
        <ele>81.8</ele>
        <time>2018-01-14T12:25:51Z</time>
      </trkpt>
      <trkpt lat="62.643904182049" lon="17.873360550382">
        <ele>81.8</ele>
        <time>2018-01-14T12:25:52Z</time>
      </trkpt>
      <trkpt lat="62.643917006356" lon="17.873324759669">
        <ele>81.8</ele>
        <time>2018-01-14T12:25:53Z</time>
      </trkpt>
      <trkpt lat="62.643931507043" lon="17.873279329771">
        <ele>82</ele>
        <time>2018-01-14T12:25:54Z</time>
      </trkpt>
      <trkpt lat="62.643952797069" lon="17.873209257087">
        <ele>82.2</ele>
        <time>2018-01-14T12:25:55Z</time>
      </trkpt>
      <trkpt lat="62.643964531729" lon="17.873180171894">
        <ele>82.4</ele>
        <time>2018-01-14T12:25:56Z</time>
      </trkpt>
      <trkpt lat="62.643978110407" lon="17.873128707028">
        <ele>82.2</ele>
        <time>2018-01-14T12:25:57Z</time>
      </trkpt>
      <trkpt lat="62.64399378456" lon="17.873079421456">
        <ele>82.4</ele>
        <time>2018-01-14T12:25:58Z</time>
      </trkpt>
      <trkpt lat="62.644003507564" lon="17.873047989331">
        <ele>82.4</ele>
        <time>2018-01-14T12:25:59Z</time>
      </trkpt>
      <trkpt lat="62.644018008251" lon="17.872995434818">
        <ele>82.6</ele>
        <time>2018-01-14T12:26:00Z</time>
      </trkpt>
      <trkpt lat="62.644031167834" lon="17.872949585825">
        <ele>82.6</ele>
        <time>2018-01-14T12:26:01Z</time>
      </trkpt>
      <trkpt lat="62.644042148123" lon="17.872881943892">
        <ele>82.8</ele>
        <time>2018-01-14T12:26:03Z</time>
      </trkpt>
      <trkpt lat="62.644056984086" lon="17.872813799045">
        <ele>83</ele>
        <time>2018-01-14T12:26:04Z</time>
      </trkpt>
      <trkpt lat="62.644057403181" lon="17.872792006105">
        <ele>83</ele>
        <time>2018-01-14T12:26:05Z</time>
      </trkpt>
      <trkpt lat="62.644064360158" lon="17.872702068318">
        <ele>83.2</ele>
        <time>2018-01-14T12:26:06Z</time>
      </trkpt>
      <trkpt lat="62.644072658239" lon="17.872658817714">
        <ele>83.4</ele>
        <time>2018-01-14T12:26:07Z</time>
      </trkpt>
      <trkpt lat="62.644080034311" lon="17.872599557681">
        <ele>83.8</ele>
        <time>2018-01-14T12:26:08Z</time>
      </trkpt>
      <trkpt lat="62.644082465062" lon="17.872552116127">
        <ele>84</ele>
        <time>2018-01-14T12:26:09Z</time>
      </trkpt>
      <trkpt lat="62.644082716519" lon="17.872495873578">
        <ele>84.2</ele>
        <time>2018-01-14T12:26:10Z</time>
      </trkpt>
      <trkpt lat="62.644089170582" lon="17.872459244675">
        <ele>84.4</ele>
        <time>2018-01-14T12:26:11Z</time>
      </trkpt>
      <trkpt lat="62.644092188066" lon="17.87237919753">
        <ele>84.6</ele>
        <time>2018-01-14T12:26:12Z</time>
      </trkpt>
      <trkpt lat="62.644088835306" lon="17.872338210039">
        <ele>85</ele>
        <time>2018-01-14T12:26:13Z</time>
      </trkpt>
      <trkpt lat="62.64409017641" lon="17.8722727474">
        <ele>85</ele>
        <time>2018-01-14T12:26:14Z</time>
      </trkpt>
      <trkpt lat="62.644087494202" lon="17.87220736858">
        <ele>85.2</ele>
        <time>2018-01-14T12:26:15Z</time>
      </trkpt>
      <trkpt lat="62.644086404555" lon="17.872157412456">
        <ele>85.4</ele>
        <time>2018-01-14T12:26:16Z</time>
      </trkpt>
      <trkpt lat="62.644087410383" lon="17.872103097744">
        <ele>85.4</ele>
        <time>2018-01-14T12:26:17Z</time>
      </trkpt>
      <trkpt lat="62.644080453406" lon="17.872054398905">
        <ele>85.6</ele>
        <time>2018-01-14T12:26:18Z</time>
      </trkpt>
      <trkpt lat="62.644077184465" lon="17.871992540483">
        <ele>85.8</ele>
        <time>2018-01-14T12:26:19Z</time>
      </trkpt>
      <trkpt lat="62.644073328791" lon="17.871926155835">
        <ele>85.8</ele>
        <time>2018-01-14T12:26:20Z</time>
      </trkpt>
      <trkpt lat="62.644067042366" lon="17.871839989903">
        <ele>85.8</ele>
        <time>2018-01-14T12:26:21Z</time>
      </trkpt>
      <trkpt lat="62.644062348502" lon="17.871780059318">
        <ele>85.8</ele>
        <time>2018-01-14T12:26:22Z</time>
      </trkpt>
      <trkpt lat="62.644051116756" lon="17.87172038019">
        <ele>85.6</ele>
        <time>2018-01-14T12:26:23Z</time>
      </trkpt>
      <trkpt lat="62.644035442603" lon="17.871667155125">
        <ele>85.4</ele>
        <time>2018-01-14T12:26:24Z</time>
      </trkpt>
      <trkpt lat="62.644025384323" lon="17.871613427146">
        <ele>85.4</ele>
        <time>2018-01-14T12:26:25Z</time>
      </trkpt>
      <trkpt lat="62.644001998822" lon="17.871557352235">
        <ele>85.4</ele>
        <time>2018-01-14T12:26:26Z</time>
      </trkpt>
      <trkpt lat="62.643990012705" lon="17.871519801323">
        <ele>85.2</ele>
        <time>2018-01-14T12:26:27Z</time>
      </trkpt>
      <trkpt lat="62.64396696248" lon="17.871447716983">
        <ele>85.2</ele>
        <time>2018-01-14T12:26:28Z</time>
      </trkpt>
      <trkpt lat="62.643966543385" lon="17.871413015917">
        <ele>85.2</ele>
        <time>2018-01-14T12:26:29Z</time>
      </trkpt>
      <trkpt lat="62.643961178969" lon="17.871335483342">
        <ele>85.2</ele>
        <time>2018-01-14T12:26:30Z</time>
      </trkpt>
      <trkpt lat="62.64395103687" lon="17.871278821698">
        <ele>85.2</ele>
        <time>2018-01-14T12:26:31Z</time>
      </trkpt>
      <trkpt lat="62.643938044925" lon="17.87123842094">
        <ele>85.2</ele>
        <time>2018-01-14T12:26:32Z</time>
      </trkpt>
      <trkpt lat="62.643932093776" lon="17.871159882537">
        <ele>85.2</ele>
        <time>2018-01-14T12:26:33Z</time>
      </trkpt>
      <trkpt lat="62.64392421479" lon="17.871103807626">
        <ele>85.2</ele>
        <time>2018-01-14T12:26:34Z</time>
      </trkpt>
      <trkpt lat="62.643905355515" lon="17.871044128498">
        <ele>85.2</ele>
        <time>2018-01-14T12:26:35Z</time>
      </trkpt>
      <trkpt lat="62.643894961959" lon="17.871001045532">
        <ele>85.2</ele>
        <time>2018-01-14T12:26:36Z</time>
      </trkpt>
      <trkpt lat="62.643881048005" lon="17.870945389716">
        <ele>85.2</ele>
        <time>2018-01-14T12:26:37Z</time>
      </trkpt>
      <trkpt lat="62.64386386511" lon="17.87088470476">
        <ele>85</ele>
        <time>2018-01-14T12:26:38Z</time>
      </trkpt>
      <trkpt lat="62.643857327228" lon="17.870847321486">
        <ele>85.2</ele>
        <time>2018-01-14T12:26:39Z</time>
      </trkpt>
      <trkpt lat="62.643848945328" lon="17.870776075336">
        <ele>85.2</ele>
        <time>2018-01-14T12:26:40Z</time>
      </trkpt>
      <trkpt lat="62.643844419102" lon="17.870741793365">
        <ele>85.2</ele>
        <time>2018-01-14T12:26:41Z</time>
      </trkpt>
      <trkpt lat="62.643822123248" lon="17.870659147831">
        <ele>85.4</ele>
        <time>2018-01-14T12:26:42Z</time>
      </trkpt>
      <trkpt lat="62.643818519031" lon="17.870614137028">
        <ele>85.4</ele>
        <time>2018-01-14T12:26:43Z</time>
      </trkpt>
      <trkpt lat="62.643806281457" lon="17.870556050461">
        <ele>85.4</ele>
        <time>2018-01-14T12:26:44Z</time>
      </trkpt>
      <trkpt lat="62.643797061367" lon="17.870473740203">
        <ele>85.4</ele>
        <time>2018-01-14T12:26:45Z</time>
      </trkpt>
      <trkpt lat="62.643789433838" lon="17.870416491826">
        <ele>85.4</ele>
        <time>2018-01-14T12:26:46Z</time>
      </trkpt>
      <trkpt lat="62.643775100789" lon="17.87033485212">
        <ele>85.2</ele>
        <time>2018-01-14T12:26:47Z</time>
      </trkpt>
      <trkpt lat="62.64376160593" lon="17.870277771381">
        <ele>85.2</ele>
        <time>2018-01-14T12:26:48Z</time>
      </trkpt>
      <trkpt lat="62.643762863215" lon="17.870208453068">
        <ele>85.2</ele>
        <time>2018-01-14T12:26:49Z</time>
      </trkpt>
      <trkpt lat="62.643745261225" lon="17.870152713433">
        <ele>85.2</ele>
        <time>2018-01-14T12:26:50Z</time>
      </trkpt>
      <trkpt lat="62.643752218202" lon="17.87007752779">
        <ele>85.2</ele>
        <time>2018-01-14T12:26:51Z</time>
      </trkpt>
      <trkpt lat="62.643743417207" lon="17.870012065151">
        <ele>85.2</ele>
        <time>2018-01-14T12:26:52Z</time>
      </trkpt>
      <trkpt lat="62.643741824646" lon="17.869960013552">
        <ele>85.4</ele>
        <time>2018-01-14T12:26:53Z</time>
      </trkpt>
      <trkpt lat="62.643744758311" lon="17.869891617248">
        <ele>85.4</ele>
        <time>2018-01-14T12:26:54Z</time>
      </trkpt>
      <trkpt lat="62.643748027252" lon="17.869823304763">
        <ele>85.4</ele>
        <time>2018-01-14T12:26:55Z</time>
      </trkpt>
      <trkpt lat="62.643756995885" lon="17.86976739749">
        <ele>85.4</ele>
        <time>2018-01-14T12:26:56Z</time>
      </trkpt>
      <trkpt lat="62.643761270654" lon="17.86969782772">
        <ele>85.4</ele>
        <time>2018-01-14T12:26:57Z</time>
      </trkpt>
      <trkpt lat="62.6437641205" lon="17.869641585171">
        <ele>85.2</ele>
        <time>2018-01-14T12:26:58Z</time>
      </trkpt>
      <trkpt lat="62.643774765513" lon="17.869554832506">
        <ele>85.4</ele>
        <time>2018-01-14T12:26:59Z</time>
      </trkpt>
      <trkpt lat="62.643779375558" lon="17.869478641035">
        <ele>85.4</ele>
        <time>2018-01-14T12:27:00Z</time>
      </trkpt>
      <trkpt lat="62.643783482689" lon="17.869420303011">
        <ele>85.4</ele>
        <time>2018-01-14T12:27:01Z</time>
      </trkpt>
      <trkpt lat="62.643794714435" lon="17.869351906707">
        <ele>85.4</ele>
        <time>2018-01-14T12:27:02Z</time>
      </trkpt>
      <trkpt lat="62.643797815738" lon="17.869286779344">
        <ele>85.2</ele>
        <time>2018-01-14T12:27:03Z</time>
      </trkpt>
      <trkpt lat="62.643803012516" lon="17.869215952289">
        <ele>85.2</ele>
        <time>2018-01-14T12:27:04Z</time>
      </trkpt>
      <trkpt lat="62.643803347792" lon="17.869139676999">
        <ele>85.2</ele>
        <time>2018-01-14T12:27:05Z</time>
      </trkpt>
      <trkpt lat="62.643806784371" lon="17.869091145798">
        <ele>85.2</ele>
        <time>2018-01-14T12:27:06Z</time>
      </trkpt>
      <trkpt lat="62.643810304769" lon="17.869019396734">
        <ele>85.2</ele>
        <time>2018-01-14T12:27:07Z</time>
      </trkpt>
      <trkpt lat="62.643811394416" lon="17.868961980719">
        <ele>85.2</ele>
        <time>2018-01-14T12:27:08Z</time>
      </trkpt>
      <trkpt lat="62.643811813511" lon="17.868923507798">
        <ele>85.2</ele>
        <time>2018-01-14T12:27:09Z</time>
      </trkpt>
      <trkpt lat="62.64380938276" lon="17.868861397919">
        <ele>85.4</ele>
        <time>2018-01-14T12:27:10Z</time>
      </trkpt>
      <trkpt lat="62.643802090507" lon="17.86879258252">
        <ele>85.6</ele>
        <time>2018-01-14T12:27:11Z</time>
      </trkpt>
      <trkpt lat="62.643797312824" lon="17.868714379393">
        <ele>85.8</ele>
        <time>2018-01-14T12:27:12Z</time>
      </trkpt>
      <trkpt lat="62.643794127702" lon="17.868655286998">
        <ele>86</ele>
        <time>2018-01-14T12:27:13Z</time>
      </trkpt>
      <trkpt lat="62.643782225404" lon="17.868573060559">
        <ele>86</ele>
        <time>2018-01-14T12:27:14Z</time>
      </trkpt>
      <trkpt lat="62.643773172952" lon="17.86849586326">
        <ele>86.2</ele>
        <time>2018-01-14T12:27:15Z</time>
      </trkpt>
      <trkpt lat="62.643771999486" lon="17.868421934902">
        <ele>86.2</ele>
        <time>2018-01-14T12:27:16Z</time>
      </trkpt>
      <trkpt lat="62.643765461604" lon="17.868324118129">
        <ele>86</ele>
        <time>2018-01-14T12:27:17Z</time>
      </trkpt>
      <trkpt lat="62.643747859614" lon="17.86823602436">
        <ele>85.8</ele>
        <time>2018-01-14T12:27:18Z</time>
      </trkpt>
      <trkpt lat="62.643737717515" lon="17.868159665251">
        <ele>85.6</ele>
        <time>2018-01-14T12:27:19Z</time>
      </trkpt>
      <trkpt lat="62.643746686148" lon="17.868082048857">
        <ele>85.6</ele>
        <time>2018-01-14T12:27:20Z</time>
      </trkpt>
      <trkpt lat="62.643746602329" lon="17.868014490743">
        <ele>85.4</ele>
        <time>2018-01-14T12:27:21Z</time>
      </trkpt>
      <trkpt lat="62.643739729171" lon="17.867953973425">
        <ele>85.2</ele>
        <time>2018-01-14T12:27:22Z</time>
      </trkpt>
      <trkpt lat="62.643725899036" lon="17.867894964849">
        <ele>85.2</ele>
        <time>2018-01-14T12:27:23Z</time>
      </trkpt>
      <trkpt lat="62.64371131453" lon="17.867820198301">
        <ele>85.2</ele>
        <time>2018-01-14T12:27:24Z</time>
      </trkpt>
      <trkpt lat="62.643702513535" lon="17.867752975463">
        <ele>85</ele>
        <time>2018-01-14T12:27:25Z</time>
      </trkpt>
      <trkpt lat="62.643691617065" lon="17.867691703774">
        <ele>85.2</ele>
        <time>2018-01-14T12:27:26Z</time>
      </trkpt>
      <trkpt lat="62.643681223509" lon="17.867620457624">
        <ele>85</ele>
        <time>2018-01-14T12:27:27Z</time>
      </trkpt>
      <trkpt lat="62.643657167456" lon="17.867566478188">
        <ele>84.8</ele>
        <time>2018-01-14T12:27:28Z</time>
      </trkpt>
      <trkpt lat="62.643629255729" lon="17.867503111024">
        <ele>84.6</ele>
        <time>2018-01-14T12:27:29Z</time>
      </trkpt>
      <trkpt lat="62.643609642083" lon="17.867451813796">
        <ele>84.6</ele>
        <time>2018-01-14T12:27:30Z</time>
      </trkpt>
      <trkpt lat="62.643600254355" lon="17.867389117184">
        <ele>84.2</ele>
        <time>2018-01-14T12:27:31Z</time>
      </trkpt>
      <trkpt lat="62.643600338174" lon="17.867322983993">
        <ele>84.4</ele>
        <time>2018-01-14T12:27:32Z</time>
      </trkpt>
      <trkpt lat="62.643604361486" lon="17.86725366568">
        <ele>84.4</ele>
        <time>2018-01-14T12:27:33Z</time>
      </trkpt>
      <trkpt lat="62.643612743386" lon="17.867178312399">
        <ele>84.4</ele>
        <time>2018-01-14T12:27:34Z</time>
      </trkpt>
      <trkpt lat="62.643633698136" lon="17.86708099854">
        <ele>84.4</ele>
        <time>2018-01-14T12:27:35Z</time>
      </trkpt>
      <trkpt lat="62.643665549356" lon="17.866992653314">
        <ele>84.2</ele>
        <time>2018-01-14T12:27:36Z</time>
      </trkpt>
      <trkpt lat="62.64370879996" lon="17.866917383852">
        <ele>83.8</ele>
        <time>2018-01-14T12:27:37Z</time>
      </trkpt>
      <trkpt lat="62.643728162149" lon="17.866837755802">
        <ele>83</ele>
        <time>2018-01-14T12:27:38Z</time>
      </trkpt>
      <trkpt lat="62.64376998783" lon="17.866758043933">
        <ele>82.6</ele>
        <time>2018-01-14T12:27:39Z</time>
      </trkpt>
      <trkpt lat="62.643797480462" lon="17.866690904914">
        <ele>82.2</ele>
        <time>2018-01-14T12:27:40Z</time>
      </trkpt>
      <trkpt lat="62.643825140732" lon="17.866621335144">
        <ele>82</ele>
        <time>2018-01-14T12:27:41Z</time>
      </trkpt>
      <trkpt lat="62.643852549545" lon="17.866575067056">
        <ele>81.6</ele>
        <time>2018-01-14T12:27:42Z</time>
      </trkpt>
      <trkpt lat="62.643867469327" lon="17.866535755945">
        <ele>81.2</ele>
        <time>2018-01-14T12:27:43Z</time>
      </trkpt>
      <trkpt lat="62.64389152538" lon="17.866514130643">
        <ele>81.2</ele>
        <time>2018-01-14T12:27:44Z</time>
      </trkpt>
      <trkpt lat="62.643901248384" lon="17.866487224744">
        <ele>81.2</ele>
        <time>2018-01-14T12:27:45Z</time>
      </trkpt>
      <trkpt lat="62.643904768782" lon="17.866468197831">
        <ele>81.4</ele>
        <time>2018-01-14T12:27:46Z</time>
      </trkpt>
      <trkpt lat="62.643914910881" lon="17.866439447914">
        <ele>81.4</ele>
        <time>2018-01-14T12:27:47Z</time>
      </trkpt>
      <trkpt lat="62.643929411568" lon="17.866412625834">
        <ele>82.2</ele>
        <time>2018-01-14T12:27:48Z</time>
      </trkpt>
      <trkpt lat="62.643939386029" lon="17.866386893401">
        <ele>82.8</ele>
        <time>2018-01-14T12:27:49Z</time>
      </trkpt>
      <trkpt lat="62.643950282499" lon="17.866363759357">
        <ele>83.4</ele>
        <time>2018-01-14T12:27:50Z</time>
      </trkpt>
      <trkpt lat="62.643960005503" lon="17.866332411051">
        <ele>84</ele>
        <time>2018-01-14T12:27:51Z</time>
      </trkpt>
      <trkpt lat="62.643970231421" lon="17.866310115197">
        <ele>84.4</ele>
        <time>2018-01-14T12:27:52Z</time>
      </trkpt>
      <trkpt lat="62.643980960253" lon="17.866286059144">
        <ele>84.6</ele>
        <time>2018-01-14T12:27:53Z</time>
      </trkpt>
      <trkpt lat="62.643992359637" lon="17.86626208691">
        <ele>85</ele>
        <time>2018-01-14T12:27:54Z</time>
      </trkpt>
      <trkpt lat="62.643999316614" lon="17.866242221807">
        <ele>85.2</ele>
        <time>2018-01-14T12:27:55Z</time>
      </trkpt>
      <trkpt lat="62.644015409862" lon="17.866219171582">
        <ele>85.6</ele>
        <time>2018-01-14T12:27:56Z</time>
      </trkpt>
      <trkpt lat="62.644024965228" lon="17.866191343674">
        <ele>85.6</ele>
        <time>2018-01-14T12:27:57Z</time>
      </trkpt>
      <trkpt lat="62.64403317949" lon="17.866168628725">
        <ele>85.8</ele>
        <time>2018-01-14T12:27:58Z</time>
      </trkpt>
      <trkpt lat="62.644045500883" lon="17.866138956799">
        <ele>85.8</ele>
        <time>2018-01-14T12:27:59Z</time>
      </trkpt>
      <trkpt lat="62.64405413424" lon="17.866107440855">
        <ele>86</ele>
        <time>2018-01-14T12:28:00Z</time>
      </trkpt>
      <trkpt lat="62.644059666294" lon="17.866084558268">
        <ele>86</ele>
        <time>2018-01-14T12:28:01Z</time>
      </trkpt>
      <trkpt lat="62.644063019054" lon="17.866043989872">
        <ele>86.2</ele>
        <time>2018-01-14T12:28:02Z</time>
      </trkpt>
      <trkpt lat="62.644073831705" lon="17.866003253838">
        <ele>86.6</ele>
        <time>2018-01-14T12:28:03Z</time>
      </trkpt>
      <trkpt lat="62.644078525569" lon="17.865966792573">
        <ele>86.6</ele>
        <time>2018-01-14T12:28:04Z</time>
      </trkpt>
      <trkpt lat="62.644095289369" lon="17.865912980775">
        <ele>86.8</ele>
        <time>2018-01-14T12:28:05Z</time>
      </trkpt>
      <trkpt lat="62.644099312681" lon="17.865873669664">
        <ele>87</ele>
        <time>2018-01-14T12:28:06Z</time>
      </trkpt>
      <trkpt lat="62.644103419812" lon="17.865838381865">
        <ele>87.2</ele>
        <time>2018-01-14T12:28:07Z</time>
      </trkpt>
      <trkpt lat="62.644120015974" lon="17.865776271986">
        <ele>87.4</ele>
        <time>2018-01-14T12:28:08Z</time>
      </trkpt>
      <trkpt lat="62.644131750634" lon="17.865742660567">
        <ele>87.6</ele>
        <time>2018-01-14T12:28:09Z</time>
      </trkpt>
      <trkpt lat="62.64414214419" lon="17.865703684732">
        <ele>87.8</ele>
        <time>2018-01-14T12:28:10Z</time>
      </trkpt>
      <trkpt lat="62.644162093112" lon="17.865655153531">
        <ele>88</ele>
        <time>2018-01-14T12:28:11Z</time>
      </trkpt>
      <trkpt lat="62.644174414505" lon="17.865612992574">
        <ele>88.2</ele>
        <time>2018-01-14T12:28:12Z</time>
      </trkpt>
      <trkpt lat="62.644180784749" lon="17.865580386983">
        <ele>88.4</ele>
        <time>2018-01-14T12:28:13Z</time>
      </trkpt>
      <trkpt lat="62.644203415879" lon="17.865543422804">
        <ele>88.2</ele>
        <time>2018-01-14T12:28:14Z</time>
      </trkpt>
      <trkpt lat="62.644221688421" lon="17.865498076725">
        <ele>88.4</ele>
        <time>2018-01-14T12:28:15Z</time>
      </trkpt>
      <trkpt lat="62.644235015642" lon="17.865477121975">
        <ele>88.6</ele>
        <time>2018-01-14T12:28:16Z</time>
      </trkpt>
      <trkpt lat="62.644252533813" lon="17.865442672366">
        <ele>88.6</ele>
        <time>2018-01-14T12:28:17Z</time>
      </trkpt>
      <trkpt lat="62.644268459423" lon="17.865403947988">
        <ele>88.8</ele>
        <time>2018-01-14T12:28:18Z</time>
      </trkpt>
      <trkpt lat="62.644294862408" lon="17.865368911646">
        <ele>88.8</ele>
        <time>2018-01-14T12:28:19Z</time>
      </trkpt>
      <trkpt lat="62.644318415547" lon="17.865325912499">
        <ele>89</ele>
        <time>2018-01-14T12:28:20Z</time>
      </trkpt>
      <trkpt lat="62.644323360868" lon="17.865300096247">
        <ele>89</ele>
        <time>2018-01-14T12:28:21Z</time>
      </trkpt>
      <trkpt lat="62.644344734713" lon="17.865261036593">
        <ele>88.8</ele>
        <time>2018-01-14T12:28:22Z</time>
      </trkpt>
      <trkpt lat="62.644366360015" lon="17.86521602579">
        <ele>88.8</ele>
        <time>2018-01-14T12:28:23Z</time>
      </trkpt>
      <trkpt lat="62.644382453263" lon="17.865182414371">
        <ele>88.8</ele>
        <time>2018-01-14T12:28:24Z</time>
      </trkpt>
      <trkpt lat="62.644400474348" lon="17.865140421052">
        <ele>88.8</ele>
        <time>2018-01-14T12:28:25Z</time>
      </trkpt>
      <trkpt lat="62.644416819053" lon="17.865098763009">
        <ele>88.8</ele>
        <time>2018-01-14T12:28:26Z</time>
      </trkpt>
      <trkpt lat="62.644424362763" lon="17.865053752206">
        <ele>89</ele>
        <time>2018-01-14T12:28:27Z</time>
      </trkpt>
      <trkpt lat="62.644428553713" lon="17.865016285113">
        <ele>89.2</ele>
        <time>2018-01-14T12:28:28Z</time>
      </trkpt>
      <trkpt lat="62.644426039143" lon="17.864967418636">
        <ele>89.6</ele>
        <time>2018-01-14T12:28:29Z</time>
      </trkpt>
      <trkpt lat="62.644423440754" lon="17.864910254078">
        <ele>89.8</ele>
        <time>2018-01-14T12:28:30Z</time>
      </trkpt>
      <trkpt lat="62.644415226492" lon="17.864865243275">
        <ele>90</ele>
        <time>2018-01-14T12:28:31Z</time>
      </trkpt>
      <trkpt lat="62.644403408013" lon="17.864813526952">
        <ele>90.2</ele>
        <time>2018-01-14T12:28:32Z</time>
      </trkpt>
      <trkpt lat="62.644392679181" lon="17.864759631335">
        <ele>90.4</ele>
        <time>2018-01-14T12:28:33Z</time>
      </trkpt>
      <trkpt lat="62.644384297281" lon="17.864710848677">
        <ele>90.2</ele>
        <time>2018-01-14T12:28:34Z</time>
      </trkpt>
      <trkpt lat="62.644374071363" lon="17.864660473458">
        <ele>90.2</ele>
        <time>2018-01-14T12:28:35Z</time>
      </trkpt>
      <trkpt lat="62.644365018911" lon="17.864599704683">
        <ele>90.2</ele>
        <time>2018-01-14T12:28:36Z</time>
      </trkpt>
      <trkpt lat="62.644358145753" lon="17.864557040812">
        <ele>90</ele>
        <time>2018-01-14T12:28:37Z</time>
      </trkpt>
      <trkpt lat="62.644353619527" lon="17.864499960073">
        <ele>89.8</ele>
        <time>2018-01-14T12:28:38Z</time>
      </trkpt>
      <trkpt lat="62.644353703346" lon="17.864453021433">
        <ele>89.6</ele>
        <time>2018-01-14T12:28:39Z</time>
      </trkpt>
      <trkpt lat="62.644352865156" lon="17.864412536856">
        <ele>89.6</ele>
        <time>2018-01-14T12:28:40Z</time>
      </trkpt>
      <trkpt lat="62.644356134097" lon="17.86436945389">
        <ele>89.4</ele>
        <time>2018-01-14T12:28:41Z</time>
      </trkpt>
      <trkpt lat="62.644369796594" lon="17.864329723684">
        <ele>89.6</ele>
        <time>2018-01-14T12:28:42Z</time>
      </trkpt>
      <trkpt lat="62.644379854874" lon="17.864297537188">
        <ele>89.6</ele>
        <time>2018-01-14T12:28:43Z</time>
      </trkpt>
      <trkpt lat="62.64439108662" lon="17.864271469479">
        <ele>89.8</ele>
        <time>2018-01-14T12:28:44Z</time>
      </trkpt>
      <trkpt lat="62.644407096049" lon="17.864249089806">
        <ele>89.8</ele>
        <time>2018-01-14T12:28:45Z</time>
      </trkpt>
      <trkpt lat="62.644420004175" lon="17.864224363201">
        <ele>89.8</ele>
        <time>2018-01-14T12:28:46Z</time>
      </trkpt>
      <trkpt lat="62.644435007776" lon="17.86419678675">
        <ele>90</ele>
        <time>2018-01-14T12:28:47Z</time>
      </trkpt>
      <trkpt lat="62.644453699413" lon="17.864169713213">
        <ele>89.8</ele>
        <time>2018-01-14T12:28:48Z</time>
      </trkpt>
      <trkpt lat="62.644467278091" lon="17.864153117051">
        <ele>90</ele>
        <time>2018-01-14T12:28:49Z</time>
      </trkpt>
      <trkpt lat="62.644484712443" lon="17.86413978983">
        <ele>90.2</ele>
        <time>2018-01-14T12:28:50Z</time>
      </trkpt>
      <trkpt lat="62.644495692732" lon="17.864135012147">
        <ele>90.6</ele>
        <time>2018-01-14T12:28:51Z</time>
      </trkpt>
      <trkpt lat="62.644504493727" lon="17.864124870048">
        <ele>90.8</ele>
        <time>2018-01-14T12:28:52Z</time>
      </trkpt>
      <trkpt lat="62.644512288894" lon="17.864116907243">
        <ele>91</ele>
        <time>2018-01-14T12:28:53Z</time>
      </trkpt>
      <trkpt lat="62.644521928079" lon="17.864109195895">
        <ele>91.2</ele>
        <time>2018-01-14T12:28:54Z</time>
      </trkpt>
      <trkpt lat="62.644532992187" lon="17.864104837307">
        <ele>91.6</ele>
        <time>2018-01-14T12:28:55Z</time>
      </trkpt>
      <trkpt lat="62.644543804838" lon="17.864093605561">
        <ele>91.8</ele>
        <time>2018-01-14T12:28:56Z</time>
      </trkpt>
      <trkpt lat="62.644556293869" lon="17.864082625272">
        <ele>92</ele>
        <time>2018-01-14T12:28:57Z</time>
      </trkpt>
      <trkpt lat="62.644561574466" lon="17.864081703263">
        <ele>92.2</ele>
        <time>2018-01-14T12:28:58Z</time>
      </trkpt>
      <trkpt lat="62.644564927226" lon="17.864075165381">
        <ele>92.4</ele>
        <time>2018-01-14T12:28:59Z</time>
      </trkpt>
      <trkpt lat="62.6445771648" lon="17.864065023282">
        <ele>92.6</ele>
        <time>2018-01-14T12:29:00Z</time>
      </trkpt>
      <trkpt lat="62.644585630519" lon="17.864059155952">
        <ele>92.8</ele>
        <time>2018-01-14T12:29:01Z</time>
      </trkpt>
      <trkpt lat="62.644591581668" lon="17.864054210631">
        <ele>93</ele>
        <time>2018-01-14T12:29:02Z</time>
      </trkpt>
      <trkpt lat="62.644603735423" lon="17.864050354957">
        <ele>93.2</ele>
        <time>2018-01-14T12:29:03Z</time>
      </trkpt>
      <trkpt lat="62.644616978825" lon="17.864043817075">
        <ele>93.8</ele>
        <time>2018-01-14T12:29:04Z</time>
      </trkpt>
      <trkpt lat="62.644627037105" lon="17.864037111555">
        <ele>94</ele>
        <time>2018-01-14T12:29:05Z</time>
      </trkpt>
      <trkpt lat="62.644636760109" lon="17.864030657492">
        <ele>94.2</ele>
        <time>2018-01-14T12:29:06Z</time>
      </trkpt>
      <trkpt lat="62.644645728742" lon="17.864028226741">
        <ele>94.4</ele>
        <time>2018-01-14T12:29:07Z</time>
      </trkpt>
      <trkpt lat="62.64465344009" lon="17.864024873981">
        <ele>94.6</ele>
        <time>2018-01-14T12:29:08Z</time>
      </trkpt>
      <trkpt lat="62.644664420379" lon="17.864017581728">
        <ele>94.8</ele>
        <time>2018-01-14T12:29:09Z</time>
      </trkpt>
      <trkpt lat="62.644676574134" lon="17.864009786561">
        <ele>95</ele>
        <time>2018-01-14T12:29:10Z</time>
      </trkpt>
      <trkpt lat="62.644687302966" lon="17.864003248679">
        <ele>95.2</ele>
        <time>2018-01-14T12:29:11Z</time>
      </trkpt>
      <trkpt lat="62.644696858332" lon="17.863993358037">
        <ele>95.6</ele>
        <time>2018-01-14T12:29:12Z</time>
      </trkpt>
      <trkpt lat="62.64470624606" lon="17.863988831811">
        <ele>95.8</ele>
        <time>2018-01-14T12:29:13Z</time>
      </trkpt>
      <trkpt lat="62.644718315996" lon="17.863976761875">
        <ele>96</ele>
        <time>2018-01-14T12:29:14Z</time>
      </trkpt>
      <trkpt lat="62.64473055357" lon="17.863963015559">
        <ele>96</ele>
        <time>2018-01-14T12:29:15Z</time>
      </trkpt>
      <trkpt lat="62.64474647918" lon="17.863953041098">
        <ele>96.4</ele>
        <time>2018-01-14T12:29:16Z</time>
      </trkpt>
      <trkpt lat="62.644760812229" lon="17.863944072465">
        <ele>96.6</ele>
        <time>2018-01-14T12:29:17Z</time>
      </trkpt>
      <trkpt lat="62.644775648192" lon="17.863930912882">
        <ele>96.8</ele>
        <time>2018-01-14T12:29:18Z</time>
      </trkpt>
      <trkpt lat="62.644791657621" lon="17.863916579833">
        <ele>97</ele>
        <time>2018-01-14T12:29:19Z</time>
      </trkpt>
      <trkpt lat="62.644805655394" lon="17.863906940648">
        <ele>97.2</ele>
        <time>2018-01-14T12:29:20Z</time>
      </trkpt>
      <trkpt lat="62.644820323719" lon="17.863900486585">
        <ele>97.4</ele>
        <time>2018-01-14T12:29:21Z</time>
      </trkpt>
      <trkpt lat="62.644846307609" lon="17.863882214043">
        <ele>97.8</ele>
        <time>2018-01-14T12:29:23Z</time>
      </trkpt>
      <trkpt lat="62.644861059753" lon="17.863875508523">
        <ele>98</ele>
        <time>2018-01-14T12:29:24Z</time>
      </trkpt>
      <trkpt lat="62.644875141345" lon="17.863867210442">
        <ele>98.2</ele>
        <time>2018-01-14T12:29:25Z</time>
      </trkpt>
      <trkpt lat="62.644888636204" lon="17.863855978696">
        <ele>98.6</ele>
        <time>2018-01-14T12:29:26Z</time>
      </trkpt>
      <trkpt lat="62.644903388348" lon="17.863843573484">
        <ele>98.8</ele>
        <time>2018-01-14T12:29:27Z</time>
      </trkpt>
      <trkpt lat="62.644918056673" lon="17.863837119421">
        <ele>99</ele>
        <time>2018-01-14T12:29:28Z</time>
      </trkpt>
      <trkpt lat="62.644933982283" lon="17.863831000634">
        <ele>99.2</ele>
        <time>2018-01-14T12:29:29Z</time>
      </trkpt>
      <trkpt lat="62.644944962572" lon="17.863835945955">
        <ele>99.2</ele>
        <time>2018-01-14T12:29:30Z</time>
      </trkpt>
      <trkpt lat="62.644958625069" lon="17.863833934299">
        <ele>99.4</ele>
        <time>2018-01-14T12:29:31Z</time>
      </trkpt>
      <trkpt lat="62.644972539023" lon="17.863827647874">
        <ele>99.6</ele>
        <time>2018-01-14T12:29:32Z</time>
      </trkpt>
      <trkpt lat="62.644983854588" lon="17.863821948182">
        <ele>99.8</ele>
        <time>2018-01-14T12:29:33Z</time>
      </trkpt>
      <trkpt lat="62.644996930352" lon="17.86381038116">
        <ele>100</ele>
        <time>2018-01-14T12:29:34Z</time>
      </trkpt>
      <trkpt lat="62.645011933953" lon="17.863796048111">
        <ele>100.2</ele>
        <time>2018-01-14T12:29:35Z</time>
      </trkpt>
      <trkpt lat="62.645025177355" lon="17.863783475261">
        <ele>100.6</ele>
        <time>2018-01-14T12:29:36Z</time>
      </trkpt>
      <trkpt lat="62.645037834024" lon="17.863772914067">
        <ele>101</ele>
        <time>2018-01-14T12:29:37Z</time>
      </trkpt>
      <trkpt lat="62.645049401046" lon="17.863763191063">
        <ele>101.2</ele>
        <time>2018-01-14T12:29:38Z</time>
      </trkpt>
      <trkpt lat="62.645061051887" lon="17.863756485543">
        <ele>101.6</ele>
        <time>2018-01-14T12:29:39Z</time>
      </trkpt>
      <trkpt lat="62.645070691072" lon="17.86375086967">
        <ele>101.8</ele>
        <time>2018-01-14T12:29:40Z</time>
      </trkpt>
      <trkpt lat="62.645080497895" lon="17.863741817218">
        <ele>102.2</ele>
        <time>2018-01-14T12:29:41Z</time>
      </trkpt>
      <trkpt lat="62.645090053261" lon="17.863729579644">
        <ele>102.4</ele>
        <time>2018-01-14T12:29:42Z</time>
      </trkpt>
      <trkpt lat="62.64510103355" lon="17.863714911319">
        <ele>102.8</ele>
        <time>2018-01-14T12:29:43Z</time>
      </trkpt>
      <trkpt lat="62.645116540065" lon="17.863704601582">
        <ele>103.2</ele>
        <time>2018-01-14T12:29:44Z</time>
      </trkpt>
      <trkpt lat="62.645129615829" lon="17.863696974053">
        <ele>103.4</ele>
        <time>2018-01-14T12:29:45Z</time>
      </trkpt>
      <trkpt lat="62.645145541439" lon="17.86369722551">
        <ele>104</ele>
        <time>2018-01-14T12:29:46Z</time>
      </trkpt>
      <trkpt lat="62.645161550868" lon="17.863697728424">
        <ele>104.2</ele>
        <time>2018-01-14T12:29:47Z</time>
      </trkpt>
      <trkpt lat="62.645175129546" lon="17.863692028732">
        <ele>104.2</ele>
        <time>2018-01-14T12:29:48Z</time>
      </trkpt>
      <trkpt lat="62.645191893346" lon="17.863682389547">
        <ele>104.6</ele>
        <time>2018-01-14T12:29:49Z</time>
      </trkpt>
      <trkpt lat="62.645207399861" lon="17.863671995991">
        <ele>104.6</ele>
        <time>2018-01-14T12:29:50Z</time>
      </trkpt>
      <trkpt lat="62.645222403462" lon="17.863662272987">
        <ele>104.6</ele>
        <time>2018-01-14T12:29:51Z</time>
      </trkpt>
      <trkpt lat="62.645241178918" lon="17.863652047069">
        <ele>104.6</ele>
        <time>2018-01-14T12:29:52Z</time>
      </trkpt>
      <trkpt lat="62.645261546935" lon="17.863641150599">
        <ele>104.6</ele>
        <time>2018-01-14T12:29:53Z</time>
      </trkpt>
      <trkpt lat="62.645283172237" lon="17.863627404283">
        <ele>104.8</ele>
        <time>2018-01-14T12:29:54Z</time>
      </trkpt>
      <trkpt lat="62.645305132815" lon="17.863617681279">
        <ele>104.8</ele>
        <time>2018-01-14T12:29:55Z</time>
      </trkpt>
      <trkpt lat="62.645323405357" lon="17.863604856972">
        <ele>104.8</ele>
        <time>2018-01-14T12:29:56Z</time>
      </trkpt>
      <trkpt lat="62.645341929356" lon="17.863592200303">
        <ele>105</ele>
        <time>2018-01-14T12:29:57Z</time>
      </trkpt>
      <trkpt lat="62.645360285717" lon="17.863572670476">
        <ele>105.4</ele>
        <time>2018-01-14T12:29:58Z</time>
      </trkpt>
      <trkpt lat="62.64537679806" lon="17.863547943871">
        <ele>105.6</ele>
        <time>2018-01-14T12:29:59Z</time>
      </trkpt>
      <trkpt lat="62.645390879652" lon="17.863525564198">
        <ele>105.8</ele>
        <time>2018-01-14T12:30:00Z</time>
      </trkpt>
      <trkpt lat="62.645408146366" lon="17.863490527856">
        <ele>106</ele>
        <time>2018-01-14T12:30:01Z</time>
      </trkpt>
      <trkpt lat="62.645420719216" lon="17.863455491514">
        <ele>106.4</ele>
        <time>2018-01-14T12:30:02Z</time>
      </trkpt>
      <trkpt lat="62.645430358401" lon="17.863422885923">
        <ele>106.4</ele>
        <time>2018-01-14T12:30:03Z</time>
      </trkpt>
      <trkpt lat="62.645440249043" lon="17.863376617835">
        <ele>106.6</ele>
        <time>2018-01-14T12:30:04Z</time>
      </trkpt>
      <trkpt lat="62.645448379486" lon="17.863331020299">
        <ele>107</ele>
        <time>2018-01-14T12:30:05Z</time>
      </trkpt>
      <trkpt lat="62.645456593748" lon="17.863277543777">
        <ele>107</ele>
        <time>2018-01-14T12:30:06Z</time>
      </trkpt>
      <trkpt lat="62.645456929024" lon="17.86322280997">
        <ele>107.2</ele>
        <time>2018-01-14T12:30:07Z</time>
      </trkpt>
      <trkpt lat="62.645460114146" lon="17.863162544109">
        <ele>107.4</ele>
        <time>2018-01-14T12:30:08Z</time>
      </trkpt>
      <trkpt lat="62.645465143286" lon="17.863095488909">
        <ele>107.4</ele>
        <time>2018-01-14T12:30:09Z</time>
      </trkpt>
      <trkpt lat="62.645470340064" lon="17.863033127573">
        <ele>107.4</ele>
        <time>2018-01-14T12:30:10Z</time>
      </trkpt>
      <trkpt lat="62.645482912914" lon="17.862964312174">
        <ele>107.4</ele>
        <time>2018-01-14T12:30:11Z</time>
      </trkpt>
      <trkpt lat="62.64549414466" lon="17.862913936955">
        <ele>107.2</ele>
        <time>2018-01-14T12:30:12Z</time>
      </trkpt>
      <trkpt lat="62.64551007027" lon="17.862865321935">
        <ele>107.2</ele>
        <time>2018-01-14T12:30:13Z</time>
      </trkpt>
      <trkpt lat="62.645530019192" lon="17.86281964058">
        <ele>107.2</ele>
        <time>2018-01-14T12:30:14Z</time>
      </trkpt>
      <trkpt lat="62.645544184603" lon="17.86278946574">
        <ele>107.2</ele>
        <time>2018-01-14T12:30:15Z</time>
      </trkpt>
      <trkpt lat="62.645558852928" lon="17.862757279244">
        <ele>107.2</ele>
        <time>2018-01-14T12:30:16Z</time>
      </trkpt>
      <trkpt lat="62.645573605072" lon="17.862724003101">
        <ele>107.2</ele>
        <time>2018-01-14T12:30:17Z</time>
      </trkpt>
      <trkpt lat="62.645590787967" lon="17.862689050578">
        <ele>107.4</ele>
        <time>2018-01-14T12:30:18Z</time>
      </trkpt>
      <trkpt lat="62.645609982518" lon="17.862649739467">
        <ele>107.8</ele>
        <time>2018-01-14T12:30:19Z</time>
      </trkpt>
      <trkpt lat="62.645626830137" lon="17.862607410872">
        <ele>108</ele>
        <time>2018-01-14T12:30:20Z</time>
      </trkpt>
      <trkpt lat="62.645640324996" lon="17.862566926295">
        <ele>108.2</ele>
        <time>2018-01-14T12:30:21Z</time>
      </trkpt>
      <trkpt lat="62.645650215638" lon="17.862526022623">
        <ele>108.2</ele>
        <time>2018-01-14T12:30:22Z</time>
      </trkpt>
      <trkpt lat="62.645659854823" lon="17.862486962969">
        <ele>108.2</ele>
        <time>2018-01-14T12:30:23Z</time>
      </trkpt>
      <trkpt lat="62.645668907275" lon="17.862442119804">
        <ele>108.4</ele>
        <time>2018-01-14T12:30:24Z</time>
      </trkpt>
      <trkpt lat="62.645677205356" lon="17.862394175336">
        <ele>108.6</ele>
        <time>2018-01-14T12:30:25Z</time>
      </trkpt>
      <trkpt lat="62.645685503437" lon="17.862342626651">
        <ele>108.8</ele>
        <time>2018-01-14T12:30:26Z</time>
      </trkpt>
      <trkpt lat="62.645685000523" lon="17.86230918287">
        <ele>109</ele>
        <time>2018-01-14T12:30:27Z</time>
      </trkpt>
      <trkpt lat="62.645690448758" lon="17.862253527054">
        <ele>109.2</ele>
        <time>2018-01-14T12:30:28Z</time>
      </trkpt>
      <trkpt lat="62.645695645536" lon="17.862193428831">
        <ele>109.4</ele>
        <time>2018-01-14T12:30:29Z</time>
      </trkpt>
      <trkpt lat="62.645699333572" lon="17.862150094408">
        <ele>109.6</ele>
        <time>2018-01-14T12:30:30Z</time>
      </trkpt>
      <trkpt lat="62.64570955949" lon="17.862103993958">
        <ele>109.6</ele>
        <time>2018-01-14T12:30:31Z</time>
      </trkpt>
      <trkpt lat="62.645726910023" lon="17.86205856406">
        <ele>109.8</ele>
        <time>2018-01-14T12:30:32Z</time>
      </trkpt>
      <trkpt lat="62.645743673823" lon="17.862028305401">
        <ele>109.8</ele>
        <time>2018-01-14T12:30:33Z</time>
      </trkpt>
      <trkpt lat="62.645769490075" lon="17.862015900189">
        <ele>110</ele>
        <time>2018-01-14T12:30:34Z</time>
      </trkpt>
      <trkpt lat="62.645793043214" lon="17.862017576569">
        <ele>110</ele>
        <time>2018-01-14T12:30:35Z</time>
      </trkpt>
      <trkpt lat="62.645813159774" lon="17.862013720895">
        <ele>110</ele>
        <time>2018-01-14T12:30:36Z</time>
      </trkpt>
      <trkpt lat="62.645832941058" lon="17.862006512461">
        <ele>110</ele>
        <time>2018-01-14T12:30:37Z</time>
      </trkpt>
      <trkpt lat="62.64585288998" lon="17.862005422814">
        <ele>110.2</ele>
        <time>2018-01-14T12:30:38Z</time>
      </trkpt>
      <trkpt lat="62.645871246341" lon="17.861999806941">
        <ele>110.4</ele>
        <time>2018-01-14T12:30:39Z</time>
      </trkpt>
      <trkpt lat="62.645900918267" lon="17.861982037313">
        <ele>110.4</ele>
        <time>2018-01-14T12:30:40Z</time>
      </trkpt>
      <trkpt lat="62.645925477234" lon="17.861965776427">
        <ele>110.4</ele>
        <time>2018-01-14T12:30:41Z</time>
      </trkpt>
      <trkpt lat="62.645946096708" lon="17.861940966003">
        <ele>110.6</ele>
        <time>2018-01-14T12:30:42Z</time>
      </trkpt>
      <trkpt lat="62.645965375078" lon="17.861908947145">
        <ele>110.8</ele>
        <time>2018-01-14T12:30:43Z</time>
      </trkpt>
      <trkpt lat="62.645988257665" lon="17.861864690713">
        <ele>110.8</ele>
        <time>2018-01-14T12:30:44Z</time>
      </trkpt>
      <trkpt lat="62.646010385881" lon="17.861821523928">
        <ele>111</ele>
        <time>2018-01-14T12:30:45Z</time>
      </trkpt>
      <trkpt lat="62.646022371998" lon="17.861786655224">
        <ele>111.2</ele>
        <time>2018-01-14T12:30:46Z</time>
      </trkpt>
      <trkpt lat="62.646040979816" lon="17.861734435987">
        <ele>111</ele>
        <time>2018-01-14T12:30:47Z</time>
      </trkpt>
      <trkpt lat="62.646053887942" lon="17.861692694125">
        <ele>111.2</ele>
        <time>2018-01-14T12:30:48Z</time>
      </trkpt>
      <trkpt lat="62.646073585407" lon="17.861634775196">
        <ele>111</ele>
        <time>2018-01-14T12:30:49Z</time>
      </trkpt>
      <trkpt lat="62.646094623976" lon="17.861577694457">
        <ele>111</ele>
        <time>2018-01-14T12:30:50Z</time>
      </trkpt>
      <trkpt lat="62.646109292301" lon="17.861539053898">
        <ele>111</ele>
        <time>2018-01-14T12:30:51Z</time>
      </trkpt>
      <trkpt lat="62.646126726653" lon="17.861491528525">
        <ele>111</ele>
        <time>2018-01-14T12:30:52Z</time>
      </trkpt>
      <trkpt lat="62.646144328643" lon="17.861448026464">
        <ele>111</ele>
        <time>2018-01-14T12:30:53Z</time>
      </trkpt>
      <trkpt lat="62.646162936461" lon="17.861404859679">
        <ele>111.2</ele>
        <time>2018-01-14T12:30:54Z</time>
      </trkpt>
      <trkpt lat="62.646178442976" lon="17.861365967663">
        <ele>111.2</ele>
        <time>2018-01-14T12:30:55Z</time>
      </trkpt>
      <trkpt lat="62.64619319512" lon="17.861324393439">
        <ele>111.4</ele>
        <time>2018-01-14T12:30:56Z</time>
      </trkpt>
      <trkpt lat="62.646212892585" lon="17.861287513079">
        <ele>111.4</ele>
        <time>2018-01-14T12:30:57Z</time>
      </trkpt>
      <trkpt lat="62.646232841507" lon="17.861253231108">
        <ele>111.4</ele>
        <time>2018-01-14T12:30:58Z</time>
      </trkpt>
      <trkpt lat="62.646253963895" lon="17.861215512558">
        <ele>111.6</ele>
        <time>2018-01-14T12:30:59Z</time>
      </trkpt>
      <trkpt lat="62.646277684672" lon="17.861183074605">
        <ele>111.8</ele>
        <time>2018-01-14T12:31:00Z</time>
      </trkpt>
      <trkpt lat="62.646310374082" lon="17.861144014951">
        <ele>112</ele>
        <time>2018-01-14T12:31:01Z</time>
      </trkpt>
      <trkpt lat="62.646344488415" lon="17.861102692184">
        <ele>112</ele>
        <time>2018-01-14T12:31:02Z</time>
      </trkpt>
      <trkpt lat="62.646379943852" lon="17.861062039969">
        <ele>111.8</ele>
        <time>2018-01-14T12:31:03Z</time>
      </trkpt>
      <trkpt lat="62.646422188628" lon="17.86101166475">
        <ele>111.4</ele>
        <time>2018-01-14T12:31:04Z</time>
      </trkpt>
      <trkpt lat="62.646460326273" lon="17.860971599268">
        <ele>110.8</ele>
        <time>2018-01-14T12:31:05Z</time>
      </trkpt>
      <trkpt lat="62.646496787538" lon="17.860936898202">
        <ele>110.2</ele>
        <time>2018-01-14T12:31:06Z</time>
      </trkpt>
      <trkpt lat="62.646525285998" lon="17.860897000358">
        <ele>110</ele>
        <time>2018-01-14T12:31:07Z</time>
      </trkpt>
      <trkpt lat="62.646557640132" lon="17.860856431962">
        <ele>110</ele>
        <time>2018-01-14T12:31:08Z</time>
      </trkpt>
      <trkpt lat="62.646589742809" lon="17.860808571313">
        <ele>110.4</ele>
        <time>2018-01-14T12:31:09Z</time>
      </trkpt>
      <trkpt lat="62.646621845486" lon="17.860767416184">
        <ele>110.6</ele>
        <time>2018-01-14T12:31:10Z</time>
      </trkpt>
      <trkpt lat="62.646659731674" lon="17.860726428693">
        <ele>111</ele>
        <time>2018-01-14T12:31:11Z</time>
      </trkpt>
      <trkpt lat="62.646685967021" lon="17.860682758994">
        <ele>110.8</ele>
        <time>2018-01-14T12:31:12Z</time>
      </trkpt>
      <trkpt lat="62.646715806585" lon="17.860639005476">
        <ele>110.6</ele>
        <time>2018-01-14T12:31:13Z</time>
      </trkpt>
      <trkpt lat="62.646749501823" lon="17.860599526727">
        <ele>110.4</ele>
        <time>2018-01-14T12:31:14Z</time>
      </trkpt>
      <trkpt lat="62.646773641695" lon="17.860566502041">
        <ele>110.4</ele>
        <time>2018-01-14T12:31:15Z</time>
      </trkpt>
      <trkpt lat="62.646803062164" lon="17.86052802912">
        <ele>110.2</ele>
        <time>2018-01-14T12:31:16Z</time>
      </trkpt>
      <trkpt lat="62.646830135701" lon="17.860490981122">
        <ele>110.4</ele>
        <time>2018-01-14T12:31:17Z</time>
      </trkpt>
      <trkpt lat="62.646852683012" lon="17.860463656128">
        <ele>110.4</ele>
        <time>2018-01-14T12:31:18Z</time>
      </trkpt>
      <trkpt lat="62.646880846196" lon="17.860435912039">
        <ele>110.4</ele>
        <time>2018-01-14T12:31:19Z</time>
      </trkpt>
      <trkpt lat="62.646907584457" lon="17.86040984433">
        <ele>110.4</ele>
        <time>2018-01-14T12:31:20Z</time>
      </trkpt>
      <trkpt lat="62.646929712673" lon="17.860391990883">
        <ele>110.4</ele>
        <time>2018-01-14T12:31:21Z</time>
      </trkpt>
      <trkpt lat="62.64695594802" lon="17.860370700857">
        <ele>110.4</ele>
        <time>2018-01-14T12:31:22Z</time>
      </trkpt>
      <trkpt lat="62.646982518643" lon="17.860348237365">
        <ele>110.4</ele>
        <time>2018-01-14T12:31:23Z</time>
      </trkpt>
      <trkpt lat="62.647010178913" lon="17.860322840208">
        <ele>110.4</ele>
        <time>2018-01-14T12:31:24Z</time>
      </trkpt>
      <trkpt lat="62.647039431744" lon="17.860290653712">
        <ele>110.2</ele>
        <time>2018-01-14T12:31:25Z</time>
      </trkpt>
      <trkpt lat="62.647069019851" lon="17.860250252954">
        <ele>110.4</ele>
        <time>2018-01-14T12:31:26Z</time>
      </trkpt>
      <trkpt lat="62.647101541623" lon="17.860198368993">
        <ele>110.4</ele>
        <time>2018-01-14T12:31:27Z</time>
      </trkpt>
      <trkpt lat="62.647121742002" lon="17.860147155584">
        <ele>110.6</ele>
        <time>2018-01-14T12:31:28Z</time>
      </trkpt>
      <trkpt lat="62.647145546598" lon="17.860093427605">
        <ele>110.4</ele>
        <time>2018-01-14T12:31:29Z</time>
      </trkpt>
      <trkpt lat="62.647168345366" lon="17.860045902232">
        <ele>110.4</ele>
        <time>2018-01-14T12:31:30Z</time>
      </trkpt>
      <trkpt lat="62.647186785546" lon="17.860003908913">
        <ele>110.2</ele>
        <time>2018-01-14T12:31:31Z</time>
      </trkpt>
      <trkpt lat="62.647209835771" lon="17.859957305549">
        <ele>110</ele>
        <time>2018-01-14T12:31:32Z</time>
      </trkpt>
      <trkpt lat="62.647229868512" lon="17.859914222583">
        <ele>110.2</ele>
        <time>2018-01-14T12:31:33Z</time>
      </trkpt>
      <trkpt lat="62.647251577633" lon="17.859861165156">
        <ele>110.4</ele>
        <time>2018-01-14T12:31:34Z</time>
      </trkpt>
      <trkpt lat="62.647273286754" lon="17.85980299477">
        <ele>110.4</ele>
        <time>2018-01-14T12:31:35Z</time>
      </trkpt>
      <trkpt lat="62.647292397486" lon="17.859746333126">
        <ele>110.6</ele>
        <time>2018-01-14T12:31:36Z</time>
      </trkpt>
      <trkpt lat="62.647315866806" lon="17.859685731989">
        <ele>110.6</ele>
        <time>2018-01-14T12:31:37Z</time>
      </trkpt>
      <trkpt lat="62.647333301158" lon="17.859629908535">
        <ele>110.8</ele>
        <time>2018-01-14T12:31:38Z</time>
      </trkpt>
      <trkpt lat="62.647352830985" lon="17.859560590222">
        <ele>110.6</ele>
        <time>2018-01-14T12:31:39Z</time>
      </trkpt>
      <trkpt lat="62.647372863726" lon="17.859493954117">
        <ele>110.6</ele>
        <time>2018-01-14T12:31:40Z</time>
      </trkpt>
      <trkpt lat="62.647388789336" lon="17.859424803442">
        <ele>110.6</ele>
        <time>2018-01-14T12:31:41Z</time>
      </trkpt>
      <trkpt lat="62.647393986114" lon="17.859357496785">
        <ele>110.4</ele>
        <time>2018-01-14T12:31:42Z</time>
      </trkpt>
      <trkpt lat="62.647395662494" lon="17.859287759377">
        <ele>110.4</ele>
        <time>2018-01-14T12:31:43Z</time>
      </trkpt>
      <trkpt lat="62.647408905896" lon="17.859206371128">
        <ele>110.4</ele>
        <time>2018-01-14T12:31:44Z</time>
      </trkpt>
      <trkpt lat="62.647418964176" lon="17.859121797757">
        <ele>110.2</ele>
        <time>2018-01-14T12:31:45Z</time>
      </trkpt>
      <trkpt lat="62.64742868718" lon="17.859040325689">
        <ele>110.2</ele>
        <time>2018-01-14T12:31:46Z</time>
      </trkpt>
      <trkpt lat="62.647440002745" lon="17.858950890816">
        <ele>110</ele>
        <time>2018-01-14T12:31:47Z</time>
      </trkpt>
      <trkpt lat="62.647448300826" lon="17.858878638838">
        <ele>109.8</ele>
        <time>2018-01-14T12:31:48Z</time>
      </trkpt>
      <trkpt lat="62.647458275287" lon="17.85879716677">
        <ele>109.6</ele>
        <time>2018-01-14T12:31:49Z</time>
      </trkpt>
      <trkpt lat="62.647462298599" lon="17.85872508243">
        <ele>109.4</ele>
        <time>2018-01-14T12:31:50Z</time>
      </trkpt>
      <trkpt lat="62.647465902816" lon="17.858655931755">
        <ele>109.2</ele>
        <time>2018-01-14T12:31:51Z</time>
      </trkpt>
      <trkpt lat="62.647464058798" lon="17.858582506311">
        <ele>109.2</ele>
        <time>2018-01-14T12:31:52Z</time>
      </trkpt>
      <trkpt lat="62.647462969151" lon="17.858519809699">
        <ele>109.2</ele>
        <time>2018-01-14T12:31:53Z</time>
      </trkpt>
      <trkpt lat="62.647461041314" lon="17.858441438934">
        <ele>109.2</ele>
        <time>2018-01-14T12:31:54Z</time>
      </trkpt>
      <trkpt lat="62.647460622219" lon="17.858369941327">
        <ele>109.2</ele>
        <time>2018-01-14T12:31:55Z</time>
      </trkpt>
      <trkpt lat="62.647463304427" lon="17.858303556679">
        <ele>109.2</ele>
        <time>2018-01-14T12:31:56Z</time>
      </trkpt>
      <trkpt lat="62.647465148445" lon="17.858238680773">
        <ele>109.2</ele>
        <time>2018-01-14T12:31:57Z</time>
      </trkpt>
      <trkpt lat="62.647468501205" lon="17.858185371889">
        <ele>109.4</ele>
        <time>2018-01-14T12:31:58Z</time>
      </trkpt>
      <trkpt lat="62.647476128734" lon="17.858120915078">
        <ele>109.4</ele>
        <time>2018-01-14T12:31:59Z</time>
      </trkpt>
      <trkpt lat="62.647478308028" lon="17.858066851823">
        <ele>109.4</ele>
        <time>2018-01-14T12:32:00Z</time>
      </trkpt>
      <trkpt lat="62.647483420987" lon="17.857988983972">
        <ele>109.4</ele>
        <time>2018-01-14T12:32:01Z</time>
      </trkpt>
      <trkpt lat="62.647490210326" lon="17.857915055614">
        <ele>109.2</ele>
        <time>2018-01-14T12:32:02Z</time>
      </trkpt>
      <trkpt lat="62.647497083484" lon="17.857855376486">
        <ele>109</ele>
        <time>2018-01-14T12:32:03Z</time>
      </trkpt>
      <trkpt lat="62.64750160971" lon="17.857780358481">
        <ele>109</ele>
        <time>2018-01-14T12:32:04Z</time>
      </trkpt>
      <trkpt lat="62.647505381565" lon="17.857712129815">
        <ele>109</ele>
        <time>2018-01-14T12:32:05Z</time>
      </trkpt>
      <trkpt lat="62.647510662162" lon="17.857645242253">
        <ele>108.8</ele>
        <time>2018-01-14T12:32:06Z</time>
      </trkpt>
      <trkpt lat="62.647515523664" lon="17.857585898401">
        <ele>109</ele>
        <time>2018-01-14T12:32:07Z</time>
      </trkpt>
      <trkpt lat="62.647522061546" lon="17.857528063291">
        <ele>109</ele>
        <time>2018-01-14T12:32:08Z</time>
      </trkpt>
      <trkpt lat="62.647531197817" lon="17.857475844054">
        <ele>109</ele>
        <time>2018-01-14T12:32:09Z</time>
      </trkpt>
      <trkpt lat="62.647541675192" lon="17.857415326736">
        <ele>109</ele>
        <time>2018-01-14T12:32:10Z</time>
      </trkpt>
      <trkpt lat="62.647553158395" lon="17.857348439174">
        <ele>109</ele>
        <time>2018-01-14T12:32:11Z</time>
      </trkpt>
      <trkpt lat="62.647564809236" lon="17.857279791413">
        <ele>109.2</ele>
        <time>2018-01-14T12:32:12Z</time>
      </trkpt>
      <trkpt lat="62.647570508928" lon="17.85723058966">
        <ele>109.2</ele>
        <time>2018-01-14T12:32:13Z</time>
      </trkpt>
      <trkpt lat="62.647581489217" lon="17.857173676559">
        <ele>109.2</ele>
        <time>2018-01-14T12:32:14Z</time>
      </trkpt>
      <trkpt lat="62.647593056239" lon="17.857127576109">
        <ele>109.2</ele>
        <time>2018-01-14T12:32:15Z</time>
      </trkpt>
      <trkpt lat="62.647606215822" lon="17.857074015768">
        <ele>109.2</ele>
        <time>2018-01-14T12:32:16Z</time>
      </trkpt>
      <trkpt lat="62.647622141432" lon="17.857012157346">
        <ele>109.4</ele>
        <time>2018-01-14T12:32:17Z</time>
      </trkpt>
      <trkpt lat="62.647632451169" lon="17.856950550381">
        <ele>109.2</ele>
        <time>2018-01-14T12:32:18Z</time>
      </trkpt>
      <trkpt lat="62.647639994879" lon="17.856890703615">
        <ele>109.2</ele>
        <time>2018-01-14T12:32:19Z</time>
      </trkpt>
      <trkpt lat="62.647646197485" lon="17.856835969808">
        <ele>109.2</ele>
        <time>2018-01-14T12:32:20Z</time>
      </trkpt>
      <trkpt lat="62.647652567729" lon="17.856787690064">
        <ele>109.4</ele>
        <time>2018-01-14T12:32:21Z</time>
      </trkpt>
      <trkpt lat="62.647651394263" lon="17.856724574357">
        <ele>109.4</ele>
        <time>2018-01-14T12:32:22Z</time>
      </trkpt>
      <trkpt lat="62.64764996934" lon="17.856675540242">
        <ele>109.4</ele>
        <time>2018-01-14T12:32:23Z</time>
      </trkpt>
      <trkpt lat="62.647652232453" lon="17.856606641024">
        <ele>109.8</ele>
        <time>2018-01-14T12:32:24Z</time>
      </trkpt>
      <trkpt lat="62.647652316272" lon="17.856540004919">
        <ele>110</ele>
        <time>2018-01-14T12:32:25Z</time>
      </trkpt>
      <trkpt lat="62.647653741195" lon="17.856469177864">
        <ele>110.2</ele>
        <time>2018-01-14T12:32:26Z</time>
      </trkpt>
      <trkpt lat="62.647658015964" lon="17.856409834012">
        <ele>110.2</ele>
        <time>2018-01-14T12:32:27Z</time>
      </trkpt>
      <trkpt lat="62.647668828615" lon="17.856337749672">
        <ele>110.2</ele>
        <time>2018-01-14T12:32:28Z</time>
      </trkpt>
      <trkpt lat="62.647686765881" lon="17.856238340338">
        <ele>110.4</ele>
        <time>2018-01-14T12:32:29Z</time>
      </trkpt>
      <trkpt lat="62.647704535509" lon="17.856150078931">
        <ele>109.8</ele>
        <time>2018-01-14T12:32:30Z</time>
      </trkpt>
      <trkpt lat="62.647726579906" lon="17.856057878031">
        <ele>109.2</ele>
        <time>2018-01-14T12:32:31Z</time>
      </trkpt>
      <trkpt lat="62.647750300683" lon="17.855968191701">
        <ele>108.6</ele>
        <time>2018-01-14T12:32:32Z</time>
      </trkpt>
      <trkpt lat="62.64777402146" lon="17.855897783741">
        <ele>108.4</ele>
        <time>2018-01-14T12:32:33Z</time>
      </trkpt>
      <trkpt lat="62.647806543232" lon="17.855818742424">
        <ele>107.6</ele>
        <time>2018-01-14T12:32:34Z</time>
      </trkpt>
      <trkpt lat="62.647842920678" lon="17.855733749958">
        <ele>107</ele>
        <time>2018-01-14T12:32:35Z</time>
      </trkpt>
      <trkpt lat="62.647881980332" lon="17.855657558487">
        <ele>106.6</ele>
        <time>2018-01-14T12:32:36Z</time>
      </trkpt>
      <trkpt lat="62.647924728022" lon="17.855581786111">
        <ele>106.4</ele>
        <time>2018-01-14T12:32:37Z</time>
      </trkpt>
      <trkpt lat="62.647975773793" lon="17.85551146197">
        <ele>106</ele>
        <time>2018-01-14T12:32:38Z</time>
      </trkpt>
      <trkpt lat="62.648033357446" lon="17.855464271873">
        <ele>105.8</ele>
        <time>2018-01-14T12:32:39Z</time>
      </trkpt>
      <trkpt lat="62.648096640791" lon="17.855448513901">
        <ele>105.4</ele>
        <time>2018-01-14T12:32:40Z</time>
      </trkpt>
      <trkpt lat="62.648155900824" lon="17.85545362686">
        <ele>105</ele>
        <time>2018-01-14T12:32:41Z</time>
      </trkpt>
      <trkpt lat="62.648210550812" lon="17.855462260217">
        <ele>104.4</ele>
        <time>2018-01-14T12:32:42Z</time>
      </trkpt>
      <trkpt lat="62.648258076185" lon="17.855463517502">
        <ele>103.6</ele>
        <time>2018-01-14T12:32:43Z</time>
      </trkpt>
      <trkpt lat="62.648309373413" lon="17.855450022643">
        <ele>103</ele>
        <time>2018-01-14T12:32:44Z</time>
      </trkpt>
      <trkpt lat="62.648347427239" lon="17.855421188907">
        <ele>102.8</ele>
        <time>2018-01-14T12:32:45Z</time>
      </trkpt>
      <trkpt lat="62.648389001463" lon="17.855384811461">
        <ele>102.8</ele>
        <time>2018-01-14T12:32:46Z</time>
      </trkpt>
      <trkpt lat="62.648425546547" lon="17.855344829798">
        <ele>103</ele>
        <time>2018-01-14T12:32:47Z</time>
      </trkpt>
      <trkpt lat="62.648453877369" lon="17.855312224207">
        <ele>103.6</ele>
        <time>2018-01-14T12:32:48Z</time>
      </trkpt>
      <trkpt lat="62.648485812408" lon="17.855273918924">
        <ele>103.8</ele>
        <time>2018-01-14T12:32:49Z</time>
      </trkpt>
      <trkpt lat="62.64851246685" lon="17.855239804591">
        <ele>103.8</ele>
        <time>2018-01-14T12:32:50Z</time>
      </trkpt>
      <trkpt lat="62.648543060785" lon="17.855216167633">
        <ele>103.8</ele>
        <time>2018-01-14T12:32:51Z</time>
      </trkpt>
      <trkpt lat="62.648576001652" lon="17.855195883435">
        <ele>103.8</ele>
        <time>2018-01-14T12:32:52Z</time>
      </trkpt>
      <trkpt lat="62.648605589759" lon="17.855173839038">
        <ele>103.8</ele>
        <time>2018-01-14T12:32:53Z</time>
      </trkpt>
      <trkpt lat="62.648637776255" lon="17.855153890116">
        <ele>104</ele>
        <time>2018-01-14T12:32:54Z</time>
      </trkpt>
      <trkpt lat="62.648664598335" lon="17.855128492959">
        <ele>104.2</ele>
        <time>2018-01-14T12:32:55Z</time>
      </trkpt>
      <trkpt lat="62.648683709067" lon="17.855100916508">
        <ele>104.4</ele>
        <time>2018-01-14T12:32:56Z</time>
      </trkpt>
      <trkpt lat="62.648702903618" lon="17.855065712528">
        <ele>104.4</ele>
        <time>2018-01-14T12:32:57Z</time>
      </trkpt>
      <trkpt lat="62.648717907219" lon="17.855030424729">
        <ele>104.6</ele>
        <time>2018-01-14T12:32:58Z</time>
      </trkpt>
      <trkpt lat="62.648732407906" lon="17.854981139157">
        <ele>104.6</ele>
        <time>2018-01-14T12:32:59Z</time>
      </trkpt>
      <trkpt lat="62.648743555833" lon="17.854924058418">
        <ele>104.8</ele>
        <time>2018-01-14T12:33:00Z</time>
      </trkpt>
      <trkpt lat="62.648753530294" lon="17.854848537499">
        <ele>104.8</ele>
        <time>2018-01-14T12:33:01Z</time>
      </trkpt>
      <trkpt lat="62.648760319633" lon="17.854752816201">
        <ele>105</ele>
        <time>2018-01-14T12:33:02Z</time>
      </trkpt>
      <trkpt lat="62.648763504755" lon="17.854652987772">
        <ele>105</ele>
        <time>2018-01-14T12:33:03Z</time>
      </trkpt>
      <trkpt lat="62.64876643842" lon="17.854521727218">
        <ele>105</ele>
        <time>2018-01-14T12:33:04Z</time>
      </trkpt>
      <trkpt lat="62.64877565851" lon="17.854399770573">
        <ele>104.8</ele>
        <time>2018-01-14T12:33:05Z</time>
      </trkpt>
      <trkpt lat="62.648799463106" lon="17.854301031791">
        <ele>104</ele>
        <time>2018-01-14T12:33:06Z</time>
      </trkpt>
      <trkpt lat="62.64883265543" lon="17.854243531957">
        <ele>103.2</ele>
        <time>2018-01-14T12:33:07Z</time>
      </trkpt>
      <trkpt lat="62.648875654577" lon="17.854221822836">
        <ele>102.4</ele>
        <time>2018-01-14T12:33:08Z</time>
      </trkpt>
      <trkpt lat="62.648917899353" lon="17.854242861405">
        <ele>101.8</ele>
        <time>2018-01-14T12:33:09Z</time>
      </trkpt>
      <trkpt lat="62.648952684238" lon="17.854292817529">
        <ele>101.4</ele>
        <time>2018-01-14T12:33:10Z</time>
      </trkpt>
      <trkpt lat="62.648985373648" lon="17.854361297652">
        <ele>101.2</ele>
        <time>2018-01-14T12:33:11Z</time>
      </trkpt>
      <trkpt lat="62.649013536832" lon="17.854434052544">
        <ele>101.4</ele>
        <time>2018-01-14T12:33:12Z</time>
      </trkpt>
      <trkpt lat="62.649040694188" lon="17.854512674766">
        <ele>101.2</ele>
        <time>2018-01-14T12:33:13Z</time>
      </trkpt>
      <trkpt lat="62.649070030838" lon="17.854601355268">
        <ele>101.2</ele>
        <time>2018-01-14T12:33:14Z</time>
      </trkpt>
      <trkpt lat="62.649094841262" lon="17.854680312766">
        <ele>101</ele>
        <time>2018-01-14T12:33:15Z</time>
      </trkpt>
      <trkpt lat="62.649120406057" lon="17.854757342427">
        <ele>100.8</ele>
        <time>2018-01-14T12:33:16Z</time>
      </trkpt>
      <trkpt lat="62.649146473766" lon="17.854828756215">
        <ele>100.6</ele>
        <time>2018-01-14T12:33:17Z</time>
      </trkpt>
      <trkpt lat="62.649171619466" lon="17.854891033732">
        <ele>100.6</ele>
        <time>2018-01-14T12:33:18Z</time>
      </trkpt>
      <trkpt lat="62.649200453202" lon="17.854955825819">
        <ele>100.4</ele>
        <time>2018-01-14T12:33:19Z</time>
      </trkpt>
      <trkpt lat="62.64922995749" lon="17.855011649273">
        <ele>100</ele>
        <time>2018-01-14T12:33:20Z</time>
      </trkpt>
      <trkpt lat="62.649261221977" lon="17.85505548661">
        <ele>99.8</ele>
        <time>2018-01-14T12:33:21Z</time>
      </trkpt>
      <trkpt lat="62.64929533631" lon="17.855083733613">
        <ele>99.8</ele>
        <time>2018-01-14T12:33:22Z</time>
      </trkpt>
      <trkpt lat="62.649334060688" lon="17.855095132997">
        <ele>99.6</ele>
        <time>2018-01-14T12:33:23Z</time>
      </trkpt>
      <trkpt lat="62.649376473102" lon="17.85508901421">
        <ele>99.6</ele>
        <time>2018-01-14T12:33:24Z</time>
      </trkpt>
      <trkpt lat="62.649417376774" lon="17.855066466899">
        <ele>99.4</ele>
        <time>2018-01-14T12:33:25Z</time>
      </trkpt>
      <trkpt lat="62.649457358437" lon="17.855038303715">
        <ele>99.4</ele>
        <time>2018-01-14T12:33:26Z</time>
      </trkpt>
      <trkpt lat="62.649492562417" lon="17.855011816911">
        <ele>99</ele>
        <time>2018-01-14T12:33:27Z</time>
      </trkpt>
      <trkpt lat="62.649530783881" lon="17.85498256408">
        <ele>98.8</ele>
        <time>2018-01-14T12:33:28Z</time>
      </trkpt>
      <trkpt lat="62.64957696815" lon="17.854946102815">
        <ele>98.2</ele>
        <time>2018-01-14T12:33:29Z</time>
      </trkpt>
      <trkpt lat="62.649624409704" lon="17.854912323758">
        <ele>97.6</ele>
        <time>2018-01-14T12:33:30Z</time>
      </trkpt>
      <trkpt lat="62.649676628941" lon="17.854883825298">
        <ele>97</ele>
        <time>2018-01-14T12:33:31Z</time>
      </trkpt>
      <trkpt lat="62.649734799327" lon="17.854862032358">
        <ele>96</ele>
        <time>2018-01-14T12:33:32Z</time>
      </trkpt>
      <trkpt lat="62.649789197858" lon="17.854850549155">
        <ele>95.2</ele>
        <time>2018-01-14T12:33:33Z</time>
      </trkpt>
      <trkpt lat="62.649857091248" lon="17.854839820323">
        <ele>94.6</ele>
        <time>2018-01-14T12:33:34Z</time>
      </trkpt>
      <trkpt lat="62.64992146424" lon="17.85483085169">
        <ele>94</ele>
        <time>2018-01-14T12:33:35Z</time>
      </trkpt>
      <trkpt lat="62.64998181392" lon="17.854817105374">
        <ele>93.2</ele>
        <time>2018-01-14T12:33:36Z</time>
      </trkpt>
      <trkpt lat="62.650037805012" lon="17.854786930534">
        <ele>92.6</ele>
        <time>2018-01-14T12:33:37Z</time>
      </trkpt>
      <trkpt lat="62.650093963742" lon="17.854725742664">
        <ele>92.2</ele>
        <time>2018-01-14T12:33:38Z</time>
      </trkpt>
      <trkpt lat="62.650135957061" lon="17.854639660551">
        <ele>91.6</ele>
        <time>2018-01-14T12:33:39Z</time>
      </trkpt>
      <trkpt lat="62.650167389186" lon="17.854538574837">
        <ele>91.2</ele>
        <time>2018-01-14T12:33:40Z</time>
      </trkpt>
      <trkpt lat="62.650191529058" lon="17.854435058372">
        <ele>90.6</ele>
        <time>2018-01-14T12:33:41Z</time>
      </trkpt>
      <trkpt lat="62.650208879591" lon="17.854334056477">
        <ele>90.4</ele>
        <time>2018-01-14T12:33:42Z</time>
      </trkpt>
      <trkpt lat="62.650224386106" lon="17.854236323523">
        <ele>89.8</ele>
        <time>2018-01-14T12:33:43Z</time>
      </trkpt>
      <trkpt lat="62.650230421074" lon="17.854174297463">
        <ele>89.2</ele>
        <time>2018-01-14T12:33:44Z</time>
      </trkpt>
      <trkpt lat="62.6502433292" lon="17.854110595023">
        <ele>89.2</ele>
        <time>2018-01-14T12:33:45Z</time>
      </trkpt>
      <trkpt lat="62.65025338748" lon="17.85406390784">
        <ele>89.2</ele>
        <time>2018-01-14T12:33:46Z</time>
      </trkpt>
      <trkpt lat="62.650268558719" lon="17.854019232313">
        <ele>89.2</ele>
        <time>2018-01-14T12:33:47Z</time>
      </trkpt>
      <trkpt lat="62.650282305035" lon="17.85397925065">
        <ele>89.4</ele>
        <time>2018-01-14T12:33:48Z</time>
      </trkpt>
      <trkpt lat="62.650297895369" lon="17.853938933711">
        <ele>89.6</ele>
        <time>2018-01-14T12:33:49Z</time>
      </trkpt>
      <trkpt lat="62.650311054952" lon="17.853893839089">
        <ele>90.4</ele>
        <time>2018-01-14T12:33:50Z</time>
      </trkpt>
      <trkpt lat="62.65032295725" lon="17.853850923761">
        <ele>91</ele>
        <time>2018-01-14T12:33:51Z</time>
      </trkpt>
      <trkpt lat="62.650339637231" lon="17.853804404216">
        <ele>91.4</ele>
        <time>2018-01-14T12:33:52Z</time>
      </trkpt>
      <trkpt lat="62.650358412687" lon="17.853751514427">
        <ele>91.8</ele>
        <time>2018-01-14T12:33:53Z</time>
      </trkpt>
      <trkpt lat="62.650384312758" lon="17.853694685145">
        <ele>92</ele>
        <time>2018-01-14T12:33:54Z</time>
      </trkpt>
      <trkpt lat="62.650409961372" lon="17.853643555555">
        <ele>92</ele>
        <time>2018-01-14T12:33:55Z</time>
      </trkpt>
      <trkpt lat="62.650431419036" lon="17.853603322435">
        <ele>92.2</ele>
        <time>2018-01-14T12:33:56Z</time>
      </trkpt>
      <trkpt lat="62.650459414582" lon="17.853570716844">
        <ele>92</ele>
        <time>2018-01-14T12:33:57Z</time>
      </trkpt>
      <trkpt lat="62.650487493947" lon="17.85353417176">
        <ele>92.2</ele>
        <time>2018-01-14T12:33:58Z</time>
      </trkpt>
      <trkpt lat="62.650506017946" lon="17.853499470694">
        <ele>92.2</ele>
        <time>2018-01-14T12:33:59Z</time>
      </trkpt>
      <trkpt lat="62.650522949384" lon="17.85347046932">
        <ele>92.2</ele>
        <time>2018-01-14T12:34:00Z</time>
      </trkpt>
      <trkpt lat="62.650545664333" lon="17.853435852073">
        <ele>92.2</ele>
        <time>2018-01-14T12:34:01Z</time>
      </trkpt>
      <trkpt lat="62.650569217472" lon="17.853398468799">
        <ele>92.6</ele>
        <time>2018-01-14T12:34:02Z</time>
      </trkpt>
      <trkpt lat="62.650587322376" lon="17.853366952855">
        <ele>92.6</ele>
        <time>2018-01-14T12:34:03Z</time>
      </trkpt>
      <trkpt lat="62.650608193307" lon="17.85333216797">
        <ele>92.6</ele>
        <time>2018-01-14T12:34:04Z</time>
      </trkpt>
      <trkpt lat="62.6506288966" lon="17.853299562379">
        <ele>92.6</ele>
        <time>2018-01-14T12:34:05Z</time>
      </trkpt>
      <trkpt lat="62.65064985135" lon="17.853263017295">
        <ele>92.8</ele>
        <time>2018-01-14T12:34:06Z</time>
      </trkpt>
      <trkpt lat="62.650666950426" lon="17.853228651505">
        <ele>93</ele>
        <time>2018-01-14T12:34:07Z</time>
      </trkpt>
      <trkpt lat="62.650682121665" lon="17.853197051742">
        <ele>93.2</ele>
        <time>2018-01-14T12:34:08Z</time>
      </trkpt>
      <trkpt lat="62.650696287076" lon="17.853158578821">
        <ele>93.2</ele>
        <time>2018-01-14T12:34:09Z</time>
      </trkpt>
      <trkpt lat="62.65071523017" lon="17.853109460887">
        <ele>93.4</ele>
        <time>2018-01-14T12:34:10Z</time>
      </trkpt>
      <trkpt lat="62.650731491056" lon="17.853068892491">
        <ele>93.8</ele>
        <time>2018-01-14T12:34:11Z</time>
      </trkpt>
      <trkpt lat="62.650744147725" lon="17.853030335751">
        <ele>94</ele>
        <time>2018-01-14T12:34:12Z</time>
      </trkpt>
      <trkpt lat="62.650762923181" lon="17.852990270269">
        <ele>94.2</ele>
        <time>2018-01-14T12:34:13Z</time>
      </trkpt>
      <trkpt lat="62.650781698637" lon="17.852949785692">
        <ele>94.4</ele>
        <time>2018-01-14T12:34:14Z</time>
      </trkpt>
      <trkpt lat="62.650795361134" lon="17.852918269748">
        <ele>94.4</ele>
        <time>2018-01-14T12:34:15Z</time>
      </trkpt>
      <trkpt lat="62.650813466038" lon="17.852878288085">
        <ele>94.8</ele>
        <time>2018-01-14T12:34:16Z</time>
      </trkpt>
      <trkpt lat="62.650829894562" lon="17.852844928123">
        <ele>94.8</ele>
        <time>2018-01-14T12:34:17Z</time>
      </trkpt>
      <trkpt lat="62.650846993638" lon="17.852816010568">
        <ele>94.8</ele>
        <time>2018-01-14T12:34:18Z</time>
      </trkpt>
      <trkpt lat="62.65087113351" lon="17.852772592326">
        <ele>95</ele>
        <time>2018-01-14T12:34:19Z</time>
      </trkpt>
      <trkpt lat="62.650897452676" lon="17.852733867948">
        <ele>95.2</ele>
        <time>2018-01-14T12:34:20Z</time>
      </trkpt>
      <trkpt lat="62.650919664711" lon="17.852691204077">
        <ele>95.2</ele>
        <time>2018-01-14T12:34:21Z</time>
      </trkpt>
      <trkpt lat="62.650948666085" lon="17.852653066432">
        <ele>95.2</ele>
        <time>2018-01-14T12:34:22Z</time>
      </trkpt>
      <trkpt lat="62.650987893377" lon="17.852630770578">
        <ele>95.2</ele>
        <time>2018-01-14T12:34:23Z</time>
      </trkpt>
      <trkpt lat="62.651019157864" lon="17.852611827484">
        <ele>95.2</ele>
        <time>2018-01-14T12:34:24Z</time>
      </trkpt>
      <trkpt lat="62.651051595817" lon="17.852608055629">
        <ele>94.8</ele>
        <time>2018-01-14T12:34:25Z</time>
      </trkpt>
      <trkpt lat="62.651081267743" lon="17.85260461905">
        <ele>94.8</ele>
        <time>2018-01-14T12:34:26Z</time>
      </trkpt>
      <trkpt lat="62.651103144502" lon="17.852603194127">
        <ele>94.6</ele>
        <time>2018-01-14T12:34:27Z</time>
      </trkpt>
      <trkpt lat="62.651130804772" lon="17.852607804172">
        <ele>94.6</ele>
        <time>2018-01-14T12:34:28Z</time>
      </trkpt>
      <trkpt lat="62.651163242725" lon="17.852611659846">
        <ele>94.6</ele>
        <time>2018-01-14T12:34:29Z</time>
      </trkpt>
      <trkpt lat="62.651192495556" lon="17.85261467733">
        <ele>94.6</ele>
        <time>2018-01-14T12:34:30Z</time>
      </trkpt>
      <trkpt lat="62.65122149693" lon="17.852617527176">
        <ele>94.8</ele>
        <time>2018-01-14T12:34:31Z</time>
      </trkpt>
      <trkpt lat="62.651245636802" lon="17.852615012606">
        <ele>94.8</ele>
        <time>2018-01-14T12:34:32Z</time>
      </trkpt>
      <trkpt lat="62.65127178833" lon="17.852611827484">
        <ele>95</ele>
        <time>2018-01-14T12:34:33Z</time>
      </trkpt>
      <trkpt lat="62.651301711713" lon="17.852594309313">
        <ele>95</ele>
        <time>2018-01-14T12:34:34Z</time>
      </trkpt>
      <trkpt lat="62.651324175205" lon="17.852574863305">
        <ele>95.2</ele>
        <time>2018-01-14T12:34:35Z</time>
      </trkpt>
      <trkpt lat="62.651355523511" lon="17.852554160012">
        <ele>95.2</ele>
        <time>2018-01-14T12:34:36Z</time>
      </trkpt>
      <trkpt lat="62.65138242941" lon="17.85253421109">
        <ele>95.4</ele>
        <time>2018-01-14T12:34:37Z</time>
      </trkpt>
      <trkpt lat="62.651405144359" lon="17.852512166693">
        <ele>95.4</ele>
        <time>2018-01-14T12:34:38Z</time>
      </trkpt>
      <trkpt lat="62.651433810457" lon="17.852486015165">
        <ele>95.6</ele>
        <time>2018-01-14T12:34:39Z</time>
      </trkpt>
      <trkpt lat="62.651462560374" lon="17.852456594696">
        <ele>95.6</ele>
        <time>2018-01-14T12:34:40Z</time>
      </trkpt>
      <trkpt lat="62.651485442961" lon="17.852435639946">
        <ele>95.8</ele>
        <time>2018-01-14T12:34:41Z</time>
      </trkpt>
      <trkpt lat="62.651510923937" lon="17.852409656056">
        <ele>95.8</ele>
        <time>2018-01-14T12:34:42Z</time>
      </trkpt>
      <trkpt lat="62.651533052153" lon="17.852385767641">
        <ele>96</ele>
        <time>2018-01-14T12:34:43Z</time>
      </trkpt>
      <trkpt lat="62.651555767102" lon="17.8523657349">
        <ele>96</ele>
        <time>2018-01-14T12:34:44Z</time>
      </trkpt>
      <trkpt lat="62.651578901146" lon="17.852351820946">
        <ele>96</ele>
        <time>2018-01-14T12:34:45Z</time>
      </trkpt>
      <trkpt lat="62.651603124837" lon="17.852338242268">
        <ele>96.2</ele>
        <time>2018-01-14T12:34:46Z</time>
      </trkpt>
      <trkpt lat="62.651622487026" lon="17.852323573943">
        <ele>96.2</ele>
        <time>2018-01-14T12:34:47Z</time>
      </trkpt>
      <trkpt lat="62.651645704889" lon="17.852310246722">
        <ele>96.2</ele>
        <time>2018-01-14T12:34:48Z</time>
      </trkpt>
      <trkpt lat="62.651672694607" lon="17.85229448875">
        <ele>96.4</ele>
        <time>2018-01-14T12:34:49Z</time>
      </trkpt>
      <trkpt lat="62.651692894986" lon="17.852278144045">
        <ele>96.4</ele>
        <time>2018-01-14T12:34:50Z</time>
      </trkpt>
      <trkpt lat="62.651715861392" lon="17.852264733005">
        <ele>96.6</ele>
        <time>2018-01-14T12:34:51Z</time>
      </trkpt>
      <trkpt lat="62.651743437843" lon="17.852251238146">
        <ele>96.8</ele>
        <time>2018-01-14T12:34:52Z</time>
      </trkpt>
      <trkpt lat="62.651768751181" lon="17.852235061079">
        <ele>96.8</ele>
        <time>2018-01-14T12:34:53Z</time>
      </trkpt>
      <trkpt lat="62.651800434763" lon="17.852222236772">
        <ele>97</ele>
        <time>2018-01-14T12:34:54Z</time>
      </trkpt>
      <trkpt lat="62.651830777241" lon="17.852212765225">
        <ele>97.2</ele>
        <time>2018-01-14T12:34:55Z</time>
      </trkpt>
      <trkpt lat="62.651854162742" lon="17.852207652266">
        <ele>97.4</ele>
        <time>2018-01-14T12:34:56Z</time>
      </trkpt>
      <trkpt lat="62.651873524931" lon="17.852204383325">
        <ele>97.4</ele>
        <time>2018-01-14T12:34:57Z</time>
      </trkpt>
      <trkpt lat="62.651895569328" lon="17.852196588158">
        <ele>97.4</ele>
        <time>2018-01-14T12:34:58Z</time>
      </trkpt>
      <trkpt lat="62.651920882666" lon="17.852181919833">
        <ele>97.6</ele>
        <time>2018-01-14T12:34:59Z</time>
      </trkpt>
      <trkpt lat="62.651937981742" lon="17.852163898748">
        <ele>97.8</ele>
        <time>2018-01-14T12:35:00Z</time>
      </trkpt>
      <trkpt lat="62.651956002827" lon="17.85214529093">
        <ele>98</ele>
        <time>2018-01-14T12:35:01Z</time>
      </trkpt>
      <trkpt lat="62.65197922069" lon="17.852131963709">
        <ele>98.2</ele>
        <time>2018-01-14T12:35:02Z</time>
      </trkpt>
      <trkpt lat="62.651997828508" lon="17.852125342008">
        <ele>98.2</ele>
        <time>2018-01-14T12:35:03Z</time>
      </trkpt>
      <trkpt lat="62.652017190697" lon="17.852119893773">
        <ele>98.4</ele>
        <time>2018-01-14T12:35:04Z</time>
      </trkpt>
      <trkpt lat="62.652034373592" lon="17.852109164941">
        <ele>98.8</ele>
        <time>2018-01-14T12:35:05Z</time>
      </trkpt>
      <trkpt lat="62.652053651962" lon="17.852091730589">
        <ele>99</ele>
        <time>2018-01-14T12:35:06Z</time>
      </trkpt>
      <trkpt lat="62.65207645073" lon="17.852070021468">
        <ele>99</ele>
        <time>2018-01-14T12:35:07Z</time>
      </trkpt>
      <trkpt lat="62.652094807091" lon="17.852048144709">
        <ele>99.2</ele>
        <time>2018-01-14T12:35:08Z</time>
      </trkpt>
      <trkpt lat="62.652114756013" lon="17.852024675389">
        <ele>99.4</ele>
        <time>2018-01-14T12:35:09Z</time>
      </trkpt>
      <trkpt lat="62.652138644428" lon="17.851995003463">
        <ele>99.6</ele>
        <time>2018-01-14T12:35:10Z</time>
      </trkpt>
      <trkpt lat="62.652155575866" lon="17.851971115048">
        <ele>99.6</ele>
        <time>2018-01-14T12:35:11Z</time>
      </trkpt>
      <trkpt lat="62.652172674942" lon="17.851950747031">
        <ele>99.6</ele>
        <time>2018-01-14T12:35:12Z</time>
      </trkpt>
      <trkpt lat="62.652192456226" lon="17.851925936607">
        <ele>99.6</ele>
        <time>2018-01-14T12:35:13Z</time>
      </trkpt>
      <trkpt lat="62.652211734596" lon="17.851897689604">
        <ele>99.8</ele>
        <time>2018-01-14T12:35:14Z</time>
      </trkpt>
      <trkpt lat="62.652230761509" lon="17.851869777877">
        <ele>99.8</ele>
        <time>2018-01-14T12:35:15Z</time>
      </trkpt>
      <trkpt lat="62.652251548621" lon="17.851837507562">
        <ele>99.8</ele>
        <time>2018-01-14T12:35:16Z</time>
      </trkpt>
      <trkpt lat="62.652269485887" lon="17.851806075437">
        <ele>100</ele>
        <time>2018-01-14T12:35:17Z</time>
      </trkpt>
      <trkpt lat="62.65228516004" lon="17.851777576977">
        <ele>100.2</ele>
        <time>2018-01-14T12:35:18Z</time>
      </trkpt>
      <trkpt lat="62.652301840021" lon="17.851752598915">
        <ele>100.4</ele>
        <time>2018-01-14T12:35:19Z</time>
      </trkpt>
      <trkpt lat="62.652316256889" lon="17.851728542862">
        <ele>100.6</ele>
        <time>2018-01-14T12:35:20Z</time>
      </trkpt>
      <trkpt lat="62.65232790773" lon="17.851712281976">
        <ele>100.8</ele>
        <time>2018-01-14T12:35:21Z</time>
      </trkpt>
      <trkpt lat="62.652341989322" lon="17.851692752149">
        <ele>101</ele>
        <time>2018-01-14T12:35:22Z</time>
      </trkpt>
      <trkpt lat="62.652356992923" lon="17.851672970865">
        <ele>101.4</ele>
        <time>2018-01-14T12:35:23Z</time>
      </trkpt>
      <trkpt lat="62.652373086171" lon="17.851651848477">
        <ele>101.6</ele>
        <time>2018-01-14T12:35:24Z</time>
      </trkpt>
      <trkpt lat="62.652386161935" lon="17.851629887899">
        <ele>102</ele>
        <time>2018-01-14T12:35:25Z</time>
      </trkpt>
      <trkpt lat="62.652400662622" lon="17.851602646724">
        <ele>102.2</ele>
        <time>2018-01-14T12:35:26Z</time>
      </trkpt>
      <trkpt lat="62.652414073662" lon="17.851579596499">
        <ele>102.4</ele>
        <time>2018-01-14T12:35:27Z</time>
      </trkpt>
      <trkpt lat="62.652434944593" lon="17.85154011775">
        <ele>102.4</ele>
        <time>2018-01-14T12:35:28Z</time>
      </trkpt>
      <trkpt lat="62.652446427796" lon="17.851521845208">
        <ele>102.8</ele>
        <time>2018-01-14T12:35:29Z</time>
      </trkpt>
      <trkpt lat="62.652467131089" lon="17.85149485549">
        <ele>103</ele>
        <time>2018-01-14T12:35:30Z</time>
      </trkpt>
      <trkpt lat="62.652489259305" lon="17.851463171908">
        <ele>103.2</ele>
        <time>2018-01-14T12:35:31Z</time>
      </trkpt>
      <trkpt lat="62.652508286218" lon="17.851435344">
        <ele>103.6</ele>
        <time>2018-01-14T12:35:32Z</time>
      </trkpt>
      <trkpt lat="62.652515243195" lon="17.851411287947">
        <ele>103.6</ele>
        <time>2018-01-14T12:35:33Z</time>
      </trkpt>
      <trkpt lat="62.65253074971" lon="17.851383962953">
        <ele>103.8</ele>
        <time>2018-01-14T12:35:34Z</time>
      </trkpt>
      <trkpt lat="62.652547764967" lon="17.851361499461">
        <ele>103.8</ele>
        <time>2018-01-14T12:35:35Z</time>
      </trkpt>
      <trkpt lat="62.652565618414" lon="17.851333503915">
        <ele>104</ele>
        <time>2018-01-14T12:35:36Z</time>
      </trkpt>
      <trkpt lat="62.652576682522" lon="17.851307436206">
        <ele>104.2</ele>
        <time>2018-01-14T12:35:37Z</time>
      </trkpt>
      <trkpt lat="62.652590512657" lon="17.851275752624">
        <ele>104.2</ele>
        <time>2018-01-14T12:35:38Z</time>
      </trkpt>
      <trkpt lat="62.652612808511" lon="17.851242727938">
        <ele>104.4</ele>
        <time>2018-01-14T12:35:39Z</time>
      </trkpt>
      <trkpt lat="62.65263133251" lon="17.851217749876">
        <ele>104.6</ele>
        <time>2018-01-14T12:35:40Z</time>
      </trkpt>
      <trkpt lat="62.652651532889" lon="17.851188664683">
        <ele>104.8</ele>
        <time>2018-01-14T12:35:41Z</time>
      </trkpt>
      <trkpt lat="62.652677768236" lon="17.851158908938">
        <ele>105</ele>
        <time>2018-01-14T12:35:42Z</time>
      </trkpt>
      <trkpt lat="62.652691011638" lon="17.851134685247">
        <ele>105.2</ele>
        <time>2018-01-14T12:35:43Z</time>
      </trkpt>
      <trkpt lat="62.652715486786" lon="17.851100822371">
        <ele>105.2</ele>
        <time>2018-01-14T12:35:44Z</time>
      </trkpt>
      <trkpt lat="62.652736357717" lon="17.851076431042">
        <ele>105.2</ele>
        <time>2018-01-14T12:35:45Z</time>
      </trkpt>
      <trkpt lat="62.652753289155" lon="17.851046172383">
        <ele>105.4</ele>
        <time>2018-01-14T12:35:46Z</time>
      </trkpt>
      <trkpt lat="62.652772651344" lon="17.85102714547">
        <ele>105.2</ele>
        <time>2018-01-14T12:35:47Z</time>
      </trkpt>
      <trkpt lat="62.652789834239" lon="17.851009375842">
        <ele>105.4</ele>
        <time>2018-01-14T12:35:48Z</time>
      </trkpt>
      <trkpt lat="62.652811040446" lon="17.850979033364">
        <ele>105.6</ele>
        <time>2018-01-14T12:35:49Z</time>
      </trkpt>
      <trkpt lat="62.65283501268" lon="17.850953636207">
        <ele>106</ele>
        <time>2018-01-14T12:35:50Z</time>
      </trkpt>
      <trkpt lat="62.652853033765" lon="17.850928658145">
        <ele>106.2</ele>
        <time>2018-01-14T12:35:51Z</time>
      </trkpt>
      <trkpt lat="62.652867115357" lon="17.850893118889">
        <ele>106.4</ele>
        <time>2018-01-14T12:35:52Z</time>
      </trkpt>
      <trkpt lat="62.65288278951" lon="17.850850538837">
        <ele>106.4</ele>
        <time>2018-01-14T12:35:53Z</time>
      </trkpt>
      <trkpt lat="62.652895110903" lon="17.850803600197">
        <ele>106.6</ele>
        <time>2018-01-14T12:35:54Z</time>
      </trkpt>
      <trkpt lat="62.652902319337" lon="17.850749536942">
        <ele>106.6</ele>
        <time>2018-01-14T12:35:55Z</time>
      </trkpt>
      <trkpt lat="62.65291296435" lon="17.850700754284">
        <ele>106.6</ele>
        <time>2018-01-14T12:35:56Z</time>
      </trkpt>
      <trkpt lat="62.652919837508" lon="17.850649876151">
        <ele>106.8</ele>
        <time>2018-01-14T12:35:57Z</time>
      </trkpt>
      <trkpt lat="62.652924950467" lon="17.850588520643">
        <ele>107</ele>
        <time>2018-01-14T12:35:58Z</time>
      </trkpt>
      <trkpt lat="62.652931655987" lon="17.850515262837">
        <ele>107</ele>
        <time>2018-01-14T12:35:59Z</time>
      </trkpt>
      <trkpt lat="62.652938864421" lon="17.850450135474">
        <ele>107</ele>
        <time>2018-01-14T12:36:00Z</time>
      </trkpt>
      <trkpt lat="62.652943725923" lon="17.850377212944">
        <ele>107.2</ele>
        <time>2018-01-14T12:36:01Z</time>
      </trkpt>
      <trkpt lat="62.652950263805" lon="17.85031300759">
        <ele>107</ele>
        <time>2018-01-14T12:36:02Z</time>
      </trkpt>
      <trkpt lat="62.652958645705" lon="17.850248299322">
        <ele>107</ele>
        <time>2018-01-14T12:36:03Z</time>
      </trkpt>
      <trkpt lat="62.652962669017" lon="17.850185518891">
        <ele>107</ele>
        <time>2018-01-14T12:36:04Z</time>
      </trkpt>
      <trkpt lat="62.652973984582" lon="17.85010681285">
        <ele>106.6</ele>
        <time>2018-01-14T12:36:05Z</time>
      </trkpt>
      <trkpt lat="62.652983288491" lon="17.850037829813">
        <ele>106.6</ele>
        <time>2018-01-14T12:36:06Z</time>
      </trkpt>
      <trkpt lat="62.6529925924" lon="17.849969265871">
        <ele>106.6</ele>
        <time>2018-01-14T12:36:07Z</time>
      </trkpt>
      <trkpt lat="62.652998208273" lon="17.849901121024">
        <ele>106.6</ele>
        <time>2018-01-14T12:36:08Z</time>
      </trkpt>
      <trkpt lat="62.653005249069" lon="17.849828617589">
        <ele>106.4</ele>
        <time>2018-01-14T12:36:09Z</time>
      </trkpt>
      <trkpt lat="62.653013295693" lon="17.849772291221">
        <ele>106.6</ele>
        <time>2018-01-14T12:36:10Z</time>
      </trkpt>
      <trkpt lat="62.653020504127" lon="17.849717557414">
        <ele>106.6</ele>
        <time>2018-01-14T12:36:11Z</time>
      </trkpt>
      <trkpt lat="62.653034250443" lon="17.849654106431">
        <ele>106.6</ele>
        <time>2018-01-14T12:36:12Z</time>
      </trkpt>
      <trkpt lat="62.653046571836" lon="17.849589398163">
        <ele>106.6</ele>
        <time>2018-01-14T12:36:13Z</time>
      </trkpt>
      <trkpt lat="62.653055791926" lon="17.849527372103">
        <ele>106.8</ele>
        <time>2018-01-14T12:36:14Z</time>
      </trkpt>
      <trkpt lat="62.653071046984" lon="17.849456293591">
        <ele>106.8</ele>
        <time>2018-01-14T12:36:15Z</time>
      </trkpt>
      <trkpt lat="62.653082614006" lon="17.849393261703">
        <ele>107</ele>
        <time>2018-01-14T12:36:16Z</time>
      </trkpt>
      <trkpt lat="62.653094432485" lon="17.849317405508">
        <ele>107.2</ele>
        <time>2018-01-14T12:36:17Z</time>
      </trkpt>
      <trkpt lat="62.653102646747" lon="17.849249763575">
        <ele>107.2</ele>
        <time>2018-01-14T12:36:18Z</time>
      </trkpt>
      <trkpt lat="62.653107089154" lon="17.849195281225">
        <ele>107</ele>
        <time>2018-01-14T12:36:19Z</time>
      </trkpt>
      <trkpt lat="62.653113794674" lon="17.849137529934">
        <ele>107</ele>
        <time>2018-01-14T12:36:20Z</time>
      </trkpt>
      <trkpt lat="62.653123601497" lon="17.849076174426">
        <ele>107</ele>
        <time>2018-01-14T12:36:21Z</time>
      </trkpt>
      <trkpt lat="62.653126870438" lon="17.849016495298">
        <ele>106.8</ele>
        <time>2018-01-14T12:36:22Z</time>
      </trkpt>
      <trkpt lat="62.653130558474" lon="17.848942315483">
        <ele>106.6</ele>
        <time>2018-01-14T12:36:23Z</time>
      </trkpt>
      <trkpt lat="62.653138269822" lon="17.848874757369">
        <ele>106.6</ele>
        <time>2018-01-14T12:36:24Z</time>
      </trkpt>
      <trkpt lat="62.653139610926" lon="17.848792279473">
        <ele>106.8</ele>
        <time>2018-01-14T12:36:25Z</time>
      </trkpt>
      <trkpt lat="62.653140449116" lon="17.848718099658">
        <ele>107</ele>
        <time>2018-01-14T12:36:26Z</time>
      </trkpt>
      <trkpt lat="62.653138772736" lon="17.848656408874">
        <ele>107</ele>
        <time>2018-01-14T12:36:27Z</time>
      </trkpt>
      <trkpt lat="62.653134330329" lon="17.848580301222">
        <ele>106.8</ele>
        <time>2018-01-14T12:36:28Z</time>
      </trkpt>
      <trkpt lat="62.653132318673" lon="17.848511150547">
        <ele>106.6</ele>
        <time>2018-01-14T12:36:29Z</time>
      </trkpt>
      <trkpt lat="62.653121506022" lon="17.848425822805">
        <ele>106.6</ele>
        <time>2018-01-14T12:36:30Z</time>
      </trkpt>
      <trkpt lat="62.653116728339" lon="17.848357175044">
        <ele>106.4</ele>
        <time>2018-01-14T12:36:31Z</time>
      </trkpt>
      <trkpt lat="62.653111699199" lon="17.84827285313">
        <ele>106.4</ele>
        <time>2018-01-14T12:36:32Z</time>
      </trkpt>
      <trkpt lat="62.653109016991" lon="17.848206887577">
        <ele>106.4</ele>
        <time>2018-01-14T12:36:33Z</time>
      </trkpt>
      <trkpt lat="62.65310490986" lon="17.84811862617">
        <ele>106</ele>
        <time>2018-01-14T12:36:34Z</time>
      </trkpt>
      <trkpt lat="62.65309820434" lon="17.848026006175">
        <ele>105.8</ele>
        <time>2018-01-14T12:36:35Z</time>
      </trkpt>
      <trkpt lat="62.653089990078" lon="17.847928943773">
        <ele>105.4</ele>
        <time>2018-01-14T12:36:36Z</time>
      </trkpt>
      <trkpt lat="62.65307892597" lon="17.847827858059">
        <ele>104.8</ele>
        <time>2018-01-14T12:36:37Z</time>
      </trkpt>
      <trkpt lat="62.653068783871" lon="17.847731633847">
        <ele>104.4</ele>
        <time>2018-01-14T12:36:38Z</time>
      </trkpt>
      <trkpt lat="62.653060821066" lon="17.847618813473">
        <ele>104.2</ele>
        <time>2018-01-14T12:36:39Z</time>
      </trkpt>
      <trkpt lat="62.653058222677" lon="17.847513704447">
        <ele>103.8</ele>
        <time>2018-01-14T12:36:40Z</time>
      </trkpt>
      <trkpt lat="62.653052271528" lon="17.847403147186">
        <ele>103.4</ele>
        <time>2018-01-14T12:36:41Z</time>
      </trkpt>
      <trkpt lat="62.653049002587" lon="17.847330643751">
        <ele>103</ele>
        <time>2018-01-14T12:36:42Z</time>
      </trkpt>
      <trkpt lat="62.653040453049" lon="17.847230563865">
        <ele>102.4</ele>
        <time>2018-01-14T12:36:43Z</time>
      </trkpt>
      <trkpt lat="62.65304120742" lon="17.847134507291">
        <ele>102</ele>
        <time>2018-01-14T12:36:44Z</time>
      </trkpt>
      <trkpt lat="62.65304204561" lon="17.847069128471">
        <ele>101.8</ele>
        <time>2018-01-14T12:36:45Z</time>
      </trkpt>
      <trkpt lat="62.653050595148" lon="17.846964187083">
        <ele>101.6</ele>
        <time>2018-01-14T12:36:46Z</time>
      </trkpt>
      <trkpt lat="62.653053277356" lon="17.846887744155">
        <ele>101.8</ele>
        <time>2018-01-14T12:36:47Z</time>
      </trkpt>
      <trkpt lat="62.653060821066" lon="17.846832339796">
        <ele>102</ele>
        <time>2018-01-14T12:36:48Z</time>
      </trkpt>
      <trkpt lat="62.653067526586" lon="17.846755813049">
        <ele>102.2</ele>
        <time>2018-01-14T12:36:49Z</time>
      </trkpt>
      <trkpt lat="62.653073393916" lon="17.846693032618">
        <ele>102.2</ele>
        <time>2018-01-14T12:36:50Z</time>
      </trkpt>
      <trkpt lat="62.653088229879" lon="17.846636873888">
        <ele>102.2</ele>
        <time>2018-01-14T12:36:51Z</time>
      </trkpt>
      <trkpt lat="62.653101221824" lon="17.846581804805">
        <ele>102.2</ele>
        <time>2018-01-14T12:36:52Z</time>
      </trkpt>
      <trkpt lat="62.653117734167" lon="17.846535536717">
        <ele>102.2</ele>
        <time>2018-01-14T12:36:53Z</time>
      </trkpt>
      <trkpt lat="62.653145394437" lon="17.846459093789">
        <ele>102.2</ele>
        <time>2018-01-14T12:36:54Z</time>
      </trkpt>
      <trkpt lat="62.653158134925" lon="17.846395726625">
        <ele>102.2</ele>
        <time>2018-01-14T12:36:55Z</time>
      </trkpt>
      <trkpt lat="62.653174395811" lon="17.846333952022">
        <ele>102.4</ele>
        <time>2018-01-14T12:36:56Z</time>
      </trkpt>
      <trkpt lat="62.653198535683" lon="17.846272009781">
        <ele>102.6</ele>
        <time>2018-01-14T12:36:57Z</time>
      </trkpt>
      <trkpt lat="62.653216975863" lon="17.846215180499">
        <ele>102.4</ele>
        <time>2018-01-14T12:36:58Z</time>
      </trkpt>
      <trkpt lat="62.653238098251" lon="17.846159440864">
        <ele>102.4</ele>
        <time>2018-01-14T12:36:59Z</time>
      </trkpt>
      <trkpt lat="62.653263495408" lon="17.846095906062">
        <ele>102.2</ele>
        <time>2018-01-14T12:37:00Z</time>
      </trkpt>
      <trkpt lat="62.653281432674" lon="17.84604662049">
        <ele>102.2</ele>
        <time>2018-01-14T12:37:01Z</time>
      </trkpt>
      <trkpt lat="62.653305488727" lon="17.845993395425">
        <ele>102.4</ele>
        <time>2018-01-14T12:37:02Z</time>
      </trkpt>
      <trkpt lat="62.653328371314" lon="17.84594184674">
        <ele>102.2</ele>
        <time>2018-01-14T12:37:03Z</time>
      </trkpt>
      <trkpt lat="62.653356534498" lon="17.845879150128">
        <ele>102.4</ele>
        <time>2018-01-14T12:37:04Z</time>
      </trkpt>
      <trkpt lat="62.653382853664" lon="17.84582030919">
        <ele>102.4</ele>
        <time>2018-01-14T12:37:05Z</time>
      </trkpt>
      <trkpt lat="62.653408083183" lon="17.845770604523">
        <ele>102.6</ele>
        <time>2018-01-14T12:37:06Z</time>
      </trkpt>
      <trkpt lat="62.65343180396" lon="17.845722911512">
        <ele>102.6</ele>
        <time>2018-01-14T12:37:07Z</time>
      </trkpt>
      <trkpt lat="62.653460553877" lon="17.845678906537">
        <ele>102.4</ele>
        <time>2018-01-14T12:37:08Z</time>
      </trkpt>
      <trkpt lat="62.653497518056" lon="17.84563339282">
        <ele>102.2</ele>
        <time>2018-01-14T12:37:09Z</time>
      </trkpt>
      <trkpt lat="62.653541355393" lon="17.845588382017">
        <ele>102</ele>
        <time>2018-01-14T12:37:10Z</time>
      </trkpt>
      <trkpt lat="62.653588880766" lon="17.845535408409">
        <ele>101.6</ele>
        <time>2018-01-14T12:37:11Z</time>
      </trkpt>
      <trkpt lat="62.653635567949" lon="17.845480758421">
        <ele>101.2</ele>
        <time>2018-01-14T12:37:12Z</time>
      </trkpt>
      <trkpt lat="62.653677896544" lon="17.845416133972">
        <ele>100.6</ele>
        <time>2018-01-14T12:37:13Z</time>
      </trkpt>
      <trkpt lat="62.653718800216" lon="17.845316137905">
        <ele>100</ele>
        <time>2018-01-14T12:37:14Z</time>
      </trkpt>
      <trkpt lat="62.653749645608" lon="17.845205748282">
        <ele>99.2</ele>
        <time>2018-01-14T12:37:15Z</time>
      </trkpt>
      <trkpt lat="62.653778144068" lon="17.845085803293">
        <ele>98.6</ele>
        <time>2018-01-14T12:37:16Z</time>
      </trkpt>
      <trkpt lat="62.653807732175" lon="17.844969043426">
        <ele>98</ele>
        <time>2018-01-14T12:37:17Z</time>
      </trkpt>
      <trkpt lat="62.653836398273" lon="17.844869131178">
        <ele>97.4</ele>
        <time>2018-01-14T12:37:18Z</time>
      </trkpt>
      <trkpt lat="62.653868584769" lon="17.84476921893">
        <ele>96.8</ele>
        <time>2018-01-14T12:37:19Z</time>
      </trkpt>
      <trkpt lat="62.653894652478" lon="17.84468288536">
        <ele>96.4</ele>
        <time>2018-01-14T12:37:20Z</time>
      </trkpt>
      <trkpt lat="62.653922396567" lon="17.844607532079">
        <ele>96</ele>
        <time>2018-01-14T12:37:21Z</time>
      </trkpt>
      <trkpt lat="62.653951062665" lon="17.844533603721">
        <ele>95.8</ele>
        <time>2018-01-14T12:37:22Z</time>
      </trkpt>
      <trkpt lat="62.653978555297" lon="17.844469649824">
        <ele>95.8</ele>
        <time>2018-01-14T12:37:23Z</time>
      </trkpt>
      <trkpt lat="62.654011747621" lon="17.844397565484">
        <ele>95.6</ele>
        <time>2018-01-14T12:37:24Z</time>
      </trkpt>
      <trkpt lat="62.654042676832" lon="17.844330258827">
        <ele>95.6</ele>
        <time>2018-01-14T12:37:25Z</time>
      </trkpt>
      <trkpt lat="62.654074108957" lon="17.844270663518">
        <ele>95.6</ele>
        <time>2018-01-14T12:37:26Z</time>
      </trkpt>
      <trkpt lat="62.654105205806" lon="17.844225065982">
        <ele>95.4</ele>
        <time>2018-01-14T12:37:27Z</time>
      </trkpt>
      <trkpt lat="62.654138901044" lon="17.844181731559">
        <ele>94.8</ele>
        <time>2018-01-14T12:37:28Z</time>
      </trkpt>
      <trkpt lat="62.654178212155" lon="17.844142755724">
        <ele>94.2</ele>
        <time>2018-01-14T12:37:29Z</time>
      </trkpt>
      <trkpt lat="62.654221798035" lon="17.844110233952">
        <ele>93.6</ele>
        <time>2018-01-14T12:37:30Z</time>
      </trkpt>
      <trkpt lat="62.654261025327" lon="17.844085591166">
        <ele>93</ele>
        <time>2018-01-14T12:37:31Z</time>
      </trkpt>
      <trkpt lat="62.654301928999" lon="17.844066983348">
        <ele>92.2</ele>
        <time>2018-01-14T12:37:32Z</time>
      </trkpt>
      <trkpt lat="62.654339647549" lon="17.8440508901">
        <ele>91.6</ele>
        <time>2018-01-14T12:37:33Z</time>
      </trkpt>
      <trkpt lat="62.65438817875" lon="17.844035132128">
        <ele>91</ele>
        <time>2018-01-14T12:37:34Z</time>
      </trkpt>
      <trkpt lat="62.654433021915" lon="17.844019793251">
        <ele>89.8</ele>
        <time>2018-01-14T12:37:35Z</time>
      </trkpt>
      <trkpt lat="62.654478535632" lon="17.844006298392">
        <ele>88.8</ele>
        <time>2018-01-14T12:37:36Z</time>
      </trkpt>
      <trkpt lat="62.65453402381" lon="17.843995401922">
        <ele>87.8</ele>
        <time>2018-01-14T12:37:37Z</time>
      </trkpt>
      <trkpt lat="62.654587081237" lon="17.843985343642">
        <ele>86.8</ele>
        <time>2018-01-14T12:37:38Z</time>
      </trkpt>
      <trkpt lat="62.654650867496" lon="17.843982912891">
        <ele>85.8</ele>
        <time>2018-01-14T12:37:39Z</time>
      </trkpt>
      <trkpt lat="62.654710630443" lon="17.843977632294">
        <ele>85</ele>
        <time>2018-01-14T12:37:40Z</time>
      </trkpt>
      <trkpt lat="62.654766705354" lon="17.843967238738">
        <ele>84.2</ele>
        <time>2018-01-14T12:37:41Z</time>
      </trkpt>
      <trkpt lat="62.65481900841" lon="17.843952067499">
        <ele>83.2</ele>
        <time>2018-01-14T12:37:42Z</time>
      </trkpt>
      <trkpt lat="62.654860750272" lon="17.843936560984">
        <ele>82.6</ele>
        <time>2018-01-14T12:37:43Z</time>
      </trkpt>
      <trkpt lat="62.65490450379" lon="17.843921389745">
        <ele>82</ele>
        <time>2018-01-14T12:37:44Z</time>
      </trkpt>
      <trkpt lat="62.654948676403" lon="17.843901943737">
        <ele>81.4</ele>
        <time>2018-01-14T12:37:45Z</time>
      </trkpt>
      <trkpt lat="62.654997375242" lon="17.843881659539">
        <ele>80.8</ele>
        <time>2018-01-14T12:37:46Z</time>
      </trkpt>
      <trkpt lat="62.65505034885" lon="17.843856681477">
        <ele>80.2</ele>
        <time>2018-01-14T12:37:47Z</time>
      </trkpt>
      <trkpt lat="62.655097119852" lon="17.843831787234">
        <ele>79.6</ele>
        <time>2018-01-14T12:37:48Z</time>
      </trkpt>
      <trkpt lat="62.655148836175" lon="17.843803121136">
        <ele>79</ele>
        <time>2018-01-14T12:37:49Z</time>
      </trkpt>
      <trkpt lat="62.655197702652" lon="17.843776047599">
        <ele>78.2</ele>
        <time>2018-01-14T12:37:50Z</time>
      </trkpt>
      <trkpt lat="62.655244976568" lon="17.843755092849">
        <ele>77.6</ele>
        <time>2018-01-14T12:37:51Z</time>
      </trkpt>
      <trkpt lat="62.655295519425" lon="17.843749896071">
        <ele>77.2</ele>
        <time>2018-01-14T12:37:52Z</time>
      </trkpt>
      <trkpt lat="62.655340614047" lon="17.843759702894">
        <ele>76.6</ele>
        <time>2018-01-14T12:37:53Z</time>
      </trkpt>
      <trkpt lat="62.655387720325" lon="17.843779232721">
        <ele>76.4</ele>
        <time>2018-01-14T12:37:54Z</time>
      </trkpt>
      <trkpt lat="62.655438347001" lon="17.843811503036">
        <ele>76.4</ele>
        <time>2018-01-14T12:37:55Z</time>
      </trkpt>
      <trkpt lat="62.655489811867" lon="17.843851903794">
        <ele>76.4</ele>
        <time>2018-01-14T12:37:56Z</time>
      </trkpt>
      <trkpt lat="62.655538678344" lon="17.843896411683">
        <ele>76.4</ele>
        <time>2018-01-14T12:37:57Z</time>
      </trkpt>
      <trkpt lat="62.655591484314" lon="17.843943769418">
        <ele>76</ele>
        <time>2018-01-14T12:37:58Z</time>
      </trkpt>
      <trkpt lat="62.655649906157" lon="17.843999928148">
        <ele>75.2</ele>
        <time>2018-01-14T12:37:59Z</time>
      </trkpt>
      <trkpt lat="62.655711596941" lon="17.844064217321">
        <ele>74.4</ele>
        <time>2018-01-14T12:38:00Z</time>
      </trkpt>
      <trkpt lat="62.655771946621" lon="17.844138816231">
        <ele>73.4</ele>
        <time>2018-01-14T12:38:01Z</time>
      </trkpt>
      <trkpt lat="62.655829530274" lon="17.84422104267">
        <ele>72.4</ele>
        <time>2018-01-14T12:38:02Z</time>
      </trkpt>
      <trkpt lat="62.655879989312" lon="17.844296731227">
        <ele>71.8</ele>
        <time>2018-01-14T12:38:03Z</time>
      </trkpt>
      <trkpt lat="62.655939500802" lon="17.844393877448">
        <ele>71.2</ele>
        <time>2018-01-14T12:38:04Z</time>
      </trkpt>
      <trkpt lat="62.655989205469" lon="17.844476606801">
        <ele>70.6</ele>
        <time>2018-01-14T12:38:05Z</time>
      </trkpt>
      <trkpt lat="62.656039329231" lon="17.844560928715">
        <ele>70.2</ele>
        <time>2018-01-14T12:38:06Z</time>
      </trkpt>
      <trkpt lat="62.656087776613" lon="17.844641227317">
        <ele>69.6</ele>
        <time>2018-01-14T12:38:07Z</time>
      </trkpt>
      <trkpt lat="62.656130189027" lon="17.844712305829">
        <ele>69.4</ele>
        <time>2018-01-14T12:38:08Z</time>
      </trkpt>
      <trkpt lat="62.656174948373" lon="17.844784138712">
        <ele>69</ele>
        <time>2018-01-14T12:38:09Z</time>
      </trkpt>
      <trkpt lat="62.6562196239" lon="17.844856139233">
        <ele>68.8</ele>
        <time>2018-01-14T12:38:10Z</time>
      </trkpt>
      <trkpt lat="62.656261114305" lon="17.844922020967">
        <ele>68.6</ele>
        <time>2018-01-14T12:38:11Z</time>
      </trkpt>
      <trkpt lat="62.65630092833" lon="17.84498547195">
        <ele>68.4</ele>
        <time>2018-01-14T12:38:12Z</time>
      </trkpt>
      <trkpt lat="62.656337976328" lon="17.845045151078">
        <ele>68.2</ele>
        <time>2018-01-14T12:38:13Z</time>
      </trkpt>
      <trkpt lat="62.656374437593" lon="17.845102064179">
        <ele>68</ele>
        <time>2018-01-14T12:38:14Z</time>
      </trkpt>
      <trkpt lat="62.656411401772" lon="17.845161156574">
        <ele>68</ele>
        <time>2018-01-14T12:38:15Z</time>
      </trkpt>
      <trkpt lat="62.656446521933" lon="17.845218069675">
        <ele>67.8</ele>
        <time>2018-01-14T12:38:16Z</time>
      </trkpt>
      <trkpt lat="62.656479295162" lon="17.845274479862">
        <ele>67.8</ele>
        <time>2018-01-14T12:38:17Z</time>
      </trkpt>
      <trkpt lat="62.656507542165" lon="17.845331895877">
        <ele>67.6</ele>
        <time>2018-01-14T12:38:18Z</time>
      </trkpt>
      <trkpt lat="62.656543416697" lon="17.845379756526">
        <ele>67.8</ele>
        <time>2018-01-14T12:38:19Z</time>
      </trkpt>
      <trkpt lat="62.656583482179" lon="17.845420073465">
        <ele>67.8</ele>
        <time>2018-01-14T12:38:20Z</time>
      </trkpt>
      <trkpt lat="62.656613992295" lon="17.845447649916">
        <ele>68</ele>
        <time>2018-01-14T12:38:21Z</time>
      </trkpt>
      <trkpt lat="62.656652549035" lon="17.845492912176">
        <ele>68.2</ele>
        <time>2018-01-14T12:38:22Z</time>
      </trkpt>
      <trkpt lat="62.656691692508" lon="17.845538090617">
        <ele>68.4</ele>
        <time>2018-01-14T12:38:23Z</time>
      </trkpt>
      <trkpt lat="62.656727399402" lon="17.845577904642">
        <ele>68.2</ele>
        <time>2018-01-14T12:38:24Z</time>
      </trkpt>
      <trkpt lat="62.656767129608" lon="17.845640265978">
        <ele>68.2</ele>
        <time>2018-01-14T12:38:25Z</time>
      </trkpt>
      <trkpt lat="62.656812140411" lon="17.84569038974">
        <ele>68.2</ele>
        <time>2018-01-14T12:38:26Z</time>
      </trkpt>
      <trkpt lat="62.656848685495" lon="17.845740010588">
        <ele>68.2</ele>
        <time>2018-01-14T12:38:27Z</time>
      </trkpt>
      <trkpt lat="62.656892941927" lon="17.845789966712">
        <ele>68</ele>
        <time>2018-01-14T12:38:28Z</time>
      </trkpt>
      <trkpt lat="62.65693292359" lon="17.845832127669">
        <ele>67.8</ele>
        <time>2018-01-14T12:38:29Z</time>
      </trkpt>
      <trkpt lat="62.656969049579" lon="17.845864146527">
        <ele>67.6</ele>
        <time>2018-01-14T12:38:30Z</time>
      </trkpt>
      <trkpt lat="62.657006013758" lon="17.845860877586">
        <ele>67.4</ele>
        <time>2018-01-14T12:38:31Z</time>
      </trkpt>
      <trkpt lat="62.657036440055" lon="17.845856518998">
        <ele>67.4</ele>
        <time>2018-01-14T12:38:32Z</time>
      </trkpt>
      <trkpt lat="62.657073068958" lon="17.845863140699">
        <ele>67.2</ele>
        <time>2018-01-14T12:38:33Z</time>
      </trkpt>
      <trkpt lat="62.657117409209" lon="17.845874204807">
        <ele>67</ele>
        <time>2018-01-14T12:38:34Z</time>
      </trkpt>
      <trkpt lat="62.657156385044" lon="17.845882921983">
        <ele>67</ele>
        <time>2018-01-14T12:38:35Z</time>
      </trkpt>
      <trkpt lat="62.657181363106" lon="17.845893399358">
        <ele>67</ele>
        <time>2018-01-14T12:38:36Z</time>
      </trkpt>
      <trkpt lat="62.657213046688" lon="17.845916533402">
        <ele>66.8</ele>
        <time>2018-01-14T12:38:37Z</time>
      </trkpt>
      <trkpt lat="62.657235091085" lon="17.845928184243">
        <ele>67</ele>
        <time>2018-01-14T12:38:38Z</time>
      </trkpt>
      <trkpt lat="62.657262248441" lon="17.845961208929">
        <ele>67.2</ele>
        <time>2018-01-14T12:38:39Z</time>
      </trkpt>
      <trkpt lat="62.657292171824" lon="17.845997334918">
        <ele>67.4</ele>
        <time>2018-01-14T12:38:40Z</time>
      </trkpt>
      <trkpt lat="62.657322598121" lon="17.846039831151">
        <ele>67.6</ele>
        <time>2018-01-14T12:38:41Z</time>
      </trkpt>
      <trkpt lat="62.657348749649" lon="17.846077465882">
        <ele>67.6</ele>
        <time>2018-01-14T12:38:42Z</time>
      </trkpt>
      <trkpt lat="62.657367608924" lon="17.84611367569">
        <ele>67.6</ele>
        <time>2018-01-14T12:38:43Z</time>
      </trkpt>
      <trkpt lat="62.657383785991" lon="17.846144269625">
        <ele>67.6</ele>
        <time>2018-01-14T12:38:44Z</time>
      </trkpt>
      <trkpt lat="62.657400298334" lon="17.846195650672">
        <ele>67.6</ele>
        <time>2018-01-14T12:38:45Z</time>
      </trkpt>
      <trkpt lat="62.65742577931" lon="17.84625449161">
        <ele>67.6</ele>
        <time>2018-01-14T12:38:46Z</time>
      </trkpt>
      <trkpt lat="62.657444890042" lon="17.846308806322">
        <ele>67.6</ele>
        <time>2018-01-14T12:38:47Z</time>
      </trkpt>
      <trkpt lat="62.657462994946" lon="17.846383991965">
        <ele>67.6</ele>
        <time>2018-01-14T12:38:48Z</time>
      </trkpt>
      <trkpt lat="62.657484536429" lon="17.846469235888">
        <ele>67.8</ele>
        <time>2018-01-14T12:38:49Z</time>
      </trkpt>
      <trkpt lat="62.657501132591" lon="17.846551043232">
        <ele>67.8</ele>
        <time>2018-01-14T12:38:50Z</time>
      </trkpt>
      <trkpt lat="62.657518064029" lon="17.846627402341">
        <ele>67.6</ele>
        <time>2018-01-14T12:38:51Z</time>
      </trkpt>
      <trkpt lat="62.657532397078" lon="17.846701079242">
        <ele>67.6</ele>
        <time>2018-01-14T12:38:52Z</time>
      </trkpt>
      <trkpt lat="62.657550585801" lon="17.846785820251">
        <ele>67.4</ele>
        <time>2018-01-14T12:38:53Z</time>
      </trkpt>
      <trkpt lat="62.657574641854" lon="17.84686217936">
        <ele>67.2</ele>
        <time>2018-01-14T12:38:54Z</time>
      </trkpt>
      <trkpt lat="62.657594674595" lon="17.846950356948">
        <ele>67.2</ele>
        <time>2018-01-14T12:38:55Z</time>
      </trkpt>
      <trkpt lat="62.657617641001" lon="17.847039708002">
        <ele>67</ele>
        <time>2018-01-14T12:38:56Z</time>
      </trkpt>
      <trkpt lat="62.657638595751" lon="17.847118246405">
        <ele>66.8</ele>
        <time>2018-01-14T12:38:57Z</time>
      </trkpt>
      <trkpt lat="62.657664076727" lon="17.847211620771">
        <ele>66.8</ele>
        <time>2018-01-14T12:38:58Z</time>
      </trkpt>
      <trkpt lat="62.657680337613" lon="17.847292422287">
        <ele>66.8</ele>
        <time>2018-01-14T12:38:59Z</time>
      </trkpt>
      <trkpt lat="62.657704728942" lon="17.847379845504">
        <ele>66.8</ele>
        <time>2018-01-14T12:39:00Z</time>
      </trkpt>
      <trkpt lat="62.657734819963" lon="17.847447906532">
        <ele>66.6</ele>
        <time>2018-01-14T12:39:01Z</time>
      </trkpt>
      <trkpt lat="62.657753846876" lon="17.847513117714">
        <ele>66.4</ele>
        <time>2018-01-14T12:39:02Z</time>
      </trkpt>
      <trkpt lat="62.657765916812" lon="17.847573383575">
        <ele>66.2</ele>
        <time>2018-01-14T12:39:03Z</time>
      </trkpt>
      <trkpt lat="62.657793912358" lon="17.847648904494">
        <ele>66.2</ele>
        <time>2018-01-14T12:39:04Z</time>
      </trkpt>
      <trkpt lat="62.657810005606" lon="17.847731550028">
        <ele>66</ele>
        <time>2018-01-14T12:39:05Z</time>
      </trkpt>
      <trkpt lat="62.65783062508" lon="17.847808914965">
        <ele>65.8</ele>
        <time>2018-01-14T12:39:06Z</time>
      </trkpt>
      <trkpt lat="62.657847640337" lon="17.847872952681">
        <ele>65.8</ele>
        <time>2018-01-14T12:39:07Z</time>
      </trkpt>
      <trkpt lat="62.657869265639" lon="17.847941851899">
        <ele>65.8</ele>
        <time>2018-01-14T12:39:08Z</time>
      </trkpt>
      <trkpt lat="62.65789265114" lon="17.847993987317">
        <ele>65.8</ele>
        <time>2018-01-14T12:39:09Z</time>
      </trkpt>
      <trkpt lat="62.65791528227" lon="17.84806749658">
        <ele>65.6</ele>
        <time>2018-01-14T12:39:10Z</time>
      </trkpt>
      <trkpt lat="62.657943193997" lon="17.848134048866">
        <ele>65.6</ele>
        <time>2018-01-14T12:39:11Z</time>
      </trkpt>
      <trkpt lat="62.657965070756" lon="17.84820663612">
        <ele>65.6</ele>
        <time>2018-01-14T12:39:12Z</time>
      </trkpt>
      <trkpt lat="62.657984768221" lon="17.848276541166">
        <ele>65.2</ele>
        <time>2018-01-14T12:39:13Z</time>
      </trkpt>
      <trkpt lat="62.658010500654" lon="17.848325323824">
        <ele>65</ele>
        <time>2018-01-14T12:39:14Z</time>
      </trkpt>
      <trkpt lat="62.658040004942" lon="17.848389529178">
        <ele>65</ele>
        <time>2018-01-14T12:39:15Z</time>
      </trkpt>
      <trkpt lat="62.658065905013" lon="17.848440826406">
        <ele>65</ele>
        <time>2018-01-14T12:39:16Z</time>
      </trkpt>
      <trkpt lat="62.658095828396" lon="17.848504109751">
        <ele>64.8</ele>
        <time>2018-01-14T12:39:17Z</time>
      </trkpt>
      <trkpt lat="62.658126422331" lon="17.848563369784">
        <ele>64.8</ele>
        <time>2018-01-14T12:39:18Z</time>
      </trkpt>
      <trkpt lat="62.658161458673" lon="17.848617600677">
        <ele>64.8</ele>
        <time>2018-01-14T12:39:19Z</time>
      </trkpt>
      <trkpt lat="62.658198841947" lon="17.848689265922">
        <ele>64.8</ele>
        <time>2018-01-14T12:39:20Z</time>
      </trkpt>
      <trkpt lat="62.658224071466" lon="17.848757746045">
        <ele>64.8</ele>
        <time>2018-01-14T12:39:21Z</time>
      </trkpt>
      <trkpt lat="62.658255503591" lon="17.848824717426">
        <ele>64.6</ele>
        <time>2018-01-14T12:39:22Z</time>
      </trkpt>
      <trkpt lat="62.65828492406" lon="17.848883390726">
        <ele>64.6</ele>
        <time>2018-01-14T12:39:23Z</time>
      </trkpt>
      <trkpt lat="62.658322894067" lon="17.848939717094">
        <ele>64.4</ele>
        <time>2018-01-14T12:39:24Z</time>
      </trkpt>
      <trkpt lat="62.658347872129" lon="17.848997719842">
        <ele>64.2</ele>
        <time>2018-01-14T12:39:25Z</time>
      </trkpt>
      <trkpt lat="62.658373856019" lon="17.849062763386">
        <ele>64</ele>
        <time>2018-01-14T12:39:26Z</time>
      </trkpt>
      <trkpt lat="62.658399504633" lon="17.849116407546">
        <ele>64</ele>
        <time>2018-01-14T12:39:27Z</time>
      </trkpt>
      <trkpt lat="62.658419202098" lon="17.849166698946">
        <ele>63.8</ele>
        <time>2018-01-14T12:39:28Z</time>
      </trkpt>
      <trkpt lat="62.658441078857" lon="17.849237274544">
        <ele>63.6</ele>
        <time>2018-01-14T12:39:29Z</time>
      </trkpt>
      <trkpt lat="62.658456082458" lon="17.849293517093">
        <ele>63.6</ele>
        <time>2018-01-14T12:39:30Z</time>
      </trkpt>
      <trkpt lat="62.658470834602" lon="17.849361829578">
        <ele>63.6</ele>
        <time>2018-01-14T12:39:31Z</time>
      </trkpt>
      <trkpt lat="62.658484078004" lon="17.849417233937">
        <ele>63.8</ele>
        <time>2018-01-14T12:39:32Z</time>
      </trkpt>
      <trkpt lat="62.658494723017" lon="17.849465010767">
        <ele>63.6</ele>
        <time>2018-01-14T12:39:33Z</time>
      </trkpt>
      <trkpt lat="62.65851291174" lon="17.849566767033">
        <ele>63.6</ele>
        <time>2018-01-14T12:39:34Z</time>
      </trkpt>
      <trkpt lat="62.658513498473" lon="17.849651340404">
        <ele>63.8</ele>
        <time>2018-01-14T12:39:35Z</time>
      </trkpt>
      <trkpt lat="62.658507463505" lon="17.849731722825">
        <ele>63.4</ele>
        <time>2018-01-14T12:39:36Z</time>
      </trkpt>
      <trkpt lat="62.65848692785" lon="17.8498092554">
        <ele>63.2</ele>
        <time>2018-01-14T12:39:37Z</time>
      </trkpt>
      <trkpt lat="62.65846429672" lon="17.849860468809">
        <ele>63</ele>
        <time>2018-01-14T12:39:38Z</time>
      </trkpt>
      <trkpt lat="62.658440743581" lon="17.849882932301">
        <ele>62.8</ele>
        <time>2018-01-14T12:39:39Z</time>
      </trkpt>
      <trkpt lat="62.658417525718" lon="17.849878070799">
        <ele>62.8</ele>
        <time>2018-01-14T12:39:40Z</time>
      </trkpt>
      <trkpt lat="62.658401264832" lon="17.849875640048">
        <ele>63</ele>
        <time>2018-01-14T12:39:41Z</time>
      </trkpt>
      <trkpt lat="62.658381902643" lon="17.849872706383">
        <ele>63.2</ele>
        <time>2018-01-14T12:39:42Z</time>
      </trkpt>
      <trkpt lat="62.658361115531" lon="17.849867844881">
        <ele>63.6</ele>
        <time>2018-01-14T12:39:43Z</time>
      </trkpt>
      <trkpt lat="62.658341837161" lon="17.84986457594">
        <ele>63.6</ele>
        <time>2018-01-14T12:39:44Z</time>
      </trkpt>
      <trkpt lat="62.658320044221" lon="17.849869856537">
        <ele>63.8</ele>
        <time>2018-01-14T12:39:45Z</time>
      </trkpt>
      <trkpt lat="62.658299257109" lon="17.849875304772">
        <ele>64</ele>
        <time>2018-01-14T12:39:46Z</time>
      </trkpt>
      <trkpt lat="62.658281487481" lon="17.849874131306">
        <ele>64</ele>
        <time>2018-01-14T12:39:47Z</time>
      </trkpt>
      <trkpt lat="62.658257766704" lon="17.849868263976">
        <ele>64.2</ele>
        <time>2018-01-14T12:39:48Z</time>
      </trkpt>
      <trkpt lat="62.658233459194" lon="17.849863402474">
        <ele>64.2</ele>
        <time>2018-01-14T12:39:49Z</time>
      </trkpt>
      <trkpt lat="62.658216276299" lon="17.84987295784">
        <ele>64.4</ele>
        <time>2018-01-14T12:39:50Z</time>
      </trkpt>
      <trkpt lat="62.658190962961" lon="17.849873628392">
        <ele>64.8</ele>
        <time>2018-01-14T12:39:51Z</time>
      </trkpt>
      <trkpt lat="62.658161961587" lon="17.849878238437">
        <ele>64.8</ele>
        <time>2018-01-14T12:39:52Z</time>
      </trkpt>
      <trkpt lat="62.658142767036" lon="17.849882764663">
        <ele>65</ele>
        <time>2018-01-14T12:39:53Z</time>
      </trkpt>
      <trkpt lat="62.658115693499" lon="17.849882680844">
        <ele>65</ele>
        <time>2018-01-14T12:39:54Z</time>
      </trkpt>
      <trkpt lat="62.658094822568" lon="17.849885111595">
        <ele>65.2</ele>
        <time>2018-01-14T12:39:55Z</time>
      </trkpt>
      <trkpt lat="62.658070012144" lon="17.849886536518">
        <ele>65.2</ele>
        <time>2018-01-14T12:39:56Z</time>
      </trkpt>
      <trkpt lat="62.658037993286" lon="17.849884105767">
        <ele>65.2</ele>
        <time>2018-01-14T12:39:57Z</time>
      </trkpt>
      <trkpt lat="62.658015781251" lon="17.849889302545">
        <ele>65.2</ele>
        <time>2018-01-14T12:39:58Z</time>
      </trkpt>
      <trkpt lat="62.657984265307" lon="17.849890140735">
        <ele>65.2</ele>
        <time>2018-01-14T12:39:59Z</time>
      </trkpt>
      <trkpt lat="62.657958532874" lon="17.849887542346">
        <ele>65.2</ele>
        <time>2018-01-14T12:40:00Z</time>
      </trkpt>
      <trkpt lat="62.65793875159" lon="17.849897516807">
        <ele>65</ele>
        <time>2018-01-14T12:40:01Z</time>
      </trkpt>
      <trkpt lat="62.657914024985" lon="17.849898187359">
        <ele>65</ele>
        <time>2018-01-14T12:40:02Z</time>
      </trkpt>
      <trkpt lat="62.657897428823" lon="17.849894918418">
        <ele>65</ele>
        <time>2018-01-14T12:40:03Z</time>
      </trkpt>
      <trkpt lat="62.657876976987" lon="17.849894080228">
        <ele>65</ele>
        <time>2018-01-14T12:40:04Z</time>
      </trkpt>
      <trkpt lat="62.657860632282" lon="17.849889637821">
        <ele>65</ele>
        <time>2018-01-14T12:40:05Z</time>
      </trkpt>
      <trkpt lat="62.657846634509" lon="17.849887123251">
        <ele>65.2</ele>
        <time>2018-01-14T12:40:06Z</time>
      </trkpt>
      <trkpt lat="62.657828613424" lon="17.849884189586">
        <ele>65.2</ele>
        <time>2018-01-14T12:40:07Z</time>
      </trkpt>
      <trkpt lat="62.657814028918" lon="17.84988133974">
        <ele>65.6</ele>
        <time>2018-01-14T12:40:08Z</time>
      </trkpt>
      <trkpt lat="62.657799947326" lon="17.849876142962">
        <ele>65.6</ele>
        <time>2018-01-14T12:40:09Z</time>
      </trkpt>
      <trkpt lat="62.657782345336" lon="17.849870862365">
        <ele>66</ele>
        <time>2018-01-14T12:40:10Z</time>
      </trkpt>
      <trkpt lat="62.657765665355" lon="17.84986373775">
        <ele>66</ele>
        <time>2018-01-14T12:40:11Z</time>
      </trkpt>
      <trkpt lat="62.657747225175" lon="17.849860636447">
        <ele>66.4</ele>
        <time>2018-01-14T12:40:12Z</time>
      </trkpt>
      <trkpt lat="62.657733311221" lon="17.849863234836">
        <ele>66.6</ele>
        <time>2018-01-14T12:40:13Z</time>
      </trkpt>
      <trkpt lat="62.657706992055" lon="17.849853595651">
        <ele>66.8</ele>
        <time>2018-01-14T12:40:14Z</time>
      </trkpt>
      <trkpt lat="62.657682349269" lon="17.849848985606">
        <ele>67.2</ele>
        <time>2018-01-14T12:40:15Z</time>
      </trkpt>
      <trkpt lat="62.657659885777" lon="17.849852506004">
        <ele>67.4</ele>
        <time>2018-01-14T12:40:16Z</time>
      </trkpt>
      <trkpt lat="62.657636584095" lon="17.849853260375">
        <ele>67.6</ele>
        <time>2018-01-14T12:40:17Z</time>
      </trkpt>
      <trkpt lat="62.657613450051" lon="17.849863989207">
        <ele>67.8</ele>
        <time>2018-01-14T12:40:18Z</time>
      </trkpt>
      <trkpt lat="62.657596015699" lon="17.849879914817">
        <ele>67.8</ele>
        <time>2018-01-14T12:40:19Z</time>
      </trkpt>
      <trkpt lat="62.657583861944" lon="17.849886201242">
        <ele>67.8</ele>
        <time>2018-01-14T12:40:20Z</time>
      </trkpt>
      <trkpt lat="62.657561733728" lon="17.849895924246">
        <ele>67.8</ele>
        <time>2018-01-14T12:40:21Z</time>
      </trkpt>
      <trkpt lat="62.657541030435" lon="17.849907491268">
        <ele>67.8</ele>
        <time>2018-01-14T12:40:22Z</time>
      </trkpt>
      <trkpt lat="62.657524434273" lon="17.849918303919">
        <ele>68</ele>
        <time>2018-01-14T12:40:23Z</time>
      </trkpt>
      <trkpt lat="62.657507167559" lon="17.849924757982">
        <ele>68</ele>
        <time>2018-01-14T12:40:24Z</time>
      </trkpt>
      <trkpt lat="62.657494594709" lon="17.84992995476">
        <ele>68.4</ele>
        <time>2018-01-14T12:40:25Z</time>
      </trkpt>
      <trkpt lat="62.657483949696" lon="17.849942443791">
        <ele>68.4</ele>
        <time>2018-01-14T12:40:26Z</time>
      </trkpt>
      <trkpt lat="62.657476825081" lon="17.849957028297">
        <ele>68.6</ele>
        <time>2018-01-14T12:40:27Z</time>
      </trkpt>
      <trkpt lat="62.657466263887" lon="17.849968427681">
        <ele>68.8</ele>
        <time>2018-01-14T12:40:28Z</time>
      </trkpt>
      <trkpt lat="62.65745679234" lon="17.849975719934">
        <ele>69</ele>
        <time>2018-01-14T12:40:29Z</time>
      </trkpt>
      <trkpt lat="62.657447656069" lon="17.849977647771">
        <ele>69.2</ele>
        <time>2018-01-14T12:40:30Z</time>
      </trkpt>
      <trkpt lat="62.657437094875" lon="17.849986281128">
        <ele>69.6</ele>
        <time>2018-01-14T12:40:31Z</time>
      </trkpt>
      <trkpt lat="62.657427120414" lon="17.849995920313">
        <ele>69.6</ele>
        <time>2018-01-14T12:40:32Z</time>
      </trkpt>
      <trkpt lat="62.657417984143" lon="17.850001452367">
        <ele>69.8</ele>
        <time>2018-01-14T12:40:33Z</time>
      </trkpt>
      <trkpt lat="62.657409434605" lon="17.850005475679">
        <ele>70</ele>
        <time>2018-01-14T12:40:34Z</time>
      </trkpt>
      <trkpt lat="62.657402729085" lon="17.850009247534">
        <ele>70.4</ele>
        <time>2018-01-14T12:40:35Z</time>
      </trkpt>
      <trkpt lat="62.657395520651" lon="17.850009750448">
        <ele>70.6</ele>
        <time>2018-01-14T12:40:36Z</time>
      </trkpt>
      <trkpt lat="62.657383953629" lon="17.850013606122">
        <ele>71</ele>
        <time>2018-01-14T12:40:37Z</time>
      </trkpt>
      <trkpt lat="62.657372805702" lon="17.850019892547">
        <ele>71.6</ele>
        <time>2018-01-14T12:40:38Z</time>
      </trkpt>
      <trkpt lat="62.657359646119" lon="17.8500271848">
        <ele>71.8</ele>
        <time>2018-01-14T12:40:39Z</time>
      </trkpt>
      <trkpt lat="62.657346318898" lon="17.850035734338">
        <ele>72</ele>
        <time>2018-01-14T12:40:40Z</time>
      </trkpt>
      <trkpt lat="62.657333410772" lon="17.850040679659">
        <ele>72.2</ele>
        <time>2018-01-14T12:40:41Z</time>
      </trkpt>
      <trkpt lat="62.657320335008" lon="17.850044954428">
        <ele>72.4</ele>
        <time>2018-01-14T12:40:42Z</time>
      </trkpt>
      <trkpt lat="62.657307259244" lon="17.85005065412">
        <ele>72.2</ele>
        <time>2018-01-14T12:40:43Z</time>
      </trkpt>
      <trkpt lat="62.65729334529" lon="17.850054342156">
        <ele>72.4</ele>
        <time>2018-01-14T12:40:44Z</time>
      </trkpt>
      <trkpt lat="62.657281945906" lon="17.850060796219">
        <ele>72.6</ele>
        <time>2018-01-14T12:40:45Z</time>
      </trkpt>
      <trkpt lat="62.657273312549" lon="17.850066160635">
        <ele>72.6</ele>
        <time>2018-01-14T12:40:46Z</time>
      </trkpt>
      <trkpt lat="62.657266104115" lon="17.850071692689">
        <ele>73.2</ele>
        <time>2018-01-14T12:40:47Z</time>
      </trkpt>
      <trkpt lat="62.657259147138" lon="17.850075632182">
        <ele>73.4</ele>
        <time>2018-01-14T12:40:48Z</time>
      </trkpt>
      <trkpt lat="62.657247161021" lon="17.850086025738">
        <ele>73.6</ele>
        <time>2018-01-14T12:40:49Z</time>
      </trkpt>
      <trkpt lat="62.657236180732" lon="17.850094910552">
        <ele>73.8</ele>
        <time>2018-01-14T12:40:50Z</time>
      </trkpt>
      <trkpt lat="62.6572254519" lon="17.850103208633">
        <ele>73.8</ele>
        <time>2018-01-14T12:40:51Z</time>
      </trkpt>
      <trkpt lat="62.65721539362" lon="17.850111171438">
        <ele>74</ele>
        <time>2018-01-14T12:40:52Z</time>
      </trkpt>
      <trkpt lat="62.65720449715" lon="17.850121816451">
        <ele>74</ele>
        <time>2018-01-14T12:40:53Z</time>
      </trkpt>
      <trkpt lat="62.657194271232" lon="17.850131874731">
        <ele>74.2</ele>
        <time>2018-01-14T12:40:54Z</time>
      </trkpt>
      <trkpt lat="62.657183877676" lon="17.850142435925">
        <ele>74.2</ele>
        <time>2018-01-14T12:40:55Z</time>
      </trkpt>
      <trkpt lat="62.657174070853" lon="17.850150734006">
        <ele>74.6</ele>
        <time>2018-01-14T12:40:56Z</time>
      </trkpt>
      <trkpt lat="62.657163258202" lon="17.850161379019">
        <ele>74.8</ele>
        <time>2018-01-14T12:40:57Z</time>
      </trkpt>
      <trkpt lat="62.65715252937" lon="17.850171940213">
        <ele>75.2</ele>
        <time>2018-01-14T12:40:58Z</time>
      </trkpt>
      <trkpt lat="62.657141297624" lon="17.850180992665">
        <ele>75.4</ele>
        <time>2018-01-14T12:40:59Z</time>
      </trkpt>
      <trkpt lat="62.657130317335" lon="17.85019147004">
        <ele>75.6</ele>
        <time>2018-01-14T12:41:00Z</time>
      </trkpt>
      <trkpt lat="62.65711900177" lon="17.850202534148">
        <ele>75.8</ele>
        <time>2018-01-14T12:41:01Z</time>
      </trkpt>
      <trkpt lat="62.657110200775" lon="17.850212257152">
        <ele>76</ele>
        <time>2018-01-14T12:41:02Z</time>
      </trkpt>
      <trkpt lat="62.657104081988" lon="17.850216783378">
        <ele>76</ele>
        <time>2018-01-14T12:41:03Z</time>
      </trkpt>
      <trkpt lat="62.65709637064" lon="17.850224243269">
        <ele>76.2</ele>
        <time>2018-01-14T12:41:04Z</time>
      </trkpt>
      <trkpt lat="62.657089748939" lon="17.850229859142">
        <ele>76.4</ele>
        <time>2018-01-14T12:41:05Z</time>
      </trkpt>
      <trkpt lat="62.657082037591" lon="17.850236145567">
        <ele>76.8</ele>
        <time>2018-01-14T12:41:06Z</time>
      </trkpt>
      <trkpt lat="62.657071811673" lon="17.850241426164">
        <ele>77.2</ele>
        <time>2018-01-14T12:41:07Z</time>
      </trkpt>
      <trkpt lat="62.657060999022" lon="17.850248550779">
        <ele>77.4</ele>
        <time>2018-01-14T12:41:08Z</time>
      </trkpt>
      <trkpt lat="62.657049264362" lon="17.850253663738">
        <ele>77.4</ele>
        <time>2018-01-14T12:41:09Z</time>
      </trkpt>
      <trkpt lat="62.657037110607" lon="17.850258692878">
        <ele>77.6</ele>
        <time>2018-01-14T12:41:10Z</time>
      </trkpt>
      <trkpt lat="62.657025375947" lon="17.85026103981">
        <ele>77.6</ele>
        <time>2018-01-14T12:41:11Z</time>
      </trkpt>
      <trkpt lat="62.657012970735" lon="17.850259614887">
        <ele>77.8</ele>
        <time>2018-01-14T12:41:12Z</time>
      </trkpt>
      <trkpt lat="62.657001236075" lon="17.850256681222">
        <ele>78</ele>
        <time>2018-01-14T12:41:13Z</time>
      </trkpt>
      <trkpt lat="62.656988747044" lon="17.850253328462">
        <ele>78</ele>
        <time>2018-01-14T12:41:14Z</time>
      </trkpt>
      <trkpt lat="62.656978521126" lon="17.85025098153">
        <ele>78.2</ele>
        <time>2018-01-14T12:41:15Z</time>
      </trkpt>
      <trkpt lat="62.656963601344" lon="17.850250562435">
        <ele>78.6</ele>
        <time>2018-01-14T12:41:16Z</time>
      </trkpt>
      <trkpt lat="62.656947424277" lon="17.850250394797">
        <ele>78.8</ele>
        <time>2018-01-14T12:41:17Z</time>
      </trkpt>
      <trkpt lat="62.656930241382" lon="17.850246455304">
        <ele>79</ele>
        <time>2018-01-14T12:41:18Z</time>
      </trkpt>
      <trkpt lat="62.656914064315" lon="17.850244443648">
        <ele>79.2</ele>
        <time>2018-01-14T12:41:19Z</time>
      </trkpt>
      <trkpt lat="62.656896629963" lon="17.850240336517">
        <ele>79.2</ele>
        <time>2018-01-14T12:41:20Z</time>
      </trkpt>
      <trkpt lat="62.656876513403" lon="17.850233295721">
        <ele>79.2</ele>
        <time>2018-01-14T12:41:21Z</time>
      </trkpt>
      <trkpt lat="62.656853798454" lon="17.850224494726">
        <ele>79.2</ele>
        <time>2018-01-14T12:41:22Z</time>
      </trkpt>
      <trkpt lat="62.656838711034" lon="17.850221812518">
        <ele>79.4</ele>
        <time>2018-01-14T12:41:23Z</time>
      </trkpt>
      <trkpt lat="62.65682479708" lon="17.850218543577">
        <ele>79.4</ele>
        <time>2018-01-14T12:41:24Z</time>
      </trkpt>
      <trkpt lat="62.656806943633" lon="17.850212592428">
        <ele>79.6</ele>
        <time>2018-01-14T12:41:25Z</time>
      </trkpt>
      <trkpt lat="62.656790598928" lon="17.850206054546">
        <ele>79.8</ele>
        <time>2018-01-14T12:41:26Z</time>
      </trkpt>
      <trkpt lat="62.656770650006" lon="17.850201193044">
        <ele>79.8</ele>
        <time>2018-01-14T12:41:27Z</time>
      </trkpt>
      <trkpt lat="62.656755562586" lon="17.850201695958">
        <ele>79.8</ele>
        <time>2018-01-14T12:41:28Z</time>
      </trkpt>
      <trkpt lat="62.656734524017" lon="17.850197085913">
        <ele>80</ele>
        <time>2018-01-14T12:41:29Z</time>
      </trkpt>
      <trkpt lat="62.656712731077" lon="17.850195409533">
        <ele>80.2</ele>
        <time>2018-01-14T12:41:30Z</time>
      </trkpt>
      <trkpt lat="62.656698146571" lon="17.850195996266">
        <ele>80.2</ele>
        <time>2018-01-14T12:41:31Z</time>
      </trkpt>
      <trkpt lat="62.656676353631" lon="17.85019649918">
        <ele>80.4</ele>
        <time>2018-01-14T12:41:32Z</time>
      </trkpt>
      <trkpt lat="62.656661433849" lon="17.850197924103">
        <ele>80.4</ele>
        <time>2018-01-14T12:41:33Z</time>
      </trkpt>
      <trkpt lat="62.656643328945" lon="17.850201612139">
        <ele>80.4</ele>
        <time>2018-01-14T12:41:34Z</time>
      </trkpt>
      <trkpt lat="62.656622122738" lon="17.850196750637">
        <ele>80.6</ele>
        <time>2018-01-14T12:41:35Z</time>
      </trkpt>
      <trkpt lat="62.656604436929" lon="17.850191721497">
        <ele>80.6</ele>
        <time>2018-01-14T12:41:36Z</time>
      </trkpt>
      <trkpt lat="62.656584655645" lon="17.850188284918">
        <ele>80.6</ele>
        <time>2018-01-14T12:41:37Z</time>
      </trkpt>
      <trkpt lat="62.656571496062" lon="17.850189961298">
        <ele>80.8</ele>
        <time>2018-01-14T12:41:38Z</time>
      </trkpt>
      <trkpt lat="62.656547942923" lon="17.850194152248">
        <ele>81</ele>
        <time>2018-01-14T12:41:39Z</time>
      </trkpt>
      <trkpt lat="62.656524976517" lon="17.850201360682">
        <ele>81.2</ele>
        <time>2018-01-14T12:41:40Z</time>
      </trkpt>
      <trkpt lat="62.656497483885" lon="17.850212340971">
        <ele>81.4</ele>
        <time>2018-01-14T12:41:41Z</time>
      </trkpt>
      <trkpt lat="62.656469907434" lon="17.850225919649">
        <ele>81.4</ele>
        <time>2018-01-14T12:41:42Z</time>
      </trkpt>
      <trkpt lat="62.65645347891" lon="17.850234553006">
        <ele>81.6</ele>
        <time>2018-01-14T12:41:43Z</time>
      </trkpt>
      <trkpt lat="62.656428668486" lon="17.850249472788">
        <ele>81.6</ele>
        <time>2018-01-14T12:41:44Z</time>
      </trkpt>
      <trkpt lat="62.656406204994" lon="17.850265733674">
        <ele>81.6</ele>
        <time>2018-01-14T12:41:45Z</time>
      </trkpt>
      <trkpt lat="62.656386172253" lon="17.850279647628">
        <ele>81.4</ele>
        <time>2018-01-14T12:41:46Z</time>
      </trkpt>
      <trkpt lat="62.656368989358" lon="17.850300518559">
        <ele>81.6</ele>
        <time>2018-01-14T12:41:47Z</time>
      </trkpt>
      <trkpt lat="62.65635289611" lon="17.850315103065">
        <ele>81.8</ele>
        <time>2018-01-14T12:41:48Z</time>
      </trkpt>
      <trkpt lat="62.65633613231" lon="17.850335051987">
        <ele>82.2</ele>
        <time>2018-01-14T12:41:49Z</time>
      </trkpt>
      <trkpt lat="62.656322385994" lon="17.850349385036">
        <ele>82.6</ele>
        <time>2018-01-14T12:41:50Z</time>
      </trkpt>
      <trkpt lat="62.656310064601" lon="17.850359610954">
        <ele>82.8</ele>
        <time>2018-01-14T12:41:51Z</time>
      </trkpt>
      <trkpt lat="62.656295731552" lon="17.850375201288">
        <ele>82.8</ele>
        <time>2018-01-14T12:41:52Z</time>
      </trkpt>
      <trkpt lat="62.656289948041" lon="17.850391713631">
        <ele>83</ele>
        <time>2018-01-14T12:41:53Z</time>
      </trkpt>
      <trkpt lat="62.656281230865" lon="17.850419290082">
        <ele>83</ele>
        <time>2018-01-14T12:41:54Z</time>
      </trkpt>
      <trkpt lat="62.656266227264" lon="17.850440747746">
        <ele>83.2</ele>
        <time>2018-01-14T12:41:55Z</time>
      </trkpt>
      <trkpt lat="62.656257174812" lon="17.850451811854">
        <ele>83.4</ele>
        <time>2018-01-14T12:41:56Z</time>
      </trkpt>
      <trkpt lat="62.656248876731" lon="17.850459607021">
        <ele>83.4</ele>
        <time>2018-01-14T12:41:57Z</time>
      </trkpt>
      <trkpt lat="62.656240327193" lon="17.850470419672">
        <ele>83.6</ele>
        <time>2018-01-14T12:41:58Z</time>
      </trkpt>
      <trkpt lat="62.656232112931" lon="17.850481567599">
        <ele>83.8</ele>
        <time>2018-01-14T12:41:59Z</time>
      </trkpt>
      <trkpt lat="62.656222892841" lon="17.850497493209">
        <ele>84.2</ele>
        <time>2018-01-14T12:42:00Z</time>
      </trkpt>
      <trkpt lat="62.656215097674" lon="17.850506545661">
        <ele>84.4</ele>
        <time>2018-01-14T12:42:01Z</time>
      </trkpt>
      <trkpt lat="62.656204201204" lon="17.850516352484">
        <ele>84.8</ele>
        <time>2018-01-14T12:42:02Z</time>
      </trkpt>
      <trkpt lat="62.656191795992" lon="17.850528087144">
        <ele>85.2</ele>
        <time>2018-01-14T12:42:03Z</time>
      </trkpt>
      <trkpt lat="62.656176960029" lon="17.850541665822">
        <ele>85.4</ele>
        <time>2018-01-14T12:42:04Z</time>
      </trkpt>
      <trkpt lat="62.656163632808" lon="17.850555831233">
        <ele>85.6</ele>
        <time>2018-01-14T12:42:05Z</time>
      </trkpt>
      <trkpt lat="62.656149551216" lon="17.850565889513">
        <ele>85.8</ele>
        <time>2018-01-14T12:42:06Z</time>
      </trkpt>
      <trkpt lat="62.656136894547" lon="17.850581815123">
        <ele>86</ele>
        <time>2018-01-14T12:42:07Z</time>
      </trkpt>
      <trkpt lat="62.656124405516" lon="17.850597321638">
        <ele>86.2</ele>
        <time>2018-01-14T12:42:08Z</time>
      </trkpt>
      <trkpt lat="62.656111665028" lon="17.850609978307">
        <ele>86.4</ele>
        <time>2018-01-14T12:42:09Z</time>
      </trkpt>
      <trkpt lat="62.656096577608" lon="17.850622886433">
        <ele>86.8</ele>
        <time>2018-01-14T12:42:10Z</time>
      </trkpt>
      <trkpt lat="62.656083501844" lon="17.850632441799">
        <ele>87</ele>
        <time>2018-01-14T12:42:11Z</time>
      </trkpt>
      <trkpt lat="62.656069252614" lon="17.8506474454">
        <ele>87.2</ele>
        <time>2018-01-14T12:42:12Z</time>
      </trkpt>
      <trkpt lat="62.656058775239" lon="17.850662029906">
        <ele>87.2</ele>
        <time>2018-01-14T12:42:13Z</time>
      </trkpt>
      <trkpt lat="62.65604611857" lon="17.850672926376">
        <ele>87.4</ele>
        <time>2018-01-14T12:42:14Z</time>
      </trkpt>
      <trkpt lat="62.65603773667" lon="17.850687007968">
        <ele>87.6</ele>
        <time>2018-01-14T12:42:15Z</time>
      </trkpt>
      <trkpt lat="62.656026756381" lon="17.850701257198">
        <ele>87.6</ele>
        <time>2018-01-14T12:42:16Z</time>
      </trkpt>
      <trkpt lat="62.656014602626" lon="17.850719865016">
        <ele>87.8</ele>
        <time>2018-01-14T12:42:17Z</time>
      </trkpt>
      <trkpt lat="62.656002281233" lon="17.850737718463">
        <ele>87.8</ele>
        <time>2018-01-14T12:42:18Z</time>
      </trkpt>
      <trkpt lat="62.655987696727" lon="17.85075976286">
        <ele>88</ele>
        <time>2018-01-14T12:42:19Z</time>
      </trkpt>
      <trkpt lat="62.655975542972" lon="17.850780885248">
        <ele>88.4</ele>
        <time>2018-01-14T12:42:20Z</time>
      </trkpt>
      <trkpt lat="62.655966071425" lon="17.850799576885">
        <ele>88.6</ele>
        <time>2018-01-14T12:42:21Z</time>
      </trkpt>
      <trkpt lat="62.655951822195" lon="17.850819441988">
        <ele>88.8</ele>
        <time>2018-01-14T12:42:22Z</time>
      </trkpt>
      <trkpt lat="62.655939584621" lon="17.850835786693">
        <ele>89</ele>
        <time>2018-01-14T12:42:23Z</time>
      </trkpt>
      <trkpt lat="62.655924664839" lon="17.850854059235">
        <ele>89.2</ele>
        <time>2018-01-14T12:42:24Z</time>
      </trkpt>
      <trkpt lat="62.655913013998" lon="17.850869817207">
        <ele>89.4</ele>
        <time>2018-01-14T12:42:25Z</time>
      </trkpt>
      <trkpt lat="62.65590278808" lon="17.850885994274">
        <ele>89.6</ele>
        <time>2018-01-14T12:42:26Z</time>
      </trkpt>
      <trkpt lat="62.655892226886" lon="17.850900159685">
        <ele>89.8</ele>
        <time>2018-01-14T12:42:27Z</time>
      </trkpt>
      <trkpt lat="62.655887365384" lon="17.850915750019">
        <ele>90</ele>
        <time>2018-01-14T12:42:28Z</time>
      </trkpt>
      <trkpt lat="62.655874624896" lon="17.850936788588">
        <ele>90.2</ele>
        <time>2018-01-14T12:42:29Z</time>
      </trkpt>
      <trkpt lat="62.65586590772" lon="17.850956234596">
        <ele>90.4</ele>
        <time>2018-01-14T12:42:30Z</time>
      </trkpt>
      <trkpt lat="62.655856603811" lon="17.850973082215">
        <ele>90.6</ele>
        <time>2018-01-14T12:42:31Z</time>
      </trkpt>
      <trkpt lat="62.655844450056" lon="17.850995210431">
        <ele>91</ele>
        <time>2018-01-14T12:42:32Z</time>
      </trkpt>
      <trkpt lat="62.655835649061" lon="17.851011303679">
        <ele>91.2</ele>
        <time>2018-01-14T12:42:33Z</time>
      </trkpt>
      <trkpt lat="62.655823830582" lon="17.851028235117">
        <ele>91.4</ele>
        <time>2018-01-14T12:42:34Z</time>
      </trkpt>
      <trkpt lat="62.655810335723" lon="17.851039969777">
        <ele>91.6</ele>
        <time>2018-01-14T12:42:35Z</time>
      </trkpt>
      <trkpt lat="62.655798098149" lon="17.851050111876">
        <ele>91.6</ele>
        <time>2018-01-14T12:42:36Z</time>
      </trkpt>
      <trkpt lat="62.655784184195" lon="17.851064193468">
        <ele>91.8</ele>
        <time>2018-01-14T12:42:37Z</time>
      </trkpt>
      <trkpt lat="62.655770773155" lon="17.85107324592">
        <ele>91.8</ele>
        <time>2018-01-14T12:42:38Z</time>
      </trkpt>
      <trkpt lat="62.655758367943" lon="17.851091267005">
        <ele>92</ele>
        <time>2018-01-14T12:42:39Z</time>
      </trkpt>
      <trkpt lat="62.655744286351" lon="17.851109791004">
        <ele>92.2</ele>
        <time>2018-01-14T12:42:40Z</time>
      </trkpt>
      <trkpt lat="62.655728025465" lon="17.851134601428">
        <ele>92.2</ele>
        <time>2018-01-14T12:42:41Z</time>
      </trkpt>
      <trkpt lat="62.655716039348" lon="17.851154717988">
        <ele>92.4</ele>
        <time>2018-01-14T12:42:42Z</time>
      </trkpt>
      <trkpt lat="62.655692989123" lon="17.851185395742">
        <ele>92.6</ele>
        <time>2018-01-14T12:42:43Z</time>
      </trkpt>
      <trkpt lat="62.6556748004" lon="17.85121238546">
        <ele>92.8</ele>
        <time>2018-01-14T12:42:44Z</time>
      </trkpt>
      <trkpt lat="62.655653761831" lon="17.85123753116">
        <ele>92.8</ele>
        <time>2018-01-14T12:42:45Z</time>
      </trkpt>
      <trkpt lat="62.655635321651" lon="17.851267789819">
        <ele>93</ele>
        <time>2018-01-14T12:42:46Z</time>
      </trkpt>
      <trkpt lat="62.655610511227" lon="17.851295953003">
        <ele>93</ele>
        <time>2018-01-14T12:42:47Z</time>
      </trkpt>
      <trkpt lat="62.655596345816" lon="17.851318081219">
        <ele>93</ele>
        <time>2018-01-14T12:42:48Z</time>
      </trkpt>
      <trkpt lat="62.655582012767" lon="17.851340377073">
        <ele>93.2</ele>
        <time>2018-01-14T12:42:49Z</time>
      </trkpt>
      <trkpt lat="62.655563153492" lon="17.851361750918">
        <ele>93.2</ele>
        <time>2018-01-14T12:42:50Z</time>
      </trkpt>
      <trkpt lat="62.655547898434" lon="17.851380442555">
        <ele>93.2</ele>
        <time>2018-01-14T12:42:51Z</time>
      </trkpt>
      <trkpt lat="62.655531721367" lon="17.851399134192">
        <ele>93.4</ele>
        <time>2018-01-14T12:42:52Z</time>
      </trkpt>
      <trkpt lat="62.655513616463" lon="17.851417825829">
        <ele>93.4</ele>
        <time>2018-01-14T12:42:53Z</time>
      </trkpt>
      <trkpt lat="62.655497690853" lon="17.851438110027">
        <ele>93.6</ele>
        <time>2018-01-14T12:42:54Z</time>
      </trkpt>
      <trkpt lat="62.655484195994" lon="17.851455209103">
        <ele>93.8</ele>
        <time>2018-01-14T12:42:55Z</time>
      </trkpt>
      <trkpt lat="62.655472293696" lon="17.851476750586">
        <ele>94</ele>
        <time>2018-01-14T12:42:56Z</time>
      </trkpt>
      <trkpt lat="62.655456368086" lon="17.851496867146">
        <ele>94.4</ele>
        <time>2018-01-14T12:42:57Z</time>
      </trkpt>
      <trkpt lat="62.655437844087" lon="17.851517235163">
        <ele>94.4</ele>
        <time>2018-01-14T12:42:58Z</time>
      </trkpt>
      <trkpt lat="62.655416134966" lon="17.851543973424">
        <ele>94.8</ele>
        <time>2018-01-14T12:42:59Z</time>
      </trkpt>
      <trkpt lat="62.655400041718" lon="17.851571801332">
        <ele>94.8</ele>
        <time>2018-01-14T12:43:00Z</time>
      </trkpt>
      <trkpt lat="62.655387468868" lon="17.851591414978">
        <ele>95</ele>
        <time>2018-01-14T12:43:01Z</time>
      </trkpt>
      <trkpt lat="62.655373806371" lon="17.851611699176">
        <ele>95.2</ele>
        <time>2018-01-14T12:43:02Z</time>
      </trkpt>
      <trkpt lat="62.655357294028" lon="17.851641287283">
        <ele>95.4</ele>
        <time>2018-01-14T12:43:03Z</time>
      </trkpt>
      <trkpt lat="62.655343128617" lon="17.851672887046">
        <ele>95.6</ele>
        <time>2018-01-14T12:43:04Z</time>
      </trkpt>
      <trkpt lat="62.655319324021" lon="17.851721334428">
        <ele>95.8</ele>
        <time>2018-01-14T12:43:05Z</time>
      </trkpt>
      <trkpt lat="62.655302560221" lon="17.851762824833">
        <ele>96</ele>
        <time>2018-01-14T12:43:06Z</time>
      </trkpt>
      <trkpt lat="62.655276073417" lon="17.851811858948">
        <ele>96</ele>
        <time>2018-01-14T12:43:07Z</time>
      </trkpt>
      <trkpt lat="62.655257968513" lon="17.851854103724">
        <ele>96</ele>
        <time>2018-01-14T12:43:08Z</time>
      </trkpt>
      <trkpt lat="62.65523223608" lon="17.851901880554">
        <ele>96</ele>
        <time>2018-01-14T12:43:09Z</time>
      </trkpt>
      <trkpt lat="62.655213376805" lon="17.851942365131">
        <ele>96</ele>
        <time>2018-01-14T12:43:10Z</time>
      </trkpt>
      <trkpt lat="62.655192589693" lon="17.85198268207">
        <ele>96</ele>
        <time>2018-01-14T12:43:11Z</time>
      </trkpt>
      <trkpt lat="62.655176161169" lon="17.852027692873">
        <ele>95.8</ele>
        <time>2018-01-14T12:43:12Z</time>
      </trkpt>
      <trkpt lat="62.655159229731" lon="17.852058789722">
        <ele>95.8</ele>
        <time>2018-01-14T12:43:13Z</time>
      </trkpt>
      <trkpt lat="62.655139029352" lon="17.85210254324">
        <ele>95.8</ele>
        <time>2018-01-14T12:43:14Z</time>
      </trkpt>
      <trkpt lat="62.655127797606" lon="17.852139255962">
        <ele>96</ele>
        <time>2018-01-14T12:43:15Z</time>
      </trkpt>
      <trkpt lat="62.655112626367" lon="17.85219222957">
        <ele>96</ele>
        <time>2018-01-14T12:43:16Z</time>
      </trkpt>
      <trkpt lat="62.655102232811" lon="17.852240593133">
        <ele>96</ele>
        <time>2018-01-14T12:43:17Z</time>
      </trkpt>
      <trkpt lat="62.655095443472" lon="17.852278646959">
        <ele>96</ele>
        <time>2018-01-14T12:43:18Z</time>
      </trkpt>
      <trkpt lat="62.655081445699" lon="17.852342433218">
        <ele>96.2</ele>
        <time>2018-01-14T12:43:19Z</time>
      </trkpt>
      <trkpt lat="62.655075913645" lon="17.852395993559">
        <ele>96.2</ele>
        <time>2018-01-14T12:43:20Z</time>
      </trkpt>
      <trkpt lat="62.655067280288" lon="17.852456427058">
        <ele>96.2</ele>
        <time>2018-01-14T12:43:21Z</time>
      </trkpt>
      <trkpt lat="62.655069878677" lon="17.852518536937">
        <ele>96.2</ele>
        <time>2018-01-14T12:43:22Z</time>
      </trkpt>
      <trkpt lat="62.655066693555" lon="17.852594896046">
        <ele>96.4</ele>
        <time>2018-01-14T12:43:23Z</time>
      </trkpt>
      <trkpt lat="62.655062334967" lon="17.852690030611">
        <ele>96.4</ele>
        <time>2018-01-14T12:43:24Z</time>
      </trkpt>
      <trkpt lat="62.655059401302" lon="17.852768988109">
        <ele>96.2</ele>
        <time>2018-01-14T12:43:25Z</time>
      </trkpt>
      <trkpt lat="62.655057389646" lon="17.852850543996">
        <ele>96.4</ele>
        <time>2018-01-14T12:43:26Z</time>
      </trkpt>
      <trkpt lat="62.655055797085" lon="17.852920951956">
        <ele>96.4</ele>
        <time>2018-01-14T12:43:27Z</time>
      </trkpt>
      <trkpt lat="62.655048840108" lon="17.852988761527">
        <ele>96.2</ele>
        <time>2018-01-14T12:43:28Z</time>
      </trkpt>
      <trkpt lat="62.655034842335" lon="17.853069898319">
        <ele>96</ele>
        <time>2018-01-14T12:43:29Z</time>
      </trkpt>
      <trkpt lat="62.655026711892" lon="17.853127565791">
        <ele>96</ele>
        <time>2018-01-14T12:43:30Z</time>
      </trkpt>
      <trkpt lat="62.655015228689" lon="17.853187328738">
        <ele>95.8</ele>
        <time>2018-01-14T12:43:31Z</time>
      </trkpt>
      <trkpt lat="62.655005505685" lon="17.853228651505">
        <ele>95.8</ele>
        <time>2018-01-14T12:43:32Z</time>
      </trkpt>
      <trkpt lat="62.654994776853" lon="17.853256311775">
        <ele>95.8</ele>
        <time>2018-01-14T12:43:33Z</time>
      </trkpt>
      <trkpt lat="62.654981533451" lon="17.853302915139">
        <ele>95.8</ele>
        <time>2018-01-14T12:43:34Z</time>
      </trkpt>
      <trkpt lat="62.654969212058" lon="17.853337113291">
        <ele>96</ele>
        <time>2018-01-14T12:43:35Z</time>
      </trkpt>
      <trkpt lat="62.654956555389" lon="17.853373909832">
        <ele>96</ele>
        <time>2018-01-14T12:43:36Z</time>
      </trkpt>
      <trkpt lat="62.654941719426" lon="17.853412718029">
        <ele>96.2</ele>
        <time>2018-01-14T12:43:37Z</time>
      </trkpt>
      <trkpt lat="62.654932247879" lon="17.853438953376">
        <ele>96.4</ele>
        <time>2018-01-14T12:43:38Z</time>
      </trkpt>
      <trkpt lat="62.654914813527" lon="17.853475833736">
        <ele>96.6</ele>
        <time>2018-01-14T12:43:39Z</time>
      </trkpt>
      <trkpt lat="62.65490031284" lon="17.853516821227">
        <ele>96.8</ele>
        <time>2018-01-14T12:43:40Z</time>
      </trkpt>
      <trkpt lat="62.654894529329" lon="17.853548840085">
        <ele>96.8</ele>
        <time>2018-01-14T12:43:41Z</time>
      </trkpt>
      <trkpt lat="62.654876424425" lon="17.853594186164">
        <ele>97</ele>
        <time>2018-01-14T12:43:42Z</time>
      </trkpt>
      <trkpt lat="62.654861337005" lon="17.853637604406">
        <ele>97</ele>
        <time>2018-01-14T12:43:43Z</time>
      </trkpt>
      <trkpt lat="62.654847423051" lon="17.853684291589">
        <ele>97</ele>
        <time>2018-01-14T12:43:44Z</time>
      </trkpt>
      <trkpt lat="62.654836526581" lon="17.853727290736">
        <ele>97.2</ele>
        <time>2018-01-14T12:43:45Z</time>
      </trkpt>
      <trkpt lat="62.654820349514" lon="17.853778587964">
        <ele>97.4</ele>
        <time>2018-01-14T12:43:46Z</time>
      </trkpt>
      <trkpt lat="62.654805429732" lon="17.853832651219">
        <ele>97.4</ele>
        <time>2018-01-14T12:43:47Z</time>
      </trkpt>
      <trkpt lat="62.654792270149" lon="17.853879422221">
        <ele>97.6</ele>
        <time>2018-01-14T12:43:48Z</time>
      </trkpt>
      <trkpt lat="62.654779026747" lon="17.853939520444">
        <ele>97.6</ele>
        <time>2018-01-14T12:43:49Z</time>
      </trkpt>
      <trkpt lat="62.654767208268" lon="17.853993918975">
        <ele>97.8</ele>
        <time>2018-01-14T12:43:50Z</time>
      </trkpt>
      <trkpt lat="62.654764442241" lon="17.854026524566">
        <ele>97.8</ele>
        <time>2018-01-14T12:43:51Z</time>
      </trkpt>
      <trkpt lat="62.654751617934" lon="17.854104727693">
        <ele>97.8</ele>
        <time>2018-01-14T12:43:52Z</time>
      </trkpt>
      <trkpt lat="62.654736111419" lon="17.854143284433">
        <ele>97.8</ele>
        <time>2018-01-14T12:43:53Z</time>
      </trkpt>
      <trkpt lat="62.654723035655" lon="17.854180248612">
        <ele>97.8</ele>
        <time>2018-01-14T12:43:54Z</time>
      </trkpt>
      <trkpt lat="62.654707361502" lon="17.854215117316">
        <ele>98</ele>
        <time>2018-01-14T12:43:55Z</time>
      </trkpt>
      <trkpt lat="62.654677438119" lon="17.854269767304">
        <ele>97.8</ele>
        <time>2018-01-14T12:43:56Z</time>
      </trkpt>
      <trkpt lat="62.65465975231" lon="17.854299355411">
        <ele>98.2</ele>
        <time>2018-01-14T12:43:57Z</time>
      </trkpt>
      <trkpt lat="62.654641563587" lon="17.854334978486">
        <ele>98.2</ele>
        <time>2018-01-14T12:43:58Z</time>
      </trkpt>
      <trkpt lat="62.654610047643" lon="17.8543773909">
        <ele>98.2</ele>
        <time>2018-01-14T12:43:59Z</time>
      </trkpt>
      <trkpt lat="62.654593116205" lon="17.854401446953">
        <ele>98.4</ele>
        <time>2018-01-14T12:44:00Z</time>
      </trkpt>
      <trkpt lat="62.654562689908" lon="17.854447463584">
        <ele>98.6</ele>
        <time>2018-01-14T12:44:01Z</time>
      </trkpt>
      <trkpt lat="62.654546512841" lon="17.85448132646">
        <ele>98.8</ele>
        <time>2018-01-14T12:44:02Z</time>
      </trkpt>
      <trkpt lat="62.654520528951" lon="17.854521643399">
        <ele>98.8</ele>
        <time>2018-01-14T12:44:03Z</time>
      </trkpt>
      <trkpt lat="62.654497478726" lon="17.854572772989">
        <ele>98.8</ele>
        <time>2018-01-14T12:44:04Z</time>
      </trkpt>
      <trkpt lat="62.654473841768" lon="17.854614933946">
        <ele>98.8</ele>
        <time>2018-01-14T12:44:05Z</time>
      </trkpt>
      <trkpt lat="62.654453725208" lon="17.854649551193">
        <ele>98.8</ele>
        <time>2018-01-14T12:44:06Z</time>
      </trkpt>
      <trkpt lat="62.654438218693" lon="17.854682240603">
        <ele>99</ele>
        <time>2018-01-14T12:44:07Z</time>
      </trkpt>
      <trkpt lat="62.654418185952" lon="17.854717193126">
        <ele>98.8</ele>
        <time>2018-01-14T12:44:08Z</time>
      </trkpt>
      <trkpt lat="62.654397147383" lon="17.854751894192">
        <ele>98.8</ele>
        <time>2018-01-14T12:44:09Z</time>
      </trkpt>
      <trkpt lat="62.654367224" lon="17.854791875855">
        <ele>98.6</ele>
        <time>2018-01-14T12:44:10Z</time>
      </trkpt>
      <trkpt lat="62.654340821015" lon="17.854834539726">
        <ele>98.4</ele>
        <time>2018-01-14T12:44:11Z</time>
      </trkpt>
      <trkpt lat="62.654320369179" lon="17.854866474765">
        <ele>98.4</ele>
        <time>2018-01-14T12:44:12Z</time>
      </trkpt>
      <trkpt lat="62.654296732221" lon="17.854904863867">
        <ele>98.4</ele>
        <time>2018-01-14T12:44:13Z</time>
      </trkpt>
      <trkpt lat="62.654281644801" lon="17.854934954888">
        <ele>98.2</ele>
        <time>2018-01-14T12:44:14Z</time>
      </trkpt>
      <trkpt lat="62.654255325635" lon="17.854975104189">
        <ele>98.2</ele>
        <time>2018-01-14T12:44:15Z</time>
      </trkpt>
      <trkpt lat="62.654234287066" lon="17.854989688695">
        <ele>98.2</ele>
        <time>2018-01-14T12:44:16Z</time>
      </trkpt>
      <trkpt lat="62.654208135538" lon="17.855033526032">
        <ele>98</ele>
        <time>2018-01-14T12:44:17Z</time>
      </trkpt>
      <trkpt lat="62.654182654562" lon="17.855063365596">
        <ele>98</ele>
        <time>2018-01-14T12:44:18Z</time>
      </trkpt>
      <trkpt lat="62.654158179414" lon="17.855101084146">
        <ele>98</ele>
        <time>2018-01-14T12:44:19Z</time>
      </trkpt>
      <trkpt lat="62.65412917804" lon="17.855137126316">
        <ele>98.2</ele>
        <time>2018-01-14T12:44:20Z</time>
      </trkpt>
      <trkpt lat="62.654107888014" lon="17.855154141573">
        <ele>98.2</ele>
        <time>2018-01-14T12:44:21Z</time>
      </trkpt>
      <trkpt lat="62.654090705119" lon="17.855171324468">
        <ele>98.2</ele>
        <time>2018-01-14T12:44:22Z</time>
      </trkpt>
      <trkpt lat="62.654062793392" lon="17.855195296702">
        <ele>98.2</ele>
        <time>2018-01-14T12:44:23Z</time>
      </trkpt>
      <trkpt lat="62.654044017936" lon="17.855225722999">
        <ele>98.2</ele>
        <time>2018-01-14T12:44:24Z</time>
      </trkpt>
      <trkpt lat="62.654021219168" lon="17.855245001369">
        <ele>98.2</ele>
        <time>2018-01-14T12:44:25Z</time>
      </trkpt>
      <trkpt lat="62.653990792871" lon="17.855274338019">
        <ele>98.2</ele>
        <time>2018-01-14T12:44:26Z</time>
      </trkpt>
      <trkpt lat="62.653972268872" lon="17.855306021601">
        <ele>98.4</ele>
        <time>2018-01-14T12:44:27Z</time>
      </trkpt>
      <trkpt lat="62.653953241959" lon="17.855341812314">
        <ele>98.4</ele>
        <time>2018-01-14T12:44:28Z</time>
      </trkpt>
      <trkpt lat="62.653925581689" lon="17.855376178104">
        <ele>98.6</ele>
        <time>2018-01-14T12:44:29Z</time>
      </trkpt>
      <trkpt lat="62.653903788749" lon="17.855397049035">
        <ele>98.6</ele>
        <time>2018-01-14T12:44:30Z</time>
      </trkpt>
      <trkpt lat="62.653890377709" lon="17.855410124799">
        <ele>98.6</ele>
        <time>2018-01-14T12:44:31Z</time>
      </trkpt>
      <trkpt lat="62.653874535918" lon="17.855422781468">
        <ele>99</ele>
        <time>2018-01-14T12:44:32Z</time>
      </trkpt>
      <trkpt lat="62.653862130706" lon="17.855442059838">
        <ele>99.2</ele>
        <time>2018-01-14T12:44:33Z</time>
      </trkpt>
      <trkpt lat="62.653844444897" lon="17.855466534986">
        <ele>99.6</ele>
        <time>2018-01-14T12:44:34Z</time>
      </trkpt>
      <trkpt lat="62.653832039685" lon="17.85549050722">
        <ele>100</ele>
        <time>2018-01-14T12:44:35Z</time>
      </trkpt>
      <trkpt lat="62.653816616989" lon="17.8555173293">
        <ele>100.2</ele>
        <time>2018-01-14T12:44:36Z</time>
      </trkpt>
      <trkpt lat="62.653793482945" lon="17.855559657895">
        <ele>100.4</ele>
        <time>2018-01-14T12:44:37Z</time>
      </trkpt>
      <trkpt lat="62.65378216738" lon="17.855588407812">
        <ele>100.6</ele>
        <time>2018-01-14T12:44:38Z</time>
      </trkpt>
      <trkpt lat="62.65376205082" lon="17.855626796914">
        <ele>100.8</ele>
        <time>2018-01-14T12:44:39Z</time>
      </trkpt>
      <trkpt lat="62.653745957572" lon="17.855665269835">
        <ele>100.8</ele>
        <time>2018-01-14T12:44:40Z</time>
      </trkpt>
      <trkpt lat="62.653732043618" lon="17.855693181562">
        <ele>101</ele>
        <time>2018-01-14T12:44:41Z</time>
      </trkpt>
      <trkpt lat="62.653715028361" lon="17.855721596203">
        <ele>101</ele>
        <time>2018-01-14T12:44:42Z</time>
      </trkpt>
      <trkpt lat="62.653702790787" lon="17.8557436406">
        <ele>101</ele>
        <time>2018-01-14T12:44:43Z</time>
      </trkpt>
      <trkpt lat="62.653687368091" lon="17.855765265902">
        <ele>101</ele>
        <time>2018-01-14T12:44:44Z</time>
      </trkpt>
      <trkpt lat="62.653662054753" lon="17.855787477937">
        <ele>101</ele>
        <time>2018-01-14T12:44:45Z</time>
      </trkpt>
      <trkpt lat="62.653639088347" lon="17.855804660832">
        <ele>101.2</ele>
        <time>2018-01-14T12:44:46Z</time>
      </trkpt>
      <trkpt lat="62.653620145253" lon="17.855814383836">
        <ele>101.4</ele>
        <time>2018-01-14T12:44:47Z</time>
      </trkpt>
      <trkpt lat="62.653601537435" lon="17.855819999709">
        <ele>101.4</ele>
        <time>2018-01-14T12:44:48Z</time>
      </trkpt>
      <trkpt lat="62.653585444187" lon="17.855829052161">
        <ele>101.6</ele>
        <time>2018-01-14T12:44:49Z</time>
      </trkpt>
      <trkpt lat="62.653572787518" lon="17.855834248939">
        <ele>101.6</ele>
        <time>2018-01-14T12:44:50Z</time>
      </trkpt>
      <trkpt lat="62.653559125021" lon="17.855838523708">
        <ele>102</ele>
        <time>2018-01-14T12:44:51Z</time>
      </trkpt>
      <trkpt lat="62.653538840823" lon="17.855845732142">
        <ele>102.2</ele>
        <time>2018-01-14T12:44:52Z</time>
      </trkpt>
      <trkpt lat="62.653519478634" lon="17.855842798477">
        <ele>102.4</ele>
        <time>2018-01-14T12:44:53Z</time>
      </trkpt>
      <trkpt lat="62.653497518056" lon="17.855847659979">
        <ele>102.6</ele>
        <time>2018-01-14T12:44:54Z</time>
      </trkpt>
      <trkpt lat="62.653478826419" lon="17.855854030223">
        <ele>103</ele>
        <time>2018-01-14T12:44:55Z</time>
      </trkpt>
      <trkpt lat="62.653460889153" lon="17.855857131526">
        <ele>103</ele>
        <time>2018-01-14T12:44:56Z</time>
      </trkpt>
      <trkpt lat="62.653437419833" lon="17.855853108214">
        <ele>103.2</ele>
        <time>2018-01-14T12:44:57Z</time>
      </trkpt>
      <trkpt lat="62.653417387092" lon="17.85584589978">
        <ele>103.4</ele>
        <time>2018-01-14T12:44:58Z</time>
      </trkpt>
      <trkpt lat="62.653398863093" lon="17.855833578387">
        <ele>103.6</ele>
        <time>2018-01-14T12:44:59Z</time>
      </trkpt>
      <trkpt lat="62.653372795384" lon="17.855824358297">
        <ele>103.8</ele>
        <time>2018-01-14T12:45:00Z</time>
      </trkpt>
      <trkpt lat="62.653352846462" lon="17.855811450171">
        <ele>104</ele>
        <time>2018-01-14T12:45:01Z</time>
      </trkpt>
      <trkpt lat="62.653335579748" lon="17.855800721339">
        <ele>104.2</ele>
        <time>2018-01-14T12:45:02Z</time>
      </trkpt>
      <trkpt lat="62.653321246699" lon="17.855786304471">
        <ele>104.4</ele>
        <time>2018-01-14T12:45:03Z</time>
      </trkpt>
      <trkpt lat="62.653302303605" lon="17.855763505703">
        <ele>104.8</ele>
        <time>2018-01-14T12:45:04Z</time>
      </trkpt>
      <trkpt lat="62.653282270864" lon="17.855740958392">
        <ele>105</ele>
        <time>2018-01-14T12:45:05Z</time>
      </trkpt>
      <trkpt lat="62.653268859824" lon="17.855721931479">
        <ele>105.2</ele>
        <time>2018-01-14T12:45:06Z</time>
      </trkpt>
      <trkpt lat="62.653253101852" lon="17.855705838231">
        <ele>105.4</ele>
        <time>2018-01-14T12:45:07Z</time>
      </trkpt>
      <trkpt lat="62.653237511518" lon="17.855690583173">
        <ele>105.4</ele>
        <time>2018-01-14T12:45:08Z</time>
      </trkpt>
      <trkpt lat="62.653221082994" lon="17.855672813545">
        <ele>105.6</ele>
        <time>2018-01-14T12:45:09Z</time>
      </trkpt>
      <trkpt lat="62.653207588135" lon="17.855653451356">
        <ele>105.8</ele>
        <time>2018-01-14T12:45:10Z</time>
      </trkpt>
      <trkpt lat="62.653188896498" lon="17.855630736407">
        <ele>105.8</ele>
        <time>2018-01-14T12:45:11Z</time>
      </trkpt>
      <trkpt lat="62.653170372499" lon="17.855608943467">
        <ele>106</ele>
        <time>2018-01-14T12:45:12Z</time>
      </trkpt>
      <trkpt lat="62.653157045278" lon="17.855589748916">
        <ele>106.2</ele>
        <time>2018-01-14T12:45:13Z</time>
      </trkpt>
      <trkpt lat="62.653140616754" lon="17.855568291252">
        <ele>106.4</ele>
        <time>2018-01-14T12:45:14Z</time>
      </trkpt>
      <trkpt lat="62.653124104411" lon="17.855546330674">
        <ele>106.8</ele>
        <time>2018-01-14T12:45:15Z</time>
      </trkpt>
      <trkpt lat="62.653107759706" lon="17.855523112811">
        <ele>107.2</ele>
        <time>2018-01-14T12:45:16Z</time>
      </trkpt>
      <trkpt lat="62.653091163544" lon="17.855506013735">
        <ele>107.6</ele>
        <time>2018-01-14T12:45:17Z</time>
      </trkpt>
      <trkpt lat="62.65307389683" lon="17.855490339582">
        <ele>107.8</ele>
        <time>2018-01-14T12:45:18Z</time>
      </trkpt>
      <trkpt lat="62.653058474134" lon="17.855472486135">
        <ele>108.2</ele>
        <time>2018-01-14T12:45:19Z</time>
      </trkpt>
      <trkpt lat="62.653044895456" lon="17.855458907457">
        <ele>108.6</ele>
        <time>2018-01-14T12:45:20Z</time>
      </trkpt>
      <trkpt lat="62.653030394769" lon="17.855451363747">
        <ele>109</ele>
        <time>2018-01-14T12:45:21Z</time>
      </trkpt>
      <trkpt lat="62.653013463331" lon="17.855443317123">
        <ele>109.4</ele>
        <time>2018-01-14T12:45:22Z</time>
      </trkpt>
      <trkpt lat="62.652997453902" lon="17.855431750101">
        <ele>109.8</ele>
        <time>2018-01-14T12:45:23Z</time>
      </trkpt>
      <trkpt lat="62.652979935731" lon="17.855419177251">
        <ele>110.2</ele>
        <time>2018-01-14T12:45:24Z</time>
      </trkpt>
      <trkpt lat="62.652959986809" lon="17.855411130627">
        <ele>110.4</ele>
        <time>2018-01-14T12:45:25Z</time>
      </trkpt>
      <trkpt lat="62.652941798086" lon="17.855399228329">
        <ele>110.6</ele>
        <time>2018-01-14T12:45:26Z</time>
      </trkpt>
      <trkpt lat="62.652923190268" lon="17.855392858085">
        <ele>110.6</ele>
        <time>2018-01-14T12:45:27Z</time>
      </trkpt>
      <trkpt lat="62.652906175011" lon="17.855386152565">
        <ele>110.8</ele>
        <time>2018-01-14T12:45:28Z</time>
      </trkpt>
      <trkpt lat="62.652885723175" lon="17.855375507552">
        <ele>111</ele>
        <time>2018-01-14T12:45:29Z</time>
      </trkpt>
      <trkpt lat="62.652865438977" lon="17.855367125652">
        <ele>111.2</ele>
        <time>2018-01-14T12:45:30Z</time>
      </trkpt>
      <trkpt lat="62.652847836987" lon="17.85536058777">
        <ele>111.4</ele>
        <time>2018-01-14T12:45:31Z</time>
      </trkpt>
      <trkpt lat="62.652828977712" lon="17.855359162847">
        <ele>111.8</ele>
        <time>2018-01-14T12:45:32Z</time>
      </trkpt>
      <trkpt lat="62.652808106781" lon="17.855356648277">
        <ele>112.2</ele>
        <time>2018-01-14T12:45:33Z</time>
      </trkpt>
      <trkpt lat="62.652783966909" lon="17.855351116223">
        <ele>112.4</ele>
        <time>2018-01-14T12:45:34Z</time>
      </trkpt>
      <trkpt lat="62.65276292834" lon="17.855350780947">
        <ele>112.8</ele>
        <time>2018-01-14T12:45:35Z</time>
      </trkpt>
      <trkpt lat="62.652747086549" lon="17.855354385164">
        <ele>113</ele>
        <time>2018-01-14T12:45:36Z</time>
      </trkpt>
      <trkpt lat="62.652720683564" lon="17.855363521435">
        <ele>113</ele>
        <time>2018-01-14T12:45:37Z</time>
      </trkpt>
      <trkpt lat="62.652697633339" lon="17.855368802032">
        <ele>113</ele>
        <time>2018-01-14T12:45:38Z</time>
      </trkpt>
      <trkpt lat="62.652678941702" lon="17.855371987154">
        <ele>113.2</ele>
        <time>2018-01-14T12:45:39Z</time>
      </trkpt>
      <trkpt lat="62.652655304744" lon="17.855369891679">
        <ele>113.2</ele>
        <time>2018-01-14T12:45:40Z</time>
      </trkpt>
      <trkpt lat="62.652631416329" lon="17.855366958014">
        <ele>113.4</ele>
        <time>2018-01-14T12:45:41Z</time>
      </trkpt>
      <trkpt lat="62.652606941181" lon="17.855366287462">
        <ele>113.6</ele>
        <time>2018-01-14T12:45:42Z</time>
      </trkpt>
      <trkpt lat="62.652587243716" lon="17.855371065145">
        <ele>113.6</ele>
        <time>2018-01-14T12:45:43Z</time>
      </trkpt>
      <trkpt lat="62.652557907066" lon="17.855368718213">
        <ele>113.6</ele>
        <time>2018-01-14T12:45:44Z</time>
      </trkpt>
      <trkpt lat="62.652533599556" lon="17.855371903335">
        <ele>113.8</ele>
        <time>2018-01-14T12:45:45Z</time>
      </trkpt>
      <trkpt lat="62.652512980082" lon="17.855374753181">
        <ele>113.8</ele>
        <time>2018-01-14T12:45:46Z</time>
      </trkpt>
      <trkpt lat="62.652493953169" lon="17.855377603027">
        <ele>113.8</ele>
        <time>2018-01-14T12:45:47Z</time>
      </trkpt>
      <trkpt lat="62.652468472193" lon="17.855392187533">
        <ele>114</ele>
        <time>2018-01-14T12:45:48Z</time>
      </trkpt>
      <trkpt lat="62.652451792212" lon="17.855412471731">
        <ele>114</ele>
        <time>2018-01-14T12:45:49Z</time>
      </trkpt>
      <trkpt lat="62.652430837462" lon="17.85544356858">
        <ele>114.2</ele>
        <time>2018-01-14T12:45:50Z</time>
      </trkpt>
      <trkpt lat="62.652410804721" lon="17.8554838017">
        <ele>114.2</ele>
        <time>2018-01-14T12:45:51Z</time>
      </trkpt>
      <trkpt lat="62.652398818604" lon="17.855522693716">
        <ele>114.4</ele>
        <time>2018-01-14T12:45:52Z</time>
      </trkpt>
      <trkpt lat="62.652379959329" lon="17.855568794166">
        <ele>114.4</ele>
        <time>2018-01-14T12:45:53Z</time>
      </trkpt>
      <trkpt lat="62.652362105882" lon="17.855622270688">
        <ele>114.4</ele>
        <time>2018-01-14T12:45:54Z</time>
      </trkpt>
      <trkpt lat="62.652350203584" lon="17.855665605111">
        <ele>114.4</ele>
        <time>2018-01-14T12:45:55Z</time>
      </trkpt>
      <trkpt lat="62.652333020689" lon="17.85571765671">
        <ele>114.6</ele>
        <time>2018-01-14T12:45:56Z</time>
      </trkpt>
      <trkpt lat="62.652318520002" lon="17.85576375716">
        <ele>114.6</ele>
        <time>2018-01-14T12:45:57Z</time>
      </trkpt>
      <trkpt lat="62.652304270772" lon="17.855806001936">
        <ele>114.6</ele>
        <time>2018-01-14T12:45:58Z</time>
      </trkpt>
      <trkpt lat="62.652288177524" lon="17.85586853091">
        <ele>114.8</ele>
        <time>2018-01-14T12:45:59Z</time>
      </trkpt>
      <trkpt lat="62.652271749" lon="17.855916140102">
        <ele>114.8</ele>
        <time>2018-01-14T12:46:00Z</time>
      </trkpt>
      <trkpt lat="62.652255907209" lon="17.855962827285">
        <ele>115</ele>
        <time>2018-01-14T12:46:01Z</time>
      </trkpt>
      <trkpt lat="62.652243166721" lon="17.856010352658">
        <ele>115</ele>
        <time>2018-01-14T12:46:02Z</time>
      </trkpt>
      <trkpt lat="62.652231767337" lon="17.856051675425">
        <ele>115</ele>
        <time>2018-01-14T12:46:03Z</time>
      </trkpt>
      <trkpt lat="62.652218859211" lon="17.856087382319">
        <ele>115</ele>
        <time>2018-01-14T12:46:04Z</time>
      </trkpt>
      <trkpt lat="62.652203436515" lon="17.85611998791">
        <ele>115</ele>
        <time>2018-01-14T12:46:05Z</time>
      </trkpt>
      <trkpt lat="62.652188516733" lon="17.856154269881">
        <ele>115.2</ele>
        <time>2018-01-14T12:46:06Z</time>
      </trkpt>
      <trkpt lat="62.652170495648" lon="17.856183187436">
        <ele>115</ele>
        <time>2018-01-14T12:46:07Z</time>
      </trkpt>
      <trkpt lat="62.652157671341" lon="17.856215793027">
        <ele>115.2</ele>
        <time>2018-01-14T12:46:08Z</time>
      </trkpt>
      <trkpt lat="62.652134788754" lon="17.856252170473">
        <ele>115.2</ele>
        <time>2018-01-14T12:46:09Z</time>
      </trkpt>
      <trkpt lat="62.652107799036" lon="17.856281674761">
        <ele>115.2</ele>
        <time>2018-01-14T12:46:10Z</time>
      </trkpt>
      <trkpt lat="62.652076618368" lon="17.856306736642">
        <ele>115.4</ele>
        <time>2018-01-14T12:46:11Z</time>
      </trkpt>
      <trkpt lat="62.652047197899" lon="17.856331463247">
        <ele>115.6</ele>
        <time>2018-01-14T12:46:12Z</time>
      </trkpt>
      <trkpt lat="62.652019034715" lon="17.856343868459">
        <ele>115.8</ele>
        <time>2018-01-14T12:46:13Z</time>
      </trkpt>
      <trkpt lat="62.651982321993" lon="17.856359123517">
        <ele>115.8</ele>
        <time>2018-01-14T12:46:14Z</time>
      </trkpt>
      <trkpt lat="62.651951141325" lon="17.856381419371">
        <ele>115.8</ele>
        <time>2018-01-14T12:46:15Z</time>
      </trkpt>
      <trkpt lat="62.651918954829" lon="17.856423999423">
        <ele>115.6</ele>
        <time>2018-01-14T12:46:16Z</time>
      </trkpt>
      <trkpt lat="62.651892803301" lon="17.85647621866">
        <ele>115.2</ele>
        <time>2018-01-14T12:46:17Z</time>
      </trkpt>
      <trkpt lat="62.65187193237" lon="17.8565399211">
        <ele>114.8</ele>
        <time>2018-01-14T12:46:18Z</time>
      </trkpt>
      <trkpt lat="62.651840416426" lon="17.856622985729">
        <ele>114.4</ele>
        <time>2018-01-14T12:46:19Z</time>
      </trkpt>
      <trkpt lat="62.651811415052" lon="17.856721221597">
        <ele>113.6</ele>
        <time>2018-01-14T12:46:20Z</time>
      </trkpt>
      <trkpt lat="62.65178727518" lon="17.856799676181">
        <ele>112.8</ele>
        <time>2018-01-14T12:46:21Z</time>
      </trkpt>
      <trkpt lat="62.651760956014" lon="17.856893721099">
        <ele>112.2</ele>
        <time>2018-01-14T12:46:22Z</time>
      </trkpt>
      <trkpt lat="62.651738743979" lon="17.856969996389">
        <ele>111.8</ele>
        <time>2018-01-14T12:46:23Z</time>
      </trkpt>
      <trkpt lat="62.651714268831" lon="17.857052390466">
        <ele>111.4</ele>
        <time>2018-01-14T12:46:24Z</time>
      </trkpt>
      <trkpt lat="62.651694571366" lon="17.857122798426">
        <ele>111.6</ele>
        <time>2018-01-14T12:46:25Z</time>
      </trkpt>
      <trkpt lat="62.651665318535" lon="17.857195218042">
        <ele>111.8</ele>
        <time>2018-01-14T12:46:26Z</time>
      </trkpt>
      <trkpt lat="62.651638496455" lon="17.857267386201">
        <ele>112.2</ele>
        <time>2018-01-14T12:46:27Z</time>
      </trkpt>
      <trkpt lat="62.65161293166" lon="17.85732949608">
        <ele>112.2</ele>
        <time>2018-01-14T12:46:28Z</time>
      </trkpt>
      <trkpt lat="62.651583343553" lon="17.857406441922">
        <ele>112.2</ele>
        <time>2018-01-14T12:46:29Z</time>
      </trkpt>
      <trkpt lat="62.651570686884" lon="17.857469641448">
        <ele>112</ele>
        <time>2018-01-14T12:46:30Z</time>
      </trkpt>
      <trkpt lat="62.651548893944" lon="17.857536109915">
        <ele>111.8</ele>
        <time>2018-01-14T12:46:31Z</time>
      </trkpt>
      <trkpt lat="62.651524251158" lon="17.857600818183">
        <ele>111.6</ele>
        <time>2018-01-14T12:46:32Z</time>
      </trkpt>
      <trkpt lat="62.651497177621" lon="17.857670974686">
        <ele>111.6</ele>
        <time>2018-01-14T12:46:33Z</time>
      </trkpt>
      <trkpt lat="62.65147714488" lon="17.857740544456">
        <ele>111.4</ele>
        <time>2018-01-14T12:46:34Z</time>
      </trkpt>
      <trkpt lat="62.651442276176" lon="17.857816819746">
        <ele>111.2</ele>
        <time>2018-01-14T12:46:35Z</time>
      </trkpt>
      <trkpt lat="62.651398522658" lon="17.857910026474">
        <ele>111</ele>
        <time>2018-01-14T12:46:36Z</time>
      </trkpt>
      <trkpt lat="62.651371113845" lon="17.857975153837">
        <ele>111</ele>
        <time>2018-01-14T12:46:37Z</time>
      </trkpt>
      <trkpt lat="62.651346219602" lon="17.858034497689">
        <ele>110.6</ele>
        <time>2018-01-14T12:46:38Z</time>
      </trkpt>
      <trkpt lat="62.651323672291" lon="17.858098619224">
        <ele>110.6</ele>
        <time>2018-01-14T12:46:39Z</time>
      </trkpt>
      <trkpt lat="62.651291653433" lon="17.858162740759">
        <ele>110.4</ele>
        <time>2018-01-14T12:46:40Z</time>
      </trkpt>
      <trkpt lat="62.651263993163" lon="17.858228203398">
        <ele>110</ele>
        <time>2018-01-14T12:46:41Z</time>
      </trkpt>
      <trkpt lat="62.651238176911" lon="17.85828838544">
        <ele>109.8</ele>
        <time>2018-01-14T12:46:42Z</time>
      </trkpt>
      <trkpt lat="62.651206074234" lon="17.858347394016">
        <ele>109.8</ele>
        <time>2018-01-14T12:46:43Z</time>
      </trkpt>
      <trkpt lat="62.651172630453" lon="17.858409839171">
        <ele>109.8</ele>
        <time>2018-01-14T12:46:44Z</time>
      </trkpt>
      <trkpt lat="62.651141617423" lon="17.858455352888">
        <ele>109.8</ele>
        <time>2018-01-14T12:46:45Z</time>
      </trkpt>
      <trkpt lat="62.651110101479" lon="17.858493574352">
        <ele>109.8</ele>
        <time>2018-01-14T12:46:46Z</time>
      </trkpt>
      <trkpt lat="62.651073472576" lon="17.858539507164">
        <ele>109.8</ele>
        <time>2018-01-14T12:46:47Z</time>
      </trkpt>
      <trkpt lat="62.651036759854" lon="17.858579572646">
        <ele>109.6</ele>
        <time>2018-01-14T12:46:48Z</time>
      </trkpt>
      <trkpt lat="62.650992419603" lon="17.858609915124">
        <ele>109.2</ele>
        <time>2018-01-14T12:46:49Z</time>
      </trkpt>
      <trkpt lat="62.650951348293" lon="17.858632378616">
        <ele>108.6</ele>
        <time>2018-01-14T12:46:50Z</time>
      </trkpt>
      <trkpt lat="62.650925196765" lon="17.858638413584">
        <ele>108.6</ele>
        <time>2018-01-14T12:46:51Z</time>
      </trkpt>
      <trkpt lat="62.650883873998" lon="17.858638497403">
        <ele>108.4</ele>
        <time>2018-01-14T12:46:52Z</time>
      </trkpt>
      <trkpt lat="62.650851519864" lon="17.858629193494">
        <ele>108.2</ele>
        <time>2018-01-14T12:46:53Z</time>
      </trkpt>
      <trkpt lat="62.650817656988" lon="17.858613435522">
        <ele>108</ele>
        <time>2018-01-14T12:46:54Z</time>
      </trkpt>
      <trkpt lat="62.650783291198" lon="17.858594743885">
        <ele>108</ele>
        <time>2018-01-14T12:46:55Z</time>
      </trkpt>
      <trkpt lat="62.650757726403" lon="17.85856917909">
        <ele>108.2</ele>
        <time>2018-01-14T12:46:56Z</time>
      </trkpt>
      <trkpt lat="62.650732915979" lon="17.858536908775">
        <ele>108.2</ele>
        <time>2018-01-14T12:46:57Z</time>
      </trkpt>
      <trkpt lat="62.650707435003" lon="17.858489718678">
        <ele>108</ele>
        <time>2018-01-14T12:46:58Z</time>
      </trkpt>
      <trkpt lat="62.65067583524" lon="17.858417047605">
        <ele>108</ele>
        <time>2018-01-14T12:46:59Z</time>
      </trkpt>
      <trkpt lat="62.650648594065" lon="17.858329289112">
        <ele>107.8</ele>
        <time>2018-01-14T12:47:00Z</time>
      </trkpt>
      <trkpt lat="62.650624789469" lon="17.858225605009">
        <ele>107.4</ele>
        <time>2018-01-14T12:47:01Z</time>
      </trkpt>
      <trkpt lat="62.650605175823" lon="17.858115550662">
        <ele>106.6</ele>
        <time>2018-01-14T12:47:02Z</time>
      </trkpt>
      <trkpt lat="62.650588747299" lon="17.858013375301">
        <ele>106</ele>
        <time>2018-01-14T12:47:03Z</time>
      </trkpt>
      <trkpt lat="62.650569552748" lon="17.857879432539">
        <ele>105.2</ele>
        <time>2018-01-14T12:47:04Z</time>
      </trkpt>
      <trkpt lat="62.65055178312" lon="17.857748842537">
        <ele>104.2</ele>
        <time>2018-01-14T12:47:05Z</time>
      </trkpt>
      <trkpt lat="62.650532337112" lon="17.857621102381">
        <ele>103.4</ele>
        <time>2018-01-14T12:47:06Z</time>
      </trkpt>
      <trkpt lat="62.650504928299" lon="17.857485231782">
        <ele>103</ele>
        <time>2018-01-14T12:47:07Z</time>
      </trkpt>
      <trkpt lat="62.650475172554" lon="17.857365035336">
        <ele>102.4</ele>
        <time>2018-01-14T12:47:08Z</time>
      </trkpt>
      <trkpt lat="62.650437873099" lon="17.857234612972">
        <ele>101.8</ele>
        <time>2018-01-14T12:47:09Z</time>
      </trkpt>
      <trkpt lat="62.650399400178" lon="17.857108716834">
        <ele>101.2</ele>
        <time>2018-01-14T12:47:10Z</time>
      </trkpt>
      <trkpt lat="62.650358412687" lon="17.856992711338">
        <ele>100.8</ele>
        <time>2018-01-14T12:47:11Z</time>
      </trkpt>
      <trkpt lat="62.650315832635" lon="17.856891038891">
        <ele>100</ele>
        <time>2018-01-14T12:47:12Z</time>
      </trkpt>
      <trkpt lat="62.650273923135" lon="17.856809063909">
        <ele>99.6</ele>
        <time>2018-01-14T12:47:13Z</time>
      </trkpt>
      <trkpt lat="62.6502181835" lon="17.85672935204">
        <ele>99.2</ele>
        <time>2018-01-14T12:47:14Z</time>
      </trkpt>
      <trkpt lat="62.650168646471" lon="17.856672941853">
        <ele>98.6</ele>
        <time>2018-01-14T12:47:15Z</time>
      </trkpt>
      <trkpt lat="62.650114080302" lon="17.856631954362">
        <ele>98</ele>
        <time>2018-01-14T12:47:16Z</time>
      </trkpt>
      <trkpt lat="62.650063872721" lon="17.856601444246">
        <ele>97.6</ele>
        <time>2018-01-14T12:47:17Z</time>
      </trkpt>
      <trkpt lat="62.650023304325" lon="17.856580321858">
        <ele>97.4</ele>
        <time>2018-01-14T12:47:18Z</time>
      </trkpt>
      <trkpt lat="62.64997929935" lon="17.856563641877">
        <ele>97.2</ele>
        <time>2018-01-14T12:47:19Z</time>
      </trkpt>
      <trkpt lat="62.649951387623" lon="17.856558948013">
        <ele>97</ele>
        <time>2018-01-14T12:47:20Z</time>
      </trkpt>
      <trkpt lat="62.649927750665" lon="17.856546291344">
        <ele>97</ele>
        <time>2018-01-14T12:47:21Z</time>
      </trkpt>
      <trkpt lat="62.649900928585" lon="17.856530365734">
        <ele>97.4</ele>
        <time>2018-01-14T12:47:22Z</time>
      </trkpt>
      <trkpt lat="62.649878045998" lon="17.856524582223">
        <ele>97.8</ele>
        <time>2018-01-14T12:47:23Z</time>
      </trkpt>
      <trkpt lat="62.649855163411" lon="17.856523660214">
        <ele>98</ele>
        <time>2018-01-14T12:47:24Z</time>
      </trkpt>
      <trkpt lat="62.649829430978" lon="17.856520558911">
        <ele>98.4</ele>
        <time>2018-01-14T12:47:25Z</time>
      </trkpt>
      <trkpt lat="62.649802525079" lon="17.856515781228">
        <ele>98.8</ele>
        <time>2018-01-14T12:47:26Z</time>
      </trkpt>
      <trkpt lat="62.649778720483" lon="17.856515026857">
        <ele>99</ele>
        <time>2018-01-14T12:47:27Z</time>
      </trkpt>
      <trkpt lat="62.649759190656" lon="17.856519636902">
        <ele>99</ele>
        <time>2018-01-14T12:47:28Z</time>
      </trkpt>
      <trkpt lat="62.649733877318" lon="17.856517206151">
        <ele>99.2</ele>
        <time>2018-01-14T12:47:29Z</time>
      </trkpt>
      <trkpt lat="62.649709318351" lon="17.856513434296">
        <ele>99.4</ele>
        <time>2018-01-14T12:47:30Z</time>
      </trkpt>
      <trkpt lat="62.649680568434" lon="17.856521732377">
        <ele>99.6</ele>
        <time>2018-01-14T12:47:31Z</time>
      </trkpt>
      <trkpt lat="62.64966413991" lon="17.856516787056">
        <ele>99.8</ele>
        <time>2018-01-14T12:47:32Z</time>
      </trkpt>
      <trkpt lat="62.649646873196" lon="17.85651226083">
        <ele>100</ele>
        <time>2018-01-14T12:47:33Z</time>
      </trkpt>
      <trkpt lat="62.649624828799" lon="17.856514272486">
        <ele>100.2</ele>
        <time>2018-01-14T12:47:34Z</time>
      </trkpt>
      <trkpt lat="62.649602868221" lon="17.856514691581">
        <ele>100.2</ele>
        <time>2018-01-14T12:47:35Z</time>
      </trkpt>
      <trkpt lat="62.649582667842" lon="17.856515026857">
        <ele>100.2</ele>
        <time>2018-01-14T12:47:36Z</time>
      </trkpt>
      <trkpt lat="62.64956104254" lon="17.856518631074">
        <ele>100.4</ele>
        <time>2018-01-14T12:47:37Z</time>
      </trkpt>
      <trkpt lat="62.649544446378" lon="17.856517457608">
        <ele>100.4</ele>
        <time>2018-01-14T12:47:38Z</time>
      </trkpt>
      <trkpt lat="62.649528185492" lon="17.856520978006">
        <ele>100.6</ele>
        <time>2018-01-14T12:47:39Z</time>
      </trkpt>
      <trkpt lat="62.649510080588" lon="17.856522570567">
        <ele>100.8</ele>
        <time>2018-01-14T12:47:40Z</time>
      </trkpt>
      <trkpt lat="62.649484934888" lon="17.856519385445">
        <ele>101</ele>
        <time>2018-01-14T12:47:41Z</time>
      </trkpt>
      <trkpt lat="62.649462471396" lon="17.856517876703">
        <ele>101.6</ele>
        <time>2018-01-14T12:47:42Z</time>
      </trkpt>
      <trkpt lat="62.64944872508" lon="17.856518463436">
        <ele>102</ele>
        <time>2018-01-14T12:47:43Z</time>
      </trkpt>
      <trkpt lat="62.649424501389" lon="17.856520726549">
        <ele>102.4</ele>
        <time>2018-01-14T12:47:44Z</time>
      </trkpt>
      <trkpt lat="62.64940346282" lon="17.85651896635">
        <ele>102.6</ele>
        <time>2018-01-14T12:47:45Z</time>
      </trkpt>
      <trkpt lat="62.649378736215" lon="17.856511757916">
        <ele>103</ele>
        <time>2018-01-14T12:47:46Z</time>
      </trkpt>
      <trkpt lat="62.649357781465" lon="17.85651058445">
        <ele>103</ele>
        <time>2018-01-14T12:47:47Z</time>
      </trkpt>
      <trkpt lat="62.649333473955" lon="17.856487534225">
        <ele>103.2</ele>
        <time>2018-01-14T12:47:48Z</time>
      </trkpt>
      <trkpt lat="62.649306987151" lon="17.856452833159">
        <ele>103.4</ele>
        <time>2018-01-14T12:47:49Z</time>
      </trkpt>
      <trkpt lat="62.64929030717" lon="17.856424167061">
        <ele>103.4</ele>
        <time>2018-01-14T12:47:50Z</time>
      </trkpt>
      <trkpt lat="62.649274800655" lon="17.856394998049">
        <ele>103.4</ele>
        <time>2018-01-14T12:47:51Z</time>
      </trkpt>
      <trkpt lat="62.649254516457" lon="17.856346215391">
        <ele>103.4</ele>
        <time>2018-01-14T12:47:52Z</time>
      </trkpt>
      <trkpt lat="62.649238926123" lon="17.856312352515">
        <ele>103.6</ele>
        <time>2018-01-14T12:47:53Z</time>
      </trkpt>
      <trkpt lat="62.649220905038" lon="17.856278741096">
        <ele>103.4</ele>
        <time>2018-01-14T12:47:54Z</time>
      </trkpt>
      <trkpt lat="62.649198357727" lon="17.856230712809">
        <ele>103.6</ele>
        <time>2018-01-14T12:47:55Z</time>
      </trkpt>
      <trkpt lat="62.649180755737" lon="17.856193413354">
        <ele>103.6</ele>
        <time>2018-01-14T12:47:56Z</time>
      </trkpt>
      <trkpt lat="62.649165584498" lon="17.85615938284">
        <ele>103.6</ele>
        <time>2018-01-14T12:47:57Z</time>
      </trkpt>
      <trkpt lat="62.64914446211" lon="17.856115629322">
        <ele>103.6</ele>
        <time>2018-01-14T12:47:58Z</time>
      </trkpt>
      <trkpt lat="62.649118562039" lon="17.856081347351">
        <ele>103.6</ele>
        <time>2018-01-14T12:47:59Z</time>
      </trkpt>
      <trkpt lat="62.649096517642" lon="17.856043209706">
        <ele>103.6</ele>
        <time>2018-01-14T12:48:00Z</time>
      </trkpt>
      <trkpt lat="62.649074808521" lon="17.856011274667">
        <ele>103.4</ele>
        <time>2018-01-14T12:48:01Z</time>
      </trkpt>
      <trkpt lat="62.649058799092" lon="17.85599342122">
        <ele>103.4</ele>
        <time>2018-01-14T12:48:02Z</time>
      </trkpt>
      <trkpt lat="62.649039520722" lon="17.855955367394">
        <ele>103.4</ele>
        <time>2018-01-14T12:48:03Z</time>
      </trkpt>
      <trkpt lat="62.649024936216" lon="17.855914044627">
        <ele>103.6</ele>
        <time>2018-01-14T12:48:04Z</time>
      </trkpt>
      <trkpt lat="62.649001718353" lon="17.855883953606">
        <ele>103.8</ele>
        <time>2018-01-14T12:48:05Z</time>
      </trkpt>
      <trkpt lat="62.648985792743" lon="17.855863417951">
        <ele>104</ele>
        <time>2018-01-14T12:48:06Z</time>
      </trkpt>
      <trkpt lat="62.648961233776" lon="17.855832656378">
        <ele>104</ele>
        <time>2018-01-14T12:48:07Z</time>
      </trkpt>
      <trkpt lat="62.648940111388" lon="17.855810109067">
        <ele>104.4</ele>
        <time>2018-01-14T12:48:08Z</time>
      </trkpt>
      <trkpt lat="62.648913876041" lon="17.855785969195">
        <ele>104.2</ele>
        <time>2018-01-14T12:48:09Z</time>
      </trkpt>
      <trkpt lat="62.648888562703" lon="17.855772222879">
        <ele>104.4</ele>
        <time>2018-01-14T12:48:10Z</time>
      </trkpt>
      <trkpt lat="62.648865009564" lon="17.855751687224">
        <ele>104.6</ele>
        <time>2018-01-14T12:48:11Z</time>
      </trkpt>
      <trkpt lat="62.648842462253" lon="17.855723943135">
        <ele>104.8</ele>
        <time>2018-01-14T12:48:12Z</time>
      </trkpt>
      <trkpt lat="62.648826536643" lon="17.855697623969">
        <ele>105</ele>
        <time>2018-01-14T12:48:13Z</time>
      </trkpt>
      <trkpt lat="62.648804324608" lon="17.855659905419">
        <ele>105</ele>
        <time>2018-01-14T12:48:14Z</time>
      </trkpt>
      <trkpt lat="62.64879158412" lon="17.855634759719">
        <ele>105.2</ele>
        <time>2018-01-14T12:48:15Z</time>
      </trkpt>
      <trkpt lat="62.64877733489" lon="17.855602657042">
        <ele>105.2</ele>
        <time>2018-01-14T12:48:16Z</time>
      </trkpt>
      <trkpt lat="62.648762331289" lon="17.855558819705">
        <ele>105.2</ele>
        <time>2018-01-14T12:48:17Z</time>
      </trkpt>
      <trkpt lat="62.64874716005" lon="17.85552235844">
        <ele>105.2</ele>
        <time>2018-01-14T12:48:18Z</time>
      </trkpt>
      <trkpt lat="62.648731402078" lon="17.855483550243">
        <ele>105.6</ele>
        <time>2018-01-14T12:48:19Z</time>
      </trkpt>
      <trkpt lat="62.648718829228" lon="17.855452704851">
        <ele>105.4</ele>
        <time>2018-01-14T12:48:20Z</time>
      </trkpt>
      <trkpt lat="62.648698628849" lon="17.855412471731">
        <ele>105.6</ele>
        <time>2018-01-14T12:48:21Z</time>
      </trkpt>
      <trkpt lat="62.648683206153" lon="17.855385649651">
        <ele>105.6</ele>
        <time>2018-01-14T12:48:22Z</time>
      </trkpt>
      <trkpt lat="62.64866585562" lon="17.855374417905">
        <ele>105.8</ele>
        <time>2018-01-14T12:48:23Z</time>
      </trkpt>
      <trkpt lat="62.648641380472" lon="17.855356061544">
        <ele>106</ele>
        <time>2018-01-14T12:48:24Z</time>
      </trkpt>
      <trkpt lat="62.648619000799" lon="17.855356061544">
        <ele>106.2</ele>
        <time>2018-01-14T12:48:25Z</time>
      </trkpt>
      <trkpt lat="62.648592178719" lon="17.855355390992">
        <ele>106.4</ele>
        <time>2018-01-14T12:48:26Z</time>
      </trkpt>
      <trkpt lat="62.648567033019" lon="17.855360252494">
        <ele>106.8</ele>
        <time>2018-01-14T12:48:27Z</time>
      </trkpt>
      <trkpt lat="62.648547000278" lon="17.855370059317">
        <ele>106.8</ele>
        <time>2018-01-14T12:48:28Z</time>
      </trkpt>
      <trkpt lat="62.648517747447" lon="17.855382213072">
        <ele>106.8</ele>
        <time>2018-01-14T12:48:29Z</time>
      </trkpt>
      <trkpt lat="62.648495032498" lon="17.855399647424">
        <ele>106.8</ele>
        <time>2018-01-14T12:48:30Z</time>
      </trkpt>
      <trkpt lat="62.648472988101" lon="17.855419177251">
        <ele>106.8</ele>
        <time>2018-01-14T12:48:31Z</time>
      </trkpt>
      <trkpt lat="62.648450273152" lon="17.855440886372">
        <ele>106.6</ele>
        <time>2018-01-14T12:48:32Z</time>
      </trkpt>
      <trkpt lat="62.648439041406" lon="17.855461757303">
        <ele>106.6</ele>
        <time>2018-01-14T12:48:33Z</time>
      </trkpt>
      <trkpt lat="62.64840434034" lon="17.855499056758">
        <ele>106.6</ele>
        <time>2018-01-14T12:48:34Z</time>
      </trkpt>
      <trkpt lat="62.648381457753" lon="17.855509701771">
        <ele>106.6</ele>
        <time>2018-01-14T12:48:35Z</time>
      </trkpt>
      <trkpt lat="62.648363771944" lon="17.855527722856">
        <ele>106.4</ele>
        <time>2018-01-14T12:48:36Z</time>
      </trkpt>
      <trkpt lat="62.648326053394" lon="17.85554582776">
        <ele>106.4</ele>
        <time>2018-01-14T12:48:37Z</time>
      </trkpt>
      <trkpt lat="62.648311468888" lon="17.855552449461">
        <ele>106.2</ele>
        <time>2018-01-14T12:48:38Z</time>
      </trkpt>
      <trkpt lat="62.648289256853" lon="17.855563345931">
        <ele>106.2</ele>
        <time>2018-01-14T12:48:39Z</time>
      </trkpt>
      <trkpt lat="62.64825262795" lon="17.855554293479">
        <ele>106.2</ele>
        <time>2018-01-14T12:48:40Z</time>
      </trkpt>
      <trkpt lat="62.648226895517" lon="17.855567872157">
        <ele>106</ele>
        <time>2018-01-14T12:48:41Z</time>
      </trkpt>
      <trkpt lat="62.648206359862" lon="17.855567453062">
        <ele>106</ele>
        <time>2018-01-14T12:48:42Z</time>
      </trkpt>
      <trkpt lat="62.648176101203" lon="17.855560747542">
        <ele>106.2</ele>
        <time>2018-01-14T12:48:43Z</time>
      </trkpt>
      <trkpt lat="62.648154308263" lon="17.855554293479">
        <ele>106.2</ele>
        <time>2018-01-14T12:48:44Z</time>
      </trkpt>
      <trkpt lat="62.648132934418" lon="17.855556053678">
        <ele>106</ele>
        <time>2018-01-14T12:48:45Z</time>
      </trkpt>
      <trkpt lat="62.648096389334" lon="17.855549348158">
        <ele>106.2</ele>
        <time>2018-01-14T12:48:46Z</time>
      </trkpt>
      <trkpt lat="62.648077110964" lon="17.85555420966">
        <ele>106.2</ele>
        <time>2018-01-14T12:48:47Z</time>
      </trkpt>
      <trkpt lat="62.648061604449" lon="17.855566447234">
        <ele>106</ele>
        <time>2018-01-14T12:48:48Z</time>
      </trkpt>
      <trkpt lat="62.648032603075" lon="17.855574158582">
        <ele>106.2</ele>
        <time>2018-01-14T12:48:49Z</time>
      </trkpt>
      <trkpt lat="62.648013073248" lon="17.855586144699">
        <ele>106.2</ele>
        <time>2018-01-14T12:48:50Z</time>
      </trkpt>
      <trkpt lat="62.647994381611" lon="17.855608356734">
        <ele>106.2</ele>
        <time>2018-01-14T12:48:51Z</time>
      </trkpt>
      <trkpt lat="62.647981808761" lon="17.855636855194">
        <ele>106.2</ele>
        <time>2018-01-14T12:48:52Z</time>
      </trkpt>
      <trkpt lat="62.647960351097" lon="17.855667784405">
        <ele>106.4</ele>
        <time>2018-01-14T12:48:53Z</time>
      </trkpt>
      <trkpt lat="62.647942665288" lon="17.855706676421">
        <ele>106.6</ele>
        <time>2018-01-14T12:48:54Z</time>
      </trkpt>
      <trkpt lat="62.64792489566" lon="17.855733414682">
        <ele>106.8</ele>
        <time>2018-01-14T12:48:55Z</time>
      </trkpt>
      <trkpt lat="62.647909975878" lon="17.855778425485">
        <ele>106.8</ele>
        <time>2018-01-14T12:48:56Z</time>
      </trkpt>
      <trkpt lat="62.647898241218" lon="17.855800721339">
        <ele>107</ele>
        <time>2018-01-14T12:48:57Z</time>
      </trkpt>
      <trkpt lat="62.647889021128" lon="17.855817820415">
        <ele>107</ele>
        <time>2018-01-14T12:48:58Z</time>
      </trkpt>
      <trkpt lat="62.647876113002" lon="17.85583835607">
        <ele>107.2</ele>
        <time>2018-01-14T12:48:59Z</time>
      </trkpt>
      <trkpt lat="62.647865132713" lon="17.855862831218">
        <ele>107.6</ele>
        <time>2018-01-14T12:49:00Z</time>
      </trkpt>
      <trkpt lat="62.647853146596" lon="17.85588697109">
        <ele>107.8</ele>
        <time>2018-01-14T12:49:01Z</time>
      </trkpt>
      <trkpt lat="62.647833784407" lon="17.855922091251">
        <ele>108</ele>
        <time>2018-01-14T12:49:02Z</time>
      </trkpt>
      <trkpt lat="62.647819032263" lon="17.855959139249">
        <ele>108.4</ele>
        <time>2018-01-14T12:49:03Z</time>
      </trkpt>
      <trkpt lat="62.647800592083" lon="17.855996857799">
        <ele>108.8</ele>
        <time>2018-01-14T12:49:04Z</time>
      </trkpt>
      <trkpt lat="62.647790869079" lon="17.856034660168">
        <ele>108.8</ele>
        <time>2018-01-14T12:49:05Z</time>
      </trkpt>
      <trkpt lat="62.647780307885" lon="17.856066008474">
        <ele>109</ele>
        <time>2018-01-14T12:49:06Z</time>
      </trkpt>
      <trkpt lat="62.64777569784" lon="17.85609484221">
        <ele>109.2</ele>
        <time>2018-01-14T12:49:07Z</time>
      </trkpt>
      <trkpt lat="62.647762035343" lon="17.856141948488">
        <ele>109.4</ele>
        <time>2018-01-14T12:49:08Z</time>
      </trkpt>
      <trkpt lat="62.647748791941" lon="17.856194670639">
        <ele>109.6</ele>
        <time>2018-01-14T12:49:09Z</time>
      </trkpt>
      <trkpt lat="62.64773881748" lon="17.85623565813">
        <ele>109.8</ele>
        <time>2018-01-14T12:49:10Z</time>
      </trkpt>
      <trkpt lat="62.647730603218" lon="17.856274131051">
        <ele>109.8</ele>
        <time>2018-01-14T12:49:11Z</time>
      </trkpt>
      <trkpt lat="62.647720544938" lon="17.856312855429">
        <ele>109.8</ele>
        <time>2018-01-14T12:49:12Z</time>
      </trkpt>
      <trkpt lat="62.647713755599" lon="17.856354848748">
        <ele>110</ele>
        <time>2018-01-14T12:49:13Z</time>
      </trkpt>
      <trkpt lat="62.647712665952" lon="17.85639072328">
        <ele>110.2</ele>
        <time>2018-01-14T12:49:14Z</time>
      </trkpt>
      <trkpt lat="62.647705960432" lon="17.856437578101">
        <ele>110.4</ele>
        <time>2018-01-14T12:49:15Z</time>
      </trkpt>
      <trkpt lat="62.647697578532" lon="17.856485354931">
        <ele>110.6</ele>
        <time>2018-01-14T12:49:16Z</time>
      </trkpt>
      <trkpt lat="62.647688442261" lon="17.856532796485">
        <ele>110.8</ele>
        <time>2018-01-14T12:49:17Z</time>
      </trkpt>
      <trkpt lat="62.647682407293" lon="17.856570012121">
        <ele>111</ele>
        <time>2018-01-14T12:49:18Z</time>
      </trkpt>
      <trkpt lat="62.647678719257" lon="17.856615190562">
        <ele>111</ele>
        <time>2018-01-14T12:49:19Z</time>
      </trkpt>
      <trkpt lat="62.647680311818" lon="17.856647377058">
        <ele>111.2</ele>
        <time>2018-01-14T12:49:20Z</time>
      </trkpt>
      <trkpt lat="62.647676372325" lon="17.85668911892">
        <ele>111.2</ele>
        <time>2018-01-14T12:49:21Z</time>
      </trkpt>
      <trkpt lat="62.64767511504" lon="17.85674443946">
        <ele>111.4</ele>
        <time>2018-01-14T12:49:22Z</time>
      </trkpt>
      <trkpt lat="62.647676707601" lon="17.856771680635">
        <ele>111.6</ele>
        <time>2018-01-14T12:49:23Z</time>
      </trkpt>
      <trkpt lat="62.64767679142" lon="17.856835885989">
        <ele>111.8</ele>
        <time>2018-01-14T12:49:24Z</time>
      </trkpt>
      <trkpt lat="62.64768349694" lon="17.856873101625">
        <ele>112</ele>
        <time>2018-01-14T12:49:25Z</time>
      </trkpt>
      <trkpt lat="62.647682072017" lon="17.856921968102">
        <ele>112</ele>
        <time>2018-01-14T12:49:26Z</time>
      </trkpt>
      <trkpt lat="62.647683748397" lon="17.856967481819">
        <ele>112</ele>
        <time>2018-01-14T12:49:27Z</time>
      </trkpt>
      <trkpt lat="62.647676120868" lon="17.857034201743">
        <ele>112.2</ele>
        <time>2018-01-14T12:49:28Z</time>
      </trkpt>
      <trkpt lat="62.647680730913" lon="17.857104190608">
        <ele>112</ele>
        <time>2018-01-14T12:49:29Z</time>
      </trkpt>
      <trkpt lat="62.647665392036" lon="17.857177280776">
        <ele>112</ele>
        <time>2018-01-14T12:49:30Z</time>
      </trkpt>
      <trkpt lat="62.647660279077" lon="17.857229583832">
        <ele>112</ele>
        <time>2018-01-14T12:49:31Z</time>
      </trkpt>
      <trkpt lat="62.647643347639" lon="17.857304769475">
        <ele>111.8</ele>
        <time>2018-01-14T12:49:32Z</time>
      </trkpt>
      <trkpt lat="62.647634630463" lon="17.857365202974">
        <ele>111.6</ele>
        <time>2018-01-14T12:49:33Z</time>
      </trkpt>
      <trkpt lat="62.647625913287" lon="17.857445585395">
        <ele>111.6</ele>
        <time>2018-01-14T12:49:34Z</time>
      </trkpt>
      <trkpt lat="62.647617866663" lon="17.857514568432">
        <ele>111.4</ele>
        <time>2018-01-14T12:49:35Z</time>
      </trkpt>
      <trkpt lat="62.647607473107" lon="17.857588161514">
        <ele>111.4</ele>
        <time>2018-01-14T12:49:36Z</time>
      </trkpt>
      <trkpt lat="62.647601773415" lon="17.857651612497">
        <ele>111.2</ele>
        <time>2018-01-14T12:49:37Z</time>
      </trkpt>
      <trkpt lat="62.647597582465" lon="17.857731240547">
        <ele>111</ele>
        <time>2018-01-14T12:49:38Z</time>
      </trkpt>
      <trkpt lat="62.647595403171" lon="17.857792847512">
        <ele>111</ele>
        <time>2018-01-14T12:49:39Z</time>
      </trkpt>
      <trkpt lat="62.647586685995" lon="17.857860824721">
        <ele>111</ele>
        <time>2018-01-14T12:49:40Z</time>
      </trkpt>
      <trkpt lat="62.647583584692" lon="17.857927293188">
        <ele>110.8</ele>
        <time>2018-01-14T12:49:41Z</time>
      </trkpt>
      <trkpt lat="62.647576795353" lon="17.857984373927">
        <ele>110.8</ele>
        <time>2018-01-14T12:49:42Z</time>
      </trkpt>
      <trkpt lat="62.647574699878" lon="17.858029133273">
        <ele>111</ele>
        <time>2018-01-14T12:49:43Z</time>
      </trkpt>
      <trkpt lat="62.647571011842" lon="17.858089063858">
        <ele>111</ele>
        <time>2018-01-14T12:49:44Z</time>
      </trkpt>
      <trkpt lat="62.647561372657" lon="17.858159555637">
        <ele>111</ele>
        <time>2018-01-14T12:49:45Z</time>
      </trkpt>
      <trkpt lat="62.647551314377" lon="17.858227113751">
        <ele>111</ele>
        <time>2018-01-14T12:49:46Z</time>
      </trkpt>
      <trkpt lat="62.647547291065" lon="17.858275644952">
        <ele>111</ele>
        <time>2018-01-14T12:49:47Z</time>
      </trkpt>
      <trkpt lat="62.647539998812" lon="17.858327948008">
        <ele>111</ele>
        <time>2018-01-14T12:49:48Z</time>
      </trkpt>
      <trkpt lat="62.647538657708" lon="17.858380753978">
        <ele>110.8</ele>
        <time>2018-01-14T12:49:49Z</time>
      </trkpt>
      <trkpt lat="62.647537065147" lon="17.858428279351">
        <ele>110.8</ele>
        <time>2018-01-14T12:49:50Z</time>
      </trkpt>
      <trkpt lat="62.64753513731" lon="17.858497765302">
        <ele>111</ele>
        <time>2018-01-14T12:49:51Z</time>
      </trkpt>
      <trkpt lat="62.647536897509" lon="17.858529951798">
        <ele>111</ele>
        <time>2018-01-14T12:49:52Z</time>
      </trkpt>
      <trkpt lat="62.647537316604" lon="17.858604047794">
        <ele>111.2</ele>
        <time>2018-01-14T12:49:53Z</time>
      </trkpt>
      <trkpt lat="62.647535724043" lon="17.858685436043">
        <ele>111.4</ele>
        <time>2018-01-14T12:49:54Z</time>
      </trkpt>
      <trkpt lat="62.64754184283" lon="17.858724914792">
        <ele>111.4</ele>
        <time>2018-01-14T12:49:55Z</time>
      </trkpt>
      <trkpt lat="62.647539160622" lon="17.858793897829">
        <ele>111.4</ele>
        <time>2018-01-14T12:49:56Z</time>
      </trkpt>
      <trkpt lat="62.647536897509" lon="17.858859360468">
        <ele>111.4</ele>
        <time>2018-01-14T12:49:57Z</time>
      </trkpt>
      <trkpt lat="62.64753765188" lon="17.858897917208">
        <ele>111.4</ele>
        <time>2018-01-14T12:49:58Z</time>
      </trkpt>
      <trkpt lat="62.647529689075" lon="17.858980562742">
        <ele>111.2</ele>
        <time>2018-01-14T12:49:59Z</time>
      </trkpt>
      <trkpt lat="62.647527677419" lon="17.859028255753">
        <ele>111.2</ele>
        <time>2018-01-14T12:50:00Z</time>
      </trkpt>
      <trkpt lat="62.647520385166" lon="17.859095813867">
        <ele>111.4</ele>
        <time>2018-01-14T12:50:01Z</time>
      </trkpt>
      <trkpt lat="62.64751837351" lon="17.859152140235">
        <ele>111.2</ele>
        <time>2018-01-14T12:50:02Z</time>
      </trkpt>
      <trkpt lat="62.647510578343" lon="17.85921458539">
        <ele>111.4</ele>
        <time>2018-01-14T12:50:03Z</time>
      </trkpt>
      <trkpt lat="62.647500603882" lon="17.859291782689">
        <ele>111.4</ele>
        <time>2018-01-14T12:50:04Z</time>
      </trkpt>
      <trkpt lat="62.647494233638" lon="17.859339810976">
        <ele>111.4</ele>
        <time>2018-01-14T12:50:05Z</time>
      </trkpt>
      <trkpt lat="62.64748484591" lon="17.859399154828">
        <ele>111.4</ele>
        <time>2018-01-14T12:50:06Z</time>
      </trkpt>
      <trkpt lat="62.647477050743" lon="17.859462605811">
        <ele>111.4</ele>
        <time>2018-01-14T12:50:07Z</time>
      </trkpt>
      <trkpt lat="62.647480487322" lon="17.85950040818">
        <ele>111.4</ele>
        <time>2018-01-14T12:50:08Z</time>
      </trkpt>
      <trkpt lat="62.647468501205" lon="17.859571151416">
        <ele>111.4</ele>
        <time>2018-01-14T12:50:09Z</time>
      </trkpt>
      <trkpt lat="62.64745299469" lon="17.859632255467">
        <ele>111.2</ele>
        <time>2018-01-14T12:50:10Z</time>
      </trkpt>
      <trkpt lat="62.647440924754" lon="17.859694197708">
        <ele>111.4</ele>
        <time>2018-01-14T12:50:11Z</time>
      </trkpt>
      <trkpt lat="62.647435727976" lon="17.859742812728">
        <ele>111.6</ele>
        <time>2018-01-14T12:50:12Z</time>
      </trkpt>
      <trkpt lat="62.647418042167" lon="17.859791092472">
        <ele>111.8</ele>
        <time>2018-01-14T12:50:13Z</time>
      </trkpt>
      <trkpt lat="62.647401110729" lon="17.859839288397">
        <ele>112</ele>
        <time>2018-01-14T12:50:14Z</time>
      </trkpt>
      <trkpt lat="62.647394489028" lon="17.859881281716">
        <ele>112</ele>
        <time>2018-01-14T12:50:15Z</time>
      </trkpt>
      <trkpt lat="62.64737252845" lon="17.859938278636">
        <ele>112</ele>
        <time>2018-01-14T12:50:16Z</time>
      </trkpt>
      <trkpt lat="62.647365068559" lon="17.859973817892">
        <ele>112.2</ele>
        <time>2018-01-14T12:50:17Z</time>
      </trkpt>
      <trkpt lat="62.647354591184" lon="17.860008518958">
        <ele>112.2</ele>
        <time>2018-01-14T12:50:18Z</time>
      </trkpt>
      <trkpt lat="62.647336821556" lon="17.860064426231">
        <ele>112.2</ele>
        <time>2018-01-14T12:50:19Z</time>
      </trkpt>
      <trkpt lat="62.647325086896" lon="17.860098624383">
        <ele>112.2</ele>
        <time>2018-01-14T12:50:20Z</time>
      </trkpt>
      <trkpt lat="62.647311759675" lon="17.860140701521">
        <ele>112.2</ele>
        <time>2018-01-14T12:50:21Z</time>
      </trkpt>
      <trkpt lat="62.647282255387" lon="17.860201637934">
        <ele>112.4</ele>
        <time>2018-01-14T12:50:22Z</time>
      </trkpt>
      <trkpt lat="62.647268006157" lon="17.860239356484">
        <ele>112.4</ele>
        <time>2018-01-14T12:50:23Z</time>
      </trkpt>
      <trkpt lat="62.647242609" lon="17.860299538526">
        <ele>112.4</ele>
        <time>2018-01-14T12:50:24Z</time>
      </trkpt>
      <trkpt lat="62.647228443589" lon="17.860351087211">
        <ele>112.6</ele>
        <time>2018-01-14T12:50:25Z</time>
      </trkpt>
      <trkpt lat="62.647196843826" lon="17.860402468258">
        <ele>112.8</ele>
        <time>2018-01-14T12:50:26Z</time>
      </trkpt>
      <trkpt lat="62.647188210469" lon="17.860426775768">
        <ele>112.8</ele>
        <time>2018-01-14T12:50:27Z</time>
      </trkpt>
      <trkpt lat="62.647158706181" lon="17.860469607277">
        <ele>112.6</ele>
        <time>2018-01-14T12:50:28Z</time>
      </trkpt>
      <trkpt lat="62.647125681495" lon="17.860518138478">
        <ele>112.6</ele>
        <time>2018-01-14T12:50:29Z</time>
      </trkpt>
      <trkpt lat="62.647102547451" lon="17.860541356341">
        <ele>112.4</ele>
        <time>2018-01-14T12:50:30Z</time>
      </trkpt>
      <trkpt lat="62.647083017624" lon="17.860555437933">
        <ele>112.2</ele>
        <time>2018-01-14T12:50:31Z</time>
      </trkpt>
      <trkpt lat="62.647059632123" lon="17.860576811778">
        <ele>112</ele>
        <time>2018-01-14T12:50:32Z</time>
      </trkpt>
      <trkpt lat="62.647035408432" lon="17.860592905026">
        <ele>112.2</ele>
        <time>2018-01-14T12:50:33Z</time>
      </trkpt>
      <trkpt lat="62.647016213881" lon="17.86062693554">
        <ele>112.4</ele>
        <time>2018-01-14T12:50:34Z</time>
      </trkpt>
      <trkpt lat="62.64697941734" lon="17.860650740136">
        <ele>112.6</ele>
        <time>2018-01-14T12:50:35Z</time>
      </trkpt>
      <trkpt lat="62.646963156454" lon="17.860681585528">
        <ele>112.8</ele>
        <time>2018-01-14T12:50:36Z</time>
      </trkpt>
      <trkpt lat="62.646923510067" lon="17.860715364585">
        <ele>112.8</ele>
        <time>2018-01-14T12:50:37Z</time>
      </trkpt>
      <trkpt lat="62.646904734611" lon="17.860747551081">
        <ele>112.8</ele>
        <time>2018-01-14T12:50:38Z</time>
      </trkpt>
      <trkpt lat="62.646870704097" lon="17.860780156672">
        <ele>112.8</ele>
        <time>2018-01-14T12:50:39Z</time>
      </trkpt>
      <trkpt lat="62.64684446875" lon="17.860823826371">
        <ele>112.6</ele>
        <time>2018-01-14T12:50:40Z</time>
      </trkpt>
      <trkpt lat="62.646820412697" lon="17.860849307347">
        <ele>112.6</ele>
        <time>2018-01-14T12:50:41Z</time>
      </trkpt>
      <trkpt lat="62.646792081875" lon="17.860878895454">
        <ele>112.4</ele>
        <time>2018-01-14T12:50:42Z</time>
      </trkpt>
      <trkpt lat="62.646778754654" lon="17.860905633715">
        <ele>112.4</ele>
        <time>2018-01-14T12:50:43Z</time>
      </trkpt>
      <trkpt lat="62.646746987253" lon="17.860935808555">
        <ele>112.2</ele>
        <time>2018-01-14T12:50:44Z</time>
      </trkpt>
      <trkpt lat="62.646729469082" lon="17.860962043902">
        <ele>112.2</ele>
        <time>2018-01-14T12:50:45Z</time>
      </trkpt>
      <trkpt lat="62.646701724993" lon="17.860989536534">
        <ele>112</ele>
        <time>2018-01-14T12:50:46Z</time>
      </trkpt>
      <trkpt lat="62.646680099691" lon="17.861016610071">
        <ele>112</ele>
        <time>2018-01-14T12:50:47Z</time>
      </trkpt>
      <trkpt lat="62.646659144941" lon="17.861028512369">
        <ele>112.2</ele>
        <time>2018-01-14T12:50:48Z</time>
      </trkpt>
      <trkpt lat="62.646618744183" lon="17.861061872331">
        <ele>112</ele>
        <time>2018-01-14T12:50:49Z</time>
      </trkpt>
      <trkpt lat="62.646606506609" lon="17.861089197325">
        <ele>112</ele>
        <time>2018-01-14T12:50:50Z</time>
      </trkpt>
      <trkpt lat="62.646578678701" lon="17.861112331369">
        <ele>112</ele>
        <time>2018-01-14T12:50:51Z</time>
      </trkpt>
      <trkpt lat="62.64655194044" lon="17.861146361883">
        <ele>112.2</ele>
        <time>2018-01-14T12:50:52Z</time>
      </trkpt>
      <trkpt lat="62.646541463065" lon="17.861170585574">
        <ele>112.2</ele>
        <time>2018-01-14T12:50:53Z</time>
      </trkpt>
      <trkpt lat="62.646511288225" lon="17.861196485645">
        <ele>112.4</ele>
        <time>2018-01-14T12:50:54Z</time>
      </trkpt>
      <trkpt lat="62.646480107557" lon="17.861230516159">
        <ele>112.4</ele>
        <time>2018-01-14T12:50:55Z</time>
      </trkpt>
      <trkpt lat="62.646462924662" lon="17.861258511705">
        <ele>112.6</ele>
        <time>2018-01-14T12:50:56Z</time>
      </trkpt>
      <trkpt lat="62.646439874437" lon="17.861290530563">
        <ele>112.6</ele>
        <time>2018-01-14T12:50:57Z</time>
      </trkpt>
      <trkpt lat="62.646411795072" lon="17.861321459774">
        <ele>112.6</ele>
        <time>2018-01-14T12:50:58Z</time>
      </trkpt>
      <trkpt lat="62.646387152286" lon="17.861341576334">
        <ele>112.4</ele>
        <time>2018-01-14T12:50:59Z</time>
      </trkpt>
      <trkpt lat="62.646366532812" lon="17.861365800025">
        <ele>112.6</ele>
        <time>2018-01-14T12:51:00Z</time>
      </trkpt>
      <trkpt lat="62.646350020469" lon="17.861392035372">
        <ele>112.6</ele>
        <time>2018-01-14T12:51:01Z</time>
      </trkpt>
      <trkpt lat="62.646326970244" lon="17.861422964583">
        <ele>112.8</ele>
        <time>2018-01-14T12:51:02Z</time>
      </trkpt>
      <trkpt lat="62.646314145937" lon="17.861443248781">
        <ele>113</ele>
        <time>2018-01-14T12:51:03Z</time>
      </trkpt>
      <trkpt lat="62.646296041033" lon="17.861463532979">
        <ele>113.2</ele>
        <time>2018-01-14T12:51:04Z</time>
      </trkpt>
      <trkpt lat="62.646281288889" lon="17.861488091946">
        <ele>113.4</ele>
        <time>2018-01-14T12:51:05Z</time>
      </trkpt>
      <trkpt lat="62.646257651931" lon="17.861528325066">
        <ele>113.6</ele>
        <time>2018-01-14T12:51:06Z</time>
      </trkpt>
      <trkpt lat="62.646245749633" lon="17.861547351979">
        <ele>114</ele>
        <time>2018-01-14T12:51:07Z</time>
      </trkpt>
      <trkpt lat="62.646221525942" lon="17.861599571216">
        <ele>114</ele>
        <time>2018-01-14T12:51:08Z</time>
      </trkpt>
      <trkpt lat="62.646201157925" lon="17.86165539467">
        <ele>114.2</ele>
        <time>2018-01-14T12:51:09Z</time>
      </trkpt>
      <trkpt lat="62.646173497655" lon="17.861722533689">
        <ele>114.4</ele>
        <time>2018-01-14T12:51:10Z</time>
      </trkpt>
      <trkpt lat="62.646152878181" lon="17.861785481758">
        <ele>114.4</ele>
        <time>2018-01-14T12:51:11Z</time>
      </trkpt>
      <trkpt lat="62.646129325042" lon="17.861853375148">
        <ele>114.4</ele>
        <time>2018-01-14T12:51:12Z</time>
      </trkpt>
      <trkpt lat="62.646113734708" lon="17.861915987941">
        <ele>114.2</ele>
        <time>2018-01-14T12:51:13Z</time>
      </trkpt>
      <trkpt lat="62.646094540157" lon="17.861972314309">
        <ele>114</ele>
        <time>2018-01-14T12:51:14Z</time>
      </trkpt>
      <trkpt lat="62.646076854348" lon="17.862027299573">
        <ele>113.8</ele>
        <time>2018-01-14T12:51:15Z</time>
      </trkpt>
      <trkpt lat="62.64606243748" lon="17.862076082231">
        <ele>113.8</ele>
        <time>2018-01-14T12:51:16Z</time>
      </trkpt>
      <trkpt lat="62.646033352287" lon="17.862131989504">
        <ele>113.6</ele>
        <time>2018-01-14T12:51:17Z</time>
      </trkpt>
      <trkpt lat="62.646008458044" lon="17.862176581212">
        <ele>113.4</ele>
        <time>2018-01-14T12:51:18Z</time>
      </trkpt>
      <trkpt lat="62.645978702299" lon="17.862233913408">
        <ele>113.2</ele>
        <time>2018-01-14T12:51:19Z</time>
      </trkpt>
      <trkpt lat="62.645950706753" lon="17.862280181496">
        <ele>112.8</ele>
        <time>2018-01-14T12:51:20Z</time>
      </trkpt>
      <trkpt lat="62.645928578537" lon="17.862330472896">
        <ele>112.6</ele>
        <time>2018-01-14T12:51:21Z</time>
      </trkpt>
      <trkpt lat="62.645906785597" lon="17.86239216368">
        <ele>112.6</ele>
        <time>2018-01-14T12:51:22Z</time>
      </trkpt>
      <trkpt lat="62.645900582991" lon="17.862441197795">
        <ele>112.6</ele>
        <time>2018-01-14T12:51:23Z</time>
      </trkpt>
      <trkpt lat="62.645884405924" lon="17.86250951028">
        <ele>112.8</ele>
        <time>2018-01-14T12:51:24Z</time>
      </trkpt>
      <trkpt lat="62.645873593273" lon="17.862578325679">
        <ele>113</ele>
        <time>2018-01-14T12:51:25Z</time>
      </trkpt>
      <trkpt lat="62.64586713921" lon="17.862649404191">
        <ele>113</ele>
        <time>2018-01-14T12:51:26Z</time>
      </trkpt>
      <trkpt lat="62.645863283536" lon="17.862717465219">
        <ele>113</ele>
        <time>2018-01-14T12:51:27Z</time>
      </trkpt>
      <trkpt lat="62.64585875731" lon="17.862788124636">
        <ele>112.8</ele>
        <time>2018-01-14T12:51:28Z</time>
      </trkpt>
      <trkpt lat="62.645853979627" lon="17.862856940035">
        <ele>112.8</ele>
        <time>2018-01-14T12:51:29Z</time>
      </trkpt>
      <trkpt lat="62.645849956315" lon="17.862916535344">
        <ele>112.6</ele>
        <time>2018-01-14T12:51:30Z</time>
      </trkpt>
      <trkpt lat="62.645849872496" lon="17.862984931648">
        <ele>112.6</ele>
        <time>2018-01-14T12:51:31Z</time>
      </trkpt>
      <trkpt lat="62.645849034306" lon="17.86303337903">
        <ele>112.4</ele>
        <time>2018-01-14T12:51:32Z</time>
      </trkpt>
      <trkpt lat="62.645846435917" lon="17.863091549416">
        <ele>112.4</ele>
        <time>2018-01-14T12:51:33Z</time>
      </trkpt>
      <trkpt lat="62.645849369582" lon="17.863172350932">
        <ele>112.2</ele>
        <time>2018-01-14T12:51:34Z</time>
      </trkpt>
      <trkpt lat="62.645851716514" lon="17.863219205753">
        <ele>112.2</ele>
        <time>2018-01-14T12:51:35Z</time>
      </trkpt>
      <trkpt lat="62.645857164749" lon="17.863286680048">
        <ele>112.2</ele>
        <time>2018-01-14T12:51:36Z</time>
      </trkpt>
      <trkpt lat="62.645860517509" lon="17.863354321981">
        <ele>112.2</ele>
        <time>2018-01-14T12:51:37Z</time>
      </trkpt>
      <trkpt lat="62.645864708459" lon="17.8634046972">
        <ele>112.2</ele>
        <time>2018-01-14T12:51:38Z</time>
      </trkpt>
      <trkpt lat="62.645869821418" lon="17.863465214518">
        <ele>112.4</ele>
        <time>2018-01-14T12:51:39Z</time>
      </trkpt>
      <trkpt lat="62.645877281309" lon="17.863534784288">
        <ele>112.4</ele>
        <time>2018-01-14T12:51:40Z</time>
      </trkpt>
      <trkpt lat="62.64588641758" lon="17.863597061805">
        <ele>112.6</ele>
        <time>2018-01-14T12:51:41Z</time>
      </trkpt>
      <trkpt lat="62.64589563767" lon="17.863664955195">
        <ele>112.6</ele>
        <time>2018-01-14T12:51:42Z</time>
      </trkpt>
      <trkpt lat="62.645899409525" lon="17.863714073129">
        <ele>112.8</ele>
        <time>2018-01-14T12:51:43Z</time>
      </trkpt>
      <trkpt lat="62.645900080077" lon="17.863797389215">
        <ele>112.6</ele>
        <time>2018-01-14T12:51:44Z</time>
      </trkpt>
      <trkpt lat="62.645902762285" lon="17.863855224325">
        <ele>112.6</ele>
        <time>2018-01-14T12:51:45Z</time>
      </trkpt>
      <trkpt lat="62.64590904871" lon="17.863914819634">
        <ele>112.6</ele>
        <time>2018-01-14T12:51:46Z</time>
      </trkpt>
      <trkpt lat="62.64592078337" lon="17.863971900373">
        <ele>112.6</ele>
        <time>2018-01-14T12:51:47Z</time>
      </trkpt>
      <trkpt lat="62.645936876618" lon="17.864011462941">
        <ele>112.6</ele>
        <time>2018-01-14T12:51:48Z</time>
      </trkpt>
      <trkpt lat="62.645955484436" lon="17.864055635554">
        <ele>112.6</ele>
        <time>2018-01-14T12:51:49Z</time>
      </trkpt>
      <trkpt lat="62.645968895476" lon="17.864082457634">
        <ele>112.6</ele>
        <time>2018-01-14T12:51:50Z</time>
      </trkpt>
      <trkpt lat="62.645985240181" lon="17.864112548655">
        <ele>112.6</ele>
        <time>2018-01-14T12:51:51Z</time>
      </trkpt>
      <trkpt lat="62.64600376418" lon="17.86414565716">
        <ele>112.6</ele>
        <time>2018-01-14T12:51:52Z</time>
      </trkpt>
      <trkpt lat="62.646020444161" lon="17.864172143964">
        <ele>112.6</ele>
        <time>2018-01-14T12:51:53Z</time>
      </trkpt>
      <trkpt lat="62.64604902644" lon="17.864195780922">
        <ele>112.6</ele>
        <time>2018-01-14T12:51:54Z</time>
      </trkpt>
      <trkpt lat="62.646072663398" lon="17.864218495871">
        <ele>112.8</ele>
        <time>2018-01-14T12:51:55Z</time>
      </trkpt>
      <trkpt lat="62.646092863777" lon="17.864234086205">
        <ele>112.8</ele>
        <time>2018-01-14T12:51:56Z</time>
      </trkpt>
      <trkpt lat="62.646112561242" lon="17.864229308522">
        <ele>113</ele>
        <time>2018-01-14T12:51:57Z</time>
      </trkpt>
      <trkpt lat="62.646138964227" lon="17.864250011815">
        <ele>113</ele>
        <time>2018-01-14T12:51:58Z</time>
      </trkpt>
      <trkpt lat="62.646162685004" lon="17.864265266873">
        <ele>113</ele>
        <time>2018-01-14T12:51:59Z</time>
      </trkpt>
      <trkpt lat="62.646178778252" lon="17.86426635652">
        <ele>113</ele>
        <time>2018-01-14T12:52:00Z</time>
      </trkpt>
      <trkpt lat="62.64619906245" lon="17.864277336809">
        <ele>113.2</ele>
        <time>2018-01-14T12:52:01Z</time>
      </trkpt>
      <trkpt lat="62.646223956693" lon="17.86428982584">
        <ele>113.2</ele>
        <time>2018-01-14T12:52:02Z</time>
      </trkpt>
      <trkpt lat="62.646238289742" lon="17.864298291559">
        <ele>113.4</ele>
        <time>2018-01-14T12:52:03Z</time>
      </trkpt>
      <trkpt lat="62.646261423786" lon="17.864307092554">
        <ele>113.4</ele>
        <time>2018-01-14T12:52:04Z</time>
      </trkpt>
      <trkpt lat="62.646296124852" lon="17.864314803902">
        <ele>113.4</ele>
        <time>2018-01-14T12:52:05Z</time>
      </trkpt>
      <trkpt lat="62.646320935276" lon="17.864317402291">
        <ele>113.6</ele>
        <time>2018-01-14T12:52:06Z</time>
      </trkpt>
      <trkpt lat="62.646338034352" lon="17.864308936572">
        <ele>113.6</ele>
        <time>2018-01-14T12:52:07Z</time>
      </trkpt>
      <trkpt lat="62.646364521156" lon="17.864320671232">
        <ele>113.6</ele>
        <time>2018-01-14T12:52:08Z</time>
      </trkpt>
      <trkpt lat="62.646389080123" lon="17.864327963485">
        <ele>113.8</ele>
        <time>2018-01-14T12:52:09Z</time>
      </trkpt>
      <trkpt lat="62.646412297986" lon="17.864323437259">
        <ele>113.8</ele>
        <time>2018-01-14T12:52:10Z</time>
      </trkpt>
      <trkpt lat="62.646436940772" lon="17.86431916249">
        <ele>114</ele>
        <time>2018-01-14T12:52:11Z</time>
      </trkpt>
      <trkpt lat="62.646467199431" lon="17.864308936572">
        <ele>114</ele>
        <time>2018-01-14T12:52:12Z</time>
      </trkpt>
      <trkpt lat="62.64648572343" lon="17.864298040102">
        <ele>114.2</ele>
        <time>2018-01-14T12:52:13Z</time>
      </trkpt>
      <trkpt lat="62.646510366216" lon="17.864288484736">
        <ele>114.2</ele>
        <time>2018-01-14T12:52:14Z</time>
      </trkpt>
      <trkpt lat="62.646544312911" lon="17.864292005134">
        <ele>114.4</ele>
        <time>2018-01-14T12:52:15Z</time>
      </trkpt>
      <trkpt lat="62.646574068656" lon="17.864300973767">
        <ele>114.6</ele>
        <time>2018-01-14T12:52:16Z</time>
      </trkpt>
      <trkpt lat="62.646610110826" lon="17.864312624608">
        <ele>114.8</ele>
        <time>2018-01-14T12:52:17Z</time>
      </trkpt>
      <trkpt lat="62.646644225159" lon="17.86432754439">
        <ele>114.8</ele>
        <time>2018-01-14T12:52:18Z</time>
      </trkpt>
      <trkpt lat="62.646687811039" lon="17.864356545764">
        <ele>114.6</ele>
        <time>2018-01-14T12:52:19Z</time>
      </trkpt>
      <trkpt lat="62.646730894005" lon="17.864384122215">
        <ele>114.4</ele>
        <time>2018-01-14T12:52:20Z</time>
      </trkpt>
      <trkpt lat="62.646772049134" lon="17.864415805797">
        <ele>114.2</ele>
        <time>2018-01-14T12:52:21Z</time>
      </trkpt>
      <trkpt lat="62.64681261753" lon="17.864449249578">
        <ele>113.8</ele>
        <time>2018-01-14T12:52:22Z</time>
      </trkpt>
      <trkpt lat="62.646849078795" lon="17.864472635079">
        <ele>113.4</ele>
        <time>2018-01-14T12:52:23Z</time>
      </trkpt>
      <trkpt lat="62.646892497037" lon="17.864502307005">
        <ele>113.2</ele>
        <time>2018-01-14T12:52:24Z</time>
      </trkpt>
      <trkpt lat="62.646929042121" lon="17.864527787981">
        <ele>112.8</ele>
        <time>2018-01-14T12:52:25Z</time>
      </trkpt>
      <trkpt lat="62.646961647712" lon="17.864555951165">
        <ele>112.2</ele>
        <time>2018-01-14T12:52:26Z</time>
      </trkpt>
      <trkpt lat="62.646997103149" lon="17.864578917571">
        <ele>112</ele>
        <time>2018-01-14T12:52:27Z</time>
      </trkpt>
      <trkpt lat="62.647040186115" lon="17.86460582347">
        <ele>111.6</ele>
        <time>2018-01-14T12:52:28Z</time>
      </trkpt>
      <trkpt lat="62.647084358728" lon="17.864637926147">
        <ele>111.2</ele>
        <time>2018-01-14T12:52:29Z</time>
      </trkpt>
      <trkpt lat="62.647127860789" lon="17.864666843702">
        <ele>110.6</ele>
        <time>2018-01-14T12:52:30Z</time>
      </trkpt>
      <trkpt lat="62.647174296515" lon="17.864697521456">
        <ele>110.2</ele>
        <time>2018-01-14T12:52:31Z</time>
      </trkpt>
      <trkpt lat="62.647209332857" lon="17.864732893074">
        <ele>109.4</ele>
        <time>2018-01-14T12:52:32Z</time>
      </trkpt>
      <trkpt lat="62.647243782466" lon="17.864759044602">
        <ele>108.6</ele>
        <time>2018-01-14T12:52:33Z</time>
      </trkpt>
      <trkpt lat="62.647289296183" lon="17.864790979641">
        <ele>107.8</ele>
        <time>2018-01-14T12:52:34Z</time>
      </trkpt>
      <trkpt lat="62.647330786588" lon="17.864815203332">
        <ele>107.2</ele>
        <time>2018-01-14T12:52:35Z</time>
      </trkpt>
      <trkpt lat="62.647378647237" lon="17.864839175566">
        <ele>106.6</ele>
        <time>2018-01-14T12:52:36Z</time>
      </trkpt>
      <trkpt lat="62.647412593932" lon="17.864859040669">
        <ele>106</ele>
        <time>2018-01-14T12:52:37Z</time>
      </trkpt>
      <trkpt lat="62.647445786256" lon="17.864870356234">
        <ele>105.4</ele>
        <time>2018-01-14T12:52:38Z</time>
      </trkpt>
      <trkpt lat="62.647484678272" lon="17.864886114206">
        <ele>105</ele>
        <time>2018-01-14T12:52:39Z</time>
      </trkpt>
      <trkpt lat="62.647523737926" lon="17.864915031761">
        <ele>104.6</ele>
        <time>2018-01-14T12:52:40Z</time>
      </trkpt>
      <trkpt lat="62.647566317978" lon="17.864945206601">
        <ele>104.4</ele>
        <time>2018-01-14T12:52:41Z</time>
      </trkpt>
      <trkpt lat="62.647613256618" lon="17.864979237115">
        <ele>104.2</ele>
        <time>2018-01-14T12:52:42Z</time>
      </trkpt>
      <trkpt lat="62.647657261593" lon="17.86502324209">
        <ele>103.8</ele>
        <time>2018-01-14T12:52:43Z</time>
      </trkpt>
      <trkpt lat="62.647703864957" lon="17.865087698901">
        <ele>103.4</ele>
        <time>2018-01-14T12:52:44Z</time>
      </trkpt>
      <trkpt lat="62.647735297082" lon="17.86515232335">
        <ele>103</ele>
        <time>2018-01-14T12:52:45Z</time>
      </trkpt>
      <trkpt lat="62.647777793315" lon="17.865219965283">
        <ele>102.8</ele>
        <time>2018-01-14T12:52:46Z</time>
      </trkpt>
      <trkpt lat="62.64780587268" lon="17.865284422094">
        <ele>102.8</ele>
        <time>2018-01-14T12:52:47Z</time>
      </trkpt>
      <trkpt lat="62.64783437114" lon="17.865342760118">
        <ele>102.8</ele>
        <time>2018-01-14T12:52:48Z</time>
      </trkpt>
      <trkpt lat="62.647866138541" lon="17.865412078431">
        <ele>103</ele>
        <time>2018-01-14T12:52:49Z</time>
      </trkpt>
      <trkpt lat="62.647890278413" lon="17.865459603804">
        <ele>103</ele>
        <time>2018-01-14T12:52:50Z</time>
      </trkpt>
      <trkpt lat="62.647918273959" lon="17.865507212996">
        <ele>102.8</ele>
        <time>2018-01-14T12:52:51Z</time>
      </trkpt>
      <trkpt lat="62.647937887605" lon="17.865546356469">
        <ele>103</ele>
        <time>2018-01-14T12:52:52Z</time>
      </trkpt>
      <trkpt lat="62.647973594499" lon="17.865598072792">
        <ele>102.8</ele>
        <time>2018-01-14T12:52:53Z</time>
      </trkpt>
      <trkpt lat="62.648010558678" lon="17.865655740264">
        <ele>102.8</ele>
        <time>2018-01-14T12:52:54Z</time>
      </trkpt>
      <trkpt lat="62.648042409898" lon="17.865682562344">
        <ele>102.6</ele>
        <time>2018-01-14T12:52:55Z</time>
      </trkpt>
      <trkpt lat="62.648064202838" lon="17.86570049961">
        <ele>102.6</ele>
        <time>2018-01-14T12:52:56Z</time>
      </trkpt>
      <trkpt lat="62.648090186728" lon="17.865740565092">
        <ele>102.6</ele>
        <time>2018-01-14T12:52:57Z</time>
      </trkpt>
      <trkpt lat="62.648117260265" lon="17.865782558411">
        <ele>102.4</ele>
        <time>2018-01-14T12:52:58Z</time>
      </trkpt>
      <trkpt lat="62.648153805349" lon="17.865831676345">
        <ele>102.4</ele>
        <time>2018-01-14T12:52:59Z</time>
      </trkpt>
      <trkpt lat="62.648190853347" lon="17.865883057392">
        <ele>102.4</ele>
        <time>2018-01-14T12:53:00Z</time>
      </trkpt>
      <trkpt lat="62.648227314612" lon="17.865935025172">
        <ele>102.4</ele>
        <time>2018-01-14T12:53:01Z</time>
      </trkpt>
      <trkpt lat="62.648262770049" lon="17.865976515577">
        <ele>102</ele>
        <time>2018-01-14T12:53:02Z</time>
      </trkpt>
      <trkpt lat="62.648294705088" lon="17.866011300462">
        <ele>101.6</ele>
        <time>2018-01-14T12:53:03Z</time>
      </trkpt>
      <trkpt lat="62.648341727547" lon="17.866080367318">
        <ele>101.4</ele>
        <time>2018-01-14T12:53:04Z</time>
      </trkpt>
      <trkpt lat="62.648377434441" lon="17.86613384384">
        <ele>101</ele>
        <time>2018-01-14T12:53:05Z</time>
      </trkpt>
      <trkpt lat="62.648412973697" lon="17.86620508999">
        <ele>100.8</ele>
        <time>2018-01-14T12:53:06Z</time>
      </trkpt>
      <trkpt lat="62.648441723614" lon="17.866286981153">
        <ele>100.6</ele>
        <time>2018-01-14T12:53:07Z</time>
      </trkpt>
      <trkpt lat="62.648464522382" lon="17.866374488189">
        <ele>100.2</ele>
        <time>2018-01-14T12:53:08Z</time>
      </trkpt>
      <trkpt lat="62.6484831302" lon="17.866480435405">
        <ele>99.6</ele>
        <time>2018-01-14T12:53:09Z</time>
      </trkpt>
      <trkpt lat="62.648501738018" lon="17.866601050946">
        <ele>98.8</ele>
        <time>2018-01-14T12:53:10Z</time>
      </trkpt>
      <trkpt lat="62.648517747447" lon="17.866717978451">
        <ele>98.2</ele>
        <time>2018-01-14T12:53:11Z</time>
      </trkpt>
      <trkpt lat="62.648537780188" lon="17.866833900128">
        <ele>97.6</ele>
        <time>2018-01-14T12:53:12Z</time>
      </trkpt>
      <trkpt lat="62.648555633635" lon="17.866948480701">
        <ele>97.2</ele>
        <time>2018-01-14T12:53:13Z</time>
      </trkpt>
      <trkpt lat="62.648574995824" lon="17.867072951916">
        <ele>96.6</ele>
        <time>2018-01-14T12:53:14Z</time>
      </trkpt>
      <trkpt lat="62.648591927262" lon="17.867179402046">
        <ele>96.2</ele>
        <time>2018-01-14T12:53:15Z</time>
      </trkpt>
      <trkpt lat="62.648608439605" lon="17.867285852176">
        <ele>95.8</ele>
        <time>2018-01-14T12:53:16Z</time>
      </trkpt>
      <trkpt lat="62.648627047423" lon="17.867397582903">
        <ele>95.4</ele>
        <time>2018-01-14T12:53:17Z</time>
      </trkpt>
      <trkpt lat="62.648642721576" lon="17.867493052744">
        <ele>95.2</ele>
        <time>2018-01-14T12:53:18Z</time>
      </trkpt>
      <trkpt lat="62.648660994118" lon="17.867600592521">
        <ele>95</ele>
        <time>2018-01-14T12:53:19Z</time>
      </trkpt>
      <trkpt lat="62.648674991891" lon="17.867677454544">
        <ele>95</ele>
        <time>2018-01-14T12:53:20Z</time>
      </trkpt>
      <trkpt lat="62.64868848675" lon="17.867761776458">
        <ele>95.4</ele>
        <time>2018-01-14T12:53:21Z</time>
      </trkpt>
      <trkpt lat="62.648700640505" lon="17.867850959874">
        <ele>95.6</ele>
        <time>2018-01-14T12:53:22Z</time>
      </trkpt>
      <trkpt lat="62.648709944414" lon="17.867919691454">
        <ele>96</ele>
        <time>2018-01-14T12:53:23Z</time>
      </trkpt>
      <trkpt lat="62.648726792033" lon="17.867995212373">
        <ele>96</ele>
        <time>2018-01-14T12:53:24Z</time>
      </trkpt>
      <trkpt lat="62.648751602457" lon="17.868039804081">
        <ele>96.2</ele>
        <time>2018-01-14T12:53:25Z</time>
      </trkpt>
      <trkpt lat="62.648771383741" lon="17.868117169018">
        <ele>96</ele>
        <time>2018-01-14T12:53:26Z</time>
      </trkpt>
      <trkpt lat="62.648793679595" lon="17.868183721304">
        <ele>95.8</ele>
        <time>2018-01-14T12:53:27Z</time>
      </trkpt>
      <trkpt lat="62.648816226906" lon="17.868265025734">
        <ele>95.8</ele>
        <time>2018-01-14T12:53:28Z</time>
      </trkpt>
      <trkpt lat="62.648844306271" lon="17.868347922725">
        <ele>95.8</ele>
        <time>2018-01-14T12:53:29Z</time>
      </trkpt>
      <trkpt lat="62.648864255193" lon="17.868411373708">
        <ele>95.6</ele>
        <time>2018-01-14T12:53:30Z</time>
      </trkpt>
      <trkpt lat="62.648887808332" lon="17.868496869088">
        <ele>95.4</ele>
        <time>2018-01-14T12:53:31Z</time>
      </trkpt>
      <trkpt lat="62.648915300964" lon="17.868553279275">
        <ele>95.2</ele>
        <time>2018-01-14T12:53:32Z</time>
      </trkpt>
      <trkpt lat="62.648939021741" lon="17.868605414693">
        <ele>94.8</ele>
        <time>2018-01-14T12:53:33Z</time>
      </trkpt>
      <trkpt lat="62.648970202409" lon="17.8686936761">
        <ele>94.8</ele>
        <time>2018-01-14T12:53:34Z</time>
      </trkpt>
      <trkpt lat="62.64898855877" lon="17.868743296948">
        <ele>94.6</ele>
        <time>2018-01-14T12:53:35Z</time>
      </trkpt>
      <trkpt lat="62.649015129393" lon="17.868825020473">
        <ele>94.6</ele>
        <time>2018-01-14T12:53:36Z</time>
      </trkpt>
      <trkpt lat="62.649041616197" lon="17.868898865012">
        <ele>94.6</ele>
        <time>2018-01-14T12:53:37Z</time>
      </trkpt>
      <trkpt lat="62.64907237777" lon="17.868966590764">
        <ele>94.8</ele>
        <time>2018-01-14T12:53:38Z</time>
      </trkpt>
      <trkpt lat="62.64910171442" lon="17.869063066433">
        <ele>94.6</ele>
        <time>2018-01-14T12:53:39Z</time>
      </trkpt>
      <trkpt lat="62.649131721622" lon="17.869141856293">
        <ele>94.8</ele>
        <time>2018-01-14T12:53:40Z</time>
      </trkpt>
      <trkpt lat="62.649153849838" lon="17.869222825447">
        <ele>94.8</ele>
        <time>2018-01-14T12:53:41Z</time>
      </trkpt>
      <trkpt lat="62.649182096841" lon="17.869318295288">
        <ele>94.6</ele>
        <time>2018-01-14T12:53:42Z</time>
      </trkpt>
      <trkpt lat="62.649203051591" lon="17.869379566977">
        <ele>94.4</ele>
        <time>2018-01-14T12:53:43Z</time>
      </trkpt>
      <trkpt lat="62.649234902811" lon="17.869469169488">
        <ele>94</ele>
        <time>2018-01-14T12:53:44Z</time>
      </trkpt>
      <trkpt lat="62.649254265" lon="17.869539074534">
        <ele>93.8</ele>
        <time>2018-01-14T12:53:45Z</time>
      </trkpt>
      <trkpt lat="62.649285026573" lon="17.869627671217">
        <ele>93.6</ele>
        <time>2018-01-14T12:53:46Z</time>
      </trkpt>
      <trkpt lat="62.649318470354" lon="17.869708891828">
        <ele>93.4</ele>
        <time>2018-01-14T12:53:47Z</time>
      </trkpt>
      <trkpt lat="62.649348561375" lon="17.869786172946">
        <ele>93.4</ele>
        <time>2018-01-14T12:53:48Z</time>
      </trkpt>
      <trkpt lat="62.649382675708" lon="17.869876697466">
        <ele>93.4</ele>
        <time>2018-01-14T12:53:49Z</time>
      </trkpt>
      <trkpt lat="62.649415113661" lon="17.869947524521">
        <ele>93.2</ele>
        <time>2018-01-14T12:53:50Z</time>
      </trkpt>
      <trkpt lat="62.649448557442" lon="17.870008377115">
        <ele>92.8</ele>
        <time>2018-01-14T12:53:51Z</time>
      </trkpt>
      <trkpt lat="62.64949314915" lon="17.870082389292">
        <ele>92.4</ele>
        <time>2018-01-14T12:53:52Z</time>
      </trkpt>
      <trkpt lat="62.649527095845" lon="17.870158413125">
        <ele>92</ele>
        <time>2018-01-14T12:53:53Z</time>
      </trkpt>
      <trkpt lat="62.649570178811" lon="17.8702443276">
        <ele>91.4</ele>
        <time>2018-01-14T12:53:54Z</time>
      </trkpt>
      <trkpt lat="62.649611585397" lon="17.870328230419">
        <ele>90.8</ele>
        <time>2018-01-14T12:53:55Z</time>
      </trkpt>
      <trkpt lat="62.64965156706" lon="17.870423281165">
        <ele>90.2</ele>
        <time>2018-01-14T12:53:56Z</time>
      </trkpt>
      <trkpt lat="62.649686435764" lon="17.870506010518">
        <ele>89.6</ele>
        <time>2018-01-14T12:53:57Z</time>
      </trkpt>
      <trkpt lat="62.649717616432" lon="17.870589913337">
        <ele>89.2</ele>
        <time>2018-01-14T12:53:58Z</time>
      </trkpt>
      <trkpt lat="62.64974460615" lon="17.870682114237">
        <ele>89</ele>
        <time>2018-01-14T12:53:59Z</time>
      </trkpt>
      <trkpt lat="62.64976639909" lon="17.870778841363">
        <ele>88.6</ele>
        <time>2018-01-14T12:54:00Z</time>
      </trkpt>
      <trkpt lat="62.649783917261" lon="17.870868192417">
        <ele>88.4</ele>
        <time>2018-01-14T12:54:01Z</time>
      </trkpt>
      <trkpt lat="62.649809482056" lon="17.87096684738">
        <ele>88.6</ele>
        <time>2018-01-14T12:54:02Z</time>
      </trkpt>
      <trkpt lat="62.64982507239" lon="17.871029627811">
        <ele>88.6</ele>
        <time>2018-01-14T12:54:03Z</time>
      </trkpt>
      <trkpt lat="62.649845356588" lon="17.8711160452">
        <ele>88.8</ele>
        <time>2018-01-14T12:54:04Z</time>
      </trkpt>
      <trkpt lat="62.649866814252" lon="17.871196092345">
        <ele>89</ele>
        <time>2018-01-14T12:54:05Z</time>
      </trkpt>
      <trkpt lat="62.649896821454" lon="17.871266500305">
        <ele>89</ele>
        <time>2018-01-14T12:54:06Z</time>
      </trkpt>
      <trkpt lat="62.649918027661" lon="17.871361886327">
        <ele>88.8</ele>
        <time>2018-01-14T12:54:07Z</time>
      </trkpt>
      <trkpt lat="62.649933953271" lon="17.87143874835">
        <ele>88.8</ele>
        <time>2018-01-14T12:54:08Z</time>
      </trkpt>
      <trkpt lat="62.649944849741" lon="17.87151167088">
        <ele>88.6</ele>
        <time>2018-01-14T12:54:09Z</time>
      </trkpt>
      <trkpt lat="62.649962200274" lon="17.871601273391">
        <ele>88.4</ele>
        <time>2018-01-14T12:54:10Z</time>
      </trkpt>
      <trkpt lat="62.649980808092" lon="17.871682577821">
        <ele>88.2</ele>
        <time>2018-01-14T12:54:11Z</time>
      </trkpt>
      <trkpt lat="62.649996817521" lon="17.871749213926">
        <ele>88.2</ele>
        <time>2018-01-14T12:54:12Z</time>
      </trkpt>
      <trkpt lat="62.650013832778" lon="17.871797745127">
        <ele>88</ele>
        <time>2018-01-14T12:54:13Z</time>
      </trkpt>
      <trkpt lat="62.650029758388" lon="17.871855664056">
        <ele>88</ele>
        <time>2018-01-14T12:54:14Z</time>
      </trkpt>
      <trkpt lat="62.650048785301" lon="17.871919450315">
        <ele>88.2</ele>
        <time>2018-01-14T12:54:15Z</time>
      </trkpt>
      <trkpt lat="62.650056329011" lon="17.871972088647">
        <ele>88.4</ele>
        <time>2018-01-14T12:54:16Z</time>
      </trkpt>
      <trkpt lat="62.650079546874" lon="17.872021709495">
        <ele>88.4</ele>
        <time>2018-01-14T12:54:17Z</time>
      </trkpt>
      <trkpt lat="62.650092371181" lon="17.872074766922">
        <ele>88.6</ele>
        <time>2018-01-14T12:54:18Z</time>
      </trkpt>
      <trkpt lat="62.650104608755" lon="17.872128159625">
        <ele>88.8</ele>
        <time>2018-01-14T12:54:19Z</time>
      </trkpt>
      <trkpt lat="62.650112403922" lon="17.872178953939">
        <ele>88.8</ele>
        <time>2018-01-14T12:54:20Z</time>
      </trkpt>
      <trkpt lat="62.650119193261" lon="17.872233687746">
        <ele>89</ele>
        <time>2018-01-14T12:54:21Z</time>
      </trkpt>
      <trkpt lat="62.650119109442" lon="17.872287918639">
        <ele>89</ele>
        <time>2018-01-14T12:54:22Z</time>
      </trkpt>
      <trkpt lat="62.650110308447" lon="17.872348352138">
        <ele>89</ele>
        <time>2018-01-14T12:54:23Z</time>
      </trkpt>
      <trkpt lat="62.650098992882" lon="17.872391435104">
        <ele>89</ele>
        <time>2018-01-14T12:54:24Z</time>
      </trkpt>
      <trkpt lat="62.650070410603" lon="17.872420101202">
        <ele>89</ele>
        <time>2018-01-14T12:54:25Z</time>
      </trkpt>
      <trkpt lat="62.650049455853" lon="17.872411216388">
        <ele>89</ele>
        <time>2018-01-14T12:54:26Z</time>
      </trkpt>
      <trkpt lat="62.650029171655" lon="17.872391854199">
        <ele>89.2</ele>
        <time>2018-01-14T12:54:27Z</time>
      </trkpt>
      <trkpt lat="62.65001198876" lon="17.872353465097">
        <ele>89.2</ele>
        <time>2018-01-14T12:54:28Z</time>
      </trkpt>
      <trkpt lat="62.65000193048" lon="17.872297976919">
        <ele>89.4</ele>
        <time>2018-01-14T12:54:29Z</time>
      </trkpt>
      <trkpt lat="62.649990447277" lon="17.872240728542">
        <ele>89.4</ele>
        <time>2018-01-14T12:54:30Z</time>
      </trkpt>
      <trkpt lat="62.649986172508" lon="17.872186749106">
        <ele>89.4</ele>
        <time>2018-01-14T12:54:31Z</time>
      </trkpt>
      <trkpt lat="62.649981394825" lon="17.872122879028">
        <ele>89.2</ele>
        <time>2018-01-14T12:54:32Z</time>
      </trkpt>
      <trkpt lat="62.649966475043" lon="17.872067726126">
        <ele>89.2</ele>
        <time>2018-01-14T12:54:33Z</time>
      </trkpt>
      <trkpt lat="62.649959015152" lon="17.8720045266">
        <ele>89.2</ele>
        <time>2018-01-14T12:54:34Z</time>
      </trkpt>
      <trkpt lat="62.649949627424" lon="17.871953648467">
        <ele>89.2</ele>
        <time>2018-01-14T12:54:35Z</time>
      </trkpt>
      <trkpt lat="62.649940491153" lon="17.87191819303">
        <ele>89.2</ele>
        <time>2018-01-14T12:54:36Z</time>
      </trkpt>
      <trkpt lat="62.64991727329" lon="17.871842169197">
        <ele>89.2</ele>
        <time>2018-01-14T12:54:37Z</time>
      </trkpt>
      <trkpt lat="62.649911489779" lon="17.871828255243">
        <ele>89.2</ele>
        <time>2018-01-14T12:54:38Z</time>
      </trkpt>
      <trkpt lat="62.649899252205" lon="17.871759942758">
        <ele>89</ele>
        <time>2018-01-14T12:54:39Z</time>
      </trkpt>
      <trkpt lat="62.649890535029" lon="17.871694815395">
        <ele>88.8</ele>
        <time>2018-01-14T12:54:40Z</time>
      </trkpt>
      <trkpt lat="62.649880141473" lon="17.871650558963">
        <ele>88.8</ele>
        <time>2018-01-14T12:54:41Z</time>
      </trkpt>
      <trkpt lat="62.649864299682" lon="17.871585263962">
        <ele>88.8</ele>
        <time>2018-01-14T12:54:42Z</time>
      </trkpt>
      <trkpt lat="62.649858432352" lon="17.871551652543">
        <ele>88.8</ele>
        <time>2018-01-14T12:54:43Z</time>
      </trkpt>
      <trkpt lat="62.649847787339" lon="17.871493146881">
        <ele>88.8</ele>
        <time>2018-01-14T12:54:44Z</time>
      </trkpt>
      <trkpt lat="62.649839070163" lon="17.871459954557">
        <ele>89</ele>
        <time>2018-01-14T12:54:45Z</time>
      </trkpt>
      <trkpt lat="62.649826832589" lon="17.871412848279">
        <ele>89</ele>
        <time>2018-01-14T12:54:46Z</time>
      </trkpt>
      <trkpt lat="62.649811409893" lon="17.871353588246">
        <ele>88.8</ele>
        <time>2018-01-14T12:54:47Z</time>
      </trkpt>
      <trkpt lat="62.649802022165" lon="17.871330118926">
        <ele>89</ele>
        <time>2018-01-14T12:54:48Z</time>
      </trkpt>
      <trkpt lat="62.649791041876" lon="17.87127697768">
        <ele>88.8</ele>
        <time>2018-01-14T12:54:49Z</time>
      </trkpt>
      <trkpt lat="62.649780564501" lon="17.871227273013">
        <ele>88.8</ele>
        <time>2018-01-14T12:54:50Z</time>
      </trkpt>
      <trkpt lat="62.64975550262" lon="17.87118729135">
        <ele>89</ele>
        <time>2018-01-14T12:54:51Z</time>
      </trkpt>
      <trkpt lat="62.649738571182" lon="17.871117051028">
        <ele>88.8</ele>
        <time>2018-01-14T12:54:52Z</time>
      </trkpt>
      <trkpt lat="62.649719795726" lon="17.871063574506">
        <ele>88.8</ele>
        <time>2018-01-14T12:54:53Z</time>
      </trkpt>
      <trkpt lat="62.64971107855" lon="17.871009175975">
        <ele>89</ele>
        <time>2018-01-14T12:54:54Z</time>
      </trkpt>
      <trkpt lat="62.649699260071" lon="17.870968942855">
        <ele>88.8</ele>
        <time>2018-01-14T12:54:55Z</time>
      </trkpt>
      <trkpt lat="62.649681071348" lon="17.870916220704">
        <ele>88.8</ele>
        <time>2018-01-14T12:54:56Z</time>
      </trkpt>
      <trkpt lat="62.649665313376" lon="17.870869952616">
        <ele>88.8</ele>
        <time>2018-01-14T12:54:57Z</time>
      </trkpt>
      <trkpt lat="62.649652489069" lon="17.870846064201">
        <ele>88.6</ele>
        <time>2018-01-14T12:54:58Z</time>
      </trkpt>
      <trkpt lat="62.649642933703" lon="17.870785882159">
        <ele>88.8</ele>
        <time>2018-01-14T12:54:59Z</time>
      </trkpt>
      <trkpt lat="62.649624325885" lon="17.870728969058">
        <ele>88.8</ele>
        <time>2018-01-14T12:55:00Z</time>
      </trkpt>
      <trkpt lat="62.649613345596" lon="17.870708517222">
        <ele>89</ele>
        <time>2018-01-14T12:55:01Z</time>
      </trkpt>
      <trkpt lat="62.649590043914" lon="17.870645736791">
        <ele>89.2</ele>
        <time>2018-01-14T12:55:02Z</time>
      </trkpt>
      <trkpt lat="62.649577387245" lon="17.87060977844">
        <ele>89.4</ele>
        <time>2018-01-14T12:55:03Z</time>
      </trkpt>
      <trkpt lat="62.64956271892" lon="17.870570551148">
        <ele>89.6</ele>
        <time>2018-01-14T12:55:04Z</time>
      </trkpt>
      <trkpt lat="62.649540339247" lon="17.870511794029">
        <ele>89.8</ele>
        <time>2018-01-14T12:55:05Z</time>
      </trkpt>
      <trkpt lat="62.649514522995" lon="17.870467369959">
        <ele>89.8</ele>
        <time>2018-01-14T12:55:06Z</time>
      </trkpt>
      <trkpt lat="62.649487449458" lon="17.870441134612">
        <ele>89.8</ele>
        <time>2018-01-14T12:55:07Z</time>
      </trkpt>
      <trkpt lat="62.649472781133" lon="17.870401655863">
        <ele>90</ele>
        <time>2018-01-14T12:55:08Z</time>
      </trkpt>
      <trkpt lat="62.64945878336" lon="17.870358069983">
        <ele>90</ele>
        <time>2018-01-14T12:55:09Z</time>
      </trkpt>
      <trkpt lat="62.649454927686" lon="17.870331080265">
        <ele>90</ele>
        <time>2018-01-14T12:55:10Z</time>
      </trkpt>
      <trkpt lat="62.649439002076" lon="17.870313729732">
        <ele>90.2</ele>
        <time>2018-01-14T12:55:11Z</time>
      </trkpt>
      <trkpt lat="62.649420478077" lon="17.870251619853">
        <ele>90.2</ele>
        <time>2018-01-14T12:55:12Z</time>
      </trkpt>
      <trkpt lat="62.649407989046" lon="17.870218511348">
        <ele>90.2</ele>
        <time>2018-01-14T12:55:13Z</time>
      </trkpt>
      <trkpt lat="62.649393488359" lon="17.870189509974">
        <ele>90.4</ele>
        <time>2018-01-14T12:55:14Z</time>
      </trkpt>
      <trkpt lat="62.649383932993" lon="17.870169812509">
        <ele>90.6</ele>
        <time>2018-01-14T12:55:15Z</time>
      </trkpt>
      <trkpt lat="62.649369851401" lon="17.870136871642">
        <ele>90.6</ele>
        <time>2018-01-14T12:55:16Z</time>
      </trkpt>
      <trkpt lat="62.64935233323" lon="17.870104601327">
        <ele>90.8</ele>
        <time>2018-01-14T12:55:17Z</time>
      </trkpt>
      <trkpt lat="62.649334898878" lon="17.870084317129">
        <ele>90.8</ele>
        <time>2018-01-14T12:55:18Z</time>
      </trkpt>
      <trkpt lat="62.649322326028" lon="17.870056321583">
        <ele>91</ele>
        <time>2018-01-14T12:55:19Z</time>
      </trkpt>
      <trkpt lat="62.649304304943" lon="17.870040228335">
        <ele>91</ele>
        <time>2018-01-14T12:55:20Z</time>
      </trkpt>
      <trkpt lat="62.649282931098" lon="17.869996977731">
        <ele>91.2</ele>
        <time>2018-01-14T12:55:21Z</time>
      </trkpt>
      <trkpt lat="62.649265077651" lon="17.869961438475">
        <ele>91.4</ele>
        <time>2018-01-14T12:55:22Z</time>
      </trkpt>
      <trkpt lat="62.649258372131" lon="17.869943165933">
        <ele>91.6</ele>
        <time>2018-01-14T12:55:23Z</time>
      </trkpt>
      <trkpt lat="62.649233645526" lon="17.869905782659">
        <ele>91.8</ele>
        <time>2018-01-14T12:55:24Z</time>
      </trkpt>
      <trkpt lat="62.649218139011" lon="17.869875356362">
        <ele>92</ele>
        <time>2018-01-14T12:55:25Z</time>
      </trkpt>
      <trkpt lat="62.649200034107" lon="17.869858089648">
        <ele>92</ele>
        <time>2018-01-14T12:55:26Z</time>
      </trkpt>
      <trkpt lat="62.649182935031" lon="17.869839398011">
        <ele>92</ele>
        <time>2018-01-14T12:55:27Z</time>
      </trkpt>
      <trkpt lat="62.649161309729" lon="17.869802266194">
        <ele>92.2</ele>
        <time>2018-01-14T12:55:28Z</time>
      </trkpt>
      <trkpt lat="62.649142115178" lon="17.869765218196">
        <ele>92.2</ele>
        <time>2018-01-14T12:55:29Z</time>
      </trkpt>
      <trkpt lat="62.649127111577" lon="17.869722721963">
        <ele>92.4</ele>
        <time>2018-01-14T12:55:30Z</time>
      </trkpt>
      <trkpt lat="62.649123758817" lon="17.869694139684">
        <ele>92.4</ele>
        <time>2018-01-14T12:55:31Z</time>
      </trkpt>
      <trkpt lat="62.649109006673" lon="17.869658516609">
        <ele>92.6</ele>
        <time>2018-01-14T12:55:32Z</time>
      </trkpt>
      <trkpt lat="62.649098445479" lon="17.869622474439">
        <ele>92.8</ele>
        <time>2018-01-14T12:55:33Z</time>
      </trkpt>
      <trkpt lat="62.649083190421" lon="17.869583247147">
        <ele>93.2</ele>
        <time>2018-01-14T12:55:34Z</time>
      </trkpt>
      <trkpt lat="62.649073467417" lon="17.869554245773">
        <ele>93.4</ele>
        <time>2018-01-14T12:55:35Z</time>
      </trkpt>
      <trkpt lat="62.649063828232" lon="17.869514934662">
        <ele>93.6</ele>
        <time>2018-01-14T12:55:36Z</time>
      </trkpt>
      <trkpt lat="62.649048573174" lon="17.869472941343">
        <ele>93.8</ele>
        <time>2018-01-14T12:55:37Z</time>
      </trkpt>
      <trkpt lat="62.649042286749" lon="17.869459278846">
        <ele>94</ele>
        <time>2018-01-14T12:55:38Z</time>
      </trkpt>
      <trkpt lat="62.649019907076" lon="17.869408065437">
        <ele>93.8</ele>
        <time>2018-01-14T12:55:39Z</time>
      </trkpt>
      <trkpt lat="62.649000796344" lon="17.869368586688">
        <ele>94</ele>
        <time>2018-01-14T12:55:40Z</time>
      </trkpt>
      <trkpt lat="62.648993755548" lon="17.869341680789">
        <ele>94</ele>
        <time>2018-01-14T12:55:41Z</time>
      </trkpt>
      <trkpt lat="62.648975650644" lon="17.869286024973">
        <ele>94</ele>
        <time>2018-01-14T12:55:42Z</time>
      </trkpt>
      <trkpt lat="62.648974225721" lon="17.869253419382">
        <ele>94</ele>
        <time>2018-01-14T12:55:43Z</time>
      </trkpt>
      <trkpt lat="62.648959305939" lon="17.869212850986">
        <ele>94</ele>
        <time>2018-01-14T12:55:44Z</time>
      </trkpt>
      <trkpt lat="62.648949415297" lon="17.86916473888">
        <ele>94</ele>
        <time>2018-01-14T12:55:45Z</time>
      </trkpt>
      <trkpt lat="62.648930975117" lon="17.869142275388">
        <ele>94</ele>
        <time>2018-01-14T12:55:46Z</time>
      </trkpt>
      <trkpt lat="62.648914714231" lon="17.869090223789">
        <ele>94</ele>
        <time>2018-01-14T12:55:47Z</time>
      </trkpt>
      <trkpt lat="62.648901303191" lon="17.869054600714">
        <ele>94</ele>
        <time>2018-01-14T12:55:48Z</time>
      </trkpt>
      <trkpt lat="62.648893256567" lon="17.869039178018">
        <ele>94.2</ele>
        <time>2018-01-14T12:55:49Z</time>
      </trkpt>
      <trkpt lat="62.648869116695" lon="17.868993329025">
        <ele>94.2</ele>
        <time>2018-01-14T12:55:50Z</time>
      </trkpt>
      <trkpt lat="62.64885025742" lon="17.868960388158">
        <ele>94.4</ele>
        <time>2018-01-14T12:55:51Z</time>
      </trkpt>
      <trkpt lat="62.648847072298" lon="17.8689367512">
        <ele>94.6</ele>
        <time>2018-01-14T12:55:52Z</time>
      </trkpt>
      <trkpt lat="62.64883433181" lon="17.868892243311">
        <ele>94.8</ele>
        <time>2018-01-14T12:55:53Z</time>
      </trkpt>
      <trkpt lat="62.648820501675" lon="17.868854105666">
        <ele>95</ele>
        <time>2018-01-14T12:55:54Z</time>
      </trkpt>
      <trkpt lat="62.648808431739" lon="17.868822673541">
        <ele>95</ele>
        <time>2018-01-14T12:55:55Z</time>
      </trkpt>
      <trkpt lat="62.648786471161" lon="17.868755953617">
        <ele>95.2</ele>
        <time>2018-01-14T12:55:56Z</time>
      </trkpt>
      <trkpt lat="62.648781022926" lon="17.868728460985">
        <ele>95.4</ele>
        <time>2018-01-14T12:55:57Z</time>
      </trkpt>
      <trkpt lat="62.648763588574" lon="17.868676241748">
        <ele>95.4</ele>
        <time>2018-01-14T12:55:58Z</time>
      </trkpt>
      <trkpt lat="62.648751267181" lon="17.868627794366">
        <ele>95.4</ele>
        <time>2018-01-14T12:55:59Z</time>
      </trkpt>
      <trkpt lat="62.648749255525" lon="17.868599128268">
        <ele>95.6</ele>
        <time>2018-01-14T12:56:00Z</time>
      </trkpt>
      <trkpt lat="62.648734084286" lon="17.868536431656">
        <ele>95.6</ele>
        <time>2018-01-14T12:56:01Z</time>
      </trkpt>
      <trkpt lat="62.648723774549" lon="17.868501395314">
        <ele>95.8</ele>
        <time>2018-01-14T12:56:02Z</time>
      </trkpt>
      <trkpt lat="62.648717069029" lon="17.868470382284">
        <ele>95.8</ele>
        <time>2018-01-14T12:56:03Z</time>
      </trkpt>
      <trkpt lat="62.648708938586" lon="17.868399722867">
        <ele>96</ele>
        <time>2018-01-14T12:56:04Z</time>
      </trkpt>
      <trkpt lat="62.648700137591" lon="17.868363010145">
        <ele>95.8</ele>
        <time>2018-01-14T12:56:05Z</time>
      </trkpt>
      <trkpt lat="62.648688235293" lon="17.868318921351">
        <ele>95.8</ele>
        <time>2018-01-14T12:56:06Z</time>
      </trkpt>
      <trkpt lat="62.64868513399" lon="17.86826703739">
        <ele>95.8</ele>
        <time>2018-01-14T12:56:07Z</time>
      </trkpt>
      <trkpt lat="62.648685888361" lon="17.868230240849">
        <ele>95.8</ele>
        <time>2018-01-14T12:56:08Z</time>
      </trkpt>
      <trkpt lat="62.648673064054" lon="17.86820249676">
        <ele>95.8</ele>
        <time>2018-01-14T12:56:09Z</time>
      </trkpt>
      <trkpt lat="62.648667196724" lon="17.868146505668">
        <ele>96</ele>
        <time>2018-01-14T12:56:10Z</time>
      </trkpt>
      <trkpt lat="62.648660155928" lon="17.868099986123">
        <ele>96</ele>
        <time>2018-01-14T12:56:11Z</time>
      </trkpt>
      <trkpt lat="62.648654456236" lon="17.868072996405">
        <ele>96</ele>
        <time>2018-01-14T12:56:12Z</time>
      </trkpt>
      <trkpt lat="62.648643727404" lon="17.867998984228">
        <ele>96</ele>
        <time>2018-01-14T12:56:13Z</time>
      </trkpt>
      <trkpt lat="62.6486423863" lon="17.867940394747">
        <ele>96.2</ele>
        <time>2018-01-14T12:56:14Z</time>
      </trkpt>
      <trkpt lat="62.64863987173" lon="17.867894797211">
        <ele>96</ele>
        <time>2018-01-14T12:56:15Z</time>
      </trkpt>
      <trkpt lat="62.648629897269" lon="17.867835285721">
        <ele>96.2</ele>
        <time>2018-01-14T12:56:16Z</time>
      </trkpt>
      <trkpt lat="62.64862059336" lon="17.867803937415">
        <ele>96.2</ele>
        <time>2018-01-14T12:56:17Z</time>
      </trkpt>
      <trkpt lat="62.648612714374" lon="17.86773394855">
        <ele>96.2</ele>
        <time>2018-01-14T12:56:18Z</time>
      </trkpt>
      <trkpt lat="62.648603242827" lon="17.867686004082">
        <ele>96.2</ele>
        <time>2018-01-14T12:56:19Z</time>
      </trkpt>
      <trkpt lat="62.648594106556" lon="17.867631773189">
        <ele>96.4</ele>
        <time>2018-01-14T12:56:20Z</time>
      </trkpt>
      <trkpt lat="62.648587736312" lon="17.867582152341">
        <ele>96.4</ele>
        <time>2018-01-14T12:56:21Z</time>
      </trkpt>
      <trkpt lat="62.648580695516" lon="17.867546361628">
        <ele>96.4</ele>
        <time>2018-01-14T12:56:22Z</time>
      </trkpt>
      <trkpt lat="62.648571391607" lon="17.867483245921">
        <ele>96.4</ele>
        <time>2018-01-14T12:56:23Z</time>
      </trkpt>
      <trkpt lat="62.648561836241" lon="17.867436726376">
        <ele>96.4</ele>
        <time>2018-01-14T12:56:24Z</time>
      </trkpt>
      <trkpt lat="62.648551694142" lon="17.867379813275">
        <ele>96.4</ele>
        <time>2018-01-14T12:56:25Z</time>
      </trkpt>
      <trkpt lat="62.648548341382" lon="17.8673274264">
        <ele>96.4</ele>
        <time>2018-01-14T12:56:26Z</time>
      </trkpt>
      <trkpt lat="62.648542809328" lon="17.86728467871">
        <ele>96.6</ele>
        <time>2018-01-14T12:56:27Z</time>
      </trkpt>
      <trkpt lat="62.648537864007" lon="17.867224831944">
        <ele>96.6</ele>
        <time>2018-01-14T12:56:28Z</time>
      </trkpt>
      <trkpt lat="62.648533086324" lon="17.867175797829">
        <ele>96.8</ele>
        <time>2018-01-14T12:56:29Z</time>
      </trkpt>
      <trkpt lat="62.648518082723" lon="17.867115112873">
        <ele>96.8</ele>
        <time>2018-01-14T12:56:30Z</time>
      </trkpt>
      <trkpt lat="62.648513891773" lon="17.867065324387">
        <ele>97</ele>
        <time>2018-01-14T12:56:31Z</time>
      </trkpt>
      <trkpt lat="62.648501821837" lon="17.867034478995">
        <ele>97</ele>
        <time>2018-01-14T12:56:32Z</time>
      </trkpt>
      <trkpt lat="62.648495954507" lon="17.866996173712">
        <ele>97</ele>
        <time>2018-01-14T12:56:33Z</time>
      </trkpt>
      <trkpt lat="62.648485477132" lon="17.866942864828">
        <ele>97</ele>
        <time>2018-01-14T12:56:34Z</time>
      </trkpt>
      <trkpt lat="62.6484747483" lon="17.866902296432">
        <ele>97.2</ele>
        <time>2018-01-14T12:56:35Z</time>
      </trkpt>
      <trkpt lat="62.648464941477" lon="17.866863572054">
        <ele>97.2</ele>
        <time>2018-01-14T12:56:36Z</time>
      </trkpt>
      <trkpt lat="62.648456643396" lon="17.866822333106">
        <ele>97.4</ele>
        <time>2018-01-14T12:56:37Z</time>
      </trkpt>
      <trkpt lat="62.648451446618" lon="17.866774472457">
        <ele>97.4</ele>
        <time>2018-01-14T12:56:38Z</time>
      </trkpt>
      <trkpt lat="62.648451865713" lon="17.866736753907">
        <ele>97.6</ele>
        <time>2018-01-14T12:56:39Z</time>
      </trkpt>
      <trkpt lat="62.648445495469" lon="17.866693000389">
        <ele>97.8</ele>
        <time>2018-01-14T12:56:40Z</time>
      </trkpt>
      <trkpt lat="62.64843786794" lon="17.866664585748">
        <ele>98</ele>
        <time>2018-01-14T12:56:41Z</time>
      </trkpt>
      <trkpt lat="62.648433257895" lon="17.866631812519">
        <ele>98</ele>
        <time>2018-01-14T12:56:42Z</time>
      </trkpt>
      <trkpt lat="62.648424959814" lon="17.86659484834">
        <ele>98.2</ele>
        <time>2018-01-14T12:56:43Z</time>
      </trkpt>
      <trkpt lat="62.648415152991" lon="17.866544473121">
        <ele>98.6</ele>
        <time>2018-01-14T12:56:44Z</time>
      </trkpt>
      <trkpt lat="62.64840936948" lon="17.866512873358">
        <ele>98.6</ele>
        <time>2018-01-14T12:56:45Z</time>
      </trkpt>
      <trkpt lat="62.64840182577" lon="17.866488146753">
        <ele>98.8</ele>
        <time>2018-01-14T12:56:46Z</time>
      </trkpt>
      <trkpt lat="62.648396964268" lon="17.866455373524">
        <ele>99</ele>
        <time>2018-01-14T12:56:47Z</time>
      </trkpt>
      <trkpt lat="62.64838841473" lon="17.866422767933">
        <ele>99</ele>
        <time>2018-01-14T12:56:48Z</time>
      </trkpt>
      <trkpt lat="62.648384642875" lon="17.866381696623">
        <ele>99</ele>
        <time>2018-01-14T12:56:49Z</time>
      </trkpt>
      <trkpt lat="62.648379949011" lon="17.86634422953">
        <ele>99.2</ele>
        <time>2018-01-14T12:56:50Z</time>
      </trkpt>
      <trkpt lat="62.648367962894" lon="17.86631656926">
        <ele>99.4</ele>
        <time>2018-01-14T12:56:51Z</time>
      </trkpt>
      <trkpt lat="62.648357820795" lon="17.866293016121">
        <ele>99.6</ele>
        <time>2018-01-14T12:56:52Z</time>
      </trkpt>
      <trkpt lat="62.648348265429" lon="17.866259237064">
        <ele>99.8</ele>
        <time>2018-01-14T12:56:53Z</time>
      </trkpt>
      <trkpt lat="62.648334854389" lon="17.866222021428">
        <ele>100</ele>
        <time>2018-01-14T12:56:54Z</time>
      </trkpt>
      <trkpt lat="62.648320186064" lon="17.866195283167">
        <ele>100</ele>
        <time>2018-01-14T12:56:55Z</time>
      </trkpt>
      <trkpt lat="62.648309960146" lon="17.866175920978">
        <ele>100.2</ele>
        <time>2018-01-14T12:56:56Z</time>
      </trkpt>
      <trkpt lat="62.648297806391" lon="17.866163934861">
        <ele>100.2</ele>
        <time>2018-01-14T12:56:57Z</time>
      </trkpt>
      <trkpt lat="62.648280707315" lon="17.866148009251">
        <ele>100.2</ele>
        <time>2018-01-14T12:56:58Z</time>
      </trkpt>
      <trkpt lat="62.648255561615" lon="17.86613049108">
        <ele>100.4</ele>
        <time>2018-01-14T12:56:59Z</time>
      </trkpt>
      <trkpt lat="62.648234774503" lon="17.86612127099">
        <ele>100.6</ele>
        <time>2018-01-14T12:57:00Z</time>
      </trkpt>
      <trkpt lat="62.648216501961" lon="17.866117247678">
        <ele>100.6</ele>
        <time>2018-01-14T12:57:01Z</time>
      </trkpt>
      <trkpt lat="62.648200995446" lon="17.866118169687">
        <ele>100.8</ele>
        <time>2018-01-14T12:57:02Z</time>
      </trkpt>
      <trkpt lat="62.648190853347" lon="17.86611959461">
        <ele>101.2</ele>
        <time>2018-01-14T12:57:03Z</time>
      </trkpt>
      <trkpt lat="62.648173167538" lon="17.866120684257">
        <ele>101.2</ele>
        <time>2018-01-14T12:57:04Z</time>
      </trkpt>
      <trkpt lat="62.648158331575" lon="17.86612797651">
        <ele>101.6</ele>
        <time>2018-01-14T12:57:05Z</time>
      </trkpt>
      <trkpt lat="62.64814282506" lon="17.86613384384">
        <ele>101.8</ele>
        <time>2018-01-14T12:57:06Z</time>
      </trkpt>
      <trkpt lat="62.648122457043" lon="17.866140381722">
        <ele>102</ele>
        <time>2018-01-14T12:57:07Z</time>
      </trkpt>
      <trkpt lat="62.648111309116" lon="17.866145159405">
        <ele>102</ele>
        <time>2018-01-14T12:57:08Z</time>
      </trkpt>
      <trkpt lat="62.648099993551" lon="17.866154379495">
        <ele>102.2</ele>
        <time>2018-01-14T12:57:09Z</time>
      </trkpt>
      <trkpt lat="62.648085576683" lon="17.866164689232">
        <ele>102</ele>
        <time>2018-01-14T12:57:10Z</time>
      </trkpt>
      <trkpt lat="62.648074596394" lon="17.866174328417">
        <ele>102.2</ele>
        <time>2018-01-14T12:57:11Z</time>
      </trkpt>
      <trkpt lat="62.648064454295" lon="17.866187823276">
        <ele>102.2</ele>
        <time>2018-01-14T12:57:12Z</time>
      </trkpt>
      <trkpt lat="62.648054982748" lon="17.866205257628">
        <ele>102.4</ele>
        <time>2018-01-14T12:57:13Z</time>
      </trkpt>
      <trkpt lat="62.648036458749" lon="17.866222189066">
        <ele>102.6</ele>
        <time>2018-01-14T12:57:14Z</time>
      </trkpt>
      <trkpt lat="62.648024137356" lon="17.866235851563">
        <ele>103</ele>
        <time>2018-01-14T12:57:15Z</time>
      </trkpt>
      <trkpt lat="62.648011061592" lon="17.866255716666">
        <ele>103.2</ele>
        <time>2018-01-14T12:57:16Z</time>
      </trkpt>
      <trkpt lat="62.648002176778" lon="17.866268960068">
        <ele>103.4</ele>
        <time>2018-01-14T12:57:17Z</time>
      </trkpt>
      <trkpt lat="62.647992705231" lon="17.866283460755">
        <ele>103.6</ele>
        <time>2018-01-14T12:57:18Z</time>
      </trkpt>
      <trkpt lat="62.647978958915" lon="17.866296536519">
        <ele>103.8</ele>
        <time>2018-01-14T12:57:19Z</time>
      </trkpt>
      <trkpt lat="62.647963620038" lon="17.866312210672">
        <ele>104</ele>
        <time>2018-01-14T12:57:20Z</time>
      </trkpt>
      <trkpt lat="62.647955405776" lon="17.866330231757">
        <ele>104.2</ele>
        <time>2018-01-14T12:57:21Z</time>
      </trkpt>
      <trkpt lat="62.647943587297" lon="17.866352276154">
        <ele>104.4</ele>
        <time>2018-01-14T12:57:22Z</time>
      </trkpt>
      <trkpt lat="62.647938809614" lon="17.866366525384">
        <ele>104.6</ele>
        <time>2018-01-14T12:57:23Z</time>
      </trkpt>
      <trkpt lat="62.647926488221" lon="17.866388150686">
        <ele>105</ele>
        <time>2018-01-14T12:57:24Z</time>
      </trkpt>
      <trkpt lat="62.647913663914" lon="17.866413547843">
        <ele>105.2</ele>
        <time>2018-01-14T12:57:25Z</time>
      </trkpt>
      <trkpt lat="62.647900420512" lon="17.866445063787">
        <ele>105.4</ele>
        <time>2018-01-14T12:57:26Z</time>
      </trkpt>
      <trkpt lat="62.64789304444" lon="17.866461240854">
        <ele>105.4</ele>
        <time>2018-01-14T12:57:27Z</time>
      </trkpt>
      <trkpt lat="62.647883572893" lon="17.866483955803">
        <ele>105.6</ele>
        <time>2018-01-14T12:57:28Z</time>
      </trkpt>
      <trkpt lat="62.647874855717" lon="17.866497785938">
        <ele>105.8</ele>
        <time>2018-01-14T12:57:29Z</time>
      </trkpt>
      <trkpt lat="62.647866725274" lon="17.866516980489">
        <ele>106</ele>
        <time>2018-01-14T12:57:30Z</time>
      </trkpt>
      <trkpt lat="62.6478544877" lon="17.866536426497">
        <ele>106.2</ele>
        <time>2018-01-14T12:57:31Z</time>
      </trkpt>
      <trkpt lat="62.647845099972" lon="17.866553609392">
        <ele>106.4</ele>
        <time>2018-01-14T12:57:32Z</time>
      </trkpt>
      <trkpt lat="62.647838310633" lon="17.866570624649">
        <ele>106.6</ele>
        <time>2018-01-14T12:57:33Z</time>
      </trkpt>
      <trkpt lat="62.647827833258" lon="17.866595267435">
        <ele>106.8</ele>
        <time>2018-01-14T12:57:34Z</time>
      </trkpt>
      <trkpt lat="62.647815511865" lon="17.86661664128">
        <ele>107</ele>
        <time>2018-01-14T12:57:35Z</time>
      </trkpt>
      <trkpt lat="62.647806794689" lon="17.866636003469">
        <ele>107.2</ele>
        <time>2018-01-14T12:57:36Z</time>
      </trkpt>
      <trkpt lat="62.647798748065" lon="17.866653605459">
        <ele>107.4</ele>
        <time>2018-01-14T12:57:37Z</time>
      </trkpt>
      <trkpt lat="62.647790869079" lon="17.866666848861">
        <ele>107.6</ele>
        <time>2018-01-14T12:57:38Z</time>
      </trkpt>
      <trkpt lat="62.647785337025" lon="17.866680762815">
        <ele>107.8</ele>
        <time>2018-01-14T12:57:39Z</time>
      </trkpt>
      <trkpt lat="62.647774608193" lon="17.866701047013">
        <ele>108.2</ele>
        <time>2018-01-14T12:57:40Z</time>
      </trkpt>
      <trkpt lat="62.647766561569" lon="17.866729461654">
        <ele>108.4</ele>
        <time>2018-01-14T12:57:41Z</time>
      </trkpt>
      <trkpt lat="62.647760861877" lon="17.866758043933">
        <ele>108.6</ele>
        <time>2018-01-14T12:57:42Z</time>
      </trkpt>
      <trkpt lat="62.647756084194" lon="17.866787129126">
        <ele>108.8</ele>
        <time>2018-01-14T12:57:43Z</time>
      </trkpt>
      <trkpt lat="62.647744600991" lon="17.866825937323">
        <ele>109</ele>
        <time>2018-01-14T12:57:44Z</time>
      </trkpt>
      <trkpt lat="62.647733620702" lon="17.86687815656">
        <ele>109.2</ele>
        <time>2018-01-14T12:57:45Z</time>
      </trkpt>
      <trkpt lat="62.647730351761" lon="17.866913528178">
        <ele>109.4</ele>
        <time>2018-01-14T12:57:46Z</time>
      </trkpt>
      <trkpt lat="62.647711492486" lon="17.866981002473">
        <ele>109.4</ele>
        <time>2018-01-14T12:57:47Z</time>
      </trkpt>
      <trkpt lat="62.64770277531" lon="17.867015368263">
        <ele>109.6</ele>
        <time>2018-01-14T12:57:48Z</time>
      </trkpt>
      <trkpt lat="62.647693052306" lon="17.86706423474">
        <ele>109.6</ele>
        <time>2018-01-14T12:57:49Z</time>
      </trkpt>
      <trkpt lat="62.647682407293" lon="17.867117627443">
        <ele>109.6</ele>
        <time>2018-01-14T12:57:50Z</time>
      </trkpt>
      <trkpt lat="62.647675366497" lon="17.867152915242">
        <ele>109.8</ele>
        <time>2018-01-14T12:57:51Z</time>
      </trkpt>
      <trkpt lat="62.647667655149" lon="17.867186107566">
        <ele>109.8</ele>
        <time>2018-01-14T12:57:52Z</time>
      </trkpt>
      <trkpt lat="62.647661368724" lon="17.86722013808">
        <ele>110</ele>
        <time>2018-01-14T12:57:53Z</time>
      </trkpt>
      <trkpt lat="62.64765667486" lon="17.867257605173">
        <ele>110.2</ele>
        <time>2018-01-14T12:57:54Z</time>
      </trkpt>
      <trkpt lat="62.647653657376" lon="17.867286187452">
        <ele>110.4</ele>
        <time>2018-01-14T12:57:55Z</time>
      </trkpt>
      <trkpt lat="62.647647119494" lon="17.867320888518">
        <ele>110.6</ele>
        <time>2018-01-14T12:57:56Z</time>
      </trkpt>
      <trkpt lat="62.647636893576" lon="17.867364725855">
        <ele>110.6</ele>
        <time>2018-01-14T12:57:57Z</time>
      </trkpt>
      <trkpt lat="62.647630020418" lon="17.867404623699">
        <ele>111</ele>
        <time>2018-01-14T12:57:58Z</time>
      </trkpt>
      <trkpt lat="62.647620967966" lon="17.867450724149">
        <ele>111.2</ele>
        <time>2018-01-14T12:57:59Z</time>
      </trkpt>
      <trkpt lat="62.647618285758" lon="17.867488777975">
        <ele>111.4</ele>
        <time>2018-01-14T12:58:00Z</time>
      </trkpt>
      <trkpt lat="62.647614346265" lon="17.867522473213">
        <ele>111.6</ele>
        <time>2018-01-14T12:58:01Z</time>
      </trkpt>
      <trkpt lat="62.647606132003" lon="17.867561029953">
        <ele>111.8</ele>
        <time>2018-01-14T12:58:02Z</time>
      </trkpt>
      <trkpt lat="62.647599929397" lon="17.867583577264">
        <ele>111.8</ele>
        <time>2018-01-14T12:58:03Z</time>
      </trkpt>
      <trkpt lat="62.647593559153" lon="17.86762414566">
        <ele>112</ele>
        <time>2018-01-14T12:58:04Z</time>
      </trkpt>
      <trkpt lat="62.647587524185" lon="17.867652727939">
        <ele>112.2</ele>
        <time>2018-01-14T12:58:05Z</time>
      </trkpt>
      <trkpt lat="62.647584506701" lon="17.867688937747">
        <ele>112.4</ele>
        <time>2018-01-14T12:58:06Z</time>
      </trkpt>
      <trkpt lat="62.647577801181" lon="17.867716765655">
        <ele>112.6</ele>
        <time>2018-01-14T12:58:07Z</time>
      </trkpt>
      <trkpt lat="62.647572939679" lon="17.867743503916">
        <ele>112.8</ele>
        <time>2018-01-14T12:58:08Z</time>
      </trkpt>
      <trkpt lat="62.647564976874" lon="17.867788347081">
        <ele>113</ele>
        <time>2018-01-14T12:58:09Z</time>
      </trkpt>
      <trkpt lat="62.647552990757" lon="17.867821036491">
        <ele>113</ele>
        <time>2018-01-14T12:58:10Z</time>
      </trkpt>
      <trkpt lat="62.647540920821" lon="17.867855234643">
        <ele>113.2</ele>
        <time>2018-01-14T12:58:11Z</time>
      </trkpt>
      <trkpt lat="62.647533125654" lon="17.867895048668">
        <ele>113.6</ele>
        <time>2018-01-14T12:58:12Z</time>
      </trkpt>
      <trkpt lat="62.647502196443" lon="17.867925810241">
        <ele>113.6</ele>
        <time>2018-01-14T12:58:13Z</time>
      </trkpt>
      <trkpt lat="62.647484426815" lon="17.867952632321">
        <ele>113.8</ele>
        <time>2018-01-14T12:58:14Z</time>
      </trkpt>
      <trkpt lat="62.647469423214" lon="17.867983477713">
        <ele>114</ele>
        <time>2018-01-14T12:58:15Z</time>
      </trkpt>
      <trkpt lat="62.647445283342" lon="17.867998313676">
        <ele>114</ele>
        <time>2018-01-14T12:58:16Z</time>
      </trkpt>
      <trkpt lat="62.647416030511" lon="17.868014406924">
        <ele>114.2</ele>
        <time>2018-01-14T12:58:17Z</time>
      </trkpt>
      <trkpt lat="62.647394572847" lon="17.868024968118">
        <ele>114.2</ele>
        <time>2018-01-14T12:58:18Z</time>
      </trkpt>
      <trkpt lat="62.647376132667" lon="17.868034104389">
        <ele>114.4</ele>
        <time>2018-01-14T12:58:19Z</time>
      </trkpt>
      <trkpt lat="62.647361464342" lon="17.868031841276">
        <ele>114.4</ele>
        <time>2018-01-14T12:58:20Z</time>
      </trkpt>
      <trkpt lat="62.647324583982" lon="17.868026225403">
        <ele>114.6</ele>
        <time>2018-01-14T12:58:21Z</time>
      </trkpt>
      <trkpt lat="62.647313436055" lon="17.868026393041">
        <ele>114.8</ele>
        <time>2018-01-14T12:58:22Z</time>
      </trkpt>
      <trkpt lat="62.647288625631" lon="17.868007282309">
        <ele>114.8</ele>
        <time>2018-01-14T12:58:23Z</time>
      </trkpt>
      <trkpt lat="62.647263731388" lon="17.867984818817">
        <ele>115</ele>
        <time>2018-01-14T12:58:24Z</time>
      </trkpt>
      <trkpt lat="62.647247051407" lon="17.867970988682">
        <ele>115.2</ele>
        <time>2018-01-14T12:58:25Z</time>
      </trkpt>
      <trkpt lat="62.647227605399" lon="17.867953973425">
        <ele>115.2</ele>
        <time>2018-01-14T12:58:26Z</time>
      </trkpt>
      <trkpt lat="62.647204471355" lon="17.867925474965">
        <ele>115.2</ele>
        <time>2018-01-14T12:58:27Z</time>
      </trkpt>
      <trkpt lat="62.647182929872" lon="17.867892031184">
        <ele>115.2</ele>
        <time>2018-01-14T12:58:28Z</time>
      </trkpt>
      <trkpt lat="62.647165076425" lon="17.867852384797">
        <ele>115</ele>
        <time>2018-01-14T12:58:29Z</time>
      </trkpt>
      <trkpt lat="62.647151916842" lon="17.867804188872">
        <ele>115.2</ele>
        <time>2018-01-14T12:58:30Z</time>
      </trkpt>
      <trkpt lat="62.647128531341" lon="17.867756412042">
        <ele>115.2</ele>
        <time>2018-01-14T12:58:31Z</time>
      </trkpt>
      <trkpt lat="62.647107492772" lon="17.867702432606">
        <ele>115.4</ele>
        <time>2018-01-14T12:58:32Z</time>
      </trkpt>
      <trkpt lat="62.647099194691" lon="17.86766605516">
        <ele>115.6</ele>
        <time>2018-01-14T12:58:33Z</time>
      </trkpt>
      <trkpt lat="62.647073210801" lon="17.867618613606">
        <ele>115.8</ele>
        <time>2018-01-14T12:58:34Z</time>
      </trkpt>
      <trkpt lat="62.647047394549" lon="17.867589444594">
        <ele>115.8</ele>
        <time>2018-01-14T12:58:35Z</time>
      </trkpt>
      <trkpt lat="62.647031468939" lon="17.867552145139">
        <ele>115.8</ele>
        <time>2018-01-14T12:58:36Z</time>
      </trkpt>
      <trkpt lat="62.647007748162" lon="17.867527586172">
        <ele>115.8</ele>
        <time>2018-01-14T12:58:37Z</time>
      </trkpt>
      <trkpt lat="62.646988134516" lon="17.867493220382">
        <ele>115.8</ele>
        <time>2018-01-14T12:58:38Z</time>
      </trkpt>
      <trkpt lat="62.646975310209" lon="17.86744142024">
        <ele>116</ele>
        <time>2018-01-14T12:58:39Z</time>
      </trkpt>
      <trkpt lat="62.646951589432" lon="17.867375957601">
        <ele>116</ele>
        <time>2018-01-14T12:58:40Z</time>
      </trkpt>
      <trkpt lat="62.646949074862" lon="17.867327761676">
        <ele>116</ele>
        <time>2018-01-14T12:58:41Z</time>
      </trkpt>
      <trkpt lat="62.646936082917" lon="17.86729557518">
        <ele>116.2</ele>
        <time>2018-01-14T12:58:42Z</time>
      </trkpt>
      <trkpt lat="62.646914792891" lon="17.867228184704">
        <ele>116.4</ele>
        <time>2018-01-14T12:58:43Z</time>
      </trkpt>
      <trkpt lat="62.646895765978" lon="17.867193483638">
        <ele>116.4</ele>
        <time>2018-01-14T12:58:44Z</time>
      </trkpt>
      <trkpt lat="62.646882019662" lon="17.867149143387">
        <ele>116.4</ele>
        <time>2018-01-14T12:58:45Z</time>
      </trkpt>
      <trkpt lat="62.646864333853" lon="17.867073873925">
        <ele>117</ele>
        <time>2018-01-14T12:58:46Z</time>
      </trkpt>
      <trkpt lat="62.646853521202" lon="17.867018553385">
        <ele>117</ele>
        <time>2018-01-14T12:58:47Z</time>
      </trkpt>
      <trkpt lat="62.64684111599" lon="17.866965831234">
        <ele>117</ele>
        <time>2018-01-14T12:58:48Z</time>
      </trkpt>
      <trkpt lat="62.646836170669" lon="17.866898021663">
        <ele>117</ele>
        <time>2018-01-14T12:58:49Z</time>
      </trkpt>
      <trkpt lat="62.646823514" lon="17.866805317849">
        <ele>116.8</ele>
        <time>2018-01-14T12:58:50Z</time>
      </trkpt>
      <trkpt lat="62.64681429391" lon="17.866739436115">
        <ele>117</ele>
        <time>2018-01-14T12:58:51Z</time>
      </trkpt>
      <trkpt lat="62.646814629186" lon="17.866684702308">
        <ele>116.8</ele>
        <time>2018-01-14T12:58:52Z</time>
      </trkpt>
      <trkpt lat="62.646811611702" lon="17.866605996267">
        <ele>116.8</ele>
        <time>2018-01-14T12:58:53Z</time>
      </trkpt>
      <trkpt lat="62.646810438236" lon="17.866532487004">
        <ele>116.8</ele>
        <time>2018-01-14T12:58:54Z</time>
      </trkpt>
      <trkpt lat="62.646808761856" lon="17.86644565052">
        <ele>116.8</ele>
        <time>2018-01-14T12:58:55Z</time>
      </trkpt>
      <trkpt lat="62.646802307793" lon="17.866382283356">
        <ele>116.8</ele>
        <time>2018-01-14T12:58:56Z</time>
      </trkpt>
      <trkpt lat="62.646802978345" lon="17.866306091885">
        <ele>116.8</ele>
        <time>2018-01-14T12:58:57Z</time>
      </trkpt>
      <trkpt lat="62.646804738544" lon="17.866220345048">
        <ele>116.6</ele>
        <time>2018-01-14T12:58:58Z</time>
      </trkpt>
      <trkpt lat="62.646800128499" lon="17.866135436401">
        <ele>116.4</ele>
        <time>2018-01-14T12:58:59Z</time>
      </trkpt>
      <trkpt lat="62.646791998056" lon="17.866084725906">
        <ele>116.2</ele>
        <time>2018-01-14T12:59:00Z</time>
      </trkpt>
      <trkpt lat="62.646779676663" lon="17.866010294634">
        <ele>116.2</ele>
        <time>2018-01-14T12:59:01Z</time>
      </trkpt>
      <trkpt lat="62.646775569532" lon="17.865945670185">
        <ele>116</ele>
        <time>2018-01-14T12:59:02Z</time>
      </trkpt>
      <trkpt lat="62.646759392465" lon="17.865887835075">
        <ele>116</ele>
        <time>2018-01-14T12:59:03Z</time>
      </trkpt>
      <trkpt lat="62.6467480769" lon="17.865823629721">
        <ele>116</ele>
        <time>2018-01-14T12:59:04Z</time>
      </trkpt>
      <trkpt lat="62.64673298948" lon="17.865759843462">
        <ele>116</ele>
        <time>2018-01-14T12:59:05Z</time>
      </trkpt>
      <trkpt lat="62.646717147689" lon="17.86569882323">
        <ele>115.8</ele>
        <time>2018-01-14T12:59:06Z</time>
      </trkpt>
      <trkpt lat="62.646712202368" lon="17.865626403614">
        <ele>116</ele>
        <time>2018-01-14T12:59:07Z</time>
      </trkpt>
      <trkpt lat="62.646697617862" lon="17.865573765282">
        <ele>115.8</ele>
        <time>2018-01-14T12:59:08Z</time>
      </trkpt>
      <trkpt lat="62.646672807438" lon="17.865528000108">
        <ele>115.8</ele>
        <time>2018-01-14T12:59:09Z</time>
      </trkpt>
      <trkpt lat="62.646652858516" lon="17.86547418831">
        <ele>115.8</ele>
        <time>2018-01-14T12:59:10Z</time>
      </trkpt>
      <trkpt lat="62.646632155223" lon="17.865419789779">
        <ele>115.8</ele>
        <time>2018-01-14T12:59:11Z</time>
      </trkpt>
      <trkpt lat="62.646614469414" lon="17.865377209727">
        <ele>115.8</ele>
        <time>2018-01-14T12:59:12Z</time>
      </trkpt>
      <trkpt lat="62.646586473868" lon="17.865314513115">
        <ele>116</ele>
        <time>2018-01-14T12:59:13Z</time>
      </trkpt>
      <trkpt lat="62.646565435299" lon="17.865273274167">
        <ele>115.6</ele>
        <time>2018-01-14T12:59:14Z</time>
      </trkpt>
      <trkpt lat="62.64654272035" lon="17.865238405463">
        <ele>115.6</ele>
        <time>2018-01-14T12:59:15Z</time>
      </trkpt>
      <trkpt lat="62.646508270741" lon="17.865185515674">
        <ele>115.4</ele>
        <time>2018-01-14T12:59:16Z</time>
      </trkpt>
      <trkpt lat="62.646486142525" lon="17.865150563151">
        <ele>115.2</ele>
        <time>2018-01-14T12:59:17Z</time>
      </trkpt>
      <trkpt lat="62.646466277422" lon="17.86512633946">
        <ele>115.2</ele>
        <time>2018-01-14T12:59:18Z</time>
      </trkpt>
      <trkpt lat="62.646447921061" lon="17.865091806032">
        <ele>115.2</ele>
        <time>2018-01-14T12:59:19Z</time>
      </trkpt>
      <trkpt lat="62.646430067614" lon="17.86505006417">
        <ele>115.2</ele>
        <time>2018-01-14T12:59:20Z</time>
      </trkpt>
      <trkpt lat="62.646414561099" lon="17.865026343393">
        <ele>115.6</ele>
        <time>2018-01-14T12:59:21Z</time>
      </trkpt>
      <trkpt lat="62.646382374603" lon="17.864980997314">
        <ele>115.6</ele>
        <time>2018-01-14T12:59:22Z</time>
      </trkpt>
      <trkpt lat="62.646364102061" lon="17.864968592102">
        <ele>115.6</ele>
        <time>2018-01-14T12:59:23Z</time>
      </trkpt>
      <trkpt lat="62.646338872542" lon="17.864922910747">
        <ele>115.8</ele>
        <time>2018-01-14T12:59:24Z</time>
      </trkpt>
      <trkpt lat="62.646316660507" lon="17.864892735907">
        <ele>115.8</ele>
        <time>2018-01-14T12:59:25Z</time>
      </trkpt>
      <trkpt lat="62.646288162047" lon="17.864858370117">
        <ele>115.6</ele>
        <time>2018-01-14T12:59:26Z</time>
      </trkpt>
      <trkpt lat="62.646259328311" lon="17.864833224417">
        <ele>115.6</ele>
        <time>2018-01-14T12:59:27Z</time>
      </trkpt>
      <trkpt lat="62.646252203696" lon="17.864809587459">
        <ele>115.6</ele>
        <time>2018-01-14T12:59:28Z</time>
      </trkpt>
      <trkpt lat="62.646218676096" lon="17.864789722356">
        <ele>115.6</ele>
        <time>2018-01-14T12:59:29Z</time>
      </trkpt>
      <trkpt lat="62.646185902867" lon="17.864781424275">
        <ele>115.6</ele>
        <time>2018-01-14T12:59:30Z</time>
      </trkpt>
      <trkpt lat="62.64615631476" lon="17.86478519613">
        <ele>115.4</ele>
        <time>2018-01-14T12:59:31Z</time>
      </trkpt>
      <trkpt lat="62.646114321441" lon="17.864793661849">
        <ele>115.4</ele>
        <time>2018-01-14T12:59:32Z</time>
      </trkpt>
      <trkpt lat="62.646091355035" lon="17.864826015983">
        <ele>115.6</ele>
        <time>2018-01-14T12:59:33Z</time>
      </trkpt>
      <trkpt lat="62.646068220991" lon="17.864879576324">
        <ele>115.6</ele>
        <time>2018-01-14T12:59:34Z</time>
      </trkpt>
      <trkpt lat="62.646048272069" lon="17.864931208828">
        <ele>115.4</ele>
        <time>2018-01-14T12:59:35Z</time>
      </trkpt>
      <trkpt lat="62.646022791093" lon="17.86499474363">
        <ele>115.4</ele>
        <time>2018-01-14T12:59:36Z</time>
      </trkpt>
      <trkpt lat="62.645997729212" lon="17.865070348368">
        <ele>115.2</ele>
        <time>2018-01-14T12:59:37Z</time>
      </trkpt>
      <trkpt lat="62.645971410046" lon="17.865136984473">
        <ele>114.6</ele>
        <time>2018-01-14T12:59:38Z</time>
      </trkpt>
      <trkpt lat="62.645937211894" lon="17.865216277247">
        <ele>114.2</ele>
        <time>2018-01-14T12:59:39Z</time>
      </trkpt>
      <trkpt lat="62.645896559679" lon="17.865294564193">
        <ele>113.8</ele>
        <time>2018-01-14T12:59:40Z</time>
      </trkpt>
      <trkpt lat="62.645853560532" lon="17.86536941456">
        <ele>113.4</ele>
        <time>2018-01-14T12:59:41Z</time>
      </trkpt>
      <trkpt lat="62.645812489222" lon="17.865442588547">
        <ele>113</ele>
        <time>2018-01-14T12:59:42Z</time>
      </trkpt>
      <trkpt lat="62.645776279414" lon="17.865506123349">
        <ele>112.6</ele>
        <time>2018-01-14T12:59:43Z</time>
      </trkpt>
      <trkpt lat="62.645730262783" lon="17.865587846874">
        <ele>112.2</ele>
        <time>2018-01-14T12:59:44Z</time>
      </trkpt>
      <trkpt lat="62.64568860474" lon="17.865663786888">
        <ele>111.6</ele>
        <time>2018-01-14T12:59:45Z</time>
      </trkpt>
      <trkpt lat="62.64564418067" lon="17.865747857345">
        <ele>111.2</ele>
        <time>2018-01-14T12:59:46Z</time>
      </trkpt>
      <trkpt lat="62.645604534283" lon="17.865836956942">
        <ele>110.6</ele>
        <time>2018-01-14T12:59:47Z</time>
      </trkpt>
      <trkpt lat="62.645568073018" lon="17.865923541969">
        <ele>110</ele>
        <time>2018-01-14T12:59:48Z</time>
      </trkpt>
      <trkpt lat="62.645527420803" lon="17.866018844172">
        <ele>109.4</ele>
        <time>2018-01-14T12:59:49Z</time>
      </trkpt>
      <trkpt lat="62.645487942054" lon="17.866111045072">
        <ele>108.8</ele>
        <time>2018-01-14T12:59:50Z</time>
      </trkpt>
      <trkpt lat="62.64545055878" lon="17.866190924579">
        <ele>108.2</ele>
        <time>2018-01-14T12:59:51Z</time>
      </trkpt>
      <trkpt lat="62.645409068375" lon="17.866277928701">
        <ele>107.6</ele>
        <time>2018-01-14T12:59:52Z</time>
      </trkpt>
      <trkpt lat="62.64536422521" lon="17.866352695249">
        <ele>107</ele>
        <time>2018-01-14T12:59:53Z</time>
      </trkpt>
      <trkpt lat="62.64531225743" lon="17.866431317471">
        <ele>106.4</ele>
        <time>2018-01-14T12:59:54Z</time>
      </trkpt>
      <trkpt lat="62.645257020709" lon="17.866522261086">
        <ele>105.6</ele>
        <time>2018-01-14T12:59:55Z</time>
      </trkpt>
      <trkpt lat="62.645206561671" lon="17.866615551633">
        <ele>105</ele>
        <time>2018-01-14T12:59:56Z</time>
      </trkpt>
      <trkpt lat="62.645166496189" lon="17.866704315954">
        <ele>104.8</ele>
        <time>2018-01-14T12:59:57Z</time>
      </trkpt>
      <trkpt lat="62.645121820662" lon="17.86680523403">
        <ele>104</ele>
        <time>2018-01-14T12:59:58Z</time>
      </trkpt>
      <trkpt lat="62.645075636393" lon="17.866926017209">
        <ele>103</ele>
        <time>2018-01-14T12:59:59Z</time>
      </trkpt>
      <trkpt lat="62.645036660558" lon="17.867058535048">
        <ele>102</ele>
        <time>2018-01-14T13:00:00Z</time>
      </trkpt>
      <trkpt lat="62.64500547989" lon="17.867202200814">
        <ele>100.8</ele>
        <time>2018-01-14T13:00:01Z</time>
      </trkpt>
      <trkpt lat="62.64497195229" lon="17.867367910977">
        <ele>99.2</ele>
        <time>2018-01-14T13:00:02Z</time>
      </trkpt>
      <trkpt lat="62.644941609812" lon="17.86749925535">
        <ele>98.4</ele>
        <time>2018-01-14T13:00:03Z</time>
      </trkpt>
      <trkpt lat="62.644902969253" lon="17.867658846726">
        <ele>97.2</ele>
        <time>2018-01-14T13:00:04Z</time>
      </trkpt>
      <trkpt lat="62.644863071409" lon="17.867811145849">
        <ele>96.2</ele>
        <time>2018-01-14T13:00:05Z</time>
      </trkpt>
      <trkpt lat="62.644824095574" lon="17.867953135235">
        <ele>95.4</ele>
        <time>2018-01-14T13:00:06Z</time>
      </trkpt>
      <trkpt lat="62.644787885766" lon="17.86807090093">
        <ele>94.6</ele>
        <time>2018-01-14T13:00:07Z</time>
      </trkpt>
      <trkpt lat="62.644765506093" lon="17.868172657196">
        <ele>93.8</ele>
        <time>2018-01-14T13:00:08Z</time>
      </trkpt>
      <trkpt lat="62.644745808628" lon="17.868279358783">
        <ele>93.6</ele>
        <time>2018-01-14T13:00:09Z</time>
      </trkpt>
      <trkpt lat="62.644730218294" lon="17.868397878849">
        <ele>93.4</ele>
        <time>2018-01-14T13:00:10Z</time>
      </trkpt>
      <trkpt lat="62.6447112752" lon="17.868516063639">
        <ele>93.4</ele>
        <time>2018-01-14T13:00:11Z</time>
      </trkpt>
      <trkpt lat="62.644708425354" lon="17.868602648666">
        <ele>93.8</ele>
        <time>2018-01-14T13:00:12Z</time>
      </trkpt>
      <trkpt lat="62.644700211092" lon="17.86870960171">
        <ele>94.4</ele>
        <time>2018-01-14T13:00:13Z</time>
      </trkpt>
      <trkpt lat="62.644687386785" lon="17.868805490646">
        <ele>94.6</ele>
        <time>2018-01-14T13:00:14Z</time>
      </trkpt>
      <trkpt lat="62.644693254115" lon="17.868875060416">
        <ele>95</ele>
        <time>2018-01-14T13:00:15Z</time>
      </trkpt>
      <trkpt lat="62.644681435636" lon="17.868979582709">
        <ele>95.2</ele>
        <time>2018-01-14T13:00:16Z</time>
      </trkpt>
      <trkpt lat="62.6446777476" lon="17.869059881311">
        <ele>95.2</ele>
        <time>2018-01-14T13:00:17Z</time>
      </trkpt>
      <trkpt lat="62.64468193855" lon="17.869136324239">
        <ele>95.4</ele>
        <time>2018-01-14T13:00:18Z</time>
      </trkpt>
      <trkpt lat="62.644685375129" lon="17.86922425037">
        <ele>95.4</ele>
        <time>2018-01-14T13:00:19Z</time>
      </trkpt>
      <trkpt lat="62.644682525283" lon="17.869304632791">
        <ele>95.2</ele>
        <time>2018-01-14T13:00:20Z</time>
      </trkpt>
      <trkpt lat="62.644677915238" lon="17.869367497041">
        <ele>95.4</ele>
        <time>2018-01-14T13:00:21Z</time>
      </trkpt>
      <trkpt lat="62.644666767311" lon="17.869457351009">
        <ele>95.2</ele>
        <time>2018-01-14T13:00:22Z</time>
      </trkpt>
      <trkpt lat="62.644664420379" lon="17.869549048995">
        <ele>95</ele>
        <time>2018-01-14T13:00:23Z</time>
      </trkpt>
      <trkpt lat="62.644654026823" lon="17.869645692302">
        <ele>95</ele>
        <time>2018-01-14T13:00:24Z</time>
      </trkpt>
      <trkpt lat="62.64464254362" lon="17.869732361148">
        <ele>94.8</ele>
        <time>2018-01-14T13:00:25Z</time>
      </trkpt>
      <trkpt lat="62.644639693774" lon="17.869817437433">
        <ele>94.6</ele>
        <time>2018-01-14T13:00:26Z</time>
      </trkpt>
      <trkpt lat="62.644628042933" lon="17.869923887563">
        <ele>94.4</ele>
        <time>2018-01-14T13:00:27Z</time>
      </trkpt>
      <trkpt lat="62.644620247766" lon="17.870017932481">
        <ele>94</ele>
        <time>2018-01-14T13:00:28Z</time>
      </trkpt>
      <trkpt lat="62.644618319929" lon="17.870126478086">
        <ele>94</ele>
        <time>2018-01-14T13:00:29Z</time>
      </trkpt>
      <trkpt lat="62.644610943857" lon="17.870219600995">
        <ele>93.8</ele>
        <time>2018-01-14T13:00:30Z</time>
      </trkpt>
      <trkpt lat="62.644610524762" lon="17.870308784411">
        <ele>93.6</ele>
        <time>2018-01-14T13:00:31Z</time>
      </trkpt>
      <trkpt lat="62.644605747079" lon="17.87041615655">
        <ele>93.4</ele>
        <time>2018-01-14T13:00:32Z</time>
      </trkpt>
      <trkpt lat="62.644594263876" lon="17.870498047713">
        <ele>93.2</ele>
        <time>2018-01-14T13:00:33Z</time>
      </trkpt>
      <trkpt lat="62.644595102066" lon="17.870595948305">
        <ele>93.2</ele>
        <time>2018-01-14T13:00:34Z</time>
      </trkpt>
      <trkpt lat="62.644590072926" lon="17.870715977113">
        <ele>92.8</ele>
        <time>2018-01-14T13:00:35Z</time>
      </trkpt>
      <trkpt lat="62.644576158972" lon="17.870838269034">
        <ele>92.4</ele>
        <time>2018-01-14T13:00:36Z</time>
      </trkpt>
      <trkpt lat="62.644567777072" lon="17.870958968394">
        <ele>92</ele>
        <time>2018-01-14T13:00:37Z</time>
      </trkpt>
      <trkpt lat="62.644563837579" lon="17.871062317221">
        <ele>91.2</ele>
        <time>2018-01-14T13:00:38Z</time>
      </trkpt>
      <trkpt lat="62.644554366032" lon="17.871174634681">
        <ele>90.8</ele>
        <time>2018-01-14T13:00:39Z</time>
      </trkpt>
      <trkpt lat="62.644546067951" lon="17.871305140864">
        <ele>90</ele>
        <time>2018-01-14T13:00:40Z</time>
      </trkpt>
      <trkpt lat="62.644532656911" lon="17.871407902958">
        <ele>89.2</ele>
        <time>2018-01-14T13:00:41Z</time>
      </trkpt>
      <trkpt lat="62.644522933907" lon="17.871515694192">
        <ele>89</ele>
        <time>2018-01-14T13:00:42Z</time>
      </trkpt>
      <trkpt lat="62.644521508984" lon="17.871580234822">
        <ele>89.2</ele>
        <time>2018-01-14T13:00:43Z</time>
      </trkpt>
      <trkpt lat="62.644511366885" lon="17.871682158726">
        <ele>89.2</ele>
        <time>2018-01-14T13:00:44Z</time>
      </trkpt>
      <trkpt lat="62.644495105999" lon="17.871766564459">
        <ele>89.4</ele>
        <time>2018-01-14T13:00:45Z</time>
      </trkpt>
      <trkpt lat="62.64448161114" lon="17.871851556925">
        <ele>89.8</ele>
        <time>2018-01-14T13:00:46Z</time>
      </trkpt>
      <trkpt lat="62.644468703014" lon="17.871943254911">
        <ele>90</ele>
        <time>2018-01-14T13:00:47Z</time>
      </trkpt>
      <trkpt lat="62.644454118508" lon="17.872016596536">
        <ele>89.8</ele>
        <time>2018-01-14T13:00:48Z</time>
      </trkpt>
      <trkpt lat="62.644433079939" lon="17.872101924278">
        <ele>89.6</ele>
        <time>2018-01-14T13:00:49Z</time>
      </trkpt>
      <trkpt lat="62.644414053026" lon="17.872182725794">
        <ele>89.6</ele>
        <time>2018-01-14T13:00:50Z</time>
      </trkpt>
      <trkpt lat="62.644402066909" lon="17.872254139582">
        <ele>89.4</ele>
        <time>2018-01-14T13:00:51Z</time>
      </trkpt>
      <trkpt lat="62.644388655869" lon="17.872354387106">
        <ele>89.2</ele>
        <time>2018-01-14T13:00:52Z</time>
      </trkpt>
      <trkpt lat="62.644367365843" lon="17.872433344604">
        <ele>89.2</ele>
        <time>2018-01-14T13:00:53Z</time>
      </trkpt>
      <trkpt lat="62.644343142152" lon="17.872529484997">
        <ele>89.2</ele>
        <time>2018-01-14T13:00:54Z</time>
      </trkpt>
      <trkpt lat="62.644328557646" lon="17.872620260974">
        <ele>89</ele>
        <time>2018-01-14T13:00:55Z</time>
      </trkpt>
      <trkpt lat="62.644308357267" lon="17.872712880969">
        <ele>89</ele>
        <time>2018-01-14T13:00:56Z</time>
      </trkpt>
      <trkpt lat="62.644282373377" lon="17.872791251734">
        <ele>89</ele>
        <time>2018-01-14T13:00:57Z</time>
      </trkpt>
      <trkpt lat="62.644264603749" lon="17.872873645811">
        <ele>88.8</ele>
        <time>2018-01-14T13:00:58Z</time>
      </trkpt>
      <trkpt lat="62.64424607975" lon="17.87297347424">
        <ele>88.8</ele>
        <time>2018-01-14T13:00:59Z</time>
      </trkpt>
      <trkpt lat="62.644234764185" lon="17.873077828895">
        <ele>88.6</ele>
        <time>2018-01-14T13:01:00Z</time>
      </trkpt>
      <trkpt lat="62.644222191335" lon="17.873184949577">
        <ele>88.6</ele>
        <time>2018-01-14T13:01:01Z</time>
      </trkpt>
      <trkpt lat="62.644205343716" lon="17.8732869573">
        <ele>88.4</ele>
        <time>2018-01-14T13:01:02Z</time>
      </trkpt>
      <trkpt lat="62.644193776694" lon="17.873392653059">
        <ele>88.4</ele>
        <time>2018-01-14T13:01:03Z</time>
      </trkpt>
      <trkpt lat="62.644162009293" lon="17.873506898356">
        <ele>88</ele>
        <time>2018-01-14T13:01:04Z</time>
      </trkpt>
      <trkpt lat="62.644149604081" lon="17.873638745643">
        <ele>87.8</ele>
        <time>2018-01-14T13:01:05Z</time>
      </trkpt>
      <trkpt lat="62.644123620191" lon="17.873740082814">
        <ele>87.4</ele>
        <time>2018-01-14T13:01:06Z</time>
      </trkpt>
      <trkpt lat="62.644102413984" lon="17.873851142989">
        <ele>87</ele>
        <time>2018-01-14T13:01:07Z</time>
      </trkpt>
      <trkpt lat="62.644084476718" lon="17.873936303093">
        <ele>86.4</ele>
        <time>2018-01-14T13:01:08Z</time>
      </trkpt>
      <trkpt lat="62.64406251614" lon="17.874034958056">
        <ele>86</ele>
        <time>2018-01-14T13:01:09Z</time>
      </trkpt>
      <trkpt lat="62.644035945517" lon="17.874148784258">
        <ele>85.6</ele>
        <time>2018-01-14T13:01:10Z</time>
      </trkpt>
      <trkpt lat="62.64402060664" lon="17.874229250498">
        <ele>85.4</ele>
        <time>2018-01-14T13:01:11Z</time>
      </trkpt>
      <trkpt lat="62.643989006877" lon="17.874330084755">
        <ele>85.2</ele>
        <time>2018-01-14T13:01:12Z</time>
      </trkpt>
      <trkpt lat="62.643959754046" lon="17.874421196008">
        <ele>85</ele>
        <time>2018-01-14T13:01:13Z</time>
      </trkpt>
      <trkpt lat="62.643933099604" lon="17.874525299206">
        <ele>85</ele>
        <time>2018-01-14T13:01:14Z</time>
      </trkpt>
      <trkpt lat="62.643919437107" lon="17.874632922802">
        <ele>84.6</ele>
        <time>2018-01-14T13:01:15Z</time>
      </trkpt>
      <trkpt lat="62.643896303063" lon="17.874739624389">
        <ele>84.6</ele>
        <time>2018-01-14T13:01:16Z</time>
      </trkpt>
      <trkpt lat="62.643874845399" lon="17.874847750899">
        <ele>84.4</ele>
        <time>2018-01-14T13:01:17Z</time>
      </trkpt>
      <trkpt lat="62.643856489038" lon="17.874949674803">
        <ele>84</ele>
        <time>2018-01-14T13:01:18Z</time>
      </trkpt>
      <trkpt lat="62.643840144333" lon="17.875041037513">
        <ele>83.8</ele>
        <time>2018-01-14T13:01:19Z</time>
      </trkpt>
      <trkpt lat="62.643825476008" lon="17.875146984729">
        <ele>83.6</ele>
        <time>2018-01-14T13:01:20Z</time>
      </trkpt>
      <trkpt lat="62.643816255918" lon="17.875235246136">
        <ele>83</ele>
        <time>2018-01-14T13:01:21Z</time>
      </trkpt>
      <trkpt lat="62.643796223177" lon="17.875332057081">
        <ele>82.8</ele>
        <time>2018-01-14T13:01:22Z</time>
      </trkpt>
      <trkpt lat="62.64378423706" lon="17.875427526922">
        <ele>82.6</ele>
        <time>2018-01-14T13:01:23Z</time>
      </trkpt>
      <trkpt lat="62.643771245115" lon="17.875501622918">
        <ele>82.4</ele>
        <time>2018-01-14T13:01:24Z</time>
      </trkpt>
      <trkpt lat="62.643753140211" lon="17.87560706722">
        <ele>82.4</ele>
        <time>2018-01-14T13:01:25Z</time>
      </trkpt>
      <trkpt lat="62.643742243741" lon="17.875697005007">
        <ele>82.2</ele>
        <time>2018-01-14T13:01:26Z</time>
      </trkpt>
      <trkpt lat="62.643733191289" lon="17.875768418795">
        <ele>82.4</ele>
        <time>2018-01-14T13:01:27Z</time>
      </trkpt>
      <trkpt lat="62.643717600955" lon="17.875865565016">
        <ele>82.4</ele>
        <time>2018-01-14T13:01:28Z</time>
      </trkpt>
      <trkpt lat="62.643708716141" lon="17.875964639074">
        <ele>82.2</ele>
        <time>2018-01-14T13:01:29Z</time>
      </trkpt>
      <trkpt lat="62.64369119797" lon="17.876046530237">
        <ele>82.2</ele>
        <time>2018-01-14T13:01:30Z</time>
      </trkpt>
      <trkpt lat="62.643678038387" lon="17.876133953454">
        <ele>82</ele>
        <time>2018-01-14T13:01:31Z</time>
      </trkpt>
      <trkpt lat="62.643663034786" lon="17.876208133269">
        <ele>81.8</ele>
        <time>2018-01-14T13:01:32Z</time>
      </trkpt>
      <trkpt lat="62.643648869375" lon="17.876290024432">
        <ele>81.8</ele>
        <time>2018-01-14T13:01:33Z</time>
      </trkpt>
      <trkpt lat="62.643638727276" lon="17.876379794581">
        <ele>81.6</ele>
        <time>2018-01-14T13:01:34Z</time>
      </trkpt>
      <trkpt lat="62.643625986788" lon="17.876457746251">
        <ele>81.4</ele>
        <time>2018-01-14T13:01:35Z</time>
      </trkpt>
      <trkpt lat="62.643619281268" lon="17.876541565251">
        <ele>81.4</ele>
        <time>2018-01-14T13:01:36Z</time>
      </trkpt>
      <trkpt lat="62.643608384798" lon="17.876618008179">
        <ele>81.2</ele>
        <time>2018-01-14T13:01:37Z</time>
      </trkpt>
      <trkpt lat="62.643586340401" lon="17.87669419965">
        <ele>81.2</ele>
        <time>2018-01-14T13:01:38Z</time>
      </trkpt>
      <trkpt lat="62.643563122538" lon="17.876763434144">
        <ele>81.2</ele>
        <time>2018-01-14T13:01:39Z</time>
      </trkpt>
      <trkpt lat="62.643518027916" lon="17.876823113272">
        <ele>81</ele>
        <time>2018-01-14T13:01:40Z</time>
      </trkpt>
      <trkpt lat="62.643474777312" lon="17.87687692507">
        <ele>81</ele>
        <time>2018-01-14T13:01:41Z</time>
      </trkpt>
      <trkpt lat="62.643433454545" lon="17.876895197612">
        <ele>80.8</ele>
        <time>2018-01-14T13:01:42Z</time>
      </trkpt>
      <trkpt lat="62.643390036303" lon="17.876902238408">
        <ele>80.8</ele>
        <time>2018-01-14T13:01:43Z</time>
      </trkpt>
      <trkpt lat="62.643354413228" lon="17.876921935873">
        <ele>80.6</ele>
        <time>2018-01-14T13:01:44Z</time>
      </trkpt>
      <trkpt lat="62.643311749357" lon="17.876913302516">
        <ele>80.4</ele>
        <time>2018-01-14T13:01:45Z</time>
      </trkpt>
      <trkpt lat="62.643269336943" lon="17.876909363023">
        <ele>80</ele>
        <time>2018-01-14T13:01:46Z</time>
      </trkpt>
      <trkpt lat="62.643244023605" lon="17.876899891476">
        <ele>79.8</ele>
        <time>2018-01-14T13:01:47Z</time>
      </trkpt>
      <trkpt lat="62.643207813797" lon="17.876888492092">
        <ele>79.8</ele>
        <time>2018-01-14T13:01:48Z</time>
      </trkpt>
      <trkpt lat="62.643175962577" lon="17.876886564255">
        <ele>79.8</ele>
        <time>2018-01-14T13:01:49Z</time>
      </trkpt>
      <trkpt lat="62.643144949547" lon="17.876875332509">
        <ele>80</ele>
        <time>2018-01-14T13:01:50Z</time>
      </trkpt>
      <trkpt lat="62.643118965657" lon="17.876868124075">
        <ele>80</ele>
        <time>2018-01-14T13:01:51Z</time>
      </trkpt>
      <trkpt lat="62.643126341729" lon="17.876865609505">
        <ele>80</ele>
        <time>2018-01-14T13:01:52Z</time>
      </trkpt>
      <trkpt lat="62.643094490509" lon="17.876852533741">
        <ele>80</ele>
        <time>2018-01-14T13:01:53Z</time>
      </trkpt>
      <trkpt lat="62.64303824796" lon="17.876830740801">
        <ele>80</ele>
        <time>2018-01-14T13:01:54Z</time>
      </trkpt>
      <trkpt lat="62.642994494442" lon="17.876818419408">
        <ele>80</ele>
        <time>2018-01-14T13:01:55Z</time>
      </trkpt>
      <trkpt lat="62.642954596598" lon="17.876799476314">
        <ele>80</ele>
        <time>2018-01-14T13:01:56Z</time>
      </trkpt>
      <trkpt lat="62.642926852509" lon="17.876781958143">
        <ele>80</ele>
        <time>2018-01-14T13:01:57Z</time>
      </trkpt>
      <trkpt lat="62.642909250519" lon="17.876769804388">
        <ele>80</ele>
        <time>2018-01-14T13:01:58Z</time>
      </trkpt>
      <trkpt lat="62.642889469235" lon="17.876763434144">
        <ele>80.2</ele>
        <time>2018-01-14T13:01:59Z</time>
      </trkpt>
      <trkpt lat="62.642872202521" lon="17.876764523791">
        <ele>80.4</ele>
        <time>2018-01-14T13:02:00Z</time>
      </trkpt>
      <trkpt lat="62.642859545852" lon="17.876764859067">
        <ele>80.8</ele>
        <time>2018-01-14T13:02:01Z</time>
      </trkpt>
      <trkpt lat="62.642840351301" lon="17.87676376942">
        <ele>81</ele>
        <time>2018-01-14T13:02:02Z</time>
      </trkpt>
      <trkpt lat="62.64282618589" lon="17.876765697257">
        <ele>81.2</ele>
        <time>2018-01-14T13:02:03Z</time>
      </trkpt>
      <trkpt lat="62.64280774571" lon="17.876769888207">
        <ele>81.4</ele>
        <time>2018-01-14T13:02:04Z</time>
      </trkpt>
      <trkpt lat="62.642793831756" lon="17.876774246795">
        <ele>81.6</ele>
        <time>2018-01-14T13:02:05Z</time>
      </trkpt>
      <trkpt lat="62.642775140119" lon="17.876775839356">
        <ele>81.8</ele>
        <time>2018-01-14T13:02:06Z</time>
      </trkpt>
      <trkpt lat="62.64275745431" lon="17.876784975627">
        <ele>82.2</ele>
        <time>2018-01-14T13:02:07Z</time>
      </trkpt>
      <trkpt lat="62.642737589207" lon="17.876792603156">
        <ele>82.4</ele>
        <time>2018-01-14T13:02:08Z</time>
      </trkpt>
      <trkpt lat="62.642711437679" lon="17.876799727771">
        <ele>82.8</ele>
        <time>2018-01-14T13:02:09Z</time>
      </trkpt>
      <trkpt lat="62.642693919508" lon="17.876818084132">
        <ele>83.2</ele>
        <time>2018-01-14T13:02:10Z</time>
      </trkpt>
      <trkpt lat="62.642666426876" lon="17.87682998643">
        <ele>83.6</ele>
        <time>2018-01-14T13:02:11Z</time>
      </trkpt>
      <trkpt lat="62.642634659475" lon="17.876847504601">
        <ele>83.6</ele>
        <time>2018-01-14T13:02:12Z</time>
      </trkpt>
      <trkpt lat="62.642612866535" lon="17.876863430211">
        <ele>83.8</ele>
        <time>2018-01-14T13:02:13Z</time>
      </trkpt>
      <trkpt lat="62.642587972292" lon="17.876876841251">
        <ele>83.8</ele>
        <time>2018-01-14T13:02:14Z</time>
      </trkpt>
      <trkpt lat="62.642570621759" lon="17.876898131277">
        <ele>84</ele>
        <time>2018-01-14T13:02:15Z</time>
      </trkpt>
      <trkpt lat="62.642551343389" lon="17.876920846226">
        <ele>84.2</ele>
        <time>2018-01-14T13:02:16Z</time>
      </trkpt>
      <trkpt lat="62.64252779025" lon="17.876938364397">
        <ele>84.4</ele>
        <time>2018-01-14T13:02:17Z</time>
      </trkpt>
      <trkpt lat="62.642504991482" lon="17.876962839545">
        <ele>84.6</ele>
        <time>2018-01-14T13:02:18Z</time>
      </trkpt>
      <trkpt lat="62.642481354524" lon="17.876995780412">
        <ele>84.8</ele>
        <time>2018-01-14T13:02:19Z</time>
      </trkpt>
      <trkpt lat="62.64245989686" lon="17.877025871433">
        <ele>85</ele>
        <time>2018-01-14T13:02:20Z</time>
      </trkpt>
      <trkpt lat="62.642449084209" lon="17.877059315214">
        <ele>85</ele>
        <time>2018-01-14T13:02:21Z</time>
      </trkpt>
      <trkpt lat="62.642421591577" lon="17.877096447031">
        <ele>85.2</ele>
        <time>2018-01-14T13:02:22Z</time>
      </trkpt>
      <trkpt lat="62.642401726474" lon="17.877128046794">
        <ele>85.4</ele>
        <time>2018-01-14T13:02:23Z</time>
      </trkpt>
      <trkpt lat="62.642387141968" lon="17.877162831679">
        <ele>85.4</ele>
        <time>2018-01-14T13:02:24Z</time>
      </trkpt>
      <trkpt lat="62.642361744811" lon="17.877208093939">
        <ele>85.6</ele>
        <time>2018-01-14T13:02:25Z</time>
      </trkpt>
      <trkpt lat="62.642345483925" lon="17.877252518009">
        <ele>85.6</ele>
        <time>2018-01-14T13:02:26Z</time>
      </trkpt>
      <trkpt lat="62.642328133392" lon="17.877300378658">
        <ele>85.6</ele>
        <time>2018-01-14T13:02:27Z</time>
      </trkpt>
      <trkpt lat="62.642303406787" lon="17.877335750276">
        <ele>85.8</ele>
        <time>2018-01-14T13:02:28Z</time>
      </trkpt>
      <trkpt lat="62.642274573051" lon="17.877392998653">
        <ele>85.8</ele>
        <time>2018-01-14T13:02:29Z</time>
      </trkpt>
      <trkpt lat="62.642250768455" lon="17.877454605618">
        <ele>86</ele>
        <time>2018-01-14T13:02:30Z</time>
      </trkpt>
      <trkpt lat="62.642216067389" lon="17.877505232294">
        <ele>86</ele>
        <time>2018-01-14T13:02:31Z</time>
      </trkpt>
      <trkpt lat="62.642184383807" lon="17.877556278065">
        <ele>85.6</ele>
        <time>2018-01-14T13:02:32Z</time>
      </trkpt>
      <trkpt lat="62.642153538415" lon="17.877608078207">
        <ele>85.6</ele>
        <time>2018-01-14T13:02:33Z</time>
      </trkpt>
      <trkpt lat="62.642158232279" lon="17.877599612488">
        <ele>85.4</ele>
        <time>2018-01-14T13:02:34Z</time>
      </trkpt>
      <trkpt lat="62.642105510128" lon="17.877685275506">
        <ele>85</ele>
        <time>2018-01-14T13:02:35Z</time>
      </trkpt>
      <trkpt lat="62.642063600628" lon="17.877771525257">
        <ele>84.6</ele>
        <time>2018-01-14T13:02:36Z</time>
      </trkpt>
      <trkpt lat="62.64204080186" lon="17.877843274321">
        <ele>84.4</ele>
        <time>2018-01-14T13:02:37Z</time>
      </trkpt>
      <trkpt lat="62.642019176558" lon="17.877918208507">
        <ele>84.4</ele>
        <time>2018-01-14T13:02:38Z</time>
      </trkpt>
      <trkpt lat="62.64198631951" lon="17.878004709715">
        <ele>84.6</ele>
        <time>2018-01-14T13:02:39Z</time>
      </trkpt>
      <trkpt lat="62.641954803566" lon="17.878107052714">
        <ele>84.2</ele>
        <time>2018-01-14T13:02:40Z</time>
      </trkpt>
      <trkpt lat="62.641925299278" lon="17.878210317722">
        <ele>84</ele>
        <time>2018-01-14T13:02:41Z</time>
      </trkpt>
      <trkpt lat="62.641891520221" lon="17.878334118385">
        <ele>83.4</ele>
        <time>2018-01-14T13:02:42Z</time>
      </trkpt>
      <trkpt lat="62.64186394377" lon="17.878446435845">
        <ele>83</ele>
        <time>2018-01-14T13:02:43Z</time>
      </trkpt>
      <trkpt lat="62.641837792242" lon="17.878586497394">
        <ele>82.4</ele>
        <time>2018-01-14T13:02:44Z</time>
      </trkpt>
      <trkpt lat="62.641816669854" lon="17.878721194527">
        <ele>81.6</ele>
        <time>2018-01-14T13:02:45Z</time>
      </trkpt>
      <trkpt lat="62.64179521219" lon="17.878865195569">
        <ele>81</ele>
        <time>2018-01-14T13:02:46Z</time>
      </trkpt>
      <trkpt lat="62.641776855829" lon="17.879006849679">
        <ele>80.6</ele>
        <time>2018-01-14T13:02:47Z</time>
      </trkpt>
      <trkpt lat="62.641767216644" lon="17.8791291416">
        <ele>80</ele>
        <time>2018-01-14T13:02:48Z</time>
      </trkpt>
      <trkpt lat="62.641764282979" lon="17.879267610588">
        <ele>79.2</ele>
        <time>2018-01-14T13:02:49Z</time>
      </trkpt>
      <trkpt lat="62.64176503735" lon="17.879407085404">
        <ele>78.2</ele>
        <time>2018-01-14T13:02:50Z</time>
      </trkpt>
      <trkpt lat="62.641769815033" lon="17.879547314591">
        <ele>77.4</ele>
        <time>2018-01-14T13:02:51Z</time>
      </trkpt>
      <trkpt lat="62.64178012477" lon="17.879700451904">
        <ele>76.8</ele>
        <time>2018-01-14T13:02:52Z</time>
      </trkpt>
      <trkpt lat="62.641791775611" lon="17.879833137381">
        <ele>76</ele>
        <time>2018-01-14T13:02:53Z</time>
      </trkpt>
      <trkpt lat="62.641800576606" lon="17.879977892794">
        <ele>75.4</ele>
        <time>2018-01-14T13:02:54Z</time>
      </trkpt>
      <trkpt lat="62.641809712877" lon="17.880107393149">
        <ele>75</ele>
        <time>2018-01-14T13:02:55Z</time>
      </trkpt>
      <trkpt lat="62.641814322922" lon="17.880218201867">
        <ele>74.6</ele>
        <time>2018-01-14T13:02:56Z</time>
      </trkpt>
      <trkpt lat="62.641816418397" lon="17.880334794096">
        <ele>74.2</ele>
        <time>2018-01-14T13:02:57Z</time>
      </trkpt>
      <trkpt lat="62.64181365237" lon="17.880462282795">
        <ele>74.2</ele>
        <time>2018-01-14T13:02:58Z</time>
      </trkpt>
      <trkpt lat="62.641804851375" lon="17.880596728471">
        <ele>74</ele>
        <time>2018-01-14T13:02:59Z</time>
      </trkpt>
      <trkpt lat="62.641793619629" lon="17.880724384808">
        <ele>73.8</ele>
        <time>2018-01-14T13:03:00Z</time>
      </trkpt>
      <trkpt lat="62.641779118942" lon="17.880842234322">
        <ele>73.4</ele>
        <time>2018-01-14T13:03:01Z</time>
      </trkpt>
      <trkpt lat="62.641755314346" lon="17.880940973104">
        <ele>72.8</ele>
        <time>2018-01-14T13:03:02Z</time>
      </trkpt>
      <trkpt lat="62.641740981297" lon="17.881027725769">
        <ele>72.8</ele>
        <time>2018-01-14T13:03:03Z</time>
      </trkpt>
      <trkpt lat="62.641725223325" lon="17.881120010488">
        <ele>72.6</ele>
        <time>2018-01-14T13:03:04Z</time>
      </trkpt>
      <trkpt lat="62.641711644647" lon="17.881199219443">
        <ele>72.8</ele>
        <time>2018-01-14T13:03:05Z</time>
      </trkpt>
      <trkpt lat="62.641707537516" lon="17.881264514444">
        <ele>72.8</ele>
        <time>2018-01-14T13:03:06Z</time>
      </trkpt>
      <trkpt lat="62.641704939127" lon="17.881322181916">
        <ele>73</ele>
        <time>2018-01-14T13:03:07Z</time>
      </trkpt>
      <trkpt lat="62.641695299942" lon="17.881374820248">
        <ele>73.4</ele>
        <time>2018-01-14T13:03:08Z</time>
      </trkpt>
      <trkpt lat="62.641693372105" lon="17.881445814941">
        <ele>73.8</ele>
        <time>2018-01-14T13:03:09Z</time>
      </trkpt>
      <trkpt lat="62.641676273029" lon="17.881539105488">
        <ele>74</ele>
        <time>2018-01-14T13:03:10Z</time>
      </trkpt>
      <trkpt lat="62.641668394043" lon="17.881629630008">
        <ele>74</ele>
        <time>2018-01-14T13:03:11Z</time>
      </trkpt>
      <trkpt lat="62.641662191437" lon="17.881736163957">
        <ele>73.6</ele>
        <time>2018-01-14T13:03:12Z</time>
      </trkpt>
      <trkpt lat="62.641654815365" lon="17.881814786179">
        <ele>73.4</ele>
        <time>2018-01-14T13:03:13Z</time>
      </trkpt>
      <trkpt lat="62.641639057393" lon="17.881892989306">
        <ele>72.8</ele>
        <time>2018-01-14T13:03:14Z</time>
      </trkpt>
      <trkpt lat="62.641624389068" lon="17.881927774191">
        <ele>72.2</ele>
        <time>2018-01-14T13:03:15Z</time>
      </trkpt>
      <trkpt lat="62.641591867296" lon="17.881983430007">
        <ele>72.2</ele>
        <time>2018-01-14T13:03:16Z</time>
      </trkpt>
      <trkpt lat="62.641556160402" lon="17.882006480232">
        <ele>72.2</ele>
        <time>2018-01-14T13:03:17Z</time>
      </trkpt>
      <trkpt lat="62.641529338322" lon="17.882026261516">
        <ele>72.4</ele>
        <time>2018-01-14T13:03:18Z</time>
      </trkpt>
      <trkpt lat="62.641499834034" lon="17.882036906529">
        <ele>72.8</ele>
        <time>2018-01-14T13:03:19Z</time>
      </trkpt>
      <trkpt lat="62.641467312262" lon="17.882045288429">
        <ele>73</ele>
        <time>2018-01-14T13:03:20Z</time>
      </trkpt>
      <trkpt lat="62.641445854598" lon="17.882054592338">
        <ele>73.2</ele>
        <time>2018-01-14T13:03:21Z</time>
      </trkpt>
      <trkpt lat="62.641418194328" lon="17.882062638962">
        <ele>73.2</ele>
        <time>2018-01-14T13:03:22Z</time>
      </trkpt>
      <trkpt lat="62.641394138275" lon="17.882069176844">
        <ele>73.4</ele>
        <time>2018-01-14T13:03:23Z</time>
      </trkpt>
      <trkpt lat="62.641362287055" lon="17.88208459954">
        <ele>73.4</ele>
        <time>2018-01-14T13:03:24Z</time>
      </trkpt>
      <trkpt lat="62.641330100559" lon="17.882116953674">
        <ele>73.4</ele>
        <time>2018-01-14T13:03:25Z</time>
      </trkpt>
      <trkpt lat="62.641312498569" lon="17.882134388026">
        <ele>73.6</ele>
        <time>2018-01-14T13:03:26Z</time>
      </trkpt>
      <trkpt lat="62.641282156091" lon="17.882147379971">
        <ele>73.8</ele>
        <time>2018-01-14T13:03:27Z</time>
      </trkpt>
      <trkpt lat="62.641256172201" lon="17.882170849291">
        <ele>73.8</ele>
        <time>2018-01-14T13:03:28Z</time>
      </trkpt>
      <trkpt lat="62.641221303497" lon="17.882205634176">
        <ele>73.8</ele>
        <time>2018-01-14T13:03:29Z</time>
      </trkpt>
      <trkpt lat="62.64118668625" lon="17.88225223754">
        <ele>73.8</ele>
        <time>2018-01-14T13:03:30Z</time>
      </trkpt>
      <trkpt lat="62.641150979356" lon="17.882324992432">
        <ele>73.8</ele>
        <time>2018-01-14T13:03:31Z</time>
      </trkpt>
      <trkpt lat="62.641118457584" lon="17.882421300463">
        <ele>73.6</ele>
        <time>2018-01-14T13:03:32Z</time>
      </trkpt>
      <trkpt lat="62.64108694164" lon="17.882496737563">
        <ele>73.2</ele>
        <time>2018-01-14T13:03:33Z</time>
      </trkpt>
      <trkpt lat="62.641049893642" lon="17.882617353104">
        <ele>72.8</ele>
        <time>2018-01-14T13:03:34Z</time>
      </trkpt>
      <trkpt lat="62.641021311363" lon="17.882733442419">
        <ele>72.2</ele>
        <time>2018-01-14T13:03:35Z</time>
      </trkpt>
      <trkpt lat="62.640996165663" lon="17.88284483787">
        <ele>71.6</ele>
        <time>2018-01-14T13:03:36Z</time>
      </trkpt>
      <trkpt lat="62.640991136523" lon="17.882965285773">
        <ele>71.2</ele>
        <time>2018-01-14T13:03:37Z</time>
      </trkpt>
      <trkpt lat="62.640986777935" lon="17.883074753387">
        <ele>70.6</ele>
        <time>2018-01-14T13:03:38Z</time>
      </trkpt>
      <trkpt lat="62.640980240053" lon="17.883181622612">
        <ele>70.2</ele>
        <time>2018-01-14T13:03:39Z</time>
      </trkpt>
      <trkpt lat="62.640969762678" lon="17.883269967838">
        <ele>70</ele>
        <time>2018-01-14T13:03:40Z</time>
      </trkpt>
      <trkpt lat="62.640961380778" lon="17.883346410766">
        <ele>69.8</ele>
        <time>2018-01-14T13:03:41Z</time>
      </trkpt>
      <trkpt lat="62.6409478021" lon="17.883442299702">
        <ele>69.4</ele>
        <time>2018-01-14T13:03:42Z</time>
      </trkpt>
      <trkpt lat="62.640939923114" lon="17.883541960493">
        <ele>69.4</ele>
        <time>2018-01-14T13:03:43Z</time>
      </trkpt>
      <trkpt lat="62.640944868435" lon="17.883661989301">
        <ele>69.4</ele>
        <time>2018-01-14T13:03:44Z</time>
      </trkpt>
      <trkpt lat="62.640961045502" lon="17.883760392807">
        <ele>69.4</ele>
        <time>2018-01-14T13:03:45Z</time>
      </trkpt>
      <trkpt lat="62.640985855926" lon="17.883881762719">
        <ele>69.6</ele>
        <time>2018-01-14T13:03:46Z</time>
      </trkpt>
      <trkpt lat="62.641010498712" lon="17.883982010243">
        <ele>69.4</ele>
        <time>2018-01-14T13:03:47Z</time>
      </trkpt>
      <trkpt lat="62.641030028539" lon="17.884061722112">
        <ele>69.2</ele>
        <time>2018-01-14T13:03:48Z</time>
      </trkpt>
      <trkpt lat="62.641059113732" lon="17.884158197781">
        <ele>69</ele>
        <time>2018-01-14T13:03:49Z</time>
      </trkpt>
      <trkpt lat="62.641087528373" lon="17.884266072834">
        <ele>68.6</ele>
        <time>2018-01-14T13:03:50Z</time>
      </trkpt>
      <trkpt lat="62.641119379593" lon="17.884369086385">
        <ele>68</ele>
        <time>2018-01-14T13:03:51Z</time>
      </trkpt>
      <trkpt lat="62.641156259953" lon="17.88450026312">
        <ele>66.8</ele>
        <time>2018-01-14T13:03:52Z</time>
      </trkpt>
      <trkpt lat="62.641181908567" lon="17.884590200907">
        <ele>66</ele>
        <time>2018-01-14T13:03:53Z</time>
      </trkpt>
      <trkpt lat="62.641213256873" lon="17.884694639381">
        <ele>64.8</ele>
        <time>2018-01-14T13:03:54Z</time>
      </trkpt>
      <trkpt lat="62.641248628491" lon="17.884786588824">
        <ele>64</ele>
        <time>2018-01-14T13:03:55Z</time>
      </trkpt>
      <trkpt lat="62.641289532163" lon="17.884854985128">
        <ele>63</ele>
        <time>2018-01-14T13:03:56Z</time>
      </trkpt>
      <trkpt lat="62.6413333695" lon="17.884931847151">
        <ele>62.6</ele>
        <time>2018-01-14T13:03:57Z</time>
      </trkpt>
      <trkpt lat="62.641378212665" lon="17.885012313391">
        <ele>62.2</ele>
        <time>2018-01-14T13:03:58Z</time>
      </trkpt>
      <trkpt lat="62.641423558744" lon="17.88510040716">
        <ele>61.8</ele>
        <time>2018-01-14T13:03:59Z</time>
      </trkpt>
      <trkpt lat="62.641471922307" lon="17.885178023554">
        <ele>61.4</ele>
        <time>2018-01-14T13:04:00Z</time>
      </trkpt>
      <trkpt lat="62.641517855119" lon="17.885272487567">
        <ele>61.2</ele>
        <time>2018-01-14T13:04:01Z</time>
      </trkpt>
      <trkpt lat="62.641565045216" lon="17.885362257716">
        <ele>61</ele>
        <time>2018-01-14T13:04:02Z</time>
      </trkpt>
      <trkpt lat="62.641608714915" lon="17.885441718128">
        <ele>61</ele>
        <time>2018-01-14T13:04:03Z</time>
      </trkpt>
      <trkpt lat="62.641665544197" lon="17.885551101923">
        <ele>60.8</ele>
        <time>2018-01-14T13:04:04Z</time>
      </trkpt>
      <trkpt lat="62.641719858909" lon="17.885655121302">
        <ele>60.6</ele>
        <time>2018-01-14T13:04:05Z</time>
      </trkpt>
      <trkpt lat="62.641775430906" lon="17.88576090088">
        <ele>60</ele>
        <time>2018-01-14T13:04:06Z</time>
      </trkpt>
      <trkpt lat="62.641832176369" lon="17.885870200856">
        <ele>59.2</ele>
        <time>2018-01-14T13:04:07Z</time>
      </trkpt>
      <trkpt lat="62.641882551588" lon="17.885969107276">
        <ele>58.6</ele>
        <time>2018-01-14T13:04:08Z</time>
      </trkpt>
      <trkpt lat="62.641931166608" lon="17.88605762014">
        <ele>58</ele>
        <time>2018-01-14T13:04:09Z</time>
      </trkpt>
      <trkpt lat="62.641976177411" lon="17.886147641746">
        <ele>57.2</ele>
        <time>2018-01-14T13:04:10Z</time>
      </trkpt>
      <trkpt lat="62.642015572341" lon="17.886219139353">
        <ele>56.6</ele>
        <time>2018-01-14T13:04:11Z</time>
      </trkpt>
      <trkpt lat="62.642056308375" lon="17.886302455439">
        <ele>56.2</ele>
        <time>2018-01-14T13:04:12Z</time>
      </trkpt>
      <trkpt lat="62.642090841803" lon="17.886364984413">
        <ele>56</ele>
        <time>2018-01-14T13:04:13Z</time>
      </trkpt>
      <trkpt lat="62.642127386887" lon="17.886429692681">
        <ele>55.8</ele>
        <time>2018-01-14T13:04:14Z</time>
      </trkpt>
      <trkpt lat="62.642160495392" lon="17.886485767592">
        <ele>55.8</ele>
        <time>2018-01-14T13:04:15Z</time>
      </trkpt>
      <trkpt lat="62.642200141779" lon="17.886563719262">
        <ele>55.8</ele>
        <time>2018-01-14T13:04:16Z</time>
      </trkpt>
      <trkpt lat="62.642241799822" lon="17.886650471927">
        <ele>55.8</ele>
        <time>2018-01-14T13:04:17Z</time>
      </trkpt>
      <trkpt lat="62.642284463693" lon="17.886744265388">
        <ele>55.4</ele>
        <time>2018-01-14T13:04:18Z</time>
      </trkpt>
      <trkpt lat="62.642327379021" lon="17.886857169581">
        <ele>54.8</ele>
        <time>2018-01-14T13:04:19Z</time>
      </trkpt>
      <trkpt lat="62.642359230241" lon="17.88695867439">
        <ele>54.2</ele>
        <time>2018-01-14T13:04:20Z</time>
      </trkpt>
      <trkpt lat="62.642380687905" lon="17.887046349064">
        <ele>53.4</ele>
        <time>2018-01-14T13:04:21Z</time>
      </trkpt>
      <trkpt lat="62.642399379542" lon="17.887155146126">
        <ele>52.6</ele>
        <time>2018-01-14T13:04:22Z</time>
      </trkpt>
      <trkpt lat="62.642403235216" lon="17.887250532148">
        <ele>52</ele>
        <time>2018-01-14T13:04:23Z</time>
      </trkpt>
      <trkpt lat="62.642395607687" lon="17.887358407201">
        <ele>51.4</ele>
        <time>2018-01-14T13:04:24Z</time>
      </trkpt>
      <trkpt lat="62.642370461987" lon="17.887436358871">
        <ele>51.2</ele>
        <time>2018-01-14T13:04:25Z</time>
      </trkpt>
      <trkpt lat="62.642339029862" lon="17.887486314995">
        <ele>50.8</ele>
        <time>2018-01-14T13:04:26Z</time>
      </trkpt>
      <trkpt lat="62.642304496434" lon="17.887547670503">
        <ele>50.6</ele>
        <time>2018-01-14T13:04:27Z</time>
      </trkpt>
      <trkpt lat="62.642266945522" lon="17.887612965504">
        <ele>50.2</ele>
        <time>2018-01-14T13:04:28Z</time>
      </trkpt>
      <trkpt lat="62.64221933633" lon="17.887688654061">
        <ele>50</ele>
        <time>2018-01-14T13:04:29Z</time>
      </trkpt>
      <trkpt lat="62.642176421002" lon="17.88774154385">
        <ele>49.8</ele>
        <time>2018-01-14T13:04:30Z</time>
      </trkpt>
      <trkpt lat="62.642124453222" lon="17.887818322054">
        <ele>49.4</ele>
        <time>2018-01-14T13:04:31Z</time>
      </trkpt>
      <trkpt lat="62.642068713587" lon="17.887865009237">
        <ele>49</ele>
        <time>2018-01-14T13:04:32Z</time>
      </trkpt>
      <trkpt lat="62.642043567887" lon="17.88791756375">
        <ele>48.6</ele>
        <time>2018-01-14T13:04:33Z</time>
      </trkpt>
      <trkpt lat="62.642007525717" lon="17.887990989194">
        <ele>48.2</ele>
        <time>2018-01-14T13:04:34Z</time>
      </trkpt>
      <trkpt lat="62.641978189067" lon="17.888077238945">
        <ele>48</ele>
        <time>2018-01-14T13:04:35Z</time>
      </trkpt>
      <trkpt lat="62.641954971204" lon="17.888152424588">
        <ele>48</ele>
        <time>2018-01-14T13:04:36Z</time>
      </trkpt>
      <trkpt lat="62.641928652038" lon="17.888221742901">
        <ele>48</ele>
        <time>2018-01-14T13:04:37Z</time>
      </trkpt>
      <trkpt lat="62.641924712545" lon="17.888265244962">
        <ele>48</ele>
        <time>2018-01-14T13:04:38Z</time>
      </trkpt>
      <trkpt lat="62.64189747137" lon="17.888336826388">
        <ele>48.2</ele>
        <time>2018-01-14T13:04:39Z</time>
      </trkpt>
      <trkpt lat="62.641876097525" lon="17.888401031742">
        <ele>48</ele>
        <time>2018-01-14T13:04:40Z</time>
      </trkpt>
      <trkpt lat="62.641860507191" lon="17.888463560716">
        <ele>48</ele>
        <time>2018-01-14T13:04:41Z</time>
      </trkpt>
      <trkpt lat="62.64184717997" lon="17.888537237617">
        <ele>47.8</ele>
        <time>2018-01-14T13:04:42Z</time>
      </trkpt>
      <trkpt lat="62.641828991247" lon="17.888619044961">
        <ele>47.6</ele>
        <time>2018-01-14T13:04:43Z</time>
      </trkpt>
      <trkpt lat="62.641812562723" lon="17.888714598621">
        <ele>47.4</ele>
        <time>2018-01-14T13:04:44Z</time>
      </trkpt>
      <trkpt lat="62.641795798923" lon="17.888795735413">
        <ele>47.2</ele>
        <time>2018-01-14T13:04:45Z</time>
      </trkpt>
      <trkpt lat="62.641779454218" lon="17.888886846666">
        <ele>47</ele>
        <time>2018-01-14T13:04:46Z</time>
      </trkpt>
      <trkpt lat="62.641772329603" lon="17.888947196346">
        <ele>46.8</ele>
        <time>2018-01-14T13:04:47Z</time>
      </trkpt>
      <trkpt lat="62.64177006649" lon="17.888990614588">
        <ele>46.8</ele>
        <time>2018-01-14T13:04:48Z</time>
      </trkpt>
      <trkpt lat="62.64176336097" lon="17.88903068007">
        <ele>46.8</ele>
        <time>2018-01-14T13:04:49Z</time>
      </trkpt>
      <trkpt lat="62.641752213043" lon="17.889053227381">
        <ele>47</ele>
        <time>2018-01-14T13:04:50Z</time>
      </trkpt>
      <trkpt lat="62.641747016265" lon="17.889061190186">
        <ele>47</ele>
        <time>2018-01-14T13:04:51Z</time>
      </trkpt>
      <trkpt lat="62.64173905346" lon="17.889089940103">
        <ele>47.4</ele>
        <time>2018-01-14T13:04:52Z</time>
      </trkpt>
      <trkpt lat="62.641729330456" lon="17.88911449907">
        <ele>47.6</ele>
        <time>2018-01-14T13:04:53Z</time>
      </trkpt>
      <trkpt lat="62.641725055687" lon="17.889129837947">
        <ele>47.8</ele>
        <time>2018-01-14T13:04:54Z</time>
      </trkpt>
      <trkpt lat="62.641720697099" lon="17.889144338634">
        <ele>48</ele>
        <time>2018-01-14T13:04:55Z</time>
      </trkpt>
      <trkpt lat="62.641717092882" lon="17.889166047755">
        <ele>48.2</ele>
        <time>2018-01-14T13:04:56Z</time>
      </trkpt>
      <trkpt lat="62.641713656303" lon="17.889177782415">
        <ele>48.4</ele>
        <time>2018-01-14T13:04:57Z</time>
      </trkpt>
      <trkpt lat="62.641711728466" lon="17.889196557871">
        <ele>48.8</ele>
        <time>2018-01-14T13:04:58Z</time>
      </trkpt>
      <trkpt lat="62.641706950783" lon="17.889221200657">
        <ele>49.2</ele>
        <time>2018-01-14T13:04:59Z</time>
      </trkpt>
      <trkpt lat="62.641703095109" lon="17.889242155407">
        <ele>49.4</ele>
        <time>2018-01-14T13:05:00Z</time>
      </trkpt>
      <trkpt lat="62.641699909987" lon="17.889259338302">
        <ele>49.8</ele>
        <time>2018-01-14T13:05:01Z</time>
      </trkpt>
      <trkpt lat="62.641699071797" lon="17.889276018283">
        <ele>50.2</ele>
        <time>2018-01-14T13:05:02Z</time>
      </trkpt>
      <trkpt lat="62.641692198639" lon="17.889300325793">
        <ele>50.4</ele>
        <time>2018-01-14T13:05:03Z</time>
      </trkpt>
      <trkpt lat="62.64168708568" lon="17.889322873104">
        <ele>50.4</ele>
        <time>2018-01-14T13:05:04Z</time>
      </trkpt>
      <trkpt lat="62.641685325481" lon="17.889333015203">
        <ele>50.8</ele>
        <time>2018-01-14T13:05:05Z</time>
      </trkpt>
      <trkpt lat="62.641680715436" lon="17.889349276089">
        <ele>51</ele>
        <time>2018-01-14T13:05:06Z</time>
      </trkpt>
      <trkpt lat="62.641676608305" lon="17.88936679426">
        <ele>51.2</ele>
        <time>2018-01-14T13:05:07Z</time>
      </trkpt>
      <trkpt lat="62.641671327708" lon="17.889384815345">
        <ele>51.4</ele>
        <time>2018-01-14T13:05:08Z</time>
      </trkpt>
      <trkpt lat="62.641668142586" lon="17.889406608285">
        <ele>51.6</ele>
        <time>2018-01-14T13:05:09Z</time>
      </trkpt>
      <trkpt lat="62.641662945808" lon="17.889431921623">
        <ele>51.8</ele>
        <time>2018-01-14T13:05:10Z</time>
      </trkpt>
      <trkpt lat="62.641659257772" lon="17.889451870545">
        <ele>52</ele>
        <time>2018-01-14T13:05:11Z</time>
      </trkpt>
      <trkpt lat="62.641656575564" lon="17.889468801983">
        <ele>52.2</ele>
        <time>2018-01-14T13:05:12Z</time>
      </trkpt>
      <trkpt lat="62.641654815365" lon="17.889472992933">
        <ele>52.2</ele>
        <time>2018-01-14T13:05:13Z</time>
      </trkpt>
      <trkpt lat="62.641651378786" lon="17.889485649602">
        <ele>52.6</ele>
        <time>2018-01-14T13:05:14Z</time>
      </trkpt>
      <trkpt lat="62.641651127329" lon="17.889511465854">
        <ele>52.6</ele>
        <time>2018-01-14T13:05:15Z</time>
      </trkpt>
      <trkpt lat="62.641648445121" lon="17.88952940312">
        <ele>52.8</ele>
        <time>2018-01-14T13:05:16Z</time>
      </trkpt>
      <trkpt lat="62.641647020198" lon="17.889545077273">
        <ele>53</ele>
        <time>2018-01-14T13:05:17Z</time>
      </trkpt>
      <trkpt lat="62.641647439293" lon="17.889561421978">
        <ele>53.2</ele>
        <time>2018-01-14T13:05:18Z</time>
      </trkpt>
      <trkpt lat="62.641647104017" lon="17.889571647896">
        <ele>53.4</ele>
        <time>2018-01-14T13:05:19Z</time>
      </trkpt>
      <trkpt lat="62.64164685256" lon="17.889591093904">
        <ele>53.6</ele>
        <time>2018-01-14T13:05:20Z</time>
      </trkpt>
      <trkpt lat="62.641648361302" lon="17.889606935695">
        <ele>54</ele>
        <time>2018-01-14T13:05:21Z</time>
      </trkpt>
      <trkpt lat="62.64164685256" lon="17.889631075567">
        <ele>54.2</ele>
        <time>2018-01-14T13:05:22Z</time>
      </trkpt>
      <trkpt lat="62.641645595275" lon="17.889656137448">
        <ele>54.6</ele>
        <time>2018-01-14T13:05:23Z</time>
      </trkpt>
      <trkpt lat="62.641644421809" lon="17.889676756922">
        <ele>55</ele>
        <time>2018-01-14T13:05:24Z</time>
      </trkpt>
      <trkpt lat="62.64164601437" lon="17.889697711672">
        <ele>55.2</ele>
        <time>2018-01-14T13:05:25Z</time>
      </trkpt>
      <trkpt lat="62.641645846732" lon="17.889715816576">
        <ele>55.4</ele>
        <time>2018-01-14T13:05:26Z</time>
      </trkpt>
      <trkpt lat="62.641646517284" lon="17.88972134863">
        <ele>55.4</ele>
        <time>2018-01-14T13:05:27Z</time>
      </trkpt>
      <trkpt lat="62.641646936379" lon="17.889739621172">
        <ele>55.6</ele>
        <time>2018-01-14T13:05:28Z</time>
      </trkpt>
      <trkpt lat="62.641646182008" lon="17.889764515415">
        <ele>55.8</ele>
        <time>2018-01-14T13:05:29Z</time>
      </trkpt>
      <trkpt lat="62.641647858388" lon="17.889786895088">
        <ele>56</ele>
        <time>2018-01-14T13:05:30Z</time>
      </trkpt>
      <trkpt lat="62.641649534768" lon="17.889807011648">
        <ele>56.2</ele>
        <time>2018-01-14T13:05:31Z</time>
      </trkpt>
      <trkpt lat="62.641650456777" lon="17.889827295846">
        <ele>56.2</ele>
        <time>2018-01-14T13:05:32Z</time>
      </trkpt>
      <trkpt lat="62.641650456777" lon="17.889849507881">
        <ele>56.2</ele>
        <time>2018-01-14T13:05:33Z</time>
      </trkpt>
      <trkpt lat="62.641656491745" lon="17.889850765166">
        <ele>56.4</ele>
        <time>2018-01-14T13:05:34Z</time>
      </trkpt>
      <trkpt lat="62.641659509229" lon="17.889872977201">
        <ele>56.6</ele>
        <time>2018-01-14T13:05:35Z</time>
      </trkpt>
      <trkpt lat="62.641661688523" lon="17.889885801508">
        <ele>56.6</ele>
        <time>2018-01-14T13:05:36Z</time>
      </trkpt>
      <trkpt lat="62.64166529274" lon="17.88990994138">
        <ele>56.8</ele>
        <time>2018-01-14T13:05:37Z</time>
      </trkpt>
      <trkpt lat="62.641666885301" lon="17.889925364076">
        <ele>57</ele>
        <time>2018-01-14T13:05:38Z</time>
      </trkpt>
      <trkpt lat="62.641667472034" lon="17.889939864763">
        <ele>57</ele>
        <time>2018-01-14T13:05:39Z</time>
      </trkpt>
      <trkpt lat="62.641671327708" lon="17.889954197812">
        <ele>57.2</ele>
        <time>2018-01-14T13:05:40Z</time>
      </trkpt>
      <trkpt lat="62.641672501174" lon="17.889963250264">
        <ele>57.6</ele>
        <time>2018-01-14T13:05:41Z</time>
      </trkpt>
      <trkpt lat="62.641672417355" lon="17.889973057087">
        <ele>58</ele>
        <time>2018-01-14T13:05:42Z</time>
      </trkpt>
      <trkpt lat="62.641674177554" lon="17.889988395964">
        <ele>58.4</ele>
        <time>2018-01-14T13:05:43Z</time>
      </trkpt>
      <trkpt lat="62.641677278857" lon="17.890014631311">
        <ele>58.8</ele>
        <time>2018-01-14T13:05:44Z</time>
      </trkpt>
      <trkpt lat="62.641679039056" lon="17.890039944649">
        <ele>59.2</ele>
        <time>2018-01-14T13:05:45Z</time>
      </trkpt>
      <trkpt lat="62.641680212522" lon="17.890070454765">
        <ele>59.4</ele>
        <time>2018-01-14T13:05:46Z</time>
      </trkpt>
      <trkpt lat="62.64168038016" lon="17.890098282673">
        <ele>59.8</ele>
        <time>2018-01-14T13:05:47Z</time>
      </trkpt>
      <trkpt lat="62.641682643273" lon="17.890119405061">
        <ele>60</ele>
        <time>2018-01-14T13:05:48Z</time>
      </trkpt>
      <trkpt lat="62.641687420956" lon="17.890151759195">
        <ele>60</ele>
        <time>2018-01-14T13:05:49Z</time>
      </trkpt>
      <trkpt lat="62.641694210295" lon="17.890182856044">
        <ele>60.2</ele>
        <time>2018-01-14T13:05:50Z</time>
      </trkpt>
      <trkpt lat="62.641701670186" lon="17.890211857418">
        <ele>60.4</ele>
        <time>2018-01-14T13:05:51Z</time>
      </trkpt>
      <trkpt lat="62.64171390776" lon="17.890259298972">
        <ele>60.6</ele>
        <time>2018-01-14T13:05:52Z</time>
      </trkpt>
      <trkpt lat="62.64172396604" lon="17.890297352798">
        <ele>60.6</ele>
        <time>2018-01-14T13:05:53Z</time>
      </trkpt>
      <trkpt lat="62.641738382908" lon="17.890340519583">
        <ele>60.6</ele>
        <time>2018-01-14T13:05:54Z</time>
      </trkpt>
      <trkpt lat="62.64175330269" lon="17.890374214821">
        <ele>60.6</ele>
        <time>2018-01-14T13:05:55Z</time>
      </trkpt>
      <trkpt lat="62.641779789494" lon="17.890416291959">
        <ele>60.8</ele>
        <time>2018-01-14T13:05:56Z</time>
      </trkpt>
      <trkpt lat="62.64180527047" lon="17.89046566135">
        <ele>60.8</ele>
        <time>2018-01-14T13:05:57Z</time>
      </trkpt>
      <trkpt lat="62.641838881889" lon="17.890511845619">
        <ele>60.6</ele>
        <time>2018-01-14T13:05:58Z</time>
      </trkpt>
      <trkpt lat="62.641879282647" lon="17.890553922757">
        <ele>60.6</ele>
        <time>2018-01-14T13:05:59Z</time>
      </trkpt>
      <trkpt lat="62.641926221287" lon="17.890593988239">
        <ele>60.4</ele>
        <time>2018-01-14T13:06:00Z</time>
      </trkpt>
      <trkpt lat="62.641978608162" lon="17.890629862771">
        <ele>59.8</ele>
        <time>2018-01-14T13:06:01Z</time>
      </trkpt>
      <trkpt lat="62.642022613137" lon="17.890657690679">
        <ele>59.4</ele>
        <time>2018-01-14T13:06:02Z</time>
      </trkpt>
      <trkpt lat="62.642088411052" lon="17.890696834152">
        <ele>58.8</ele>
        <time>2018-01-14T13:06:03Z</time>
      </trkpt>
      <trkpt lat="62.642194525906" lon="17.890764727542">
        <ele>57.6</ele>
        <time>2018-01-14T13:06:04Z</time>
      </trkpt>
      <trkpt lat="62.6422721423" lon="17.890814013114">
        <ele>56</ele>
        <time>2018-01-14T13:06:05Z</time>
      </trkpt>
      <trkpt lat="62.642347495581" lon="17.890869585111">
        <ele>54.4</ele>
        <time>2018-01-14T13:06:06Z</time>
      </trkpt>
      <trkpt lat="62.642408348175" lon="17.890917110484">
        <ele>52.8</ele>
        <time>2018-01-14T13:06:07Z</time>
      </trkpt>
      <trkpt lat="62.642451263503" lon="17.890961283097">
        <ele>51.4</ele>
        <time>2018-01-14T13:06:08Z</time>
      </trkpt>
      <trkpt lat="62.64248252799" lon="17.891001097122">
        <ele>50.6</ele>
        <time>2018-01-14T13:06:09Z</time>
      </trkpt>
      <trkpt lat="62.642513708658" lon="17.891054406006">
        <ele>50.2</ele>
        <time>2018-01-14T13:06:10Z</time>
      </trkpt>
      <trkpt lat="62.642535753055" lon="17.891086005769">
        <ele>50.4</ele>
        <time>2018-01-14T13:06:11Z</time>
      </trkpt>
      <trkpt lat="62.642553857959" lon="17.891123389043">
        <ele>51</ele>
        <time>2018-01-14T13:06:12Z</time>
      </trkpt>
      <trkpt lat="62.64256215604" lon="17.891148618562">
        <ele>51.6</ele>
        <time>2018-01-14T13:06:13Z</time>
      </trkpt>
      <trkpt lat="62.642572465777" lon="17.891188097311">
        <ele>52</ele>
        <time>2018-01-14T13:06:14Z</time>
      </trkpt>
      <trkpt lat="62.642580428582" lon="17.891228917164">
        <ele>52.6</ele>
        <time>2018-01-14T13:06:15Z</time>
      </trkpt>
      <trkpt lat="62.642581937324" lon="17.89127032375">
        <ele>53</ele>
        <time>2018-01-14T13:06:16Z</time>
      </trkpt>
      <trkpt lat="62.642582943152" lon="17.891311143603">
        <ele>53.4</ele>
        <time>2018-01-14T13:06:17Z</time>
      </trkpt>
      <trkpt lat="62.642580680039" lon="17.891366967057">
        <ele>53.6</ele>
        <time>2018-01-14T13:06:18Z</time>
      </trkpt>
      <trkpt lat="62.642574393614" lon="17.891415917353">
        <ele>53.8</ele>
        <time>2018-01-14T13:06:19Z</time>
      </trkpt>
      <trkpt lat="62.642563161868" lon="17.891452797713">
        <ele>54</ele>
        <time>2018-01-14T13:06:20Z</time>
      </trkpt>
      <trkpt lat="62.642549918466" lon="17.891508202072">
        <ele>54.2</ele>
        <time>2018-01-14T13:06:21Z</time>
      </trkpt>
      <trkpt lat="62.642514463029" lon="17.891595290013">
        <ele>54.4</ele>
        <time>2018-01-14T13:06:22Z</time>
      </trkpt>
      <trkpt lat="62.642482863266" lon="17.891646838698">
        <ele>54.4</ele>
        <time>2018-01-14T13:06:23Z</time>
      </trkpt>
      <trkpt lat="62.642444474164" lon="17.891711630785">
        <ele>54</ele>
        <time>2018-01-14T13:06:24Z</time>
      </trkpt>
      <trkpt lat="62.642403235216" lon="17.891770806999">
        <ele>53.6</ele>
        <time>2018-01-14T13:06:25Z</time>
      </trkpt>
      <trkpt lat="62.64237775424" lon="17.891808525549">
        <ele>53.2</ele>
        <time>2018-01-14T13:06:26Z</time>
      </trkpt>
      <trkpt lat="62.642353530549" lon="17.891841717873">
        <ele>53</ele>
        <time>2018-01-14T13:06:27Z</time>
      </trkpt>
      <trkpt lat="62.642331150876" lon="17.891879101147">
        <ele>52.8</ele>
        <time>2018-01-14T13:06:28Z</time>
      </trkpt>
      <trkpt lat="62.642307178642" lon="17.891892847463">
        <ele>52.8</ele>
        <time>2018-01-14T13:06:29Z</time>
      </trkpt>
      <trkpt lat="62.642277506716" lon="17.891919418086">
        <ele>53.2</ele>
        <time>2018-01-14T13:06:30Z</time>
      </trkpt>
      <trkpt lat="62.642257473975" lon="17.891932577669">
        <ele>53.4</ele>
        <time>2018-01-14T13:06:31Z</time>
      </trkpt>
      <trkpt lat="62.642245152582" lon="17.891940456655">
        <ele>53.6</ele>
        <time>2018-01-14T13:06:32Z</time>
      </trkpt>
      <trkpt lat="62.642236183949" lon="17.891942049216">
        <ele>53.8</ele>
        <time>2018-01-14T13:06:33Z</time>
      </trkpt>
      <trkpt lat="62.642216235027" lon="17.89194590489">
        <ele>54</ele>
        <time>2018-01-14T13:06:34Z</time>
      </trkpt>
      <trkpt lat="62.642204584186" lon="17.891946994537">
        <ele>54.2</ele>
        <time>2018-01-14T13:06:35Z</time>
      </trkpt>
      <trkpt lat="62.642191843698" lon="17.891951939858">
        <ele>54.6</ele>
        <time>2018-01-14T13:06:36Z</time>
      </trkpt>
      <trkpt lat="62.64217491226" lon="17.891959735025">
        <ele>54.8</ele>
        <time>2018-01-14T13:06:37Z</time>
      </trkpt>
      <trkpt lat="62.64215898665" lon="17.89196685964">
        <ele>55</ele>
        <time>2018-01-14T13:06:38Z</time>
      </trkpt>
      <trkpt lat="62.642141719936" lon="17.891970296219">
        <ele>55.2</ele>
        <time>2018-01-14T13:06:39Z</time>
      </trkpt>
      <trkpt lat="62.64212210629" lon="17.891973397522">
        <ele>55.2</ele>
        <time>2018-01-14T13:06:40Z</time>
      </trkpt>
      <trkpt lat="62.642103582291" lon="17.891972643151">
        <ele>55.4</ele>
        <time>2018-01-14T13:06:41Z</time>
      </trkpt>
      <trkpt lat="62.642086315577" lon="17.89197524154">
        <ele>55.6</ele>
        <time>2018-01-14T13:06:42Z</time>
      </trkpt>
      <trkpt lat="62.64207600584" lon="17.891978510481">
        <ele>55.8</ele>
        <time>2018-01-14T13:06:43Z</time>
      </trkpt>
      <trkpt lat="62.642063768266" lon="17.891978510481">
        <ele>56.2</ele>
        <time>2018-01-14T13:06:44Z</time>
      </trkpt>
      <trkpt lat="62.642048261751" lon="17.891980103042">
        <ele>56.6</ele>
        <time>2018-01-14T13:06:45Z</time>
      </trkpt>
      <trkpt lat="62.642033928702" lon="17.891985886553">
        <ele>56.8</ele>
        <time>2018-01-14T13:06:46Z</time>
      </trkpt>
      <trkpt lat="62.64201649435" lon="17.891991753883">
        <ele>56.8</ele>
        <time>2018-01-14T13:06:47Z</time>
      </trkpt>
      <trkpt lat="62.641999982007" lon="17.891996950661">
        <ele>57.2</ele>
        <time>2018-01-14T13:06:48Z</time>
      </trkpt>
      <trkpt lat="62.641979697809" lon="17.892006506027">
        <ele>57.4</ele>
        <time>2018-01-14T13:06:49Z</time>
      </trkpt>
      <trkpt lat="62.641966873502" lon="17.89201044552">
        <ele>57.6</ele>
        <time>2018-01-14T13:06:50Z</time>
      </trkpt>
      <trkpt lat="62.641958072507" lon="17.89202804751">
        <ele>57.8</ele>
        <time>2018-01-14T13:06:51Z</time>
      </trkpt>
      <trkpt lat="62.641946170209" lon="17.892052522658">
        <ele>58.2</ele>
        <time>2018-01-14T13:06:52Z</time>
      </trkpt>
      <trkpt lat="62.641934267911" lon="17.892075321426">
        <ele>58.2</ele>
        <time>2018-01-14T13:06:53Z</time>
      </trkpt>
      <trkpt lat="62.641919683405" lon="17.892099880393">
        <ele>58.4</ele>
        <time>2018-01-14T13:06:54Z</time>
      </trkpt>
      <trkpt lat="62.64191004422" lon="17.892119494039">
        <ele>58.8</ele>
        <time>2018-01-14T13:06:55Z</time>
      </trkpt>
      <trkpt lat="62.641902165234" lon="17.892135503468">
        <ele>59</ele>
        <time>2018-01-14T13:06:56Z</time>
      </trkpt>
      <trkpt lat="62.641896800818" lon="17.892146735214">
        <ele>59.2</ele>
        <time>2018-01-14T13:06:57Z</time>
      </trkpt>
      <trkpt lat="62.641893615696" lon="17.892158469874">
        <ele>59.4</ele>
        <time>2018-01-14T13:06:58Z</time>
      </trkpt>
      <trkpt lat="62.641889760022" lon="17.892183280298">
        <ele>59.4</ele>
        <time>2018-01-14T13:06:59Z</time>
      </trkpt>
      <trkpt lat="62.641887329271" lon="17.892207671627">
        <ele>59.6</ele>
        <time>2018-01-14T13:07:00Z</time>
      </trkpt>
      <trkpt lat="62.641891101126" lon="17.892235750992">
        <ele>59.8</ele>
        <time>2018-01-14T13:07:01Z</time>
      </trkpt>
      <trkpt lat="62.641891268764" lon="17.892269949144">
        <ele>60</ele>
        <time>2018-01-14T13:07:02Z</time>
      </trkpt>
      <trkpt lat="62.64189244223" lon="17.892290065704">
        <ele>60.2</ele>
        <time>2018-01-14T13:07:03Z</time>
      </trkpt>
      <trkpt lat="62.641898561017" lon="17.892329125358">
        <ele>60.4</ele>
        <time>2018-01-14T13:07:04Z</time>
      </trkpt>
      <trkpt lat="62.641901997596" lon="17.892358629646">
        <ele>60.6</ele>
        <time>2018-01-14T13:07:05Z</time>
      </trkpt>
      <trkpt lat="62.641907026736" lon="17.892402215526">
        <ele>61</ele>
        <time>2018-01-14T13:07:06Z</time>
      </trkpt>
      <trkpt lat="62.641906523822" lon="17.892449992356">
        <ele>61</ele>
        <time>2018-01-14T13:07:07Z</time>
      </trkpt>
      <trkpt lat="62.641902751967" lon="17.892488800553">
        <ele>61</ele>
        <time>2018-01-14T13:07:08Z</time>
      </trkpt>
      <trkpt lat="62.641900488854" lon="17.892522914886">
        <ele>61</ele>
        <time>2018-01-14T13:07:09Z</time>
      </trkpt>
      <trkpt lat="62.641902668148" lon="17.892554766106">
        <ele>61</ele>
        <time>2018-01-14T13:07:10Z</time>
      </trkpt>
      <trkpt lat="62.641904093071" lon="17.892580330901">
        <ele>61.2</ele>
        <time>2018-01-14T13:07:11Z</time>
      </trkpt>
      <trkpt lat="62.64190250051" lon="17.892610254284">
        <ele>61.2</ele>
        <time>2018-01-14T13:07:12Z</time>
      </trkpt>
      <trkpt lat="62.641901494682" lon="17.892630538482">
        <ele>61.4</ele>
        <time>2018-01-14T13:07:13Z</time>
      </trkpt>
      <trkpt lat="62.641902584329" lon="17.892656354734">
        <ele>61.4</ele>
        <time>2018-01-14T13:07:14Z</time>
      </trkpt>
      <trkpt lat="62.641905266537" lon="17.892679488778">
        <ele>61.6</ele>
        <time>2018-01-14T13:07:15Z</time>
      </trkpt>
      <trkpt lat="62.641900321216" lon="17.89270446684">
        <ele>61.8</ele>
        <time>2018-01-14T13:07:16Z</time>
      </trkpt>
      <trkpt lat="62.641899063931" lon="17.892731205101">
        <ele>61.8</ele>
        <time>2018-01-14T13:07:17Z</time>
      </trkpt>
      <trkpt lat="62.641895627352" lon="17.892752578946">
        <ele>62</ele>
        <time>2018-01-14T13:07:18Z</time>
      </trkpt>
      <trkpt lat="62.641891855497" lon="17.892777221732">
        <ele>62.2</ele>
        <time>2018-01-14T13:07:19Z</time>
      </trkpt>
      <trkpt lat="62.641894621524" lon="17.892794823722">
        <ele>62.4</ele>
        <time>2018-01-14T13:07:20Z</time>
      </trkpt>
      <trkpt lat="62.641890095298" lon="17.892812425712">
        <ele>62.4</ele>
        <time>2018-01-14T13:07:21Z</time>
      </trkpt>
      <trkpt lat="62.641891184945" lon="17.892821729621">
        <ele>62.6</ele>
        <time>2018-01-14T13:07:22Z</time>
      </trkpt>
      <trkpt lat="62.641887329271" lon="17.892842600552">
        <ele>62.8</ele>
        <time>2018-01-14T13:07:23Z</time>
      </trkpt>
      <trkpt lat="62.641889592384" lon="17.89286623751">
        <ele>62.8</ele>
        <time>2018-01-14T13:07:24Z</time>
      </trkpt>
      <trkpt lat="62.641887329271" lon="17.892885012966">
        <ele>63</ele>
        <time>2018-01-14T13:07:25Z</time>
      </trkpt>
      <trkpt lat="62.641885317615" lon="17.892893143409">
        <ele>63.2</ele>
        <time>2018-01-14T13:07:26Z</time>
      </trkpt>
      <trkpt lat="62.641881881036" lon="17.89290730882">
        <ele>63.4</ele>
        <time>2018-01-14T13:07:27Z</time>
      </trkpt>
      <trkpt lat="62.641879701742" lon="17.892937818936">
        <ele>63.6</ele>
        <time>2018-01-14T13:07:28Z</time>
      </trkpt>
      <trkpt lat="62.641878444457" lon="17.892963551369">
        <ele>63.8</ele>
        <time>2018-01-14T13:07:29Z</time>
      </trkpt>
      <trkpt lat="62.641877187172" lon="17.892981320997">
        <ele>64</ele>
        <time>2018-01-14T13:07:30Z</time>
      </trkpt>
      <trkpt lat="62.641873834412" lon="17.892998084797">
        <ele>64.4</ele>
        <time>2018-01-14T13:07:31Z</time>
      </trkpt>
      <trkpt lat="62.641874588783" lon="17.893011328199">
        <ele>64.6</ele>
        <time>2018-01-14T13:07:32Z</time>
      </trkpt>
      <trkpt lat="62.641872493308" lon="17.893021805574">
        <ele>64.8</ele>
        <time>2018-01-14T13:07:33Z</time>
      </trkpt>
      <trkpt lat="62.641867967082" lon="17.893046615998">
        <ele>65</ele>
        <time>2018-01-14T13:07:34Z</time>
      </trkpt>
      <trkpt lat="62.641868302358" lon="17.893068492757">
        <ele>65.4</ele>
        <time>2018-01-14T13:07:35Z</time>
      </trkpt>
      <trkpt lat="62.641865033417" lon="17.893083831634">
        <ele>65.6</ele>
        <time>2018-01-14T13:07:36Z</time>
      </trkpt>
      <trkpt lat="62.641864195227" lon="17.89309925433">
        <ele>65.8</ele>
        <time>2018-01-14T13:07:37Z</time>
      </trkpt>
      <trkpt lat="62.641861345381" lon="17.893106881859">
        <ele>66</ele>
        <time>2018-01-14T13:07:38Z</time>
      </trkpt>
      <trkpt lat="62.641858244078" lon="17.89311769451">
        <ele>66.2</ele>
        <time>2018-01-14T13:07:39Z</time>
      </trkpt>
      <trkpt lat="62.641854639861" lon="17.893141499106">
        <ele>66.2</ele>
        <time>2018-01-14T13:07:40Z</time>
      </trkpt>
      <trkpt lat="62.641850197454" lon="17.893162537675">
        <ele>66.6</ele>
        <time>2018-01-14T13:07:41Z</time>
      </trkpt>
      <trkpt lat="62.641847682884" lon="17.893185839357">
        <ele>67</ele>
        <time>2018-01-14T13:07:42Z</time>
      </trkpt>
      <trkpt lat="62.641844916857" lon="17.893206626469">
        <ele>67</ele>
        <time>2018-01-14T13:07:43Z</time>
      </trkpt>
      <trkpt lat="62.641843994848" lon="17.893219786052">
        <ele>67.2</ele>
        <time>2018-01-14T13:07:44Z</time>
      </trkpt>
      <trkpt lat="62.641839133346" lon="17.893240740802">
        <ele>67.4</ele>
        <time>2018-01-14T13:07:45Z</time>
      </trkpt>
      <trkpt lat="62.641830499989" lon="17.893281393017">
        <ele>67.6</ele>
        <time>2018-01-14T13:07:46Z</time>
      </trkpt>
      <trkpt lat="62.641824045926" lon="17.893307879821">
        <ele>67.8</ele>
        <time>2018-01-14T13:07:47Z</time>
      </trkpt>
      <trkpt lat="62.641822537184" lon="17.893335372453">
        <ele>67.8</ele>
        <time>2018-01-14T13:07:48Z</time>
      </trkpt>
      <trkpt lat="62.641814742017" lon="17.893379628885">
        <ele>68</ele>
        <time>2018-01-14T13:07:49Z</time>
      </trkpt>
      <trkpt lat="62.64181197599" lon="17.893416676883">
        <ele>68.4</ele>
        <time>2018-01-14T13:07:50Z</time>
      </trkpt>
      <trkpt lat="62.641805102832" lon="17.893453724881">
        <ele>68.8</ele>
        <time>2018-01-14T13:07:51Z</time>
      </trkpt>
      <trkpt lat="62.641798397312" lon="17.893492533078">
        <ele>69</ele>
        <time>2018-01-14T13:07:52Z</time>
      </trkpt>
      <trkpt lat="62.64179185943" lon="17.893519271339">
        <ele>69.2</ele>
        <time>2018-01-14T13:07:53Z</time>
      </trkpt>
      <trkpt lat="62.641784818634" lon="17.893551457835">
        <ele>69.2</ele>
        <time>2018-01-14T13:07:54Z</time>
      </trkpt>
      <trkpt lat="62.641778196933" lon="17.89357869901">
        <ele>69.4</ele>
        <time>2018-01-14T13:07:55Z</time>
      </trkpt>
      <trkpt lat="62.641769563576" lon="17.893609879678">
        <ele>69.4</ele>
        <time>2018-01-14T13:07:56Z</time>
      </trkpt>
      <trkpt lat="62.641765288807" lon="17.893646173305">
        <ele>69.6</ele>
        <time>2018-01-14T13:07:57Z</time>
      </trkpt>
      <trkpt lat="62.64176168459" lon="17.893678611258">
        <ele>70</ele>
        <time>2018-01-14T13:07:58Z</time>
      </trkpt>
      <trkpt lat="62.641756236355" lon="17.893716581265">
        <ele>70.2</ele>
        <time>2018-01-14T13:07:59Z</time>
      </trkpt>
      <trkpt lat="62.641755733441" lon="17.893750611779">
        <ele>70.6</ele>
        <time>2018-01-14T13:08:00Z</time>
      </trkpt>
      <trkpt lat="62.641754895251" lon="17.89379327565">
        <ele>70.8</ele>
        <time>2018-01-14T13:08:01Z</time>
      </trkpt>
      <trkpt lat="62.641755733441" lon="17.89383015601">
        <ele>71.2</ele>
        <time>2018-01-14T13:08:02Z</time>
      </trkpt>
      <trkpt lat="62.641761181676" lon="17.893869048026">
        <ele>71.4</ele>
        <time>2018-01-14T13:08:03Z</time>
      </trkpt>
      <trkpt lat="62.641772245784" lon="17.893926631679">
        <ele>71.6</ele>
        <time>2018-01-14T13:08:04Z</time>
      </trkpt>
      <trkpt lat="62.641791188878" lon="17.893966110428">
        <ele>71.8</ele>
        <time>2018-01-14T13:08:05Z</time>
      </trkpt>
      <trkpt lat="62.641818010958" lon="17.893997710191">
        <ele>71.8</ele>
        <time>2018-01-14T13:08:06Z</time>
      </trkpt>
      <trkpt lat="62.641853969309" lon="17.894010785955">
        <ele>71.6</ele>
        <time>2018-01-14T13:08:07Z</time>
      </trkpt>
      <trkpt lat="62.641899063931" lon="17.894006930281">
        <ele>71.4</ele>
        <time>2018-01-14T13:08:08Z</time>
      </trkpt>
      <trkpt lat="62.64194860096" lon="17.893991339947">
        <ele>71.2</ele>
        <time>2018-01-14T13:08:09Z</time>
      </trkpt>
      <trkpt lat="62.641997970351" lon="17.893968876455">
        <ele>70.6</ele>
        <time>2018-01-14T13:08:10Z</time>
      </trkpt>
      <trkpt lat="62.642042059145" lon="17.893953872854">
        <ele>70</ele>
        <time>2018-01-14T13:08:11Z</time>
      </trkpt>
      <trkpt lat="62.642087321405" lon="17.893949849542">
        <ele>69.4</ele>
        <time>2018-01-14T13:08:12Z</time>
      </trkpt>
      <trkpt lat="62.64212462086" lon="17.893968373541">
        <ele>68.8</ele>
        <time>2018-01-14T13:08:13Z</time>
      </trkpt>
      <trkpt lat="62.64216820674" lon="17.894010618317">
        <ele>68</ele>
        <time>2018-01-14T13:08:14Z</time>
      </trkpt>
      <trkpt lat="62.642197208114" lon="17.894060155346">
        <ele>67.6</ele>
        <time>2018-01-14T13:08:15Z</time>
      </trkpt>
      <trkpt lat="62.64221430719" lon="17.8941327426">
        <ele>67.2</ele>
        <time>2018-01-14T13:08:16Z</time>
      </trkpt>
      <trkpt lat="62.64222688004" lon="17.894195774488">
        <ele>66.6</ele>
        <time>2018-01-14T13:08:17Z</time>
      </trkpt>
      <trkpt lat="62.642235764854" lon="17.894250256838">
        <ele>66.4</ele>
        <time>2018-01-14T13:08:18Z</time>
      </trkpt>
      <trkpt lat="62.642241799822" lon="17.894321754445">
        <ele>66</ele>
        <time>2018-01-14T13:08:19Z</time>
      </trkpt>
      <trkpt lat="62.64224532022" lon="17.894400711943">
        <ele>65.6</ele>
        <time>2018-01-14T13:08:20Z</time>
      </trkpt>
      <trkpt lat="62.642243057107" lon="17.894484614762">
        <ele>65</ele>
        <time>2018-01-14T13:08:21Z</time>
      </trkpt>
      <trkpt lat="62.642235094302" lon="17.894595004385">
        <ele>64.6</ele>
        <time>2018-01-14T13:08:22Z</time>
      </trkpt>
      <trkpt lat="62.64221933633" lon="17.894687959656">
        <ele>64.2</ele>
        <time>2018-01-14T13:08:23Z</time>
      </trkpt>
      <trkpt lat="62.642196034648" lon="17.894796421442">
        <ele>63.4</ele>
        <time>2018-01-14T13:08:24Z</time>
      </trkpt>
      <trkpt lat="62.642171224224" lon="17.894898764441">
        <ele>62.8</ele>
        <time>2018-01-14T13:08:25Z</time>
      </trkpt>
      <trkpt lat="62.642152951682" lon="17.895001023621">
        <ele>62</ele>
        <time>2018-01-14T13:08:26Z</time>
      </trkpt>
      <trkpt lat="62.642137696624" lon="17.89509414653">
        <ele>61.8</ele>
        <time>2018-01-14T13:08:27Z</time>
      </trkpt>
      <trkpt lat="62.642129733819" lon="17.895199255556">
        <ele>61.4</ele>
        <time>2018-01-14T13:08:28Z</time>
      </trkpt>
      <trkpt lat="62.642124704679" lon="17.895332276309">
        <ele>61.2</ele>
        <time>2018-01-14T13:08:29Z</time>
      </trkpt>
      <trkpt lat="62.642125626688" lon="17.895502931793">
        <ele>61</ele>
        <time>2018-01-14T13:08:30Z</time>
      </trkpt>
      <trkpt lat="62.642116909512" lon="17.895683980833">
        <ele>60.6</ele>
        <time>2018-01-14T13:08:31Z</time>
      </trkpt>
      <trkpt lat="62.64210115154" lon="17.895845248589">
        <ele>59.8</ele>
        <time>2018-01-14T13:08:32Z</time>
      </trkpt>
      <trkpt lat="62.642083130455" lon="17.895969803623">
        <ele>58.8</ele>
        <time>2018-01-14T13:08:33Z</time>
      </trkpt>
      <trkpt lat="62.64205086014" lon="17.896140291469">
        <ele>57.2</ele>
        <time>2018-01-14T13:08:34Z</time>
      </trkpt>
      <trkpt lat="62.642019260377" lon="17.896277838448">
        <ele>55.6</ele>
        <time>2018-01-14T13:08:35Z</time>
      </trkpt>
      <trkpt lat="62.641990342822" lon="17.896401974387">
        <ele>54.2</ele>
        <time>2018-01-14T13:08:36Z</time>
      </trkpt>
      <trkpt lat="62.641962431095" lon="17.896526529421">
        <ele>53.4</ele>
        <time>2018-01-14T13:08:37Z</time>
      </trkpt>
      <trkpt lat="62.64193770449" lon="17.896637338139">
        <ele>53</ele>
        <time>2018-01-14T13:08:38Z</time>
      </trkpt>
      <trkpt lat="62.64191507336" lon="17.896753846549">
        <ele>52.8</ele>
        <time>2018-01-14T13:08:39Z</time>
      </trkpt>
      <trkpt lat="62.641896214085" lon="17.896872282796">
        <ele>52.6</ele>
        <time>2018-01-14T13:08:40Z</time>
      </trkpt>
      <trkpt lat="62.641884479425" lon="17.896987953016">
        <ele>52.6</ele>
        <time>2018-01-14T13:08:41Z</time>
      </trkpt>
      <trkpt lat="62.641875594611" lon="17.897117034276">
        <ele>52.4</ele>
        <time>2018-01-14T13:08:42Z</time>
      </trkpt>
      <trkpt lat="62.641868637634" lon="17.897240583482">
        <ele>52</ele>
        <time>2018-01-14T13:08:43Z</time>
      </trkpt>
      <trkpt lat="62.641860255734" lon="17.897381147945">
        <ele>51.6</ele>
        <time>2018-01-14T13:08:44Z</time>
      </trkpt>
      <trkpt lat="62.641853382576" lon="17.897504194237">
        <ele>51.4</ele>
        <time>2018-01-14T13:08:45Z</time>
      </trkpt>
      <trkpt lat="62.641846593237" lon="17.897649117288">
        <ele>50.8</ele>
        <time>2018-01-14T13:08:46Z</time>
      </trkpt>
      <trkpt lat="62.641834020387" lon="17.897769984286">
        <ele>50.2</ele>
        <time>2018-01-14T13:08:47Z</time>
      </trkpt>
      <trkpt lat="62.641807198307" lon="17.897818096392">
        <ele>49.8</ele>
        <time>2018-01-14T13:08:48Z</time>
      </trkpt>
      <trkpt lat="62.641794876914" lon="17.897913901509">
        <ele>49.4</ele>
        <time>2018-01-14T13:08:49Z</time>
      </trkpt>
      <trkpt lat="62.641791272697" lon="17.898015071042">
        <ele>49.2</ele>
        <time>2018-01-14T13:08:50Z</time>
      </trkpt>
      <trkpt lat="62.641789931593" lon="17.898090172866">
        <ele>49.2</ele>
        <time>2018-01-14T13:08:51Z</time>
      </trkpt>
      <trkpt lat="62.641788255213" lon="17.898170806744">
        <ele>49.4</ele>
        <time>2018-01-14T13:08:52Z</time>
      </trkpt>
      <trkpt lat="62.641786662652" lon="17.898251021527">
        <ele>49.4</ele>
        <time>2018-01-14T13:08:53Z</time>
      </trkpt>
      <trkpt lat="62.641783142254" lon="17.898326961541">
        <ele>49.8</ele>
        <time>2018-01-14T13:08:54Z</time>
      </trkpt>
      <trkpt lat="62.641781298236" lon="17.898392256542">
        <ele>50.2</ele>
        <time>2018-01-14T13:08:55Z</time>
      </trkpt>
      <trkpt lat="62.641782471702" lon="17.898449085824">
        <ele>50.6</ele>
        <time>2018-01-14T13:08:56Z</time>
      </trkpt>
      <trkpt lat="62.641782890797" lon="17.898507172391">
        <ele>51</ele>
        <time>2018-01-14T13:08:57Z</time>
      </trkpt>
      <trkpt lat="62.641781717331" lon="17.898581268387">
        <ele>51.2</ele>
        <time>2018-01-14T13:08:58Z</time>
      </trkpt>
      <trkpt lat="62.641778364571" lon="17.898651592528">
        <ele>51.4</ele>
        <time>2018-01-14T13:08:59Z</time>
      </trkpt>
      <trkpt lat="62.641778364571" lon="17.898705152869">
        <ele>51.8</ele>
        <time>2018-01-14T13:09:00Z</time>
      </trkpt>
      <trkpt lat="62.641775598544" lon="17.898765837825">
        <ele>52</ele>
        <time>2018-01-14T13:09:01Z</time>
      </trkpt>
      <trkpt lat="62.641775011811" lon="17.898833731215">
        <ele>52</ele>
        <time>2018-01-14T13:09:02Z</time>
      </trkpt>
      <trkpt lat="62.641773167793" lon="17.898892069239">
        <ele>52.2</ele>
        <time>2018-01-14T13:09:03Z</time>
      </trkpt>
      <trkpt lat="62.641768054834" lon="17.898956777507">
        <ele>52.2</ele>
        <time>2018-01-14T13:09:04Z</time>
      </trkpt>
      <trkpt lat="62.641759253839" lon="17.899015283169">
        <ele>52.2</ele>
        <time>2018-01-14T13:09:05Z</time>
      </trkpt>
      <trkpt lat="62.641747016265" lon="17.899073369736">
        <ele>52.4</ele>
        <time>2018-01-14T13:09:06Z</time>
      </trkpt>
      <trkpt lat="62.641735616881" lon="17.899123828774">
        <ele>52.6</ele>
        <time>2018-01-14T13:09:07Z</time>
      </trkpt>
      <trkpt lat="62.641724468954" lon="17.89914847156">
        <ele>52.6</ele>
        <time>2018-01-14T13:09:08Z</time>
      </trkpt>
      <trkpt lat="62.641714997407" lon="17.899168085206">
        <ele>53</ele>
        <time>2018-01-14T13:09:09Z</time>
      </trkpt>
    </trkseg>
  </trk>
</gpx>